<?xml version="1.0" encoding="utf-8"?>
<gpx xmlns:xsi="http://www.w3.org/2001/XMLSchema-instance" xmlns:xsd="http://www.w3.org/2001/XMLSchema" version="1.1" creator="Shapelink.com" xmlns="http://www.topografix.com/GPX/1/1" xmlns:gpxtpx="http://www.garmin.com/xmlschemas/TrackPointExtension/v1">
  <metadata>
    <name>Cykling - Trainer 44.37 km, 2020-05-23</name>
    <desc></desc>
    <author><name>Alexander Engvall</name></author> 
    <time>2020-05-23T18:51:22Z</time>
  </metadata>
  <trk>
    <name>Cykling - Trainer 44.37 km, 2020-05-23</name>
    <trkseg>
      <trkpt lat="39.884373" lon="3.079777">
        <ele>4.2</ele>
        <time>2020-05-23T18:51:22Z</time>
      </trkpt>
      <trkpt lat="39.884384" lon="3.079778">
        <ele>4.2</ele>
        <time>2020-05-23T18:51:23Z</time>
      </trkpt>
      <trkpt lat="39.884399" lon="3.07978">
        <ele>4.2</ele>
        <time>2020-05-23T18:51:24Z</time>
      </trkpt>
      <trkpt lat="39.884411" lon="3.079781">
        <ele>4.2</ele>
        <time>2020-05-23T18:51:25Z</time>
      </trkpt>
      <trkpt lat="39.884426" lon="3.079783">
        <ele>4.2</ele>
        <time>2020-05-23T18:51:26Z</time>
      </trkpt>
      <trkpt lat="39.884441" lon="3.079783">
        <ele>4.2</ele>
        <time>2020-05-23T18:51:28Z</time>
      </trkpt>
      <trkpt lat="39.884453" lon="3.079784">
        <ele>4.2</ele>
        <time>2020-05-23T18:51:29Z</time>
      </trkpt>
      <trkpt lat="39.884464" lon="3.079784">
        <ele>4.2</ele>
        <time>2020-05-23T18:51:30Z</time>
      </trkpt>
      <trkpt lat="39.884479" lon="3.079784">
        <ele>4.2</ele>
        <time>2020-05-23T18:51:31Z</time>
      </trkpt>
      <trkpt lat="39.884487" lon="3.079783">
        <ele>4.2</ele>
        <time>2020-05-23T18:51:32Z</time>
      </trkpt>
      <trkpt lat="39.884499" lon="3.079783">
        <ele>4.2</ele>
        <time>2020-05-23T18:51:33Z</time>
      </trkpt>
      <trkpt lat="39.884506" lon="3.079782">
        <ele>4.2</ele>
        <time>2020-05-23T18:51:34Z</time>
      </trkpt>
      <trkpt lat="39.884514" lon="3.079781">
        <ele>4.1</ele>
        <time>2020-05-23T18:51:36Z</time>
      </trkpt>
      <trkpt lat="39.884521" lon="3.079781">
        <ele>4.1</ele>
        <time>2020-05-23T18:51:37Z</time>
      </trkpt>
      <trkpt lat="39.884525" lon="3.07978">
        <ele>4.1</ele>
        <time>2020-05-23T18:51:38Z</time>
      </trkpt>
      <trkpt lat="39.884529" lon="3.079779">
        <ele>4.1</ele>
        <time>2020-05-23T18:51:39Z</time>
      </trkpt>
      <trkpt lat="39.884529" lon="3.079779">
        <ele>4.1</ele>
        <time>2020-05-23T18:51:40Z</time>
      </trkpt>
      <trkpt lat="39.884529" lon="3.079779">
        <ele>4.1</ele>
        <time>2020-05-23T18:51:41Z</time>
      </trkpt>
      <trkpt lat="39.884529" lon="3.079779">
        <ele>4.1</ele>
        <time>2020-05-23T18:51:42Z</time>
      </trkpt>
      <trkpt lat="39.884529" lon="3.079779">
        <ele>4.1</ele>
        <time>2020-05-23T18:51:43Z</time>
      </trkpt>
      <trkpt lat="39.884529" lon="3.079779">
        <ele>4.1</ele>
        <time>2020-05-23T18:51:44Z</time>
      </trkpt>
      <trkpt lat="39.884529" lon="3.079779">
        <ele>4.1</ele>
        <time>2020-05-23T18:51:46Z</time>
      </trkpt>
      <trkpt lat="39.884529" lon="3.079779">
        <ele>4.1</ele>
        <time>2020-05-23T18:51:47Z</time>
      </trkpt>
      <trkpt lat="39.884548" lon="3.079777">
        <ele>4.1</ele>
        <time>2020-05-23T18:51:48Z</time>
      </trkpt>
      <trkpt lat="39.884586" lon="3.07977">
        <ele>4.1</ele>
        <time>2020-05-23T18:51:49Z</time>
      </trkpt>
      <trkpt lat="39.884636" lon="3.079765">
        <ele>4</ele>
        <time>2020-05-23T18:51:50Z</time>
      </trkpt>
      <trkpt lat="39.884689" lon="3.079759">
        <ele>4</ele>
        <time>2020-05-23T18:51:51Z</time>
      </trkpt>
      <trkpt lat="39.88475" lon="3.079741">
        <ele>4</ele>
        <time>2020-05-23T18:51:53Z</time>
      </trkpt>
      <trkpt lat="39.884811" lon="3.079715">
        <ele>3.9</ele>
        <time>2020-05-23T18:51:54Z</time>
      </trkpt>
      <trkpt lat="39.88488" lon="3.079685">
        <ele>3.9</ele>
        <time>2020-05-23T18:51:55Z</time>
      </trkpt>
      <trkpt lat="39.884937" lon="3.079661">
        <ele>3.9</ele>
        <time>2020-05-23T18:51:56Z</time>
      </trkpt>
      <trkpt lat="39.885014" lon="3.079634">
        <ele>3.9</ele>
        <time>2020-05-23T18:51:57Z</time>
      </trkpt>
      <trkpt lat="39.885075" lon="3.079611">
        <ele>3.9</ele>
        <time>2020-05-23T18:51:58Z</time>
      </trkpt>
      <trkpt lat="39.885139" lon="3.079587">
        <ele>3.9</ele>
        <time>2020-05-23T18:51:59Z</time>
      </trkpt>
      <trkpt lat="39.885216" lon="3.079559">
        <ele>3.9</ele>
        <time>2020-05-23T18:52:00Z</time>
      </trkpt>
      <trkpt lat="39.885281" lon="3.079535">
        <ele>3.9</ele>
        <time>2020-05-23T18:52:01Z</time>
      </trkpt>
      <trkpt lat="39.885361" lon="3.079507">
        <ele>3.9</ele>
        <time>2020-05-23T18:52:03Z</time>
      </trkpt>
      <trkpt lat="39.885437" lon="3.079478">
        <ele>3.9</ele>
        <time>2020-05-23T18:52:04Z</time>
      </trkpt>
      <trkpt lat="39.885517" lon="3.07945">
        <ele>3.9</ele>
        <time>2020-05-23T18:52:05Z</time>
      </trkpt>
      <trkpt lat="39.885582" lon="3.079426">
        <ele>3.9</ele>
        <time>2020-05-23T18:52:06Z</time>
      </trkpt>
      <trkpt lat="39.885658" lon="3.079398">
        <ele>4</ele>
        <time>2020-05-23T18:52:07Z</time>
      </trkpt>
      <trkpt lat="39.885738" lon="3.07937">
        <ele>4</ele>
        <time>2020-05-23T18:52:08Z</time>
      </trkpt>
      <trkpt lat="39.885803" lon="3.079346">
        <ele>4</ele>
        <time>2020-05-23T18:52:09Z</time>
      </trkpt>
      <trkpt lat="39.88588" lon="3.079318">
        <ele>4</ele>
        <time>2020-05-23T18:52:11Z</time>
      </trkpt>
      <trkpt lat="39.88596" lon="3.079289">
        <ele>4</ele>
        <time>2020-05-23T18:52:12Z</time>
      </trkpt>
      <trkpt lat="39.886028" lon="3.079265">
        <ele>4</ele>
        <time>2020-05-23T18:52:13Z</time>
      </trkpt>
      <trkpt lat="39.886108" lon="3.079236">
        <ele>4</ele>
        <time>2020-05-23T18:52:14Z</time>
      </trkpt>
      <trkpt lat="39.886188" lon="3.079207">
        <ele>4.1</ele>
        <time>2020-05-23T18:52:15Z</time>
      </trkpt>
      <trkpt lat="39.886269" lon="3.079178">
        <ele>4.1</ele>
        <time>2020-05-23T18:52:16Z</time>
      </trkpt>
      <trkpt lat="39.886349" lon="3.079149">
        <ele>4.2</ele>
        <time>2020-05-23T18:52:18Z</time>
      </trkpt>
      <trkpt lat="39.886429" lon="3.079119">
        <ele>4.1</ele>
        <time>2020-05-23T18:52:19Z</time>
      </trkpt>
      <trkpt lat="39.886505" lon="3.079089">
        <ele>4.1</ele>
        <time>2020-05-23T18:52:20Z</time>
      </trkpt>
      <trkpt lat="39.886589" lon="3.079059">
        <ele>4</ele>
        <time>2020-05-23T18:52:21Z</time>
      </trkpt>
      <trkpt lat="39.886658" lon="3.079033">
        <ele>4</ele>
        <time>2020-05-23T18:52:22Z</time>
      </trkpt>
      <trkpt lat="39.886742" lon="3.079001">
        <ele>4</ele>
        <time>2020-05-23T18:52:23Z</time>
      </trkpt>
      <trkpt lat="39.886825" lon="3.078968">
        <ele>4.1</ele>
        <time>2020-05-23T18:52:25Z</time>
      </trkpt>
      <trkpt lat="39.886909" lon="3.078936">
        <ele>4.1</ele>
        <time>2020-05-23T18:52:26Z</time>
      </trkpt>
      <trkpt lat="39.886978" lon="3.078909">
        <ele>4.1</ele>
        <time>2020-05-23T18:52:27Z</time>
      </trkpt>
      <trkpt lat="39.887062" lon="3.078877">
        <ele>4.2</ele>
        <time>2020-05-23T18:52:28Z</time>
      </trkpt>
      <trkpt lat="39.887146" lon="3.078845">
        <ele>4.2</ele>
        <time>2020-05-23T18:52:29Z</time>
      </trkpt>
      <trkpt lat="39.88723" lon="3.078813">
        <ele>4.2</ele>
        <time>2020-05-23T18:52:30Z</time>
      </trkpt>
      <trkpt lat="39.887318" lon="3.078782">
        <ele>4.2</ele>
        <time>2020-05-23T18:52:32Z</time>
      </trkpt>
      <trkpt lat="39.887401" lon="3.078751">
        <ele>4.2</ele>
        <time>2020-05-23T18:52:33Z</time>
      </trkpt>
      <trkpt lat="39.887485" lon="3.07872">
        <ele>4.2</ele>
        <time>2020-05-23T18:52:34Z</time>
      </trkpt>
      <trkpt lat="39.887554" lon="3.078695">
        <ele>4.2</ele>
        <time>2020-05-23T18:52:35Z</time>
      </trkpt>
      <trkpt lat="39.887638" lon="3.078667">
        <ele>4.2</ele>
        <time>2020-05-23T18:52:36Z</time>
      </trkpt>
      <trkpt lat="39.887722" lon="3.07864">
        <ele>4.2</ele>
        <time>2020-05-23T18:52:37Z</time>
      </trkpt>
      <trkpt lat="39.887806" lon="3.078613">
        <ele>4.2</ele>
        <time>2020-05-23T18:52:39Z</time>
      </trkpt>
      <trkpt lat="39.887894" lon="3.078587">
        <ele>4.2</ele>
        <time>2020-05-23T18:52:40Z</time>
      </trkpt>
      <trkpt lat="39.887978" lon="3.078565">
        <ele>4.2</ele>
        <time>2020-05-23T18:52:41Z</time>
      </trkpt>
      <trkpt lat="39.88805" lon="3.078547">
        <ele>4.2</ele>
        <time>2020-05-23T18:52:42Z</time>
      </trkpt>
      <trkpt lat="39.888138" lon="3.078528">
        <ele>4.1</ele>
        <time>2020-05-23T18:52:43Z</time>
      </trkpt>
      <trkpt lat="39.888226" lon="3.078509">
        <ele>4.2</ele>
        <time>2020-05-23T18:52:44Z</time>
      </trkpt>
      <trkpt lat="39.888313" lon="3.078492">
        <ele>4.2</ele>
        <time>2020-05-23T18:52:46Z</time>
      </trkpt>
      <trkpt lat="39.888397" lon="3.078472">
        <ele>4.1</ele>
        <time>2020-05-23T18:52:47Z</time>
      </trkpt>
      <trkpt lat="39.88847" lon="3.078454">
        <ele>4.1</ele>
        <time>2020-05-23T18:52:48Z</time>
      </trkpt>
      <trkpt lat="39.888557" lon="3.078431">
        <ele>4.1</ele>
        <time>2020-05-23T18:52:49Z</time>
      </trkpt>
      <trkpt lat="39.888649" lon="3.078407">
        <ele>4.1</ele>
        <time>2020-05-23T18:52:50Z</time>
      </trkpt>
      <trkpt lat="39.888737" lon="3.078384">
        <ele>4.1</ele>
        <time>2020-05-23T18:52:51Z</time>
      </trkpt>
      <trkpt lat="39.888809" lon="3.078369">
        <ele>4.2</ele>
        <time>2020-05-23T18:52:52Z</time>
      </trkpt>
      <trkpt lat="39.888901" lon="3.078361">
        <ele>4.2</ele>
        <time>2020-05-23T18:52:54Z</time>
      </trkpt>
      <trkpt lat="39.888992" lon="3.07836">
        <ele>4.2</ele>
        <time>2020-05-23T18:52:55Z</time>
      </trkpt>
      <trkpt lat="39.889084" lon="3.078357">
        <ele>4.2</ele>
        <time>2020-05-23T18:52:56Z</time>
      </trkpt>
      <trkpt lat="39.889179" lon="3.078357">
        <ele>4.2</ele>
        <time>2020-05-23T18:52:57Z</time>
      </trkpt>
      <trkpt lat="39.889267" lon="3.078359">
        <ele>4.3</ele>
        <time>2020-05-23T18:52:58Z</time>
      </trkpt>
      <trkpt lat="39.889359" lon="3.078355">
        <ele>4.3</ele>
        <time>2020-05-23T18:53:00Z</time>
      </trkpt>
      <trkpt lat="39.88945" lon="3.078353">
        <ele>4.3</ele>
        <time>2020-05-23T18:53:01Z</time>
      </trkpt>
      <trkpt lat="39.889542" lon="3.078354">
        <ele>4.3</ele>
        <time>2020-05-23T18:53:02Z</time>
      </trkpt>
      <trkpt lat="39.889633" lon="3.078356">
        <ele>4.3</ele>
        <time>2020-05-23T18:53:03Z</time>
      </trkpt>
      <trkpt lat="39.889725" lon="3.078357">
        <ele>4.3</ele>
        <time>2020-05-23T18:53:04Z</time>
      </trkpt>
      <trkpt lat="39.889812" lon="3.078358">
        <ele>4.3</ele>
        <time>2020-05-23T18:53:06Z</time>
      </trkpt>
      <trkpt lat="39.8899" lon="3.078359">
        <ele>4.3</ele>
        <time>2020-05-23T18:53:07Z</time>
      </trkpt>
      <trkpt lat="39.889992" lon="3.078359">
        <ele>4.3</ele>
        <time>2020-05-23T18:53:08Z</time>
      </trkpt>
      <trkpt lat="39.890079" lon="3.07836">
        <ele>4.4</ele>
        <time>2020-05-23T18:53:09Z</time>
      </trkpt>
      <trkpt lat="39.890167" lon="3.07836">
        <ele>4.4</ele>
        <time>2020-05-23T18:53:10Z</time>
      </trkpt>
      <trkpt lat="39.890255" lon="3.07836">
        <ele>4.3</ele>
        <time>2020-05-23T18:53:12Z</time>
      </trkpt>
      <trkpt lat="39.890343" lon="3.07836">
        <ele>4.3</ele>
        <time>2020-05-23T18:53:13Z</time>
      </trkpt>
      <trkpt lat="39.890419" lon="3.078359">
        <ele>4.3</ele>
        <time>2020-05-23T18:53:14Z</time>
      </trkpt>
      <trkpt lat="39.890507" lon="3.078359">
        <ele>4.3</ele>
        <time>2020-05-23T18:53:15Z</time>
      </trkpt>
      <trkpt lat="39.890583" lon="3.078359">
        <ele>4.2</ele>
        <time>2020-05-23T18:53:16Z</time>
      </trkpt>
      <trkpt lat="39.890659" lon="3.078359">
        <ele>4.2</ele>
        <time>2020-05-23T18:53:17Z</time>
      </trkpt>
      <trkpt lat="39.890751" lon="3.078359">
        <ele>4.2</ele>
        <time>2020-05-23T18:53:18Z</time>
      </trkpt>
      <trkpt lat="39.890823" lon="3.078359">
        <ele>4.2</ele>
        <time>2020-05-23T18:53:19Z</time>
      </trkpt>
      <trkpt lat="39.890915" lon="3.078359">
        <ele>4.2</ele>
        <time>2020-05-23T18:53:20Z</time>
      </trkpt>
      <trkpt lat="39.890991" lon="3.078359">
        <ele>4.2</ele>
        <time>2020-05-23T18:53:21Z</time>
      </trkpt>
      <trkpt lat="39.891083" lon="3.078359">
        <ele>4.1</ele>
        <time>2020-05-23T18:53:23Z</time>
      </trkpt>
      <trkpt lat="39.89117" lon="3.078359">
        <ele>4.1</ele>
        <time>2020-05-23T18:53:24Z</time>
      </trkpt>
      <trkpt lat="39.891247" lon="3.078359">
        <ele>4.2</ele>
        <time>2020-05-23T18:53:25Z</time>
      </trkpt>
      <trkpt lat="39.891323" lon="3.078359">
        <ele>4.2</ele>
        <time>2020-05-23T18:53:26Z</time>
      </trkpt>
      <trkpt lat="39.891415" lon="3.078359">
        <ele>4.2</ele>
        <time>2020-05-23T18:53:27Z</time>
      </trkpt>
      <trkpt lat="39.891491" lon="3.078359">
        <ele>4.2</ele>
        <time>2020-05-23T18:53:28Z</time>
      </trkpt>
      <trkpt lat="39.891582" lon="3.07836">
        <ele>4.2</ele>
        <time>2020-05-23T18:53:29Z</time>
      </trkpt>
      <trkpt lat="39.891659" lon="3.07836">
        <ele>4.1</ele>
        <time>2020-05-23T18:53:30Z</time>
      </trkpt>
      <trkpt lat="39.89175" lon="3.07836">
        <ele>4.1</ele>
        <time>2020-05-23T18:53:31Z</time>
      </trkpt>
      <trkpt lat="39.891827" lon="3.078361">
        <ele>4.1</ele>
        <time>2020-05-23T18:53:32Z</time>
      </trkpt>
      <trkpt lat="39.891903" lon="3.078361">
        <ele>4.1</ele>
        <time>2020-05-23T18:53:33Z</time>
      </trkpt>
      <trkpt lat="39.891983" lon="3.078361">
        <ele>4.2</ele>
        <time>2020-05-23T18:53:34Z</time>
      </trkpt>
      <trkpt lat="39.892075" lon="3.078362">
        <ele>4.2</ele>
        <time>2020-05-23T18:53:36Z</time>
      </trkpt>
      <trkpt lat="39.892155" lon="3.078362">
        <ele>4.2</ele>
        <time>2020-05-23T18:53:37Z</time>
      </trkpt>
      <trkpt lat="39.892231" lon="3.078362">
        <ele>4.2</ele>
        <time>2020-05-23T18:53:38Z</time>
      </trkpt>
      <trkpt lat="39.892311" lon="3.078362">
        <ele>4.2</ele>
        <time>2020-05-23T18:53:39Z</time>
      </trkpt>
      <trkpt lat="39.892403" lon="3.078363">
        <ele>4.2</ele>
        <time>2020-05-23T18:53:40Z</time>
      </trkpt>
      <trkpt lat="39.892483" lon="3.078363">
        <ele>4.2</ele>
        <time>2020-05-23T18:53:41Z</time>
      </trkpt>
      <trkpt lat="39.892574" lon="3.078364">
        <ele>4.1</ele>
        <time>2020-05-23T18:53:42Z</time>
      </trkpt>
      <trkpt lat="39.89267" lon="3.078364">
        <ele>4</ele>
        <time>2020-05-23T18:53:43Z</time>
      </trkpt>
      <trkpt lat="39.892765" lon="3.078365">
        <ele>4</ele>
        <time>2020-05-23T18:53:44Z</time>
      </trkpt>
      <trkpt lat="39.892857" lon="3.078365">
        <ele>4</ele>
        <time>2020-05-23T18:53:46Z</time>
      </trkpt>
      <trkpt lat="39.892952" lon="3.078366">
        <ele>3.9</ele>
        <time>2020-05-23T18:53:47Z</time>
      </trkpt>
      <trkpt lat="39.893028" lon="3.078367">
        <ele>3.9</ele>
        <time>2020-05-23T18:53:48Z</time>
      </trkpt>
      <trkpt lat="39.893124" lon="3.078367">
        <ele>3.9</ele>
        <time>2020-05-23T18:53:49Z</time>
      </trkpt>
      <trkpt lat="39.893215" lon="3.078368">
        <ele>3.9</ele>
        <time>2020-05-23T18:53:50Z</time>
      </trkpt>
      <trkpt lat="39.89331" lon="3.078369">
        <ele>3.8</ele>
        <time>2020-05-23T18:53:51Z</time>
      </trkpt>
      <trkpt lat="39.893387" lon="3.078369">
        <ele>3.8</ele>
        <time>2020-05-23T18:53:52Z</time>
      </trkpt>
      <trkpt lat="39.893478" lon="3.07837">
        <ele>3.8</ele>
        <time>2020-05-23T18:53:54Z</time>
      </trkpt>
      <trkpt lat="39.893558" lon="3.078371">
        <ele>3.8</ele>
        <time>2020-05-23T18:53:55Z</time>
      </trkpt>
      <trkpt lat="39.89365" lon="3.078371">
        <ele>3.7</ele>
        <time>2020-05-23T18:53:56Z</time>
      </trkpt>
      <trkpt lat="39.893745" lon="3.078372">
        <ele>3.7</ele>
        <time>2020-05-23T18:53:57Z</time>
      </trkpt>
      <trkpt lat="39.893837" lon="3.078374">
        <ele>3.6</ele>
        <time>2020-05-23T18:53:58Z</time>
      </trkpt>
      <trkpt lat="39.893913" lon="3.078375">
        <ele>3.6</ele>
        <time>2020-05-23T18:53:59Z</time>
      </trkpt>
      <trkpt lat="39.894005" lon="3.078376">
        <ele>3.6</ele>
        <time>2020-05-23T18:54:00Z</time>
      </trkpt>
      <trkpt lat="39.8941" lon="3.078377">
        <ele>3.6</ele>
        <time>2020-05-23T18:54:02Z</time>
      </trkpt>
      <trkpt lat="39.894192" lon="3.078378">
        <ele>3.6</ele>
        <time>2020-05-23T18:54:03Z</time>
      </trkpt>
      <trkpt lat="39.894283" lon="3.07838">
        <ele>3.6</ele>
        <time>2020-05-23T18:54:04Z</time>
      </trkpt>
      <trkpt lat="39.894363" lon="3.078381">
        <ele>3.6</ele>
        <time>2020-05-23T18:54:05Z</time>
      </trkpt>
      <trkpt lat="39.894459" lon="3.078383">
        <ele>3.6</ele>
        <time>2020-05-23T18:54:06Z</time>
      </trkpt>
      <trkpt lat="39.894554" lon="3.078383">
        <ele>3.6</ele>
        <time>2020-05-23T18:54:07Z</time>
      </trkpt>
      <trkpt lat="39.894634" lon="3.078382">
        <ele>3.6</ele>
        <time>2020-05-23T18:54:08Z</time>
      </trkpt>
      <trkpt lat="39.894718" lon="3.078386">
        <ele>3.6</ele>
        <time>2020-05-23T18:54:09Z</time>
      </trkpt>
      <trkpt lat="39.894817" lon="3.078392">
        <ele>3.6</ele>
        <time>2020-05-23T18:54:11Z</time>
      </trkpt>
      <trkpt lat="39.89492" lon="3.0784">
        <ele>3.6</ele>
        <time>2020-05-23T18:54:12Z</time>
      </trkpt>
      <trkpt lat="39.895023" lon="3.078408">
        <ele>3.6</ele>
        <time>2020-05-23T18:54:13Z</time>
      </trkpt>
      <trkpt lat="39.895126" lon="3.078415">
        <ele>3.6</ele>
        <time>2020-05-23T18:54:14Z</time>
      </trkpt>
      <trkpt lat="39.895233" lon="3.078421">
        <ele>3.6</ele>
        <time>2020-05-23T18:54:15Z</time>
      </trkpt>
      <trkpt lat="39.895321" lon="3.078428">
        <ele>3.6</ele>
        <time>2020-05-23T18:54:16Z</time>
      </trkpt>
      <trkpt lat="39.895428" lon="3.078442">
        <ele>3.6</ele>
        <time>2020-05-23T18:54:18Z</time>
      </trkpt>
      <trkpt lat="39.895534" lon="3.078461">
        <ele>3.5</ele>
        <time>2020-05-23T18:54:19Z</time>
      </trkpt>
      <trkpt lat="39.895637" lon="3.078485">
        <ele>3.5</ele>
        <time>2020-05-23T18:54:20Z</time>
      </trkpt>
      <trkpt lat="39.895744" lon="3.078515">
        <ele>3.5</ele>
        <time>2020-05-23T18:54:21Z</time>
      </trkpt>
      <trkpt lat="39.895832" lon="3.078537">
        <ele>3.5</ele>
        <time>2020-05-23T18:54:22Z</time>
      </trkpt>
      <trkpt lat="39.895935" lon="3.078564">
        <ele>3.4</ele>
        <time>2020-05-23T18:54:23Z</time>
      </trkpt>
      <trkpt lat="39.896042" lon="3.07859">
        <ele>3.4</ele>
        <time>2020-05-23T18:54:25Z</time>
      </trkpt>
      <trkpt lat="39.89613" lon="3.078614">
        <ele>3.4</ele>
        <time>2020-05-23T18:54:26Z</time>
      </trkpt>
      <trkpt lat="39.896217" lon="3.078638">
        <ele>3.4</ele>
        <time>2020-05-23T18:54:27Z</time>
      </trkpt>
      <trkpt lat="39.896324" lon="3.078664">
        <ele>3.4</ele>
        <time>2020-05-23T18:54:28Z</time>
      </trkpt>
      <trkpt lat="39.896412" lon="3.078688">
        <ele>3.4</ele>
        <time>2020-05-23T18:54:29Z</time>
      </trkpt>
      <trkpt lat="39.896515" lon="3.078716">
        <ele>3.4</ele>
        <time>2020-05-23T18:54:30Z</time>
      </trkpt>
      <trkpt lat="39.896622" lon="3.078741">
        <ele>3.5</ele>
        <time>2020-05-23T18:54:31Z</time>
      </trkpt>
      <trkpt lat="39.896728" lon="3.078769">
        <ele>3.5</ele>
        <time>2020-05-23T18:54:32Z</time>
      </trkpt>
      <trkpt lat="39.896835" lon="3.078797">
        <ele>3.5</ele>
        <time>2020-05-23T18:54:34Z</time>
      </trkpt>
      <trkpt lat="39.896946" lon="3.078823">
        <ele>3.5</ele>
        <time>2020-05-23T18:54:35Z</time>
      </trkpt>
      <trkpt lat="39.897053" lon="3.07885">
        <ele>3.6</ele>
        <time>2020-05-23T18:54:36Z</time>
      </trkpt>
      <trkpt lat="39.897163" lon="3.078879">
        <ele>3.6</ele>
        <time>2020-05-23T18:54:37Z</time>
      </trkpt>
      <trkpt lat="39.897274" lon="3.078907">
        <ele>3.8</ele>
        <time>2020-05-23T18:54:38Z</time>
      </trkpt>
      <trkpt lat="39.897385" lon="3.078931">
        <ele>3.9</ele>
        <time>2020-05-23T18:54:40Z</time>
      </trkpt>
      <trkpt lat="39.897499" lon="3.078955">
        <ele>4</ele>
        <time>2020-05-23T18:54:41Z</time>
      </trkpt>
      <trkpt lat="39.897614" lon="3.078984">
        <ele>4</ele>
        <time>2020-05-23T18:54:42Z</time>
      </trkpt>
      <trkpt lat="39.897728" lon="3.079013">
        <ele>3.9</ele>
        <time>2020-05-23T18:54:43Z</time>
      </trkpt>
      <trkpt lat="39.897819" lon="3.079037">
        <ele>3.8</ele>
        <time>2020-05-23T18:54:44Z</time>
      </trkpt>
      <trkpt lat="39.897926" lon="3.079065">
        <ele>3.7</ele>
        <time>2020-05-23T18:54:45Z</time>
      </trkpt>
      <trkpt lat="39.898014" lon="3.079087">
        <ele>3.7</ele>
        <time>2020-05-23T18:54:46Z</time>
      </trkpt>
      <trkpt lat="39.898121" lon="3.079114">
        <ele>3.7</ele>
        <time>2020-05-23T18:54:48Z</time>
      </trkpt>
      <trkpt lat="39.898224" lon="3.07914">
        <ele>3.7</ele>
        <time>2020-05-23T18:54:49Z</time>
      </trkpt>
      <trkpt lat="39.898327" lon="3.079166">
        <ele>3.8</ele>
        <time>2020-05-23T18:54:50Z</time>
      </trkpt>
      <trkpt lat="39.898415" lon="3.079187">
        <ele>3.9</ele>
        <time>2020-05-23T18:54:51Z</time>
      </trkpt>
      <trkpt lat="39.898518" lon="3.079212">
        <ele>3.9</ele>
        <time>2020-05-23T18:54:52Z</time>
      </trkpt>
      <trkpt lat="39.898601" lon="3.079234">
        <ele>4</ele>
        <time>2020-05-23T18:54:53Z</time>
      </trkpt>
      <trkpt lat="39.898685" lon="3.07926">
        <ele>4</ele>
        <time>2020-05-23T18:54:54Z</time>
      </trkpt>
      <trkpt lat="39.898792" lon="3.079291">
        <ele>4.1</ele>
        <time>2020-05-23T18:54:55Z</time>
      </trkpt>
      <trkpt lat="39.898888" lon="3.07931">
        <ele>4.1</ele>
        <time>2020-05-23T18:54:56Z</time>
      </trkpt>
      <trkpt lat="39.898979" lon="3.079329">
        <ele>4.2</ele>
        <time>2020-05-23T18:54:57Z</time>
      </trkpt>
      <trkpt lat="39.899094" lon="3.079354">
        <ele>4.2</ele>
        <time>2020-05-23T18:54:59Z</time>
      </trkpt>
      <trkpt lat="39.899212" lon="3.079375">
        <ele>4.1</ele>
        <time>2020-05-23T18:55:00Z</time>
      </trkpt>
      <trkpt lat="39.899326" lon="3.079394">
        <ele>4.1</ele>
        <time>2020-05-23T18:55:01Z</time>
      </trkpt>
      <trkpt lat="39.899445" lon="3.079417">
        <ele>4.1</ele>
        <time>2020-05-23T18:55:02Z</time>
      </trkpt>
      <trkpt lat="39.899559" lon="3.079438">
        <ele>4</ele>
        <time>2020-05-23T18:55:03Z</time>
      </trkpt>
      <trkpt lat="39.89967" lon="3.079459">
        <ele>4</ele>
        <time>2020-05-23T18:55:05Z</time>
      </trkpt>
      <trkpt lat="39.89978" lon="3.079478">
        <ele>4</ele>
        <time>2020-05-23T18:55:06Z</time>
      </trkpt>
      <trkpt lat="39.899872" lon="3.079493">
        <ele>4</ele>
        <time>2020-05-23T18:55:07Z</time>
      </trkpt>
      <trkpt lat="39.899979" lon="3.07951">
        <ele>3.9</ele>
        <time>2020-05-23T18:55:08Z</time>
      </trkpt>
      <trkpt lat="39.900066" lon="3.079524">
        <ele>3.9</ele>
        <time>2020-05-23T18:55:09Z</time>
      </trkpt>
      <trkpt lat="39.900173" lon="3.079541">
        <ele>3.9</ele>
        <time>2020-05-23T18:55:10Z</time>
      </trkpt>
      <trkpt lat="39.900276" lon="3.079556">
        <ele>3.9</ele>
        <time>2020-05-23T18:55:11Z</time>
      </trkpt>
      <trkpt lat="39.900379" lon="3.07957">
        <ele>3.8</ele>
        <time>2020-05-23T18:55:13Z</time>
      </trkpt>
      <trkpt lat="39.900463" lon="3.079582">
        <ele>3.7</ele>
        <time>2020-05-23T18:55:14Z</time>
      </trkpt>
      <trkpt lat="39.900551" lon="3.079598">
        <ele>3.6</ele>
        <time>2020-05-23T18:55:15Z</time>
      </trkpt>
      <trkpt lat="39.90065" lon="3.079617">
        <ele>3.6</ele>
        <time>2020-05-23T18:55:16Z</time>
      </trkpt>
      <trkpt lat="39.900757" lon="3.079634">
        <ele>3.6</ele>
        <time>2020-05-23T18:55:17Z</time>
      </trkpt>
      <trkpt lat="39.900841" lon="3.079648">
        <ele>3.6</ele>
        <time>2020-05-23T18:55:18Z</time>
      </trkpt>
      <trkpt lat="39.900928" lon="3.079661">
        <ele>3.6</ele>
        <time>2020-05-23T18:55:19Z</time>
      </trkpt>
      <trkpt lat="39.901035" lon="3.079676">
        <ele>3.6</ele>
        <time>2020-05-23T18:55:20Z</time>
      </trkpt>
      <trkpt lat="39.901127" lon="3.079689">
        <ele>3.6</ele>
        <time>2020-05-23T18:55:21Z</time>
      </trkpt>
      <trkpt lat="39.901215" lon="3.079702">
        <ele>3.6</ele>
        <time>2020-05-23T18:55:22Z</time>
      </trkpt>
      <trkpt lat="39.901318" lon="3.079718">
        <ele>3.6</ele>
        <time>2020-05-23T18:55:23Z</time>
      </trkpt>
      <trkpt lat="39.901413" lon="3.079742">
        <ele>3.7</ele>
        <time>2020-05-23T18:55:25Z</time>
      </trkpt>
      <trkpt lat="39.901512" lon="3.079769">
        <ele>3.7</ele>
        <time>2020-05-23T18:55:26Z</time>
      </trkpt>
      <trkpt lat="39.901615" lon="3.079797">
        <ele>3.7</ele>
        <time>2020-05-23T18:55:27Z</time>
      </trkpt>
      <trkpt lat="39.901699" lon="3.079827">
        <ele>3.8</ele>
        <time>2020-05-23T18:55:28Z</time>
      </trkpt>
      <trkpt lat="39.901783" lon="3.079858">
        <ele>3.8</ele>
        <time>2020-05-23T18:55:29Z</time>
      </trkpt>
      <trkpt lat="39.901867" lon="3.079889">
        <ele>3.8</ele>
        <time>2020-05-23T18:55:30Z</time>
      </trkpt>
      <trkpt lat="39.901951" lon="3.079919">
        <ele>3.9</ele>
        <time>2020-05-23T18:55:31Z</time>
      </trkpt>
      <trkpt lat="39.902039" lon="3.079947">
        <ele>3.9</ele>
        <time>2020-05-23T18:55:32Z</time>
      </trkpt>
      <trkpt lat="39.902138" lon="3.079984">
        <ele>3.9</ele>
        <time>2020-05-23T18:55:33Z</time>
      </trkpt>
      <trkpt lat="39.902222" lon="3.080016">
        <ele>4</ele>
        <time>2020-05-23T18:55:34Z</time>
      </trkpt>
      <trkpt lat="39.902317" lon="3.08006">
        <ele>4</ele>
        <time>2020-05-23T18:55:35Z</time>
      </trkpt>
      <trkpt lat="39.902397" lon="3.080097">
        <ele>4.1</ele>
        <time>2020-05-23T18:55:36Z</time>
      </trkpt>
      <trkpt lat="39.902492" lon="3.08014">
        <ele>4.2</ele>
        <time>2020-05-23T18:55:38Z</time>
      </trkpt>
      <trkpt lat="39.902569" lon="3.080175">
        <ele>4.3</ele>
        <time>2020-05-23T18:55:39Z</time>
      </trkpt>
      <trkpt lat="39.902645" lon="3.080214">
        <ele>4.3</ele>
        <time>2020-05-23T18:55:40Z</time>
      </trkpt>
      <trkpt lat="39.902721" lon="3.080255">
        <ele>4.4</ele>
        <time>2020-05-23T18:55:41Z</time>
      </trkpt>
      <trkpt lat="39.902813" lon="3.080305">
        <ele>4.6</ele>
        <time>2020-05-23T18:55:42Z</time>
      </trkpt>
      <trkpt lat="39.902901" lon="3.080359">
        <ele>4.5</ele>
        <time>2020-05-23T18:55:43Z</time>
      </trkpt>
      <trkpt lat="39.902969" lon="3.08041">
        <ele>4.4</ele>
        <time>2020-05-23T18:55:44Z</time>
      </trkpt>
      <trkpt lat="39.903053" lon="3.080473">
        <ele>4.2</ele>
        <time>2020-05-23T18:55:45Z</time>
      </trkpt>
      <trkpt lat="39.903122" lon="3.080526">
        <ele>4.1</ele>
        <time>2020-05-23T18:55:46Z</time>
      </trkpt>
      <trkpt lat="39.903206" lon="3.080588">
        <ele>4.1</ele>
        <time>2020-05-23T18:55:47Z</time>
      </trkpt>
      <trkpt lat="39.903278" lon="3.080641">
        <ele>4</ele>
        <time>2020-05-23T18:55:48Z</time>
      </trkpt>
      <trkpt lat="39.903362" lon="3.080703">
        <ele>4</ele>
        <time>2020-05-23T18:55:50Z</time>
      </trkpt>
      <trkpt lat="39.903446" lon="3.080766">
        <ele>4</ele>
        <time>2020-05-23T18:55:51Z</time>
      </trkpt>
      <trkpt lat="39.90353" lon="3.080828">
        <ele>4</ele>
        <time>2020-05-23T18:55:52Z</time>
      </trkpt>
      <trkpt lat="39.903603" lon="3.080881">
        <ele>4</ele>
        <time>2020-05-23T18:55:53Z</time>
      </trkpt>
      <trkpt lat="39.903671" lon="3.080934">
        <ele>4</ele>
        <time>2020-05-23T18:55:54Z</time>
      </trkpt>
      <trkpt lat="39.903759" lon="3.080998">
        <ele>4</ele>
        <time>2020-05-23T18:55:55Z</time>
      </trkpt>
      <trkpt lat="39.903831" lon="3.081051">
        <ele>4</ele>
        <time>2020-05-23T18:55:56Z</time>
      </trkpt>
      <trkpt lat="39.903904" lon="3.081103">
        <ele>4</ele>
        <time>2020-05-23T18:55:57Z</time>
      </trkpt>
      <trkpt lat="39.903988" lon="3.081166">
        <ele>4</ele>
        <time>2020-05-23T18:55:58Z</time>
      </trkpt>
      <trkpt lat="39.904076" lon="3.081229">
        <ele>4</ele>
        <time>2020-05-23T18:56:00Z</time>
      </trkpt>
      <trkpt lat="39.904144" lon="3.081281">
        <ele>4.1</ele>
        <time>2020-05-23T18:56:01Z</time>
      </trkpt>
      <trkpt lat="39.904228" lon="3.081343">
        <ele>4.1</ele>
        <time>2020-05-23T18:56:02Z</time>
      </trkpt>
      <trkpt lat="39.904316" lon="3.081402">
        <ele>4.2</ele>
        <time>2020-05-23T18:56:03Z</time>
      </trkpt>
      <trkpt lat="39.904388" lon="3.081447">
        <ele>4.2</ele>
        <time>2020-05-23T18:56:04Z</time>
      </trkpt>
      <trkpt lat="39.904472" lon="3.0815">
        <ele>4.3</ele>
        <time>2020-05-23T18:56:05Z</time>
      </trkpt>
      <trkpt lat="39.90456" lon="3.081553">
        <ele>4.5</ele>
        <time>2020-05-23T18:56:06Z</time>
      </trkpt>
      <trkpt lat="39.904648" lon="3.081606">
        <ele>4.4</ele>
        <time>2020-05-23T18:56:08Z</time>
      </trkpt>
      <trkpt lat="39.90472" lon="3.08165">
        <ele>4.3</ele>
        <time>2020-05-23T18:56:09Z</time>
      </trkpt>
      <trkpt lat="39.904804" lon="3.081703">
        <ele>4.3</ele>
        <time>2020-05-23T18:56:10Z</time>
      </trkpt>
      <trkpt lat="39.904892" lon="3.081756">
        <ele>4.4</ele>
        <time>2020-05-23T18:56:11Z</time>
      </trkpt>
      <trkpt lat="39.904964" lon="3.081801">
        <ele>4.4</ele>
        <time>2020-05-23T18:56:12Z</time>
      </trkpt>
      <trkpt lat="39.905041" lon="3.081846">
        <ele>4.4</ele>
        <time>2020-05-23T18:56:13Z</time>
      </trkpt>
      <trkpt lat="39.905113" lon="3.081891">
        <ele>4.4</ele>
        <time>2020-05-23T18:56:14Z</time>
      </trkpt>
      <trkpt lat="39.905186" lon="3.081939">
        <ele>4.4</ele>
        <time>2020-05-23T18:56:15Z</time>
      </trkpt>
      <trkpt lat="39.90527" lon="3.081998">
        <ele>4.3</ele>
        <time>2020-05-23T18:56:16Z</time>
      </trkpt>
      <trkpt lat="39.905342" lon="3.082045">
        <ele>4.2</ele>
        <time>2020-05-23T18:56:17Z</time>
      </trkpt>
      <trkpt lat="39.90543" lon="3.082102">
        <ele>4.1</ele>
        <time>2020-05-23T18:56:18Z</time>
      </trkpt>
      <trkpt lat="39.905518" lon="3.082158">
        <ele>4.1</ele>
        <time>2020-05-23T18:56:20Z</time>
      </trkpt>
      <trkpt lat="39.905601" lon="3.082214">
        <ele>4.1</ele>
        <time>2020-05-23T18:56:21Z</time>
      </trkpt>
      <trkpt lat="39.905674" lon="3.082261">
        <ele>4.1</ele>
        <time>2020-05-23T18:56:22Z</time>
      </trkpt>
      <trkpt lat="39.905762" lon="3.082317">
        <ele>4.1</ele>
        <time>2020-05-23T18:56:23Z</time>
      </trkpt>
      <trkpt lat="39.905846" lon="3.082372">
        <ele>4.1</ele>
        <time>2020-05-23T18:56:24Z</time>
      </trkpt>
      <trkpt lat="39.905933" lon="3.082428">
        <ele>4.1</ele>
        <time>2020-05-23T18:56:25Z</time>
      </trkpt>
      <trkpt lat="39.906002" lon="3.082479">
        <ele>4.2</ele>
        <time>2020-05-23T18:56:26Z</time>
      </trkpt>
      <trkpt lat="39.906082" lon="3.082552">
        <ele>4.3</ele>
        <time>2020-05-23T18:56:28Z</time>
      </trkpt>
      <trkpt lat="39.906155" lon="3.082623">
        <ele>4.5</ele>
        <time>2020-05-23T18:56:29Z</time>
      </trkpt>
      <trkpt lat="39.906208" lon="3.082682">
        <ele>4.8</ele>
        <time>2020-05-23T18:56:30Z</time>
      </trkpt>
      <trkpt lat="39.906258" lon="3.082738">
        <ele>4.8</ele>
        <time>2020-05-23T18:56:31Z</time>
      </trkpt>
      <trkpt lat="39.906315" lon="3.082808">
        <ele>4.8</ele>
        <time>2020-05-23T18:56:32Z</time>
      </trkpt>
      <trkpt lat="39.906357" lon="3.08288">
        <ele>4.9</ele>
        <time>2020-05-23T18:56:33Z</time>
      </trkpt>
      <trkpt lat="39.906387" lon="3.082962">
        <ele>4.9</ele>
        <time>2020-05-23T18:56:34Z</time>
      </trkpt>
      <trkpt lat="39.906406" lon="3.083065">
        <ele>5</ele>
        <time>2020-05-23T18:56:35Z</time>
      </trkpt>
      <trkpt lat="39.906456" lon="3.083141">
        <ele>5.1</ele>
        <time>2020-05-23T18:56:36Z</time>
      </trkpt>
      <trkpt lat="39.90654" lon="3.083138">
        <ele>5.1</ele>
        <time>2020-05-23T18:56:38Z</time>
      </trkpt>
      <trkpt lat="39.906628" lon="3.083144">
        <ele>5.1</ele>
        <time>2020-05-23T18:56:39Z</time>
      </trkpt>
      <trkpt lat="39.906712" lon="3.083184">
        <ele>5.1</ele>
        <time>2020-05-23T18:56:40Z</time>
      </trkpt>
      <trkpt lat="39.906795" lon="3.083229">
        <ele>5.2</ele>
        <time>2020-05-23T18:56:41Z</time>
      </trkpt>
      <trkpt lat="39.906864" lon="3.083266">
        <ele>5.2</ele>
        <time>2020-05-23T18:56:42Z</time>
      </trkpt>
      <trkpt lat="39.906948" lon="3.083314">
        <ele>5.2</ele>
        <time>2020-05-23T18:56:43Z</time>
      </trkpt>
      <trkpt lat="39.907021" lon="3.083356">
        <ele>5.2</ele>
        <time>2020-05-23T18:56:44Z</time>
      </trkpt>
      <trkpt lat="39.907104" lon="3.083407">
        <ele>5.2</ele>
        <time>2020-05-23T18:56:46Z</time>
      </trkpt>
      <trkpt lat="39.907173" lon="3.083451">
        <ele>5.2</ele>
        <time>2020-05-23T18:56:47Z</time>
      </trkpt>
      <trkpt lat="39.907257" lon="3.083506">
        <ele>5.2</ele>
        <time>2020-05-23T18:56:48Z</time>
      </trkpt>
      <trkpt lat="39.90733" lon="3.083554">
        <ele>5.2</ele>
        <time>2020-05-23T18:56:49Z</time>
      </trkpt>
      <trkpt lat="39.907398" lon="3.083603">
        <ele>5.2</ele>
        <time>2020-05-23T18:56:50Z</time>
      </trkpt>
      <trkpt lat="39.907482" lon="3.083663">
        <ele>5.2</ele>
        <time>2020-05-23T18:56:51Z</time>
      </trkpt>
      <trkpt lat="39.907551" lon="3.083719">
        <ele>5.2</ele>
        <time>2020-05-23T18:56:52Z</time>
      </trkpt>
      <trkpt lat="39.907616" lon="3.083778">
        <ele>5.2</ele>
        <time>2020-05-23T18:56:53Z</time>
      </trkpt>
      <trkpt lat="39.907696" lon="3.083849">
        <ele>5.3</ele>
        <time>2020-05-23T18:56:54Z</time>
      </trkpt>
      <trkpt lat="39.907776" lon="3.083921">
        <ele>5.3</ele>
        <time>2020-05-23T18:56:55Z</time>
      </trkpt>
      <trkpt lat="39.907852" lon="3.083996">
        <ele>5.2</ele>
        <time>2020-05-23T18:56:57Z</time>
      </trkpt>
      <trkpt lat="39.907932" lon="3.08407">
        <ele>5.2</ele>
        <time>2020-05-23T18:56:58Z</time>
      </trkpt>
      <trkpt lat="39.908009" lon="3.084144">
        <ele>5.1</ele>
        <time>2020-05-23T18:56:59Z</time>
      </trkpt>
      <trkpt lat="39.908073" lon="3.084205">
        <ele>5.1</ele>
        <time>2020-05-23T18:57:00Z</time>
      </trkpt>
      <trkpt lat="39.90815" lon="3.084279">
        <ele>5</ele>
        <time>2020-05-23T18:57:01Z</time>
      </trkpt>
      <trkpt lat="39.908226" lon="3.084352">
        <ele>5</ele>
        <time>2020-05-23T18:57:02Z</time>
      </trkpt>
      <trkpt lat="39.908306" lon="3.084426">
        <ele>5</ele>
        <time>2020-05-23T18:57:04Z</time>
      </trkpt>
      <trkpt lat="39.908382" lon="3.0845">
        <ele>5</ele>
        <time>2020-05-23T18:57:05Z</time>
      </trkpt>
      <trkpt lat="39.908447" lon="3.084563">
        <ele>5.1</ele>
        <time>2020-05-23T18:57:06Z</time>
      </trkpt>
      <trkpt lat="39.908527" lon="3.084639">
        <ele>5.1</ele>
        <time>2020-05-23T18:57:07Z</time>
      </trkpt>
      <trkpt lat="39.908592" lon="3.084703">
        <ele>5</ele>
        <time>2020-05-23T18:57:08Z</time>
      </trkpt>
      <trkpt lat="39.908657" lon="3.084768">
        <ele>5</ele>
        <time>2020-05-23T18:57:09Z</time>
      </trkpt>
      <trkpt lat="39.908722" lon="3.084834">
        <ele>5.1</ele>
        <time>2020-05-23T18:57:10Z</time>
      </trkpt>
      <trkpt lat="39.908787" lon="3.084901">
        <ele>5.1</ele>
        <time>2020-05-23T18:57:11Z</time>
      </trkpt>
      <trkpt lat="39.908863" lon="3.084983">
        <ele>5.1</ele>
        <time>2020-05-23T18:57:12Z</time>
      </trkpt>
      <trkpt lat="39.908928" lon="3.085052">
        <ele>5.1</ele>
        <time>2020-05-23T18:57:13Z</time>
      </trkpt>
      <trkpt lat="39.909008" lon="3.085129">
        <ele>5.1</ele>
        <time>2020-05-23T18:57:14Z</time>
      </trkpt>
      <trkpt lat="39.909084" lon="3.085208">
        <ele>5.1</ele>
        <time>2020-05-23T18:57:16Z</time>
      </trkpt>
      <trkpt lat="39.909164" lon="3.085288">
        <ele>5.1</ele>
        <time>2020-05-23T18:57:17Z</time>
      </trkpt>
      <trkpt lat="39.909241" lon="3.08537">
        <ele>5.1</ele>
        <time>2020-05-23T18:57:18Z</time>
      </trkpt>
      <trkpt lat="39.909302" lon="3.085445">
        <ele>5.2</ele>
        <time>2020-05-23T18:57:19Z</time>
      </trkpt>
      <trkpt lat="39.909363" lon="3.085544">
        <ele>5.2</ele>
        <time>2020-05-23T18:57:20Z</time>
      </trkpt>
      <trkpt lat="39.909428" lon="3.085642">
        <ele>5.2</ele>
        <time>2020-05-23T18:57:21Z</time>
      </trkpt>
      <trkpt lat="39.909481" lon="3.085723">
        <ele>5.2</ele>
        <time>2020-05-23T18:57:22Z</time>
      </trkpt>
      <trkpt lat="39.909534" lon="3.085805">
        <ele>5.3</ele>
        <time>2020-05-23T18:57:23Z</time>
      </trkpt>
      <trkpt lat="39.909599" lon="3.085904">
        <ele>5.3</ele>
        <time>2020-05-23T18:57:25Z</time>
      </trkpt>
      <trkpt lat="39.909664" lon="3.086002">
        <ele>5.3</ele>
        <time>2020-05-23T18:57:26Z</time>
      </trkpt>
      <trkpt lat="39.909721" lon="3.086084">
        <ele>5.3</ele>
        <time>2020-05-23T18:57:27Z</time>
      </trkpt>
      <trkpt lat="39.909786" lon="3.086173">
        <ele>5.2</ele>
        <time>2020-05-23T18:57:28Z</time>
      </trkpt>
      <trkpt lat="39.909836" lon="3.086244">
        <ele>5.2</ele>
        <time>2020-05-23T18:57:29Z</time>
      </trkpt>
      <trkpt lat="39.909889" lon="3.086313">
        <ele>5.2</ele>
        <time>2020-05-23T18:57:30Z</time>
      </trkpt>
      <trkpt lat="39.909939" lon="3.086382">
        <ele>5.1</ele>
        <time>2020-05-23T18:57:31Z</time>
      </trkpt>
      <trkpt lat="39.909996" lon="3.086464">
        <ele>5</ele>
        <time>2020-05-23T18:57:32Z</time>
      </trkpt>
      <trkpt lat="39.910046" lon="3.086534">
        <ele>5</ele>
        <time>2020-05-23T18:57:33Z</time>
      </trkpt>
      <trkpt lat="39.91011" lon="3.086616">
        <ele>5</ele>
        <time>2020-05-23T18:57:34Z</time>
      </trkpt>
      <trkpt lat="39.910191" lon="3.086603">
        <ele>5.2</ele>
        <time>2020-05-23T18:57:36Z</time>
      </trkpt>
      <trkpt lat="39.910255" lon="3.086525">
        <ele>5.3</ele>
        <time>2020-05-23T18:57:37Z</time>
      </trkpt>
      <trkpt lat="39.910305" lon="3.086462">
        <ele>5.4</ele>
        <time>2020-05-23T18:57:38Z</time>
      </trkpt>
      <trkpt lat="39.910366" lon="3.086389">
        <ele>5.2</ele>
        <time>2020-05-23T18:57:39Z</time>
      </trkpt>
      <trkpt lat="39.910427" lon="3.086314">
        <ele>5</ele>
        <time>2020-05-23T18:57:40Z</time>
      </trkpt>
      <trkpt lat="39.91048" lon="3.086253">
        <ele>4.9</ele>
        <time>2020-05-23T18:57:41Z</time>
      </trkpt>
      <trkpt lat="39.910542" lon="3.086183">
        <ele>5</ele>
        <time>2020-05-23T18:57:42Z</time>
      </trkpt>
      <trkpt lat="39.910606" lon="3.086117">
        <ele>5.2</ele>
        <time>2020-05-23T18:57:44Z</time>
      </trkpt>
      <trkpt lat="39.91066" lon="3.086078">
        <ele>5.2</ele>
        <time>2020-05-23T18:57:45Z</time>
      </trkpt>
      <trkpt lat="39.910732" lon="3.086116">
        <ele>5.2</ele>
        <time>2020-05-23T18:57:46Z</time>
      </trkpt>
      <trkpt lat="39.910793" lon="3.08619">
        <ele>5.2</ele>
        <time>2020-05-23T18:57:47Z</time>
      </trkpt>
      <trkpt lat="39.910866" lon="3.086249">
        <ele>5.2</ele>
        <time>2020-05-23T18:57:48Z</time>
      </trkpt>
      <trkpt lat="39.910934" lon="3.086242">
        <ele>5.2</ele>
        <time>2020-05-23T18:57:49Z</time>
      </trkpt>
      <trkpt lat="39.910995" lon="3.086193">
        <ele>5.2</ele>
        <time>2020-05-23T18:57:50Z</time>
      </trkpt>
      <trkpt lat="39.911068" lon="3.08613">
        <ele>5.2</ele>
        <time>2020-05-23T18:57:51Z</time>
      </trkpt>
      <trkpt lat="39.911129" lon="3.086078">
        <ele>5.1</ele>
        <time>2020-05-23T18:57:52Z</time>
      </trkpt>
      <trkpt lat="39.911201" lon="3.086015">
        <ele>5.1</ele>
        <time>2020-05-23T18:57:54Z</time>
      </trkpt>
      <trkpt lat="39.911262" lon="3.08596">
        <ele>5.1</ele>
        <time>2020-05-23T18:57:55Z</time>
      </trkpt>
      <trkpt lat="39.911327" lon="3.085903">
        <ele>5.2</ele>
        <time>2020-05-23T18:57:56Z</time>
      </trkpt>
      <trkpt lat="39.911392" lon="3.085846">
        <ele>5.3</ele>
        <time>2020-05-23T18:57:57Z</time>
      </trkpt>
      <trkpt lat="39.911461" lon="3.085788">
        <ele>5.4</ele>
        <time>2020-05-23T18:57:58Z</time>
      </trkpt>
      <trkpt lat="39.911537" lon="3.085719">
        <ele>5.6</ele>
        <time>2020-05-23T18:57:59Z</time>
      </trkpt>
      <trkpt lat="39.911602" lon="3.085661">
        <ele>5.8</ele>
        <time>2020-05-23T18:58:00Z</time>
      </trkpt>
      <trkpt lat="39.911682" lon="3.085592">
        <ele>6.1</ele>
        <time>2020-05-23T18:58:01Z</time>
      </trkpt>
      <trkpt lat="39.911747" lon="3.085534">
        <ele>6.3</ele>
        <time>2020-05-23T18:58:02Z</time>
      </trkpt>
      <trkpt lat="39.911812" lon="3.085476">
        <ele>6.5</ele>
        <time>2020-05-23T18:58:03Z</time>
      </trkpt>
      <trkpt lat="39.911892" lon="3.085406">
        <ele>6.7</ele>
        <time>2020-05-23T18:58:04Z</time>
      </trkpt>
      <trkpt lat="39.911957" lon="3.085347">
        <ele>7</ele>
        <time>2020-05-23T18:58:05Z</time>
      </trkpt>
      <trkpt lat="39.912025" lon="3.085288">
        <ele>7.2</ele>
        <time>2020-05-23T18:58:06Z</time>
      </trkpt>
      <trkpt lat="39.912105" lon="3.085217">
        <ele>7.4</ele>
        <time>2020-05-23T18:58:07Z</time>
      </trkpt>
      <trkpt lat="39.912174" lon="3.085158">
        <ele>7.5</ele>
        <time>2020-05-23T18:58:08Z</time>
      </trkpt>
      <trkpt lat="39.912254" lon="3.085091">
        <ele>7.7</ele>
        <time>2020-05-23T18:58:10Z</time>
      </trkpt>
      <trkpt lat="39.912327" lon="3.085031">
        <ele>7.8</ele>
        <time>2020-05-23T18:58:11Z</time>
      </trkpt>
      <trkpt lat="39.912388" lon="3.08498">
        <ele>8</ele>
        <time>2020-05-23T18:58:12Z</time>
      </trkpt>
      <trkpt lat="39.912441" lon="3.08493">
        <ele>8.2</ele>
        <time>2020-05-23T18:58:13Z</time>
      </trkpt>
      <trkpt lat="39.912506" lon="3.084869">
        <ele>9</ele>
        <time>2020-05-23T18:58:14Z</time>
      </trkpt>
      <trkpt lat="39.912563" lon="3.084804">
        <ele>9.3</ele>
        <time>2020-05-23T18:58:15Z</time>
      </trkpt>
      <trkpt lat="39.912609" lon="3.084751">
        <ele>9.7</ele>
        <time>2020-05-23T18:58:16Z</time>
      </trkpt>
      <trkpt lat="39.912666" lon="3.084689">
        <ele>10.1</ele>
        <time>2020-05-23T18:58:17Z</time>
      </trkpt>
      <trkpt lat="39.912723" lon="3.08466">
        <ele>10.4</ele>
        <time>2020-05-23T18:58:18Z</time>
      </trkpt>
      <trkpt lat="39.912785" lon="3.084712">
        <ele>10.2</ele>
        <time>2020-05-23T18:58:20Z</time>
      </trkpt>
      <trkpt lat="39.912842" lon="3.084783">
        <ele>10.1</ele>
        <time>2020-05-23T18:58:21Z</time>
      </trkpt>
      <trkpt lat="39.912895" lon="3.084868">
        <ele>10.1</ele>
        <time>2020-05-23T18:58:22Z</time>
      </trkpt>
      <trkpt lat="39.912933" lon="3.084961">
        <ele>10.1</ele>
        <time>2020-05-23T18:58:23Z</time>
      </trkpt>
      <trkpt lat="39.912971" lon="3.085059">
        <ele>10.2</ele>
        <time>2020-05-23T18:58:24Z</time>
      </trkpt>
      <trkpt lat="39.913006" lon="3.085157">
        <ele>10.2</ele>
        <time>2020-05-23T18:58:26Z</time>
      </trkpt>
      <trkpt lat="39.91304" lon="3.085254">
        <ele>10.3</ele>
        <time>2020-05-23T18:58:27Z</time>
      </trkpt>
      <trkpt lat="39.913071" lon="3.085332">
        <ele>10.4</ele>
        <time>2020-05-23T18:58:28Z</time>
      </trkpt>
      <trkpt lat="39.913105" lon="3.085429">
        <ele>10.5</ele>
        <time>2020-05-23T18:58:29Z</time>
      </trkpt>
      <trkpt lat="39.913135" lon="3.085533">
        <ele>10.7</ele>
        <time>2020-05-23T18:58:30Z</time>
      </trkpt>
      <trkpt lat="39.913174" lon="3.085642">
        <ele>10.8</ele>
        <time>2020-05-23T18:58:31Z</time>
      </trkpt>
      <trkpt lat="39.913208" lon="3.085754">
        <ele>10.9</ele>
        <time>2020-05-23T18:58:33Z</time>
      </trkpt>
      <trkpt lat="39.913242" lon="3.085868">
        <ele>11.1</ele>
        <time>2020-05-23T18:58:34Z</time>
      </trkpt>
      <trkpt lat="39.913277" lon="3.08598">
        <ele>11.3</ele>
        <time>2020-05-23T18:58:35Z</time>
      </trkpt>
      <trkpt lat="39.913307" lon="3.086087">
        <ele>11.4</ele>
        <time>2020-05-23T18:58:36Z</time>
      </trkpt>
      <trkpt lat="39.91333" lon="3.086185">
        <ele>11.6</ele>
        <time>2020-05-23T18:58:37Z</time>
      </trkpt>
      <trkpt lat="39.913353" lon="3.086275">
        <ele>11.7</ele>
        <time>2020-05-23T18:58:39Z</time>
      </trkpt>
      <trkpt lat="39.91338" lon="3.086366">
        <ele>11.8</ele>
        <time>2020-05-23T18:58:40Z</time>
      </trkpt>
      <trkpt lat="39.913399" lon="3.086462">
        <ele>11.9</ele>
        <time>2020-05-23T18:58:41Z</time>
      </trkpt>
      <trkpt lat="39.913418" lon="3.086569">
        <ele>12</ele>
        <time>2020-05-23T18:58:42Z</time>
      </trkpt>
      <trkpt lat="39.913437" lon="3.086684">
        <ele>12.1</ele>
        <time>2020-05-23T18:58:43Z</time>
      </trkpt>
      <trkpt lat="39.91346" lon="3.086803">
        <ele>12.3</ele>
        <time>2020-05-23T18:58:45Z</time>
      </trkpt>
      <trkpt lat="39.913479" lon="3.086903">
        <ele>12.4</ele>
        <time>2020-05-23T18:58:46Z</time>
      </trkpt>
      <trkpt lat="39.913494" lon="3.087023">
        <ele>12.5</ele>
        <time>2020-05-23T18:58:47Z</time>
      </trkpt>
      <trkpt lat="39.913513" lon="3.087142">
        <ele>12.7</ele>
        <time>2020-05-23T18:58:48Z</time>
      </trkpt>
      <trkpt lat="39.913528" lon="3.087241">
        <ele>12.7</ele>
        <time>2020-05-23T18:58:49Z</time>
      </trkpt>
      <trkpt lat="39.91354" lon="3.08736">
        <ele>12.8</ele>
        <time>2020-05-23T18:58:50Z</time>
      </trkpt>
      <trkpt lat="39.913551" lon="3.087479">
        <ele>12.8</ele>
        <time>2020-05-23T18:58:51Z</time>
      </trkpt>
      <trkpt lat="39.913559" lon="3.087578">
        <ele>12.8</ele>
        <time>2020-05-23T18:58:52Z</time>
      </trkpt>
      <trkpt lat="39.91357" lon="3.087696">
        <ele>12.9</ele>
        <time>2020-05-23T18:58:54Z</time>
      </trkpt>
      <trkpt lat="39.913578" lon="3.087795">
        <ele>12.9</ele>
        <time>2020-05-23T18:58:55Z</time>
      </trkpt>
      <trkpt lat="39.913586" lon="3.087915">
        <ele>12.9</ele>
        <time>2020-05-23T18:58:56Z</time>
      </trkpt>
      <trkpt lat="39.913593" lon="3.088035">
        <ele>12.9</ele>
        <time>2020-05-23T18:58:57Z</time>
      </trkpt>
      <trkpt lat="39.913601" lon="3.088136">
        <ele>13.2</ele>
        <time>2020-05-23T18:58:58Z</time>
      </trkpt>
      <trkpt lat="39.913605" lon="3.088237">
        <ele>13</ele>
        <time>2020-05-23T18:58:59Z</time>
      </trkpt>
      <trkpt lat="39.913612" lon="3.088339">
        <ele>12.9</ele>
        <time>2020-05-23T18:59:00Z</time>
      </trkpt>
      <trkpt lat="39.913616" lon="3.08846">
        <ele>12.7</ele>
        <time>2020-05-23T18:59:01Z</time>
      </trkpt>
      <trkpt lat="39.91362" lon="3.088561">
        <ele>12.6</ele>
        <time>2020-05-23T18:59:02Z</time>
      </trkpt>
      <trkpt lat="39.913624" lon="3.088682">
        <ele>12.6</ele>
        <time>2020-05-23T18:59:03Z</time>
      </trkpt>
      <trkpt lat="39.913628" lon="3.088804">
        <ele>12.6</ele>
        <time>2020-05-23T18:59:05Z</time>
      </trkpt>
      <trkpt lat="39.913631" lon="3.088926">
        <ele>12.7</ele>
        <time>2020-05-23T18:59:06Z</time>
      </trkpt>
      <trkpt lat="39.913639" lon="3.089049">
        <ele>12.8</ele>
        <time>2020-05-23T18:59:07Z</time>
      </trkpt>
      <trkpt lat="39.913643" lon="3.089155">
        <ele>12.8</ele>
        <time>2020-05-23T18:59:08Z</time>
      </trkpt>
      <trkpt lat="39.91365" lon="3.089283">
        <ele>13</ele>
        <time>2020-05-23T18:59:09Z</time>
      </trkpt>
      <trkpt lat="39.913654" lon="3.089392">
        <ele>13.1</ele>
        <time>2020-05-23T18:59:10Z</time>
      </trkpt>
      <trkpt lat="39.913658" lon="3.089526">
        <ele>13.3</ele>
        <time>2020-05-23T18:59:11Z</time>
      </trkpt>
      <trkpt lat="39.913666" lon="3.089638">
        <ele>13.4</ele>
        <time>2020-05-23T18:59:12Z</time>
      </trkpt>
      <trkpt lat="39.91367" lon="3.089748">
        <ele>13.6</ele>
        <time>2020-05-23T18:59:13Z</time>
      </trkpt>
      <trkpt lat="39.913673" lon="3.089877">
        <ele>13.8</ele>
        <time>2020-05-23T18:59:15Z</time>
      </trkpt>
      <trkpt lat="39.913681" lon="3.09">
        <ele>14</ele>
        <time>2020-05-23T18:59:16Z</time>
      </trkpt>
      <trkpt lat="39.913685" lon="3.090119">
        <ele>14.2</ele>
        <time>2020-05-23T18:59:17Z</time>
      </trkpt>
      <trkpt lat="39.913692" lon="3.090236">
        <ele>14.4</ele>
        <time>2020-05-23T18:59:18Z</time>
      </trkpt>
      <trkpt lat="39.913696" lon="3.090348">
        <ele>14.5</ele>
        <time>2020-05-23T18:59:19Z</time>
      </trkpt>
      <trkpt lat="39.913704" lon="3.090457">
        <ele>14.6</ele>
        <time>2020-05-23T18:59:21Z</time>
      </trkpt>
      <trkpt lat="39.913708" lon="3.090565">
        <ele>14.6</ele>
        <time>2020-05-23T18:59:22Z</time>
      </trkpt>
      <trkpt lat="39.913712" lon="3.090655">
        <ele>14.7</ele>
        <time>2020-05-23T18:59:23Z</time>
      </trkpt>
      <trkpt lat="39.913715" lon="3.090767">
        <ele>14.7</ele>
        <time>2020-05-23T18:59:24Z</time>
      </trkpt>
      <trkpt lat="39.913723" lon="3.090881">
        <ele>14.7</ele>
        <time>2020-05-23T18:59:25Z</time>
      </trkpt>
      <trkpt lat="39.913727" lon="3.090996">
        <ele>14.7</ele>
        <time>2020-05-23T18:59:26Z</time>
      </trkpt>
      <trkpt lat="39.913731" lon="3.091093">
        <ele>14.7</ele>
        <time>2020-05-23T18:59:27Z</time>
      </trkpt>
      <trkpt lat="39.913738" lon="3.091213">
        <ele>14.6</ele>
        <time>2020-05-23T18:59:29Z</time>
      </trkpt>
      <trkpt lat="39.913742" lon="3.091337">
        <ele>14.5</ele>
        <time>2020-05-23T18:59:30Z</time>
      </trkpt>
      <trkpt lat="39.91375" lon="3.091442">
        <ele>14.3</ele>
        <time>2020-05-23T18:59:31Z</time>
      </trkpt>
      <trkpt lat="39.913757" lon="3.091569">
        <ele>14.1</ele>
        <time>2020-05-23T18:59:32Z</time>
      </trkpt>
      <trkpt lat="39.913761" lon="3.091676">
        <ele>13.9</ele>
        <time>2020-05-23T18:59:33Z</time>
      </trkpt>
      <trkpt lat="39.913769" lon="3.091806">
        <ele>13.7</ele>
        <time>2020-05-23T18:59:34Z</time>
      </trkpt>
      <trkpt lat="39.913773" lon="3.091917">
        <ele>13.4</ele>
        <time>2020-05-23T18:59:35Z</time>
      </trkpt>
      <trkpt lat="39.91378" lon="3.092054">
        <ele>13.1</ele>
        <time>2020-05-23T18:59:36Z</time>
      </trkpt>
      <trkpt lat="39.913784" lon="3.09217">
        <ele>12.9</ele>
        <time>2020-05-23T18:59:37Z</time>
      </trkpt>
      <trkpt lat="39.913788" lon="3.092288">
        <ele>12.6</ele>
        <time>2020-05-23T18:59:38Z</time>
      </trkpt>
      <trkpt lat="39.913795" lon="3.092407">
        <ele>12.3</ele>
        <time>2020-05-23T18:59:39Z</time>
      </trkpt>
      <trkpt lat="39.913807" lon="3.092551">
        <ele>12.1</ele>
        <time>2020-05-23T18:59:41Z</time>
      </trkpt>
      <trkpt lat="39.913811" lon="3.092672">
        <ele>11.8</ele>
        <time>2020-05-23T18:59:42Z</time>
      </trkpt>
      <trkpt lat="39.913818" lon="3.092793">
        <ele>11.6</ele>
        <time>2020-05-23T18:59:43Z</time>
      </trkpt>
      <trkpt lat="39.913826" lon="3.092937">
        <ele>11.3</ele>
        <time>2020-05-23T18:59:44Z</time>
      </trkpt>
      <trkpt lat="39.913834" lon="3.093059">
        <ele>11.1</ele>
        <time>2020-05-23T18:59:45Z</time>
      </trkpt>
      <trkpt lat="39.913841" lon="3.093213">
        <ele>10.8</ele>
        <time>2020-05-23T18:59:46Z</time>
      </trkpt>
      <trkpt lat="39.913849" lon="3.093346">
        <ele>10.6</ele>
        <time>2020-05-23T18:59:47Z</time>
      </trkpt>
      <trkpt lat="39.913856" lon="3.093515">
        <ele>10.5</ele>
        <time>2020-05-23T18:59:48Z</time>
      </trkpt>
      <trkpt lat="39.913864" lon="3.09366">
        <ele>10.4</ele>
        <time>2020-05-23T18:59:49Z</time>
      </trkpt>
      <trkpt lat="39.913872" lon="3.093805">
        <ele>10.3</ele>
        <time>2020-05-23T18:59:50Z</time>
      </trkpt>
      <trkpt lat="39.913876" lon="3.09398">
        <ele>10.3</ele>
        <time>2020-05-23T18:59:52Z</time>
      </trkpt>
      <trkpt lat="39.913876" lon="3.094149">
        <ele>10.4</ele>
        <time>2020-05-23T18:59:53Z</time>
      </trkpt>
      <trkpt lat="39.913879" lon="3.094286">
        <ele>10.5</ele>
        <time>2020-05-23T18:59:54Z</time>
      </trkpt>
      <trkpt lat="39.913883" lon="3.094421">
        <ele>10.6</ele>
        <time>2020-05-23T18:59:55Z</time>
      </trkpt>
      <trkpt lat="39.913887" lon="3.094553">
        <ele>10.6</ele>
        <time>2020-05-23T18:59:56Z</time>
      </trkpt>
      <trkpt lat="39.913887" lon="3.094712">
        <ele>10.7</ele>
        <time>2020-05-23T18:59:57Z</time>
      </trkpt>
      <trkpt lat="39.913883" lon="3.09487">
        <ele>10.8</ele>
        <time>2020-05-23T18:59:58Z</time>
      </trkpt>
      <trkpt lat="39.913872" lon="3.095024">
        <ele>11</ele>
        <time>2020-05-23T18:59:59Z</time>
      </trkpt>
      <trkpt lat="39.913864" lon="3.095152">
        <ele>11</ele>
        <time>2020-05-23T19:00:00Z</time>
      </trkpt>
      <trkpt lat="39.913853" lon="3.095301">
        <ele>11.1</ele>
        <time>2020-05-23T19:00:02Z</time>
      </trkpt>
      <trkpt lat="39.913841" lon="3.095421">
        <ele>11.1</ele>
        <time>2020-05-23T19:00:03Z</time>
      </trkpt>
      <trkpt lat="39.913826" lon="3.095538">
        <ele>11.2</ele>
        <time>2020-05-23T19:00:04Z</time>
      </trkpt>
      <trkpt lat="39.913811" lon="3.095674">
        <ele>11.3</ele>
        <time>2020-05-23T19:00:05Z</time>
      </trkpt>
      <trkpt lat="39.913792" lon="3.095805">
        <ele>11.4</ele>
        <time>2020-05-23T19:00:06Z</time>
      </trkpt>
      <trkpt lat="39.913769" lon="3.095932">
        <ele>11.4</ele>
        <time>2020-05-23T19:00:07Z</time>
      </trkpt>
      <trkpt lat="39.913753" lon="3.096036">
        <ele>11.4</ele>
        <time>2020-05-23T19:00:08Z</time>
      </trkpt>
      <trkpt lat="39.913731" lon="3.096159">
        <ele>11.4</ele>
        <time>2020-05-23T19:00:09Z</time>
      </trkpt>
      <trkpt lat="39.913708" lon="3.096279">
        <ele>11.3</ele>
        <time>2020-05-23T19:00:11Z</time>
      </trkpt>
      <trkpt lat="39.913689" lon="3.096378">
        <ele>11.3</ele>
        <time>2020-05-23T19:00:12Z</time>
      </trkpt>
      <trkpt lat="39.91367" lon="3.096477">
        <ele>11.2</ele>
        <time>2020-05-23T19:00:13Z</time>
      </trkpt>
      <trkpt lat="39.913643" lon="3.096595">
        <ele>11.2</ele>
        <time>2020-05-23T19:00:14Z</time>
      </trkpt>
      <trkpt lat="39.913616" lon="3.096712">
        <ele>11.2</ele>
        <time>2020-05-23T19:00:15Z</time>
      </trkpt>
      <trkpt lat="39.913589" lon="3.096831">
        <ele>11.2</ele>
        <time>2020-05-23T19:00:16Z</time>
      </trkpt>
      <trkpt lat="39.913567" lon="3.096929">
        <ele>11.2</ele>
        <time>2020-05-23T19:00:17Z</time>
      </trkpt>
      <trkpt lat="39.91354" lon="3.097049">
        <ele>11.2</ele>
        <time>2020-05-23T19:00:18Z</time>
      </trkpt>
      <trkpt lat="39.913517" lon="3.097151">
        <ele>11.2</ele>
        <time>2020-05-23T19:00:19Z</time>
      </trkpt>
      <trkpt lat="39.913494" lon="3.097256">
        <ele>11.2</ele>
        <time>2020-05-23T19:00:20Z</time>
      </trkpt>
      <trkpt lat="39.913467" lon="3.097383">
        <ele>11.2</ele>
        <time>2020-05-23T19:00:22Z</time>
      </trkpt>
      <trkpt lat="39.913444" lon="3.097488">
        <ele>11.2</ele>
        <time>2020-05-23T19:00:23Z</time>
      </trkpt>
      <trkpt lat="39.913414" lon="3.097614">
        <ele>11.2</ele>
        <time>2020-05-23T19:00:24Z</time>
      </trkpt>
      <trkpt lat="39.913383" lon="3.097739">
        <ele>11.2</ele>
        <time>2020-05-23T19:00:25Z</time>
      </trkpt>
      <trkpt lat="39.913357" lon="3.097861">
        <ele>11.2</ele>
        <time>2020-05-23T19:00:26Z</time>
      </trkpt>
      <trkpt lat="39.913334" lon="3.097962">
        <ele>11.3</ele>
        <time>2020-05-23T19:00:27Z</time>
      </trkpt>
      <trkpt lat="39.913303" lon="3.098085">
        <ele>11.4</ele>
        <time>2020-05-23T19:00:28Z</time>
      </trkpt>
      <trkpt lat="39.913277" lon="3.098207">
        <ele>11.5</ele>
        <time>2020-05-23T19:00:30Z</time>
      </trkpt>
      <trkpt lat="39.913254" lon="3.098309">
        <ele>11.5</ele>
        <time>2020-05-23T19:00:31Z</time>
      </trkpt>
      <trkpt lat="39.913227" lon="3.09843">
        <ele>11.5</ele>
        <time>2020-05-23T19:00:32Z</time>
      </trkpt>
      <trkpt lat="39.9132" lon="3.098549">
        <ele>11.6</ele>
        <time>2020-05-23T19:00:33Z</time>
      </trkpt>
      <trkpt lat="39.913181" lon="3.098648">
        <ele>11.6</ele>
        <time>2020-05-23T19:00:34Z</time>
      </trkpt>
      <trkpt lat="39.913155" lon="3.098767">
        <ele>11.6</ele>
        <time>2020-05-23T19:00:35Z</time>
      </trkpt>
      <trkpt lat="39.913128" lon="3.098886">
        <ele>11.6</ele>
        <time>2020-05-23T19:00:36Z</time>
      </trkpt>
      <trkpt lat="39.913105" lon="3.099005">
        <ele>11.7</ele>
        <time>2020-05-23T19:00:38Z</time>
      </trkpt>
      <trkpt lat="39.913078" lon="3.09913">
        <ele>11.7</ele>
        <time>2020-05-23T19:00:39Z</time>
      </trkpt>
      <trkpt lat="39.913059" lon="3.09924">
        <ele>11.8</ele>
        <time>2020-05-23T19:00:40Z</time>
      </trkpt>
      <trkpt lat="39.913021" lon="3.099374">
        <ele>11.9</ele>
        <time>2020-05-23T19:00:41Z</time>
      </trkpt>
      <trkpt lat="39.912952" lon="3.099459">
        <ele>11.8</ele>
        <time>2020-05-23T19:00:42Z</time>
      </trkpt>
      <trkpt lat="39.912861" lon="3.099545">
        <ele>12.7</ele>
        <time>2020-05-23T19:00:43Z</time>
      </trkpt>
      <trkpt lat="39.912807" lon="3.09967">
        <ele>11.8</ele>
        <time>2020-05-23T19:00:44Z</time>
      </trkpt>
      <trkpt lat="39.912815" lon="3.099815">
        <ele>11.6</ele>
        <time>2020-05-23T19:00:46Z</time>
      </trkpt>
      <trkpt lat="39.912811" lon="3.099958">
        <ele>11.3</ele>
        <time>2020-05-23T19:00:47Z</time>
      </trkpt>
      <trkpt lat="39.912788" lon="3.100094">
        <ele>11.2</ele>
        <time>2020-05-23T19:00:48Z</time>
      </trkpt>
      <trkpt lat="39.912762" lon="3.100227">
        <ele>11.2</ele>
        <time>2020-05-23T19:00:49Z</time>
      </trkpt>
      <trkpt lat="39.912727" lon="3.100355">
        <ele>11.1</ele>
        <time>2020-05-23T19:00:50Z</time>
      </trkpt>
      <trkpt lat="39.912689" lon="3.100481">
        <ele>11.1</ele>
        <time>2020-05-23T19:00:52Z</time>
      </trkpt>
      <trkpt lat="39.912655" lon="3.100607">
        <ele>11</ele>
        <time>2020-05-23T19:00:53Z</time>
      </trkpt>
      <trkpt lat="39.912624" lon="3.100712">
        <ele>11</ele>
        <time>2020-05-23T19:00:54Z</time>
      </trkpt>
      <trkpt lat="39.912594" lon="3.100818">
        <ele>10.9</ele>
        <time>2020-05-23T19:00:55Z</time>
      </trkpt>
      <trkpt lat="39.912567" lon="3.100925">
        <ele>10.9</ele>
        <time>2020-05-23T19:00:56Z</time>
      </trkpt>
      <trkpt lat="39.912533" lon="3.101053">
        <ele>10.8</ele>
        <time>2020-05-23T19:00:57Z</time>
      </trkpt>
      <trkpt lat="39.912498" lon="3.101182">
        <ele>10.7</ele>
        <time>2020-05-23T19:00:58Z</time>
      </trkpt>
      <trkpt lat="39.912464" lon="3.101311">
        <ele>10.7</ele>
        <time>2020-05-23T19:00:59Z</time>
      </trkpt>
      <trkpt lat="39.912434" lon="3.10144">
        <ele>10.7</ele>
        <time>2020-05-23T19:01:01Z</time>
      </trkpt>
      <trkpt lat="39.912411" lon="3.10155">
        <ele>10.7</ele>
        <time>2020-05-23T19:01:02Z</time>
      </trkpt>
      <trkpt lat="39.912384" lon="3.10168">
        <ele>10.7</ele>
        <time>2020-05-23T19:01:03Z</time>
      </trkpt>
      <trkpt lat="39.912361" lon="3.101788">
        <ele>10.8</ele>
        <time>2020-05-23T19:01:04Z</time>
      </trkpt>
      <trkpt lat="39.912338" lon="3.101897">
        <ele>10.8</ele>
        <time>2020-05-23T19:01:05Z</time>
      </trkpt>
      <trkpt lat="39.912331" lon="3.102008">
        <ele>11</ele>
        <time>2020-05-23T19:01:06Z</time>
      </trkpt>
      <trkpt lat="39.912327" lon="3.102138">
        <ele>11.2</ele>
        <time>2020-05-23T19:01:07Z</time>
      </trkpt>
      <trkpt lat="39.912334" lon="3.102243">
        <ele>11.4</ele>
        <time>2020-05-23T19:01:08Z</time>
      </trkpt>
      <trkpt lat="39.912361" lon="3.102358">
        <ele>11.8</ele>
        <time>2020-05-23T19:01:09Z</time>
      </trkpt>
      <trkpt lat="39.912399" lon="3.10246">
        <ele>12.2</ele>
        <time>2020-05-23T19:01:10Z</time>
      </trkpt>
      <trkpt lat="39.912437" lon="3.102558">
        <ele>12.7</ele>
        <time>2020-05-23T19:01:12Z</time>
      </trkpt>
      <trkpt lat="39.912476" lon="3.102645">
        <ele>13.1</ele>
        <time>2020-05-23T19:01:13Z</time>
      </trkpt>
      <trkpt lat="39.912525" lon="3.102715">
        <ele>13.6</ele>
        <time>2020-05-23T19:01:14Z</time>
      </trkpt>
      <trkpt lat="39.912575" lon="3.102771">
        <ele>14.1</ele>
        <time>2020-05-23T19:01:15Z</time>
      </trkpt>
      <trkpt lat="39.912613" lon="3.102811">
        <ele>14.3</ele>
        <time>2020-05-23T19:01:16Z</time>
      </trkpt>
      <trkpt lat="39.912651" lon="3.102848">
        <ele>14.5</ele>
        <time>2020-05-23T19:01:17Z</time>
      </trkpt>
      <trkpt lat="39.912685" lon="3.102883">
        <ele>14.7</ele>
        <time>2020-05-23T19:01:18Z</time>
      </trkpt>
      <trkpt lat="39.912727" lon="3.102917">
        <ele>15</ele>
        <time>2020-05-23T19:01:19Z</time>
      </trkpt>
      <trkpt lat="39.912762" lon="3.102941">
        <ele>15.2</ele>
        <time>2020-05-23T19:01:20Z</time>
      </trkpt>
      <trkpt lat="39.912796" lon="3.102962">
        <ele>15.4</ele>
        <time>2020-05-23T19:01:21Z</time>
      </trkpt>
      <trkpt lat="39.912838" lon="3.102988">
        <ele>15.6</ele>
        <time>2020-05-23T19:01:23Z</time>
      </trkpt>
      <trkpt lat="39.91288" lon="3.103014">
        <ele>15.9</ele>
        <time>2020-05-23T19:01:24Z</time>
      </trkpt>
      <trkpt lat="39.912918" lon="3.103042">
        <ele>16.1</ele>
        <time>2020-05-23T19:01:25Z</time>
      </trkpt>
      <trkpt lat="39.912949" lon="3.103065">
        <ele>16.3</ele>
        <time>2020-05-23T19:01:26Z</time>
      </trkpt>
      <trkpt lat="39.912983" lon="3.103088">
        <ele>16.6</ele>
        <time>2020-05-23T19:01:27Z</time>
      </trkpt>
      <trkpt lat="39.913017" lon="3.103111">
        <ele>16.8</ele>
        <time>2020-05-23T19:01:28Z</time>
      </trkpt>
      <trkpt lat="39.913059" lon="3.103139">
        <ele>17.1</ele>
        <time>2020-05-23T19:01:29Z</time>
      </trkpt>
      <trkpt lat="39.913094" lon="3.103162">
        <ele>17.4</ele>
        <time>2020-05-23T19:01:30Z</time>
      </trkpt>
      <trkpt lat="39.913135" lon="3.103191">
        <ele>17.7</ele>
        <time>2020-05-23T19:01:31Z</time>
      </trkpt>
      <trkpt lat="39.913177" lon="3.10322">
        <ele>18</ele>
        <time>2020-05-23T19:01:33Z</time>
      </trkpt>
      <trkpt lat="39.913216" lon="3.103246">
        <ele>18.3</ele>
        <time>2020-05-23T19:01:34Z</time>
      </trkpt>
      <trkpt lat="39.91325" lon="3.103272">
        <ele>18.5</ele>
        <time>2020-05-23T19:01:35Z</time>
      </trkpt>
      <trkpt lat="39.913296" lon="3.103302">
        <ele>18.8</ele>
        <time>2020-05-23T19:01:36Z</time>
      </trkpt>
      <trkpt lat="39.913338" lon="3.103331">
        <ele>19.1</ele>
        <time>2020-05-23T19:01:37Z</time>
      </trkpt>
      <trkpt lat="39.91338" lon="3.103361">
        <ele>19.4</ele>
        <time>2020-05-23T19:01:38Z</time>
      </trkpt>
      <trkpt lat="39.913433" lon="3.103396">
        <ele>19.7</ele>
        <time>2020-05-23T19:01:39Z</time>
      </trkpt>
      <trkpt lat="39.913486" lon="3.103433">
        <ele>20.1</ele>
        <time>2020-05-23T19:01:41Z</time>
      </trkpt>
      <trkpt lat="39.913544" lon="3.103472">
        <ele>20.4</ele>
        <time>2020-05-23T19:01:42Z</time>
      </trkpt>
      <trkpt lat="39.913593" lon="3.103503">
        <ele>20.7</ele>
        <time>2020-05-23T19:01:43Z</time>
      </trkpt>
      <trkpt lat="39.91365" lon="3.103541">
        <ele>21.1</ele>
        <time>2020-05-23T19:01:44Z</time>
      </trkpt>
      <trkpt lat="39.913708" lon="3.103581">
        <ele>21.4</ele>
        <time>2020-05-23T19:01:45Z</time>
      </trkpt>
      <trkpt lat="39.913765" lon="3.103621">
        <ele>21.8</ele>
        <time>2020-05-23T19:01:46Z</time>
      </trkpt>
      <trkpt lat="39.913826" lon="3.103661">
        <ele>22.2</ele>
        <time>2020-05-23T19:01:48Z</time>
      </trkpt>
      <trkpt lat="39.913883" lon="3.1037">
        <ele>22.6</ele>
        <time>2020-05-23T19:01:49Z</time>
      </trkpt>
      <trkpt lat="39.91394" lon="3.103739">
        <ele>22.9</ele>
        <time>2020-05-23T19:01:50Z</time>
      </trkpt>
      <trkpt lat="39.913986" lon="3.103772">
        <ele>23.2</ele>
        <time>2020-05-23T19:01:51Z</time>
      </trkpt>
      <trkpt lat="39.914036" lon="3.103806">
        <ele>23.6</ele>
        <time>2020-05-23T19:01:52Z</time>
      </trkpt>
      <trkpt lat="39.914097" lon="3.103848">
        <ele>24</ele>
        <time>2020-05-23T19:01:53Z</time>
      </trkpt>
      <trkpt lat="39.914162" lon="3.103891">
        <ele>24.4</ele>
        <time>2020-05-23T19:01:54Z</time>
      </trkpt>
      <trkpt lat="39.914215" lon="3.103928">
        <ele>24.7</ele>
        <time>2020-05-23T19:01:55Z</time>
      </trkpt>
      <trkpt lat="39.91428" lon="3.103974">
        <ele>25.2</ele>
        <time>2020-05-23T19:01:57Z</time>
      </trkpt>
      <trkpt lat="39.914345" lon="3.104021">
        <ele>25.8</ele>
        <time>2020-05-23T19:01:58Z</time>
      </trkpt>
      <trkpt lat="39.914406" lon="3.104068">
        <ele>26.3</ele>
        <time>2020-05-23T19:01:59Z</time>
      </trkpt>
      <trkpt lat="39.914463" lon="3.104114">
        <ele>26.8</ele>
        <time>2020-05-23T19:02:00Z</time>
      </trkpt>
      <trkpt lat="39.914509" lon="3.104152">
        <ele>27.3</ele>
        <time>2020-05-23T19:02:01Z</time>
      </trkpt>
      <trkpt lat="39.914555" lon="3.104189">
        <ele>27.7</ele>
        <time>2020-05-23T19:02:02Z</time>
      </trkpt>
      <trkpt lat="39.914612" lon="3.104231">
        <ele>28.3</ele>
        <time>2020-05-23T19:02:03Z</time>
      </trkpt>
      <trkpt lat="39.914661" lon="3.10427">
        <ele>28.8</ele>
        <time>2020-05-23T19:02:05Z</time>
      </trkpt>
      <trkpt lat="39.914711" lon="3.104309">
        <ele>29.4</ele>
        <time>2020-05-23T19:02:06Z</time>
      </trkpt>
      <trkpt lat="39.914749" lon="3.104343">
        <ele>29.8</ele>
        <time>2020-05-23T19:02:07Z</time>
      </trkpt>
      <trkpt lat="39.914795" lon="3.104386">
        <ele>30.4</ele>
        <time>2020-05-23T19:02:08Z</time>
      </trkpt>
      <trkpt lat="39.914829" lon="3.104422">
        <ele>30.9</ele>
        <time>2020-05-23T19:02:09Z</time>
      </trkpt>
      <trkpt lat="39.914871" lon="3.104466">
        <ele>31.5</ele>
        <time>2020-05-23T19:02:10Z</time>
      </trkpt>
      <trkpt lat="39.914913" lon="3.10451">
        <ele>32.1</ele>
        <time>2020-05-23T19:02:11Z</time>
      </trkpt>
      <trkpt lat="39.91494" lon="3.104549">
        <ele>32.5</ele>
        <time>2020-05-23T19:02:12Z</time>
      </trkpt>
      <trkpt lat="39.914963" lon="3.104599">
        <ele>33</ele>
        <time>2020-05-23T19:02:14Z</time>
      </trkpt>
      <trkpt lat="39.914951" lon="3.104641">
        <ele>33.3</ele>
        <time>2020-05-23T19:02:15Z</time>
      </trkpt>
      <trkpt lat="39.914925" lon="3.10468">
        <ele>33.7</ele>
        <time>2020-05-23T19:02:16Z</time>
      </trkpt>
      <trkpt lat="39.914894" lon="3.104711">
        <ele>34</ele>
        <time>2020-05-23T19:02:17Z</time>
      </trkpt>
      <trkpt lat="39.914841" lon="3.104737">
        <ele>34.5</ele>
        <time>2020-05-23T19:02:18Z</time>
      </trkpt>
      <trkpt lat="39.914795" lon="3.104743">
        <ele>34.8</ele>
        <time>2020-05-23T19:02:19Z</time>
      </trkpt>
      <trkpt lat="39.914745" lon="3.104732">
        <ele>35.2</ele>
        <time>2020-05-23T19:02:20Z</time>
      </trkpt>
      <trkpt lat="39.914684" lon="3.104709">
        <ele>35.6</ele>
        <time>2020-05-23T19:02:21Z</time>
      </trkpt>
      <trkpt lat="39.914623" lon="3.104686">
        <ele>35.9</ele>
        <time>2020-05-23T19:02:23Z</time>
      </trkpt>
      <trkpt lat="39.914558" lon="3.104665">
        <ele>36.2</ele>
        <time>2020-05-23T19:02:24Z</time>
      </trkpt>
      <trkpt lat="39.914493" lon="3.104645">
        <ele>36.6</ele>
        <time>2020-05-23T19:02:25Z</time>
      </trkpt>
      <trkpt lat="39.914429" lon="3.104628">
        <ele>36.9</ele>
        <time>2020-05-23T19:02:26Z</time>
      </trkpt>
      <trkpt lat="39.914364" lon="3.104611">
        <ele>37.2</ele>
        <time>2020-05-23T19:02:27Z</time>
      </trkpt>
      <trkpt lat="39.914299" lon="3.104594">
        <ele>37.6</ele>
        <time>2020-05-23T19:02:29Z</time>
      </trkpt>
      <trkpt lat="39.914234" lon="3.104577">
        <ele>37.9</ele>
        <time>2020-05-23T19:02:30Z</time>
      </trkpt>
      <trkpt lat="39.914169" lon="3.10456">
        <ele>38.3</ele>
        <time>2020-05-23T19:02:31Z</time>
      </trkpt>
      <trkpt lat="39.914101" lon="3.104541">
        <ele>38.7</ele>
        <time>2020-05-23T19:02:32Z</time>
      </trkpt>
      <trkpt lat="39.914028" lon="3.104522">
        <ele>39.1</ele>
        <time>2020-05-23T19:02:33Z</time>
      </trkpt>
      <trkpt lat="39.913959" lon="3.104505">
        <ele>39.5</ele>
        <time>2020-05-23T19:02:35Z</time>
      </trkpt>
      <trkpt lat="39.913891" lon="3.104489">
        <ele>39.9</ele>
        <time>2020-05-23T19:02:36Z</time>
      </trkpt>
      <trkpt lat="39.913826" lon="3.104471">
        <ele>40.2</ele>
        <time>2020-05-23T19:02:37Z</time>
      </trkpt>
      <trkpt lat="39.913753" lon="3.104452">
        <ele>40.7</ele>
        <time>2020-05-23T19:02:38Z</time>
      </trkpt>
      <trkpt lat="39.913685" lon="3.104433">
        <ele>41</ele>
        <time>2020-05-23T19:02:39Z</time>
      </trkpt>
      <trkpt lat="39.913631" lon="3.104416">
        <ele>41.3</ele>
        <time>2020-05-23T19:02:40Z</time>
      </trkpt>
      <trkpt lat="39.913563" lon="3.104397">
        <ele>41.7</ele>
        <time>2020-05-23T19:02:42Z</time>
      </trkpt>
      <trkpt lat="39.913494" lon="3.104377">
        <ele>42</ele>
        <time>2020-05-23T19:02:43Z</time>
      </trkpt>
      <trkpt lat="39.913425" lon="3.104358">
        <ele>42.3</ele>
        <time>2020-05-23T19:02:44Z</time>
      </trkpt>
      <trkpt lat="39.913353" lon="3.104339">
        <ele>42.6</ele>
        <time>2020-05-23T19:02:45Z</time>
      </trkpt>
      <trkpt lat="39.91328" lon="3.10432">
        <ele>42.9</ele>
        <time>2020-05-23T19:02:46Z</time>
      </trkpt>
      <trkpt lat="39.913208" lon="3.1043">
        <ele>43.2</ele>
        <time>2020-05-23T19:02:48Z</time>
      </trkpt>
      <trkpt lat="39.913132" lon="3.104279">
        <ele>43.5</ele>
        <time>2020-05-23T19:02:49Z</time>
      </trkpt>
      <trkpt lat="39.913067" lon="3.104262">
        <ele>43.7</ele>
        <time>2020-05-23T19:02:50Z</time>
      </trkpt>
      <trkpt lat="39.913002" lon="3.104244">
        <ele>43.9</ele>
        <time>2020-05-23T19:02:51Z</time>
      </trkpt>
      <trkpt lat="39.912926" lon="3.104223">
        <ele>44.2</ele>
        <time>2020-05-23T19:02:52Z</time>
      </trkpt>
      <trkpt lat="39.912849" lon="3.104202">
        <ele>44.5</ele>
        <time>2020-05-23T19:02:53Z</time>
      </trkpt>
      <trkpt lat="39.912769" lon="3.104181">
        <ele>44.8</ele>
        <time>2020-05-23T19:02:54Z</time>
      </trkpt>
      <trkpt lat="39.912701" lon="3.104164">
        <ele>45</ele>
        <time>2020-05-23T19:02:55Z</time>
      </trkpt>
      <trkpt lat="39.91262" lon="3.104145">
        <ele>45.3</ele>
        <time>2020-05-23T19:02:57Z</time>
      </trkpt>
      <trkpt lat="39.912537" lon="3.104133">
        <ele>45.5</ele>
        <time>2020-05-23T19:02:58Z</time>
      </trkpt>
      <trkpt lat="39.912456" lon="3.104126">
        <ele>45.8</ele>
        <time>2020-05-23T19:02:59Z</time>
      </trkpt>
      <trkpt lat="39.912388" lon="3.10412">
        <ele>46</ele>
        <time>2020-05-23T19:03:00Z</time>
      </trkpt>
      <trkpt lat="39.912304" lon="3.104113">
        <ele>46.3</ele>
        <time>2020-05-23T19:03:01Z</time>
      </trkpt>
      <trkpt lat="39.91222" lon="3.104112">
        <ele>46.7</ele>
        <time>2020-05-23T19:03:02Z</time>
      </trkpt>
      <trkpt lat="39.91214" lon="3.104116">
        <ele>47</ele>
        <time>2020-05-23T19:03:04Z</time>
      </trkpt>
      <trkpt lat="39.912056" lon="3.104121">
        <ele>47.3</ele>
        <time>2020-05-23T19:03:05Z</time>
      </trkpt>
      <trkpt lat="39.911983" lon="3.104126">
        <ele>47.6</ele>
        <time>2020-05-23T19:03:06Z</time>
      </trkpt>
      <trkpt lat="39.911915" lon="3.104134">
        <ele>48</ele>
        <time>2020-05-23T19:03:07Z</time>
      </trkpt>
      <trkpt lat="39.911842" lon="3.104147">
        <ele>48.3</ele>
        <time>2020-05-23T19:03:08Z</time>
      </trkpt>
      <trkpt lat="39.911762" lon="3.104167">
        <ele>48.7</ele>
        <time>2020-05-23T19:03:09Z</time>
      </trkpt>
      <trkpt lat="39.911686" lon="3.104196">
        <ele>49.1</ele>
        <time>2020-05-23T19:03:10Z</time>
      </trkpt>
      <trkpt lat="39.911632" lon="3.104247">
        <ele>49.5</ele>
        <time>2020-05-23T19:03:11Z</time>
      </trkpt>
      <trkpt lat="39.911621" lon="3.104338">
        <ele>49.9</ele>
        <time>2020-05-23T19:03:12Z</time>
      </trkpt>
      <trkpt lat="39.911629" lon="3.104424">
        <ele>50.4</ele>
        <time>2020-05-23T19:03:14Z</time>
      </trkpt>
      <trkpt lat="39.911659" lon="3.1045">
        <ele>51.4</ele>
        <time>2020-05-23T19:03:15Z</time>
      </trkpt>
      <trkpt lat="39.911724" lon="3.104518">
        <ele>51.8</ele>
        <time>2020-05-23T19:03:16Z</time>
      </trkpt>
      <trkpt lat="39.911797" lon="3.104503">
        <ele>52.3</ele>
        <time>2020-05-23T19:03:17Z</time>
      </trkpt>
      <trkpt lat="39.911861" lon="3.104488">
        <ele>52.8</ele>
        <time>2020-05-23T19:03:18Z</time>
      </trkpt>
      <trkpt lat="39.911941" lon="3.104483">
        <ele>53.4</ele>
        <time>2020-05-23T19:03:19Z</time>
      </trkpt>
      <trkpt lat="39.912018" lon="3.104489">
        <ele>53.9</ele>
        <time>2020-05-23T19:03:21Z</time>
      </trkpt>
      <trkpt lat="39.912079" lon="3.104491">
        <ele>54.4</ele>
        <time>2020-05-23T19:03:22Z</time>
      </trkpt>
      <trkpt lat="39.912132" lon="3.104492">
        <ele>54.8</ele>
        <time>2020-05-23T19:03:23Z</time>
      </trkpt>
      <trkpt lat="39.912186" lon="3.104495">
        <ele>55.2</ele>
        <time>2020-05-23T19:03:24Z</time>
      </trkpt>
      <trkpt lat="39.912254" lon="3.1045">
        <ele>55.7</ele>
        <time>2020-05-23T19:03:25Z</time>
      </trkpt>
      <trkpt lat="39.912323" lon="3.104506">
        <ele>56.3</ele>
        <time>2020-05-23T19:03:26Z</time>
      </trkpt>
      <trkpt lat="39.91238" lon="3.104515">
        <ele>56.7</ele>
        <time>2020-05-23T19:03:27Z</time>
      </trkpt>
      <trkpt lat="39.912449" lon="3.10453">
        <ele>57.3</ele>
        <time>2020-05-23T19:03:28Z</time>
      </trkpt>
      <trkpt lat="39.912518" lon="3.104548">
        <ele>57.9</ele>
        <time>2020-05-23T19:03:29Z</time>
      </trkpt>
      <trkpt lat="39.912571" lon="3.104563">
        <ele>58.3</ele>
        <time>2020-05-23T19:03:30Z</time>
      </trkpt>
      <trkpt lat="39.912636" lon="3.104582">
        <ele>58.8</ele>
        <time>2020-05-23T19:03:32Z</time>
      </trkpt>
      <trkpt lat="39.912689" lon="3.104604">
        <ele>59.3</ele>
        <time>2020-05-23T19:03:33Z</time>
      </trkpt>
      <trkpt lat="39.912739" lon="3.104633">
        <ele>59.8</ele>
        <time>2020-05-23T19:03:34Z</time>
      </trkpt>
      <trkpt lat="39.912781" lon="3.104667">
        <ele>60.2</ele>
        <time>2020-05-23T19:03:35Z</time>
      </trkpt>
      <trkpt lat="39.912819" lon="3.104698">
        <ele>60.5</ele>
        <time>2020-05-23T19:03:36Z</time>
      </trkpt>
      <trkpt lat="39.912868" lon="3.104734">
        <ele>61</ele>
        <time>2020-05-23T19:03:37Z</time>
      </trkpt>
      <trkpt lat="39.91291" lon="3.104767">
        <ele>61.4</ele>
        <time>2020-05-23T19:03:39Z</time>
      </trkpt>
      <trkpt lat="39.912949" lon="3.104799">
        <ele>61.7</ele>
        <time>2020-05-23T19:03:40Z</time>
      </trkpt>
      <trkpt lat="39.912979" lon="3.104827">
        <ele>62</ele>
        <time>2020-05-23T19:03:41Z</time>
      </trkpt>
      <trkpt lat="39.913021" lon="3.104862">
        <ele>62.3</ele>
        <time>2020-05-23T19:03:42Z</time>
      </trkpt>
      <trkpt lat="39.913067" lon="3.104898">
        <ele>62.7</ele>
        <time>2020-05-23T19:03:43Z</time>
      </trkpt>
      <trkpt lat="39.913113" lon="3.104933">
        <ele>63.1</ele>
        <time>2020-05-23T19:03:44Z</time>
      </trkpt>
      <trkpt lat="39.913162" lon="3.104969">
        <ele>63.5</ele>
        <time>2020-05-23T19:03:46Z</time>
      </trkpt>
      <trkpt lat="39.913216" lon="3.105001">
        <ele>63.9</ele>
        <time>2020-05-23T19:03:47Z</time>
      </trkpt>
      <trkpt lat="39.913258" lon="3.105023">
        <ele>64.3</ele>
        <time>2020-05-23T19:03:48Z</time>
      </trkpt>
      <trkpt lat="39.913303" lon="3.10504">
        <ele>64.6</ele>
        <time>2020-05-23T19:03:49Z</time>
      </trkpt>
      <trkpt lat="39.913353" lon="3.105053">
        <ele>65</ele>
        <time>2020-05-23T19:03:50Z</time>
      </trkpt>
      <trkpt lat="39.913414" lon="3.105069">
        <ele>65.4</ele>
        <time>2020-05-23T19:03:51Z</time>
      </trkpt>
      <trkpt lat="39.913479" lon="3.105088">
        <ele>66</ele>
        <time>2020-05-23T19:03:52Z</time>
      </trkpt>
      <trkpt lat="39.913528" lon="3.105104">
        <ele>66.4</ele>
        <time>2020-05-23T19:03:53Z</time>
      </trkpt>
      <trkpt lat="39.913578" lon="3.105119">
        <ele>66.7</ele>
        <time>2020-05-23T19:03:54Z</time>
      </trkpt>
      <trkpt lat="39.913635" lon="3.105141">
        <ele>67.1</ele>
        <time>2020-05-23T19:03:55Z</time>
      </trkpt>
      <trkpt lat="39.913685" lon="3.105163">
        <ele>67.5</ele>
        <time>2020-05-23T19:03:56Z</time>
      </trkpt>
      <trkpt lat="39.913746" lon="3.10519">
        <ele>67.9</ele>
        <time>2020-05-23T19:03:58Z</time>
      </trkpt>
      <trkpt lat="39.913795" lon="3.105213">
        <ele>68.3</ele>
        <time>2020-05-23T19:03:59Z</time>
      </trkpt>
      <trkpt lat="39.913841" lon="3.10524">
        <ele>68.6</ele>
        <time>2020-05-23T19:04:00Z</time>
      </trkpt>
      <trkpt lat="39.913898" lon="3.105278">
        <ele>69</ele>
        <time>2020-05-23T19:04:01Z</time>
      </trkpt>
      <trkpt lat="39.91394" lon="3.105317">
        <ele>69.3</ele>
        <time>2020-05-23T19:04:02Z</time>
      </trkpt>
      <trkpt lat="39.91399" lon="3.105367">
        <ele>69.7</ele>
        <time>2020-05-23T19:04:03Z</time>
      </trkpt>
      <trkpt lat="39.914043" lon="3.105419">
        <ele>70.1</ele>
        <time>2020-05-23T19:04:04Z</time>
      </trkpt>
      <trkpt lat="39.914097" lon="3.105471">
        <ele>70.5</ele>
        <time>2020-05-23T19:04:05Z</time>
      </trkpt>
      <trkpt lat="39.914143" lon="3.105515">
        <ele>70.8</ele>
        <time>2020-05-23T19:04:06Z</time>
      </trkpt>
      <trkpt lat="39.914188" lon="3.105558">
        <ele>71.1</ele>
        <time>2020-05-23T19:04:07Z</time>
      </trkpt>
      <trkpt lat="39.914238" lon="3.1056">
        <ele>71.5</ele>
        <time>2020-05-23T19:04:08Z</time>
      </trkpt>
      <trkpt lat="39.914284" lon="3.10564">
        <ele>71.9</ele>
        <time>2020-05-23T19:04:09Z</time>
      </trkpt>
      <trkpt lat="39.914329" lon="3.105678">
        <ele>72.2</ele>
        <time>2020-05-23T19:04:10Z</time>
      </trkpt>
      <trkpt lat="39.914371" lon="3.105714">
        <ele>72.5</ele>
        <time>2020-05-23T19:04:11Z</time>
      </trkpt>
      <trkpt lat="39.914413" lon="3.105748">
        <ele>72.9</ele>
        <time>2020-05-23T19:04:12Z</time>
      </trkpt>
      <trkpt lat="39.914455" lon="3.105784">
        <ele>73.2</ele>
        <time>2020-05-23T19:04:13Z</time>
      </trkpt>
      <trkpt lat="39.914513" lon="3.10583">
        <ele>73.7</ele>
        <time>2020-05-23T19:04:15Z</time>
      </trkpt>
      <trkpt lat="39.91457" lon="3.10588">
        <ele>74.1</ele>
        <time>2020-05-23T19:04:16Z</time>
      </trkpt>
      <trkpt lat="39.914619" lon="3.105922">
        <ele>74.6</ele>
        <time>2020-05-23T19:04:17Z</time>
      </trkpt>
      <trkpt lat="39.914677" lon="3.105977">
        <ele>75.1</ele>
        <time>2020-05-23T19:04:18Z</time>
      </trkpt>
      <trkpt lat="39.914726" lon="3.106035">
        <ele>75.7</ele>
        <time>2020-05-23T19:04:19Z</time>
      </trkpt>
      <trkpt lat="39.914776" lon="3.106092">
        <ele>76.2</ele>
        <time>2020-05-23T19:04:20Z</time>
      </trkpt>
      <trkpt lat="39.914818" lon="3.10614">
        <ele>76.6</ele>
        <time>2020-05-23T19:04:21Z</time>
      </trkpt>
      <trkpt lat="39.914867" lon="3.106198">
        <ele>77.1</ele>
        <time>2020-05-23T19:04:23Z</time>
      </trkpt>
      <trkpt lat="39.914902" lon="3.106248">
        <ele>77.5</ele>
        <time>2020-05-23T19:04:24Z</time>
      </trkpt>
      <trkpt lat="39.91494" lon="3.106303">
        <ele>77.8</ele>
        <time>2020-05-23T19:04:25Z</time>
      </trkpt>
      <trkpt lat="39.914963" lon="3.106345">
        <ele>78.1</ele>
        <time>2020-05-23T19:04:26Z</time>
      </trkpt>
      <trkpt lat="39.914997" lon="3.106395">
        <ele>78.4</ele>
        <time>2020-05-23T19:04:27Z</time>
      </trkpt>
      <trkpt lat="39.915024" lon="3.106437">
        <ele>78.7</ele>
        <time>2020-05-23T19:04:28Z</time>
      </trkpt>
      <trkpt lat="39.915054" lon="3.10648">
        <ele>79.1</ele>
        <time>2020-05-23T19:04:29Z</time>
      </trkpt>
      <trkpt lat="39.915092" lon="3.106533">
        <ele>79.4</ele>
        <time>2020-05-23T19:04:30Z</time>
      </trkpt>
      <trkpt lat="39.915134" lon="3.106586">
        <ele>79.9</ele>
        <time>2020-05-23T19:04:31Z</time>
      </trkpt>
      <trkpt lat="39.91518" lon="3.106638">
        <ele>80.3</ele>
        <time>2020-05-23T19:04:33Z</time>
      </trkpt>
      <trkpt lat="39.915226" lon="3.10669">
        <ele>80.7</ele>
        <time>2020-05-23T19:04:34Z</time>
      </trkpt>
      <trkpt lat="39.915276" lon="3.106744">
        <ele>81.2</ele>
        <time>2020-05-23T19:04:35Z</time>
      </trkpt>
      <trkpt lat="39.915314" lon="3.106788">
        <ele>81.6</ele>
        <time>2020-05-23T19:04:36Z</time>
      </trkpt>
      <trkpt lat="39.915356" lon="3.106832">
        <ele>82</ele>
        <time>2020-05-23T19:04:37Z</time>
      </trkpt>
      <trkpt lat="39.915401" lon="3.106883">
        <ele>82.4</ele>
        <time>2020-05-23T19:04:38Z</time>
      </trkpt>
      <trkpt lat="39.915447" lon="3.106936">
        <ele>82.9</ele>
        <time>2020-05-23T19:04:39Z</time>
      </trkpt>
      <trkpt lat="39.915489" lon="3.106981">
        <ele>83.3</ele>
        <time>2020-05-23T19:04:40Z</time>
      </trkpt>
      <trkpt lat="39.915535" lon="3.107035">
        <ele>83.8</ele>
        <time>2020-05-23T19:04:42Z</time>
      </trkpt>
      <trkpt lat="39.915573" lon="3.107079">
        <ele>84.1</ele>
        <time>2020-05-23T19:04:43Z</time>
      </trkpt>
      <trkpt lat="39.915623" lon="3.10713">
        <ele>84.6</ele>
        <time>2020-05-23T19:04:44Z</time>
      </trkpt>
      <trkpt lat="39.915668" lon="3.10718">
        <ele>85.1</ele>
        <time>2020-05-23T19:04:45Z</time>
      </trkpt>
      <trkpt lat="39.91571" lon="3.107231">
        <ele>85.5</ele>
        <time>2020-05-23T19:04:46Z</time>
      </trkpt>
      <trkpt lat="39.915752" lon="3.10728">
        <ele>86</ele>
        <time>2020-05-23T19:04:47Z</time>
      </trkpt>
      <trkpt lat="39.915794" lon="3.107329">
        <ele>86.4</ele>
        <time>2020-05-23T19:04:49Z</time>
      </trkpt>
      <trkpt lat="39.915829" lon="3.10737">
        <ele>86.8</ele>
        <time>2020-05-23T19:04:50Z</time>
      </trkpt>
      <trkpt lat="39.915871" lon="3.107419">
        <ele>87.2</ele>
        <time>2020-05-23T19:04:51Z</time>
      </trkpt>
      <trkpt lat="39.915905" lon="3.10746">
        <ele>87.6</ele>
        <time>2020-05-23T19:04:52Z</time>
      </trkpt>
      <trkpt lat="39.915947" lon="3.107508">
        <ele>88</ele>
        <time>2020-05-23T19:04:53Z</time>
      </trkpt>
      <trkpt lat="39.915989" lon="3.107555">
        <ele>88.4</ele>
        <time>2020-05-23T19:04:54Z</time>
      </trkpt>
      <trkpt lat="39.916031" lon="3.107602">
        <ele>88.9</ele>
        <time>2020-05-23T19:04:55Z</time>
      </trkpt>
      <trkpt lat="39.916073" lon="3.107649">
        <ele>89.3</ele>
        <time>2020-05-23T19:04:57Z</time>
      </trkpt>
      <trkpt lat="39.916111" lon="3.107695">
        <ele>89.7</ele>
        <time>2020-05-23T19:04:58Z</time>
      </trkpt>
      <trkpt lat="39.916145" lon="3.107733">
        <ele>90.1</ele>
        <time>2020-05-23T19:04:59Z</time>
      </trkpt>
      <trkpt lat="39.916183" lon="3.10778">
        <ele>90.6</ele>
        <time>2020-05-23T19:05:00Z</time>
      </trkpt>
      <trkpt lat="39.916225" lon="3.107829">
        <ele>91</ele>
        <time>2020-05-23T19:05:01Z</time>
      </trkpt>
      <trkpt lat="39.916267" lon="3.10788">
        <ele>91.5</ele>
        <time>2020-05-23T19:05:02Z</time>
      </trkpt>
      <trkpt lat="39.916302" lon="3.107923">
        <ele>91.9</ele>
        <time>2020-05-23T19:05:03Z</time>
      </trkpt>
      <trkpt lat="39.916347" lon="3.107972">
        <ele>92.4</ele>
        <time>2020-05-23T19:05:05Z</time>
      </trkpt>
      <trkpt lat="39.916397" lon="3.108011">
        <ele>92.8</ele>
        <time>2020-05-23T19:05:06Z</time>
      </trkpt>
      <trkpt lat="39.916443" lon="3.108035">
        <ele>93.1</ele>
        <time>2020-05-23T19:05:07Z</time>
      </trkpt>
      <trkpt lat="39.9165" lon="3.108058">
        <ele>93.4</ele>
        <time>2020-05-23T19:05:08Z</time>
      </trkpt>
      <trkpt lat="39.916553" lon="3.108073">
        <ele>93.6</ele>
        <time>2020-05-23T19:05:09Z</time>
      </trkpt>
      <trkpt lat="39.916603" lon="3.108069">
        <ele>93.8</ele>
        <time>2020-05-23T19:05:10Z</time>
      </trkpt>
      <trkpt lat="39.91666" lon="3.108036">
        <ele>94.1</ele>
        <time>2020-05-23T19:05:11Z</time>
      </trkpt>
      <trkpt lat="39.916706" lon="3.107994">
        <ele>94.4</ele>
        <time>2020-05-23T19:05:12Z</time>
      </trkpt>
      <trkpt lat="39.916752" lon="3.10795">
        <ele>94.7</ele>
        <time>2020-05-23T19:05:13Z</time>
      </trkpt>
      <trkpt lat="39.916809" lon="3.107895">
        <ele>95.1</ele>
        <time>2020-05-23T19:05:15Z</time>
      </trkpt>
      <trkpt lat="39.916855" lon="3.107843">
        <ele>95.6</ele>
        <time>2020-05-23T19:05:16Z</time>
      </trkpt>
      <trkpt lat="39.916901" lon="3.107771">
        <ele>96.1</ele>
        <time>2020-05-23T19:05:17Z</time>
      </trkpt>
      <trkpt lat="39.916943" lon="3.1077">
        <ele>96.5</ele>
        <time>2020-05-23T19:05:18Z</time>
      </trkpt>
      <trkpt lat="39.916981" lon="3.107645">
        <ele>96.9</ele>
        <time>2020-05-23T19:05:19Z</time>
      </trkpt>
      <trkpt lat="39.917026" lon="3.107584">
        <ele>97.4</ele>
        <time>2020-05-23T19:05:20Z</time>
      </trkpt>
      <trkpt lat="39.917068" lon="3.107525">
        <ele>97.8</ele>
        <time>2020-05-23T19:05:21Z</time>
      </trkpt>
      <trkpt lat="39.917107" lon="3.107467">
        <ele>98.2</ele>
        <time>2020-05-23T19:05:23Z</time>
      </trkpt>
      <trkpt lat="39.917141" lon="3.107417">
        <ele>98.5</ele>
        <time>2020-05-23T19:05:24Z</time>
      </trkpt>
      <trkpt lat="39.917183" lon="3.107355">
        <ele>99</ele>
        <time>2020-05-23T19:05:25Z</time>
      </trkpt>
      <trkpt lat="39.917225" lon="3.107295">
        <ele>99.4</ele>
        <time>2020-05-23T19:05:26Z</time>
      </trkpt>
      <trkpt lat="39.917259" lon="3.107245">
        <ele>99.8</ele>
        <time>2020-05-23T19:05:27Z</time>
      </trkpt>
      <trkpt lat="39.917294" lon="3.107193">
        <ele>100.2</ele>
        <time>2020-05-23T19:05:28Z</time>
      </trkpt>
      <trkpt lat="39.917335" lon="3.107127">
        <ele>100.6</ele>
        <time>2020-05-23T19:05:29Z</time>
      </trkpt>
      <trkpt lat="39.91737" lon="3.107055">
        <ele>101.1</ele>
        <time>2020-05-23T19:05:30Z</time>
      </trkpt>
      <trkpt lat="39.9174" lon="3.106993">
        <ele>101.4</ele>
        <time>2020-05-23T19:05:31Z</time>
      </trkpt>
      <trkpt lat="39.917419" lon="3.10691">
        <ele>101.8</ele>
        <time>2020-05-23T19:05:33Z</time>
      </trkpt>
      <trkpt lat="39.917416" lon="3.106838">
        <ele>102.1</ele>
        <time>2020-05-23T19:05:34Z</time>
      </trkpt>
      <trkpt lat="39.917396" lon="3.106758">
        <ele>102.5</ele>
        <time>2020-05-23T19:05:35Z</time>
      </trkpt>
      <trkpt lat="39.917377" lon="3.106679">
        <ele>102.9</ele>
        <time>2020-05-23T19:05:36Z</time>
      </trkpt>
      <trkpt lat="39.917362" lon="3.106611">
        <ele>103.2</ele>
        <time>2020-05-23T19:05:37Z</time>
      </trkpt>
      <trkpt lat="39.917347" lon="3.106529">
        <ele>103.7</ele>
        <time>2020-05-23T19:05:38Z</time>
      </trkpt>
      <trkpt lat="39.917332" lon="3.106461">
        <ele>104</ele>
        <time>2020-05-23T19:05:39Z</time>
      </trkpt>
      <trkpt lat="39.91732" lon="3.106392">
        <ele>104.4</ele>
        <time>2020-05-23T19:05:40Z</time>
      </trkpt>
      <trkpt lat="39.917309" lon="3.106323">
        <ele>104.8</ele>
        <time>2020-05-23T19:05:41Z</time>
      </trkpt>
      <trkpt lat="39.917301" lon="3.106243">
        <ele>105.2</ele>
        <time>2020-05-23T19:05:42Z</time>
      </trkpt>
      <trkpt lat="39.917294" lon="3.106171">
        <ele>105.5</ele>
        <time>2020-05-23T19:05:44Z</time>
      </trkpt>
      <trkpt lat="39.917286" lon="3.106105">
        <ele>105.9</ele>
        <time>2020-05-23T19:05:45Z</time>
      </trkpt>
      <trkpt lat="39.917282" lon="3.106036">
        <ele>106.2</ele>
        <time>2020-05-23T19:05:46Z</time>
      </trkpt>
      <trkpt lat="39.91729" lon="3.105975">
        <ele>106.5</ele>
        <time>2020-05-23T19:05:47Z</time>
      </trkpt>
      <trkpt lat="39.917313" lon="3.105907">
        <ele>106.9</ele>
        <time>2020-05-23T19:05:48Z</time>
      </trkpt>
      <trkpt lat="39.917343" lon="3.105841">
        <ele>107.3</ele>
        <time>2020-05-23T19:05:49Z</time>
      </trkpt>
      <trkpt lat="39.917381" lon="3.105783">
        <ele>107.7</ele>
        <time>2020-05-23T19:05:51Z</time>
      </trkpt>
      <trkpt lat="39.917427" lon="3.105766">
        <ele>108</ele>
        <time>2020-05-23T19:05:52Z</time>
      </trkpt>
      <trkpt lat="39.91748" lon="3.105769">
        <ele>108.4</ele>
        <time>2020-05-23T19:05:53Z</time>
      </trkpt>
      <trkpt lat="39.91753" lon="3.105776">
        <ele>108.7</ele>
        <time>2020-05-23T19:05:54Z</time>
      </trkpt>
      <trkpt lat="39.917591" lon="3.105783">
        <ele>109.2</ele>
        <time>2020-05-23T19:05:55Z</time>
      </trkpt>
      <trkpt lat="39.917648" lon="3.10579">
        <ele>109.6</ele>
        <time>2020-05-23T19:05:56Z</time>
      </trkpt>
      <trkpt lat="39.917694" lon="3.105804">
        <ele>110</ele>
        <time>2020-05-23T19:05:57Z</time>
      </trkpt>
      <trkpt lat="39.91774" lon="3.105832">
        <ele>110.4</ele>
        <time>2020-05-23T19:05:58Z</time>
      </trkpt>
      <trkpt lat="39.917786" lon="3.105864">
        <ele>110.8</ele>
        <time>2020-05-23T19:06:00Z</time>
      </trkpt>
      <trkpt lat="39.917824" lon="3.105889">
        <ele>111.2</ele>
        <time>2020-05-23T19:06:01Z</time>
      </trkpt>
      <trkpt lat="39.917873" lon="3.105918">
        <ele>111.6</ele>
        <time>2020-05-23T19:06:02Z</time>
      </trkpt>
      <trkpt lat="39.917919" lon="3.105941">
        <ele>112</ele>
        <time>2020-05-23T19:06:03Z</time>
      </trkpt>
      <trkpt lat="39.917969" lon="3.105972">
        <ele>112.5</ele>
        <time>2020-05-23T19:06:04Z</time>
      </trkpt>
      <trkpt lat="39.918014" lon="3.106002">
        <ele>112.9</ele>
        <time>2020-05-23T19:06:05Z</time>
      </trkpt>
      <trkpt lat="39.918064" lon="3.106041">
        <ele>113.4</ele>
        <time>2020-05-23T19:06:06Z</time>
      </trkpt>
      <trkpt lat="39.91811" lon="3.106081">
        <ele>113.8</ele>
        <time>2020-05-23T19:06:07Z</time>
      </trkpt>
      <trkpt lat="39.918159" lon="3.106118">
        <ele>114.2</ele>
        <time>2020-05-23T19:06:09Z</time>
      </trkpt>
      <trkpt lat="39.918201" lon="3.106148">
        <ele>114.6</ele>
        <time>2020-05-23T19:06:10Z</time>
      </trkpt>
      <trkpt lat="39.918251" lon="3.106185">
        <ele>115</ele>
        <time>2020-05-23T19:06:11Z</time>
      </trkpt>
      <trkpt lat="39.918289" lon="3.106215">
        <ele>115.3</ele>
        <time>2020-05-23T19:06:12Z</time>
      </trkpt>
      <trkpt lat="39.918339" lon="3.106252">
        <ele>115.8</ele>
        <time>2020-05-23T19:06:13Z</time>
      </trkpt>
      <trkpt lat="39.918388" lon="3.106288">
        <ele>116.2</ele>
        <time>2020-05-23T19:06:14Z</time>
      </trkpt>
      <trkpt lat="39.91843" lon="3.106319">
        <ele>116.5</ele>
        <time>2020-05-23T19:06:15Z</time>
      </trkpt>
      <trkpt lat="39.91848" lon="3.106357">
        <ele>116.9</ele>
        <time>2020-05-23T19:06:16Z</time>
      </trkpt>
      <trkpt lat="39.918529" lon="3.106393">
        <ele>117.3</ele>
        <time>2020-05-23T19:06:18Z</time>
      </trkpt>
      <trkpt lat="39.918575" lon="3.106422">
        <ele>117.7</ele>
        <time>2020-05-23T19:06:19Z</time>
      </trkpt>
      <trkpt lat="39.918632" lon="3.106454">
        <ele>118.1</ele>
        <time>2020-05-23T19:06:20Z</time>
      </trkpt>
      <trkpt lat="39.918686" lon="3.106484">
        <ele>118.5</ele>
        <time>2020-05-23T19:06:21Z</time>
      </trkpt>
      <trkpt lat="39.918732" lon="3.106509">
        <ele>118.9</ele>
        <time>2020-05-23T19:06:22Z</time>
      </trkpt>
      <trkpt lat="39.918774" lon="3.106534">
        <ele>119.3</ele>
        <time>2020-05-23T19:06:23Z</time>
      </trkpt>
      <trkpt lat="39.918827" lon="3.106563">
        <ele>119.7</ele>
        <time>2020-05-23T19:06:24Z</time>
      </trkpt>
      <trkpt lat="39.91888" lon="3.106592">
        <ele>120.1</ele>
        <time>2020-05-23T19:06:25Z</time>
      </trkpt>
      <trkpt lat="39.91893" lon="3.10662">
        <ele>120.5</ele>
        <time>2020-05-23T19:06:26Z</time>
      </trkpt>
      <trkpt lat="39.918976" lon="3.10665">
        <ele>120.9</ele>
        <time>2020-05-23T19:06:27Z</time>
      </trkpt>
      <trkpt lat="39.919037" lon="3.106686">
        <ele>121.4</ele>
        <time>2020-05-23T19:06:29Z</time>
      </trkpt>
      <trkpt lat="39.91909" lon="3.10672">
        <ele>121.9</ele>
        <time>2020-05-23T19:06:30Z</time>
      </trkpt>
      <trkpt lat="39.919136" lon="3.106747">
        <ele>122.2</ele>
        <time>2020-05-23T19:06:31Z</time>
      </trkpt>
      <trkpt lat="39.919182" lon="3.106773">
        <ele>122.6</ele>
        <time>2020-05-23T19:06:32Z</time>
      </trkpt>
      <trkpt lat="39.919235" lon="3.106805">
        <ele>123</ele>
        <time>2020-05-23T19:06:33Z</time>
      </trkpt>
      <trkpt lat="39.919281" lon="3.106831">
        <ele>123.4</ele>
        <time>2020-05-23T19:06:34Z</time>
      </trkpt>
      <trkpt lat="39.919338" lon="3.106866">
        <ele>123.9</ele>
        <time>2020-05-23T19:06:35Z</time>
      </trkpt>
      <trkpt lat="39.919384" lon="3.106902">
        <ele>124.4</ele>
        <time>2020-05-23T19:06:36Z</time>
      </trkpt>
      <trkpt lat="39.919434" lon="3.106932">
        <ele>124.9</ele>
        <time>2020-05-23T19:06:37Z</time>
      </trkpt>
      <trkpt lat="39.919479" lon="3.106958">
        <ele>125.4</ele>
        <time>2020-05-23T19:06:38Z</time>
      </trkpt>
      <trkpt lat="39.919533" lon="3.106988">
        <ele>125.9</ele>
        <time>2020-05-23T19:06:39Z</time>
      </trkpt>
      <trkpt lat="39.919575" lon="3.107012">
        <ele>126.3</ele>
        <time>2020-05-23T19:06:40Z</time>
      </trkpt>
      <trkpt lat="39.91962" lon="3.10704">
        <ele>126.8</ele>
        <time>2020-05-23T19:06:42Z</time>
      </trkpt>
      <trkpt lat="39.919666" lon="3.107065">
        <ele>127.3</ele>
        <time>2020-05-23T19:06:43Z</time>
      </trkpt>
      <trkpt lat="39.919712" lon="3.107088">
        <ele>127.7</ele>
        <time>2020-05-23T19:06:44Z</time>
      </trkpt>
      <trkpt lat="39.919765" lon="3.107105">
        <ele>128.2</ele>
        <time>2020-05-23T19:06:45Z</time>
      </trkpt>
      <trkpt lat="39.919819" lon="3.107116">
        <ele>128.6</ele>
        <time>2020-05-23T19:06:46Z</time>
      </trkpt>
      <trkpt lat="39.919876" lon="3.107124">
        <ele>129.1</ele>
        <time>2020-05-23T19:06:48Z</time>
      </trkpt>
      <trkpt lat="39.919926" lon="3.10713">
        <ele>129.5</ele>
        <time>2020-05-23T19:06:49Z</time>
      </trkpt>
      <trkpt lat="39.919975" lon="3.107137">
        <ele>130</ele>
        <time>2020-05-23T19:06:50Z</time>
      </trkpt>
      <trkpt lat="39.920021" lon="3.107141">
        <ele>130.4</ele>
        <time>2020-05-23T19:06:51Z</time>
      </trkpt>
      <trkpt lat="39.920063" lon="3.107144">
        <ele>130.7</ele>
        <time>2020-05-23T19:06:52Z</time>
      </trkpt>
      <trkpt lat="39.920116" lon="3.107144">
        <ele>131.2</ele>
        <time>2020-05-23T19:06:53Z</time>
      </trkpt>
      <trkpt lat="39.920158" lon="3.107144">
        <ele>131.6</ele>
        <time>2020-05-23T19:06:54Z</time>
      </trkpt>
      <trkpt lat="39.920216" lon="3.107143">
        <ele>132.1</ele>
        <time>2020-05-23T19:06:55Z</time>
      </trkpt>
      <trkpt lat="39.920269" lon="3.107143">
        <ele>132.6</ele>
        <time>2020-05-23T19:06:56Z</time>
      </trkpt>
      <trkpt lat="39.920326" lon="3.107143">
        <ele>133.1</ele>
        <time>2020-05-23T19:06:58Z</time>
      </trkpt>
      <trkpt lat="39.92038" lon="3.107143">
        <ele>133.6</ele>
        <time>2020-05-23T19:06:59Z</time>
      </trkpt>
      <trkpt lat="39.920425" lon="3.107144">
        <ele>134</ele>
        <time>2020-05-23T19:07:00Z</time>
      </trkpt>
      <trkpt lat="39.920471" lon="3.107144">
        <ele>134.4</ele>
        <time>2020-05-23T19:07:01Z</time>
      </trkpt>
      <trkpt lat="39.920517" lon="3.107144">
        <ele>134.8</ele>
        <time>2020-05-23T19:07:02Z</time>
      </trkpt>
      <trkpt lat="39.92057" lon="3.107144">
        <ele>135.3</ele>
        <time>2020-05-23T19:07:03Z</time>
      </trkpt>
      <trkpt lat="39.920612" lon="3.107145">
        <ele>135.7</ele>
        <time>2020-05-23T19:07:04Z</time>
      </trkpt>
      <trkpt lat="39.920666" lon="3.107145">
        <ele>136.2</ele>
        <time>2020-05-23T19:07:05Z</time>
      </trkpt>
      <trkpt lat="39.920712" lon="3.107147">
        <ele>136.6</ele>
        <time>2020-05-23T19:07:06Z</time>
      </trkpt>
      <trkpt lat="39.920769" lon="3.10715">
        <ele>137</ele>
        <time>2020-05-23T19:07:07Z</time>
      </trkpt>
      <trkpt lat="39.920814" lon="3.107154">
        <ele>137.4</ele>
        <time>2020-05-23T19:07:08Z</time>
      </trkpt>
      <trkpt lat="39.92086" lon="3.107157">
        <ele>137.8</ele>
        <time>2020-05-23T19:07:09Z</time>
      </trkpt>
      <trkpt lat="39.92091" lon="3.10716">
        <ele>138.3</ele>
        <time>2020-05-23T19:07:10Z</time>
      </trkpt>
      <trkpt lat="39.920963" lon="3.107164">
        <ele>138.7</ele>
        <time>2020-05-23T19:07:12Z</time>
      </trkpt>
      <trkpt lat="39.92102" lon="3.107169">
        <ele>139.5</ele>
        <time>2020-05-23T19:07:13Z</time>
      </trkpt>
      <trkpt lat="39.921066" lon="3.107174">
        <ele>140</ele>
        <time>2020-05-23T19:07:14Z</time>
      </trkpt>
      <trkpt lat="39.921123" lon="3.107181">
        <ele>140.5</ele>
        <time>2020-05-23T19:07:15Z</time>
      </trkpt>
      <trkpt lat="39.921169" lon="3.107188">
        <ele>141</ele>
        <time>2020-05-23T19:07:16Z</time>
      </trkpt>
      <trkpt lat="39.921223" lon="3.107196">
        <ele>141.4</ele>
        <time>2020-05-23T19:07:17Z</time>
      </trkpt>
      <trkpt lat="39.921272" lon="3.107205">
        <ele>141.8</ele>
        <time>2020-05-23T19:07:18Z</time>
      </trkpt>
      <trkpt lat="39.921326" lon="3.107218">
        <ele>142.3</ele>
        <time>2020-05-23T19:07:20Z</time>
      </trkpt>
      <trkpt lat="39.921375" lon="3.107237">
        <ele>142.7</ele>
        <time>2020-05-23T19:07:21Z</time>
      </trkpt>
      <trkpt lat="39.921417" lon="3.107256">
        <ele>143</ele>
        <time>2020-05-23T19:07:22Z</time>
      </trkpt>
      <trkpt lat="39.921459" lon="3.107276">
        <ele>143.4</ele>
        <time>2020-05-23T19:07:23Z</time>
      </trkpt>
      <trkpt lat="39.921501" lon="3.107296">
        <ele>143.8</ele>
        <time>2020-05-23T19:07:24Z</time>
      </trkpt>
      <trkpt lat="39.921554" lon="3.107318">
        <ele>144.2</ele>
        <time>2020-05-23T19:07:25Z</time>
      </trkpt>
      <trkpt lat="39.921608" lon="3.10734">
        <ele>144.7</ele>
        <time>2020-05-23T19:07:26Z</time>
      </trkpt>
      <trkpt lat="39.921661" lon="3.10736">
        <ele>145.1</ele>
        <time>2020-05-23T19:07:27Z</time>
      </trkpt>
      <trkpt lat="39.921719" lon="3.107379">
        <ele>145.6</ele>
        <time>2020-05-23T19:07:29Z</time>
      </trkpt>
      <trkpt lat="39.921776" lon="3.107396">
        <ele>146</ele>
        <time>2020-05-23T19:07:30Z</time>
      </trkpt>
      <trkpt lat="39.921837" lon="3.107414">
        <ele>146.4</ele>
        <time>2020-05-23T19:07:31Z</time>
      </trkpt>
      <trkpt lat="39.921894" lon="3.107432">
        <ele>146.8</ele>
        <time>2020-05-23T19:07:32Z</time>
      </trkpt>
      <trkpt lat="39.921951" lon="3.107447">
        <ele>147.2</ele>
        <time>2020-05-23T19:07:33Z</time>
      </trkpt>
      <trkpt lat="39.921997" lon="3.107457">
        <ele>147.6</ele>
        <time>2020-05-23T19:07:34Z</time>
      </trkpt>
      <trkpt lat="39.922047" lon="3.107466">
        <ele>147.9</ele>
        <time>2020-05-23T19:07:35Z</time>
      </trkpt>
      <trkpt lat="39.922096" lon="3.107473">
        <ele>148.3</ele>
        <time>2020-05-23T19:07:36Z</time>
      </trkpt>
      <trkpt lat="39.92215" lon="3.10748">
        <ele>148.6</ele>
        <time>2020-05-23T19:07:37Z</time>
      </trkpt>
      <trkpt lat="39.922211" lon="3.107488">
        <ele>149.1</ele>
        <time>2020-05-23T19:07:39Z</time>
      </trkpt>
      <trkpt lat="39.922268" lon="3.1075">
        <ele>149.5</ele>
        <time>2020-05-23T19:07:40Z</time>
      </trkpt>
      <trkpt lat="39.922317" lon="3.107512">
        <ele>149.9</ele>
        <time>2020-05-23T19:07:41Z</time>
      </trkpt>
      <trkpt lat="39.922371" lon="3.10753">
        <ele>150.4</ele>
        <time>2020-05-23T19:07:42Z</time>
      </trkpt>
      <trkpt lat="39.922413" lon="3.107544">
        <ele>150.8</ele>
        <time>2020-05-23T19:07:43Z</time>
      </trkpt>
      <trkpt lat="39.922466" lon="3.107561">
        <ele>151.2</ele>
        <time>2020-05-23T19:07:44Z</time>
      </trkpt>
      <trkpt lat="39.922512" lon="3.107576">
        <ele>151.6</ele>
        <time>2020-05-23T19:07:45Z</time>
      </trkpt>
      <trkpt lat="39.922565" lon="3.1076">
        <ele>152.1</ele>
        <time>2020-05-23T19:07:46Z</time>
      </trkpt>
      <trkpt lat="39.922619" lon="3.107631">
        <ele>152.7</ele>
        <time>2020-05-23T19:07:48Z</time>
      </trkpt>
      <trkpt lat="39.922665" lon="3.107664">
        <ele>153.2</ele>
        <time>2020-05-23T19:07:49Z</time>
      </trkpt>
      <trkpt lat="39.922707" lon="3.10769">
        <ele>153.6</ele>
        <time>2020-05-23T19:07:50Z</time>
      </trkpt>
      <trkpt lat="39.922756" lon="3.107719">
        <ele>154.1</ele>
        <time>2020-05-23T19:07:51Z</time>
      </trkpt>
      <trkpt lat="39.922806" lon="3.107745">
        <ele>154.6</ele>
        <time>2020-05-23T19:07:52Z</time>
      </trkpt>
      <trkpt lat="39.922852" lon="3.107771">
        <ele>155</ele>
        <time>2020-05-23T19:07:53Z</time>
      </trkpt>
      <trkpt lat="39.922897" lon="3.107795">
        <ele>155.5</ele>
        <time>2020-05-23T19:07:55Z</time>
      </trkpt>
      <trkpt lat="39.922943" lon="3.107816">
        <ele>155.9</ele>
        <time>2020-05-23T19:07:56Z</time>
      </trkpt>
      <trkpt lat="39.922981" lon="3.107832">
        <ele>156.2</ele>
        <time>2020-05-23T19:07:57Z</time>
      </trkpt>
      <trkpt lat="39.923023" lon="3.107848">
        <ele>156.6</ele>
        <time>2020-05-23T19:07:58Z</time>
      </trkpt>
      <trkpt lat="39.923065" lon="3.107862">
        <ele>156.9</ele>
        <time>2020-05-23T19:07:59Z</time>
      </trkpt>
      <trkpt lat="39.923107" lon="3.107877">
        <ele>157.2</ele>
        <time>2020-05-23T19:08:00Z</time>
      </trkpt>
      <trkpt lat="39.923153" lon="3.107891">
        <ele>157.6</ele>
        <time>2020-05-23T19:08:01Z</time>
      </trkpt>
      <trkpt lat="39.923202" lon="3.107903">
        <ele>157.9</ele>
        <time>2020-05-23T19:08:02Z</time>
      </trkpt>
      <trkpt lat="39.92326" lon="3.107915">
        <ele>158.3</ele>
        <time>2020-05-23T19:08:03Z</time>
      </trkpt>
      <trkpt lat="39.923309" lon="3.107924">
        <ele>158.6</ele>
        <time>2020-05-23T19:08:04Z</time>
      </trkpt>
      <trkpt lat="39.923363" lon="3.107932">
        <ele>159</ele>
        <time>2020-05-23T19:08:05Z</time>
      </trkpt>
      <trkpt lat="39.923424" lon="3.107942">
        <ele>159.3</ele>
        <time>2020-05-23T19:08:06Z</time>
      </trkpt>
      <trkpt lat="39.923485" lon="3.107951">
        <ele>159.7</ele>
        <time>2020-05-23T19:08:07Z</time>
      </trkpt>
      <trkpt lat="39.923546" lon="3.107954">
        <ele>160.1</ele>
        <time>2020-05-23T19:08:09Z</time>
      </trkpt>
      <trkpt lat="39.923595" lon="3.107952">
        <ele>160.4</ele>
        <time>2020-05-23T19:08:10Z</time>
      </trkpt>
      <trkpt lat="39.923649" lon="3.107948">
        <ele>160.7</ele>
        <time>2020-05-23T19:08:11Z</time>
      </trkpt>
      <trkpt lat="39.92371" lon="3.107942">
        <ele>161</ele>
        <time>2020-05-23T19:08:12Z</time>
      </trkpt>
      <trkpt lat="39.923763" lon="3.107936">
        <ele>161.3</ele>
        <time>2020-05-23T19:08:13Z</time>
      </trkpt>
      <trkpt lat="39.923824" lon="3.107922">
        <ele>161.7</ele>
        <time>2020-05-23T19:08:14Z</time>
      </trkpt>
      <trkpt lat="39.923885" lon="3.107897">
        <ele>162.1</ele>
        <time>2020-05-23T19:08:15Z</time>
      </trkpt>
      <trkpt lat="39.923942" lon="3.107864">
        <ele>162.5</ele>
        <time>2020-05-23T19:08:16Z</time>
      </trkpt>
      <trkpt lat="39.923988" lon="3.107836">
        <ele>162.9</ele>
        <time>2020-05-23T19:08:17Z</time>
      </trkpt>
      <trkpt lat="39.924046" lon="3.107805">
        <ele>163.4</ele>
        <time>2020-05-23T19:08:19Z</time>
      </trkpt>
      <trkpt lat="39.924107" lon="3.107773">
        <ele>164</ele>
        <time>2020-05-23T19:08:20Z</time>
      </trkpt>
      <trkpt lat="39.92416" lon="3.107743">
        <ele>164.5</ele>
        <time>2020-05-23T19:08:21Z</time>
      </trkpt>
      <trkpt lat="39.92421" lon="3.107719">
        <ele>165</ele>
        <time>2020-05-23T19:08:22Z</time>
      </trkpt>
      <trkpt lat="39.924248" lon="3.107705">
        <ele>165.4</ele>
        <time>2020-05-23T19:08:23Z</time>
      </trkpt>
      <trkpt lat="39.924286" lon="3.107692">
        <ele>165.7</ele>
        <time>2020-05-23T19:08:24Z</time>
      </trkpt>
      <trkpt lat="39.924324" lon="3.107678">
        <ele>166.1</ele>
        <time>2020-05-23T19:08:26Z</time>
      </trkpt>
      <trkpt lat="39.924362" lon="3.107667">
        <ele>166.5</ele>
        <time>2020-05-23T19:08:27Z</time>
      </trkpt>
      <trkpt lat="39.924408" lon="3.107657">
        <ele>167</ele>
        <time>2020-05-23T19:08:28Z</time>
      </trkpt>
      <trkpt lat="39.924461" lon="3.107656">
        <ele>167.5</ele>
        <time>2020-05-23T19:08:29Z</time>
      </trkpt>
      <trkpt lat="39.924511" lon="3.107672">
        <ele>168</ele>
        <time>2020-05-23T19:08:30Z</time>
      </trkpt>
      <trkpt lat="39.92456" lon="3.107698">
        <ele>168.5</ele>
        <time>2020-05-23T19:08:31Z</time>
      </trkpt>
      <trkpt lat="39.924599" lon="3.107723">
        <ele>168.9</ele>
        <time>2020-05-23T19:08:32Z</time>
      </trkpt>
      <trkpt lat="39.924648" lon="3.107759">
        <ele>169.4</ele>
        <time>2020-05-23T19:08:34Z</time>
      </trkpt>
      <trkpt lat="39.924686" lon="3.10781">
        <ele>169.9</ele>
        <time>2020-05-23T19:08:35Z</time>
      </trkpt>
      <trkpt lat="39.924705" lon="3.10786">
        <ele>170.2</ele>
        <time>2020-05-23T19:08:36Z</time>
      </trkpt>
      <trkpt lat="39.924721" lon="3.107913">
        <ele>170.6</ele>
        <time>2020-05-23T19:08:37Z</time>
      </trkpt>
      <trkpt lat="39.924736" lon="3.107971">
        <ele>171</ele>
        <time>2020-05-23T19:08:38Z</time>
      </trkpt>
      <trkpt lat="39.924763" lon="3.10804">
        <ele>171.5</ele>
        <time>2020-05-23T19:08:39Z</time>
      </trkpt>
      <trkpt lat="39.924789" lon="3.108108">
        <ele>172</ele>
        <time>2020-05-23T19:08:40Z</time>
      </trkpt>
      <trkpt lat="39.924816" lon="3.108173">
        <ele>172.5</ele>
        <time>2020-05-23T19:08:41Z</time>
      </trkpt>
      <trkpt lat="39.924839" lon="3.108227">
        <ele>172.9</ele>
        <time>2020-05-23T19:08:42Z</time>
      </trkpt>
      <trkpt lat="39.92487" lon="3.108289">
        <ele>173.3</ele>
        <time>2020-05-23T19:08:44Z</time>
      </trkpt>
      <trkpt lat="39.9249" lon="3.108352">
        <ele>173.8</ele>
        <time>2020-05-23T19:08:45Z</time>
      </trkpt>
      <trkpt lat="39.924927" lon="3.108404">
        <ele>174.1</ele>
        <time>2020-05-23T19:08:46Z</time>
      </trkpt>
      <trkpt lat="39.924957" lon="3.108454">
        <ele>174.4</ele>
        <time>2020-05-23T19:08:47Z</time>
      </trkpt>
      <trkpt lat="39.924984" lon="3.108503">
        <ele>174.7</ele>
        <time>2020-05-23T19:08:48Z</time>
      </trkpt>
      <trkpt lat="39.925026" lon="3.108556">
        <ele>175.1</ele>
        <time>2020-05-23T19:08:49Z</time>
      </trkpt>
      <trkpt lat="39.925075" lon="3.108595">
        <ele>175.5</ele>
        <time>2020-05-23T19:08:50Z</time>
      </trkpt>
      <trkpt lat="39.925133" lon="3.108621">
        <ele>175.9</ele>
        <time>2020-05-23T19:08:52Z</time>
      </trkpt>
      <trkpt lat="39.925186" lon="3.108639">
        <ele>176.3</ele>
        <time>2020-05-23T19:08:53Z</time>
      </trkpt>
      <trkpt lat="39.925247" lon="3.108657">
        <ele>176.7</ele>
        <time>2020-05-23T19:08:54Z</time>
      </trkpt>
      <trkpt lat="39.925308" lon="3.108669">
        <ele>177.2</ele>
        <time>2020-05-23T19:08:55Z</time>
      </trkpt>
      <trkpt lat="39.925365" lon="3.108677">
        <ele>177.6</ele>
        <time>2020-05-23T19:08:56Z</time>
      </trkpt>
      <trkpt lat="39.925411" lon="3.108684">
        <ele>178</ele>
        <time>2020-05-23T19:08:57Z</time>
      </trkpt>
      <trkpt lat="39.925465" lon="3.108694">
        <ele>178.5</ele>
        <time>2020-05-23T19:08:58Z</time>
      </trkpt>
      <trkpt lat="39.925514" lon="3.108708">
        <ele>178.9</ele>
        <time>2020-05-23T19:09:00Z</time>
      </trkpt>
      <trkpt lat="39.925552" lon="3.108724">
        <ele>179.2</ele>
        <time>2020-05-23T19:09:01Z</time>
      </trkpt>
      <trkpt lat="39.925598" lon="3.108754">
        <ele>179.6</ele>
        <time>2020-05-23T19:09:02Z</time>
      </trkpt>
      <trkpt lat="39.925629" lon="3.108804">
        <ele>180</ele>
        <time>2020-05-23T19:09:03Z</time>
      </trkpt>
      <trkpt lat="39.925655" lon="3.108853">
        <ele>180.4</ele>
        <time>2020-05-23T19:09:04Z</time>
      </trkpt>
      <trkpt lat="39.92569" lon="3.108913">
        <ele>180.8</ele>
        <time>2020-05-23T19:09:05Z</time>
      </trkpt>
      <trkpt lat="39.925724" lon="3.108974">
        <ele>181.3</ele>
        <time>2020-05-23T19:09:06Z</time>
      </trkpt>
      <trkpt lat="39.925751" lon="3.109025">
        <ele>181.7</ele>
        <time>2020-05-23T19:09:07Z</time>
      </trkpt>
      <trkpt lat="39.925785" lon="3.109089">
        <ele>182.2</ele>
        <time>2020-05-23T19:09:09Z</time>
      </trkpt>
      <trkpt lat="39.925812" lon="3.109143">
        <ele>182.6</ele>
        <time>2020-05-23T19:09:10Z</time>
      </trkpt>
      <trkpt lat="39.925846" lon="3.10921">
        <ele>183</ele>
        <time>2020-05-23T19:09:11Z</time>
      </trkpt>
      <trkpt lat="39.925877" lon="3.109266">
        <ele>183.4</ele>
        <time>2020-05-23T19:09:12Z</time>
      </trkpt>
      <trkpt lat="39.925907" lon="3.109322">
        <ele>183.8</ele>
        <time>2020-05-23T19:09:13Z</time>
      </trkpt>
      <trkpt lat="39.925953" lon="3.109384">
        <ele>184.2</ele>
        <time>2020-05-23T19:09:14Z</time>
      </trkpt>
      <trkpt lat="39.92601" lon="3.109428">
        <ele>184.6</ele>
        <time>2020-05-23T19:09:15Z</time>
      </trkpt>
      <trkpt lat="39.926064" lon="3.109447">
        <ele>185</ele>
        <time>2020-05-23T19:09:16Z</time>
      </trkpt>
      <trkpt lat="39.926128" lon="3.109465">
        <ele>185.4</ele>
        <time>2020-05-23T19:09:17Z</time>
      </trkpt>
      <trkpt lat="39.926189" lon="3.109485">
        <ele>185.8</ele>
        <time>2020-05-23T19:09:19Z</time>
      </trkpt>
      <trkpt lat="39.926254" lon="3.109498">
        <ele>186.3</ele>
        <time>2020-05-23T19:09:20Z</time>
      </trkpt>
      <trkpt lat="39.926304" lon="3.109503">
        <ele>186.7</ele>
        <time>2020-05-23T19:09:21Z</time>
      </trkpt>
      <trkpt lat="39.926365" lon="3.109504">
        <ele>187.2</ele>
        <time>2020-05-23T19:09:22Z</time>
      </trkpt>
      <trkpt lat="39.92643" lon="3.109509">
        <ele>187.7</ele>
        <time>2020-05-23T19:09:23Z</time>
      </trkpt>
      <trkpt lat="39.926483" lon="3.109516">
        <ele>188.2</ele>
        <time>2020-05-23T19:09:24Z</time>
      </trkpt>
      <trkpt lat="39.926544" lon="3.109529">
        <ele>188.7</ele>
        <time>2020-05-23T19:09:25Z</time>
      </trkpt>
      <trkpt lat="39.926601" lon="3.109558">
        <ele>189.2</ele>
        <time>2020-05-23T19:09:27Z</time>
      </trkpt>
      <trkpt lat="39.926643" lon="3.109596">
        <ele>189.7</ele>
        <time>2020-05-23T19:09:28Z</time>
      </trkpt>
      <trkpt lat="39.926693" lon="3.109646">
        <ele>190.3</ele>
        <time>2020-05-23T19:09:29Z</time>
      </trkpt>
      <trkpt lat="39.926743" lon="3.109694">
        <ele>190.8</ele>
        <time>2020-05-23T19:09:30Z</time>
      </trkpt>
      <trkpt lat="39.926792" lon="3.109742">
        <ele>191.4</ele>
        <time>2020-05-23T19:09:31Z</time>
      </trkpt>
      <trkpt lat="39.926845" lon="3.109786">
        <ele>191.9</ele>
        <time>2020-05-23T19:09:32Z</time>
      </trkpt>
      <trkpt lat="39.926899" lon="3.10982">
        <ele>192.3</ele>
        <time>2020-05-23T19:09:34Z</time>
      </trkpt>
      <trkpt lat="39.926948" lon="3.109842">
        <ele>192.7</ele>
        <time>2020-05-23T19:09:35Z</time>
      </trkpt>
      <trkpt lat="39.926994" lon="3.109856">
        <ele>193</ele>
        <time>2020-05-23T19:09:36Z</time>
      </trkpt>
      <trkpt lat="39.927048" lon="3.109867">
        <ele>193.4</ele>
        <time>2020-05-23T19:09:37Z</time>
      </trkpt>
      <trkpt lat="39.927097" lon="3.109864">
        <ele>193.7</ele>
        <time>2020-05-23T19:09:38Z</time>
      </trkpt>
      <trkpt lat="39.927158" lon="3.109841">
        <ele>194.1</ele>
        <time>2020-05-23T19:09:39Z</time>
      </trkpt>
      <trkpt lat="39.927212" lon="3.109818">
        <ele>194.5</ele>
        <time>2020-05-23T19:09:40Z</time>
      </trkpt>
      <trkpt lat="39.927277" lon="3.109801">
        <ele>194.9</ele>
        <time>2020-05-23T19:09:41Z</time>
      </trkpt>
      <trkpt lat="39.927338" lon="3.109794">
        <ele>195.4</ele>
        <time>2020-05-23T19:09:43Z</time>
      </trkpt>
      <trkpt lat="39.927399" lon="3.109802">
        <ele>195.9</ele>
        <time>2020-05-23T19:09:44Z</time>
      </trkpt>
      <trkpt lat="39.927452" lon="3.10983">
        <ele>196.3</ele>
        <time>2020-05-23T19:09:45Z</time>
      </trkpt>
      <trkpt lat="39.927494" lon="3.109859">
        <ele>196.7</ele>
        <time>2020-05-23T19:09:46Z</time>
      </trkpt>
      <trkpt lat="39.927547" lon="3.109892">
        <ele>197.2</ele>
        <time>2020-05-23T19:09:47Z</time>
      </trkpt>
      <trkpt lat="39.927593" lon="3.109915">
        <ele>197.6</ele>
        <time>2020-05-23T19:09:48Z</time>
      </trkpt>
      <trkpt lat="39.927643" lon="3.10994">
        <ele>198.1</ele>
        <time>2020-05-23T19:09:49Z</time>
      </trkpt>
      <trkpt lat="39.927685" lon="3.109959">
        <ele>198.5</ele>
        <time>2020-05-23T19:09:50Z</time>
      </trkpt>
      <trkpt lat="39.927734" lon="3.109982">
        <ele>198.9</ele>
        <time>2020-05-23T19:09:52Z</time>
      </trkpt>
      <trkpt lat="39.927788" lon="3.110005">
        <ele>199.4</ele>
        <time>2020-05-23T19:09:53Z</time>
      </trkpt>
      <trkpt lat="39.927841" lon="3.110031">
        <ele>199.9</ele>
        <time>2020-05-23T19:09:54Z</time>
      </trkpt>
      <trkpt lat="39.927898" lon="3.110057">
        <ele>200.5</ele>
        <time>2020-05-23T19:09:55Z</time>
      </trkpt>
      <trkpt lat="39.927944" lon="3.11008">
        <ele>200.9</ele>
        <time>2020-05-23T19:09:56Z</time>
      </trkpt>
      <trkpt lat="39.927994" lon="3.1101">
        <ele>201.3</ele>
        <time>2020-05-23T19:09:57Z</time>
      </trkpt>
      <trkpt lat="39.928039" lon="3.110117">
        <ele>201.6</ele>
        <time>2020-05-23T19:09:58Z</time>
      </trkpt>
      <trkpt lat="39.928089" lon="3.110129">
        <ele>202</ele>
        <time>2020-05-23T19:09:59Z</time>
      </trkpt>
      <trkpt lat="39.928135" lon="3.110138">
        <ele>202.3</ele>
        <time>2020-05-23T19:10:00Z</time>
      </trkpt>
      <trkpt lat="39.928184" lon="3.110147">
        <ele>202.6</ele>
        <time>2020-05-23T19:10:01Z</time>
      </trkpt>
      <trkpt lat="39.928242" lon="3.110156">
        <ele>203</ele>
        <time>2020-05-23T19:10:02Z</time>
      </trkpt>
      <trkpt lat="39.928303" lon="3.110164">
        <ele>203.5</ele>
        <time>2020-05-23T19:10:04Z</time>
      </trkpt>
      <trkpt lat="39.928352" lon="3.110169">
        <ele>203.9</ele>
        <time>2020-05-23T19:10:05Z</time>
      </trkpt>
      <trkpt lat="39.928406" lon="3.110173">
        <ele>204.3</ele>
        <time>2020-05-23T19:10:06Z</time>
      </trkpt>
      <trkpt lat="39.928474" lon="3.110182">
        <ele>204.8</ele>
        <time>2020-05-23T19:10:07Z</time>
      </trkpt>
      <trkpt lat="39.928528" lon="3.110192">
        <ele>205.3</ele>
        <time>2020-05-23T19:10:08Z</time>
      </trkpt>
      <trkpt lat="39.928593" lon="3.110212">
        <ele>205.8</ele>
        <time>2020-05-23T19:10:09Z</time>
      </trkpt>
      <trkpt lat="39.928646" lon="3.110254">
        <ele>206.4</ele>
        <time>2020-05-23T19:10:10Z</time>
      </trkpt>
      <trkpt lat="39.928677" lon="3.110298">
        <ele>206.8</ele>
        <time>2020-05-23T19:10:11Z</time>
      </trkpt>
      <trkpt lat="39.928711" lon="3.110353">
        <ele>207.1</ele>
        <time>2020-05-23T19:10:12Z</time>
      </trkpt>
      <trkpt lat="39.928741" lon="3.110398">
        <ele>207.3</ele>
        <time>2020-05-23T19:10:13Z</time>
      </trkpt>
      <trkpt lat="39.928772" lon="3.110444">
        <ele>207.5</ele>
        <time>2020-05-23T19:10:14Z</time>
      </trkpt>
      <trkpt lat="39.928806" lon="3.110503">
        <ele>207.7</ele>
        <time>2020-05-23T19:10:16Z</time>
      </trkpt>
      <trkpt lat="39.928829" lon="3.110558">
        <ele>207.8</ele>
        <time>2020-05-23T19:10:17Z</time>
      </trkpt>
      <trkpt lat="39.928856" lon="3.110631">
        <ele>208</ele>
        <time>2020-05-23T19:10:18Z</time>
      </trkpt>
      <trkpt lat="39.928879" lon="3.110714">
        <ele>208.2</ele>
        <time>2020-05-23T19:10:19Z</time>
      </trkpt>
      <trkpt lat="39.928905" lon="3.110803">
        <ele>208.1</ele>
        <time>2020-05-23T19:10:20Z</time>
      </trkpt>
      <trkpt lat="39.928925" lon="3.110903">
        <ele>207.8</ele>
        <time>2020-05-23T19:10:21Z</time>
      </trkpt>
      <trkpt lat="39.928902" lon="3.110987">
        <ele>207.5</ele>
        <time>2020-05-23T19:10:22Z</time>
      </trkpt>
      <trkpt lat="39.928856" lon="3.111088">
        <ele>206.9</ele>
        <time>2020-05-23T19:10:24Z</time>
      </trkpt>
      <trkpt lat="39.928806" lon="3.111198">
        <ele>206.2</ele>
        <time>2020-05-23T19:10:25Z</time>
      </trkpt>
      <trkpt lat="39.928768" lon="3.111326">
        <ele>205.5</ele>
        <time>2020-05-23T19:10:26Z</time>
      </trkpt>
      <trkpt lat="39.928753" lon="3.11148">
        <ele>204.8</ele>
        <time>2020-05-23T19:10:27Z</time>
      </trkpt>
      <trkpt lat="39.92876" lon="3.111642">
        <ele>203.8</ele>
        <time>2020-05-23T19:10:28Z</time>
      </trkpt>
      <trkpt lat="39.928799" lon="3.1118">
        <ele>202.9</ele>
        <time>2020-05-23T19:10:30Z</time>
      </trkpt>
      <trkpt lat="39.928829" lon="3.111936">
        <ele>202</ele>
        <time>2020-05-23T19:10:31Z</time>
      </trkpt>
      <trkpt lat="39.928864" lon="3.112073">
        <ele>201.1</ele>
        <time>2020-05-23T19:10:32Z</time>
      </trkpt>
      <trkpt lat="39.928917" lon="3.112212">
        <ele>200.1</ele>
        <time>2020-05-23T19:10:33Z</time>
      </trkpt>
      <trkpt lat="39.928978" lon="3.11239">
        <ele>199</ele>
        <time>2020-05-23T19:10:34Z</time>
      </trkpt>
      <trkpt lat="39.929028" lon="3.112566">
        <ele>197.9</ele>
        <time>2020-05-23T19:10:35Z</time>
      </trkpt>
      <trkpt lat="39.929081" lon="3.11273">
        <ele>196.9</ele>
        <time>2020-05-23T19:10:36Z</time>
      </trkpt>
      <trkpt lat="39.929119" lon="3.112893">
        <ele>195.9</ele>
        <time>2020-05-23T19:10:37Z</time>
      </trkpt>
      <trkpt lat="39.929153" lon="3.113048">
        <ele>194.8</ele>
        <time>2020-05-23T19:10:39Z</time>
      </trkpt>
      <trkpt lat="39.929211" lon="3.113152">
        <ele>188.5</ele>
        <time>2020-05-23T19:10:40Z</time>
      </trkpt>
      <trkpt lat="39.929317" lon="3.113096">
        <ele>182</ele>
        <time>2020-05-23T19:10:41Z</time>
      </trkpt>
      <trkpt lat="39.929367" lon="3.112934">
        <ele>182.9</ele>
        <time>2020-05-23T19:10:42Z</time>
      </trkpt>
      <trkpt lat="39.92934" lon="3.112758">
        <ele>183.9</ele>
        <time>2020-05-23T19:10:43Z</time>
      </trkpt>
      <trkpt lat="39.92931" lon="3.112621">
        <ele>184.6</ele>
        <time>2020-05-23T19:10:44Z</time>
      </trkpt>
      <trkpt lat="39.929283" lon="3.112461">
        <ele>185.3</ele>
        <time>2020-05-23T19:10:45Z</time>
      </trkpt>
      <trkpt lat="39.929268" lon="3.112339">
        <ele>185.9</ele>
        <time>2020-05-23T19:10:46Z</time>
      </trkpt>
      <trkpt lat="39.929256" lon="3.112207">
        <ele>186.5</ele>
        <time>2020-05-23T19:10:48Z</time>
      </trkpt>
      <trkpt lat="39.929256" lon="3.112104">
        <ele>187</ele>
        <time>2020-05-23T19:10:49Z</time>
      </trkpt>
      <trkpt lat="39.92931" lon="3.112022">
        <ele>187.6</ele>
        <time>2020-05-23T19:10:50Z</time>
      </trkpt>
      <trkpt lat="39.92939" lon="3.112008">
        <ele>188.1</ele>
        <time>2020-05-23T19:10:51Z</time>
      </trkpt>
      <trkpt lat="39.929459" lon="3.112047">
        <ele>187.9</ele>
        <time>2020-05-23T19:10:52Z</time>
      </trkpt>
      <trkpt lat="39.929459" lon="3.112173">
        <ele>187.1</ele>
        <time>2020-05-23T19:10:53Z</time>
      </trkpt>
      <trkpt lat="39.929462" lon="3.112292">
        <ele>186.4</ele>
        <time>2020-05-23T19:10:54Z</time>
      </trkpt>
      <trkpt lat="39.929474" lon="3.112424">
        <ele>185.6</ele>
        <time>2020-05-23T19:10:55Z</time>
      </trkpt>
      <trkpt lat="39.929482" lon="3.112599">
        <ele>184.7</ele>
        <time>2020-05-23T19:10:57Z</time>
      </trkpt>
      <trkpt lat="39.929489" lon="3.112791">
        <ele>183.6</ele>
        <time>2020-05-23T19:10:58Z</time>
      </trkpt>
      <trkpt lat="39.929504" lon="3.112994">
        <ele>182.5</ele>
        <time>2020-05-23T19:10:59Z</time>
      </trkpt>
      <trkpt lat="39.929516" lon="3.113169">
        <ele>181.5</ele>
        <time>2020-05-23T19:11:00Z</time>
      </trkpt>
      <trkpt lat="39.929527" lon="3.113349">
        <ele>180.4</ele>
        <time>2020-05-23T19:11:01Z</time>
      </trkpt>
      <trkpt lat="39.929535" lon="3.113532">
        <ele>179.3</ele>
        <time>2020-05-23T19:11:02Z</time>
      </trkpt>
      <trkpt lat="39.92955" lon="3.113755">
        <ele>178.1</ele>
        <time>2020-05-23T19:11:03Z</time>
      </trkpt>
      <trkpt lat="39.929573" lon="3.113943">
        <ele>177.1</ele>
        <time>2020-05-23T19:11:04Z</time>
      </trkpt>
      <trkpt lat="39.929611" lon="3.114169">
        <ele>176</ele>
        <time>2020-05-23T19:11:05Z</time>
      </trkpt>
      <trkpt lat="39.929646" lon="3.114381">
        <ele>174.9</ele>
        <time>2020-05-23T19:11:07Z</time>
      </trkpt>
      <trkpt lat="39.929668" lon="3.114552">
        <ele>174</ele>
        <time>2020-05-23T19:11:08Z</time>
      </trkpt>
      <trkpt lat="39.929718" lon="3.114741">
        <ele>172.6</ele>
        <time>2020-05-23T19:11:09Z</time>
      </trkpt>
      <trkpt lat="39.929798" lon="3.1149">
        <ele>171.3</ele>
        <time>2020-05-23T19:11:10Z</time>
      </trkpt>
      <trkpt lat="39.929939" lon="3.114971">
        <ele>170.1</ele>
        <time>2020-05-23T19:11:11Z</time>
      </trkpt>
      <trkpt lat="39.930054" lon="3.115047">
        <ele>169</ele>
        <time>2020-05-23T19:11:12Z</time>
      </trkpt>
      <trkpt lat="39.93018" lon="3.115169">
        <ele>167.7</ele>
        <time>2020-05-23T19:11:13Z</time>
      </trkpt>
      <trkpt lat="39.930302" lon="3.11531">
        <ele>166.4</ele>
        <time>2020-05-23T19:11:15Z</time>
      </trkpt>
      <trkpt lat="39.930416" lon="3.115473">
        <ele>165.2</ele>
        <time>2020-05-23T19:11:16Z</time>
      </trkpt>
      <trkpt lat="39.930511" lon="3.115656">
        <ele>163.7</ele>
        <time>2020-05-23T19:11:17Z</time>
      </trkpt>
      <trkpt lat="39.930565" lon="3.115827">
        <ele>162.5</ele>
        <time>2020-05-23T19:11:18Z</time>
      </trkpt>
      <trkpt lat="39.93058" lon="3.116014">
        <ele>161.4</ele>
        <time>2020-05-23T19:11:19Z</time>
      </trkpt>
      <trkpt lat="39.930592" lon="3.1162">
        <ele>160.4</ele>
        <time>2020-05-23T19:11:20Z</time>
      </trkpt>
      <trkpt lat="39.93063" lon="3.116419">
        <ele>159.3</ele>
        <time>2020-05-23T19:11:21Z</time>
      </trkpt>
      <trkpt lat="39.930672" lon="3.116598">
        <ele>158.5</ele>
        <time>2020-05-23T19:11:22Z</time>
      </trkpt>
      <trkpt lat="39.930725" lon="3.116816">
        <ele>157.9</ele>
        <time>2020-05-23T19:11:23Z</time>
      </trkpt>
      <trkpt lat="39.930756" lon="3.11704">
        <ele>157.6</ele>
        <time>2020-05-23T19:11:25Z</time>
      </trkpt>
      <trkpt lat="39.930763" lon="3.117226">
        <ele>157.5</ele>
        <time>2020-05-23T19:11:26Z</time>
      </trkpt>
      <trkpt lat="39.930748" lon="3.117404">
        <ele>157.5</ele>
        <time>2020-05-23T19:11:27Z</time>
      </trkpt>
      <trkpt lat="39.930714" lon="3.11757">
        <ele>157.7</ele>
        <time>2020-05-23T19:11:28Z</time>
      </trkpt>
      <trkpt lat="39.930676" lon="3.117758">
        <ele>157.8</ele>
        <time>2020-05-23T19:11:29Z</time>
      </trkpt>
      <trkpt lat="39.930637" lon="3.117902">
        <ele>157.9</ele>
        <time>2020-05-23T19:11:30Z</time>
      </trkpt>
      <trkpt lat="39.930603" lon="3.118041">
        <ele>158</ele>
        <time>2020-05-23T19:11:31Z</time>
      </trkpt>
      <trkpt lat="39.930569" lon="3.118172">
        <ele>158.1</ele>
        <time>2020-05-23T19:11:32Z</time>
      </trkpt>
      <trkpt lat="39.930527" lon="3.118321">
        <ele>158.1</ele>
        <time>2020-05-23T19:11:33Z</time>
      </trkpt>
      <trkpt lat="39.930496" lon="3.118442">
        <ele>158.1</ele>
        <time>2020-05-23T19:11:34Z</time>
      </trkpt>
      <trkpt lat="39.930473" lon="3.118566">
        <ele>158.1</ele>
        <time>2020-05-23T19:11:35Z</time>
      </trkpt>
      <trkpt lat="39.930473" lon="3.118714">
        <ele>158.2</ele>
        <time>2020-05-23T19:11:36Z</time>
      </trkpt>
      <trkpt lat="39.930473" lon="3.118839">
        <ele>158.2</ele>
        <time>2020-05-23T19:11:37Z</time>
      </trkpt>
      <trkpt lat="39.930481" lon="3.118993">
        <ele>158.3</ele>
        <time>2020-05-23T19:11:38Z</time>
      </trkpt>
      <trkpt lat="39.930489" lon="3.119122">
        <ele>158.3</ele>
        <time>2020-05-23T19:11:39Z</time>
      </trkpt>
      <trkpt lat="39.930496" lon="3.119281">
        <ele>158.3</ele>
        <time>2020-05-23T19:11:41Z</time>
      </trkpt>
      <trkpt lat="39.9305" lon="3.119416">
        <ele>158.3</ele>
        <time>2020-05-23T19:11:42Z</time>
      </trkpt>
      <trkpt lat="39.930508" lon="3.119582">
        <ele>158.3</ele>
        <time>2020-05-23T19:11:43Z</time>
      </trkpt>
      <trkpt lat="39.930519" lon="3.119752">
        <ele>158.1</ele>
        <time>2020-05-23T19:11:44Z</time>
      </trkpt>
      <trkpt lat="39.93055" lon="3.119888">
        <ele>157.8</ele>
        <time>2020-05-23T19:11:45Z</time>
      </trkpt>
      <trkpt lat="39.930588" lon="3.120018">
        <ele>157.2</ele>
        <time>2020-05-23T19:11:46Z</time>
      </trkpt>
      <trkpt lat="39.930634" lon="3.120176">
        <ele>156.2</ele>
        <time>2020-05-23T19:11:47Z</time>
      </trkpt>
      <trkpt lat="39.930676" lon="3.120338">
        <ele>155.2</ele>
        <time>2020-05-23T19:11:48Z</time>
      </trkpt>
      <trkpt lat="39.930714" lon="3.120507">
        <ele>154.1</ele>
        <time>2020-05-23T19:11:50Z</time>
      </trkpt>
      <trkpt lat="39.930748" lon="3.120652">
        <ele>153.2</ele>
        <time>2020-05-23T19:11:51Z</time>
      </trkpt>
      <trkpt lat="39.930786" lon="3.120809">
        <ele>152.1</ele>
        <time>2020-05-23T19:11:52Z</time>
      </trkpt>
      <trkpt lat="39.930809" lon="3.121016">
        <ele>150.6</ele>
        <time>2020-05-23T19:11:53Z</time>
      </trkpt>
      <trkpt lat="39.930786" lon="3.121189">
        <ele>149.3</ele>
        <time>2020-05-23T19:11:54Z</time>
      </trkpt>
      <trkpt lat="39.930756" lon="3.121389">
        <ele>147.9</ele>
        <time>2020-05-23T19:11:55Z</time>
      </trkpt>
      <trkpt lat="39.93074" lon="3.121548">
        <ele>146.9</ele>
        <time>2020-05-23T19:11:56Z</time>
      </trkpt>
      <trkpt lat="39.93074" lon="3.121727">
        <ele>145.8</ele>
        <time>2020-05-23T19:11:57Z</time>
      </trkpt>
      <trkpt lat="39.930801" lon="3.121836">
        <ele>144.9</ele>
        <time>2020-05-23T19:11:58Z</time>
      </trkpt>
      <trkpt lat="39.930889" lon="3.1219">
        <ele>143.9</ele>
        <time>2020-05-23T19:11:59Z</time>
      </trkpt>
      <trkpt lat="39.930969" lon="3.121964">
        <ele>143.1</ele>
        <time>2020-05-23T19:12:00Z</time>
      </trkpt>
      <trkpt lat="39.931045" lon="3.122022">
        <ele>142.3</ele>
        <time>2020-05-23T19:12:01Z</time>
      </trkpt>
      <trkpt lat="39.931133" lon="3.122084">
        <ele>141.4</ele>
        <time>2020-05-23T19:12:02Z</time>
      </trkpt>
      <trkpt lat="39.931206" lon="3.122158">
        <ele>140.6</ele>
        <time>2020-05-23T19:12:04Z</time>
      </trkpt>
      <trkpt lat="39.93121" lon="3.122243">
        <ele>140</ele>
        <time>2020-05-23T19:12:05Z</time>
      </trkpt>
      <trkpt lat="39.931133" lon="3.12231">
        <ele>139.1</ele>
        <time>2020-05-23T19:12:06Z</time>
      </trkpt>
      <trkpt lat="39.931019" lon="3.12239">
        <ele>138</ele>
        <time>2020-05-23T19:12:07Z</time>
      </trkpt>
      <trkpt lat="39.930885" lon="3.122474">
        <ele>136.8</ele>
        <time>2020-05-23T19:12:08Z</time>
      </trkpt>
      <trkpt lat="39.930759" lon="3.122588">
        <ele>135.9</ele>
        <time>2020-05-23T19:12:09Z</time>
      </trkpt>
      <trkpt lat="39.93066" lon="3.122694">
        <ele>135.1</ele>
        <time>2020-05-23T19:12:10Z</time>
      </trkpt>
      <trkpt lat="39.930565" lon="3.122805">
        <ele>134.2</ele>
        <time>2020-05-23T19:12:11Z</time>
      </trkpt>
      <trkpt lat="39.930473" lon="3.122916">
        <ele>133.3</ele>
        <time>2020-05-23T19:12:12Z</time>
      </trkpt>
      <trkpt lat="39.930408" lon="3.123087">
        <ele>132.2</ele>
        <time>2020-05-23T19:12:13Z</time>
      </trkpt>
      <trkpt lat="39.930389" lon="3.123283">
        <ele>131.3</ele>
        <time>2020-05-23T19:12:15Z</time>
      </trkpt>
      <trkpt lat="39.930389" lon="3.123488">
        <ele>130.3</ele>
        <time>2020-05-23T19:12:16Z</time>
      </trkpt>
      <trkpt lat="39.930393" lon="3.123662">
        <ele>129.7</ele>
        <time>2020-05-23T19:12:17Z</time>
      </trkpt>
      <trkpt lat="39.930389" lon="3.123876">
        <ele>128.9</ele>
        <time>2020-05-23T19:12:18Z</time>
      </trkpt>
      <trkpt lat="39.930378" lon="3.124053">
        <ele>128.2</ele>
        <time>2020-05-23T19:12:19Z</time>
      </trkpt>
      <trkpt lat="39.93037" lon="3.124224">
        <ele>127.5</ele>
        <time>2020-05-23T19:12:20Z</time>
      </trkpt>
      <trkpt lat="39.930363" lon="3.124372">
        <ele>126.9</ele>
        <time>2020-05-23T19:12:21Z</time>
      </trkpt>
      <trkpt lat="39.930355" lon="3.124507">
        <ele>126.2</ele>
        <time>2020-05-23T19:12:22Z</time>
      </trkpt>
      <trkpt lat="39.930347" lon="3.124661">
        <ele>125.4</ele>
        <time>2020-05-23T19:12:23Z</time>
      </trkpt>
      <trkpt lat="39.93037" lon="3.124778">
        <ele>124.7</ele>
        <time>2020-05-23T19:12:24Z</time>
      </trkpt>
      <trkpt lat="39.93042" lon="3.124896">
        <ele>123.8</ele>
        <time>2020-05-23T19:12:25Z</time>
      </trkpt>
      <trkpt lat="39.930504" lon="3.124875">
        <ele>123.9</ele>
        <time>2020-05-23T19:12:26Z</time>
      </trkpt>
      <trkpt lat="39.930576" lon="3.124753">
        <ele>125.2</ele>
        <time>2020-05-23T19:12:28Z</time>
      </trkpt>
      <trkpt lat="39.930622" lon="3.124627">
        <ele>124</ele>
        <time>2020-05-23T19:12:29Z</time>
      </trkpt>
      <trkpt lat="39.93063" lon="3.12445">
        <ele>122.7</ele>
        <time>2020-05-23T19:12:30Z</time>
      </trkpt>
      <trkpt lat="39.930634" lon="3.124257">
        <ele>121.3</ele>
        <time>2020-05-23T19:12:31Z</time>
      </trkpt>
      <trkpt lat="39.930653" lon="3.124092">
        <ele>120</ele>
        <time>2020-05-23T19:12:32Z</time>
      </trkpt>
      <trkpt lat="39.930691" lon="3.123906">
        <ele>118.6</ele>
        <time>2020-05-23T19:12:33Z</time>
      </trkpt>
      <trkpt lat="39.930721" lon="3.123727">
        <ele>117.5</ele>
        <time>2020-05-23T19:12:34Z</time>
      </trkpt>
      <trkpt lat="39.93074" lon="3.12358">
        <ele>116.7</ele>
        <time>2020-05-23T19:12:35Z</time>
      </trkpt>
      <trkpt lat="39.930767" lon="3.123416">
        <ele>115.9</ele>
        <time>2020-05-23T19:12:37Z</time>
      </trkpt>
      <trkpt lat="39.930859" lon="3.123305">
        <ele>114.9</ele>
        <time>2020-05-23T19:12:38Z</time>
      </trkpt>
      <trkpt lat="39.930992" lon="3.123254">
        <ele>112.8</ele>
        <time>2020-05-23T19:12:39Z</time>
      </trkpt>
      <trkpt lat="39.93111" lon="3.123228">
        <ele>112.1</ele>
        <time>2020-05-23T19:12:40Z</time>
      </trkpt>
      <trkpt lat="39.931225" lon="3.123228">
        <ele>111.5</ele>
        <time>2020-05-23T19:12:41Z</time>
      </trkpt>
      <trkpt lat="39.931358" lon="3.123218">
        <ele>110.8</ele>
        <time>2020-05-23T19:12:42Z</time>
      </trkpt>
      <trkpt lat="39.931465" lon="3.123205">
        <ele>110.2</ele>
        <time>2020-05-23T19:12:43Z</time>
      </trkpt>
      <trkpt lat="39.931591" lon="3.12319">
        <ele>109.5</ele>
        <time>2020-05-23T19:12:44Z</time>
      </trkpt>
      <trkpt lat="39.931717" lon="3.123205">
        <ele>108.6</ele>
        <time>2020-05-23T19:12:46Z</time>
      </trkpt>
      <trkpt lat="39.931828" lon="3.123312">
        <ele>107.6</ele>
        <time>2020-05-23T19:12:47Z</time>
      </trkpt>
      <trkpt lat="39.931911" lon="3.12342">
        <ele>106.6</ele>
        <time>2020-05-23T19:12:48Z</time>
      </trkpt>
      <trkpt lat="39.931972" lon="3.123603">
        <ele>105.3</ele>
        <time>2020-05-23T19:12:49Z</time>
      </trkpt>
      <trkpt lat="39.93203" lon="3.123796">
        <ele>103.9</ele>
        <time>2020-05-23T19:12:50Z</time>
      </trkpt>
      <trkpt lat="39.932075" lon="3.124005">
        <ele>102.6</ele>
        <time>2020-05-23T19:12:51Z</time>
      </trkpt>
      <trkpt lat="39.932117" lon="3.124226">
        <ele>101.1</ele>
        <time>2020-05-23T19:12:53Z</time>
      </trkpt>
      <trkpt lat="39.932148" lon="3.124419">
        <ele>99.8</ele>
        <time>2020-05-23T19:12:54Z</time>
      </trkpt>
      <trkpt lat="39.932194" lon="3.124658">
        <ele>97.8</ele>
        <time>2020-05-23T19:12:55Z</time>
      </trkpt>
      <trkpt lat="39.932243" lon="3.124851">
        <ele>96.3</ele>
        <time>2020-05-23T19:12:56Z</time>
      </trkpt>
      <trkpt lat="39.932316" lon="3.12507">
        <ele>94.7</ele>
        <time>2020-05-23T19:12:57Z</time>
      </trkpt>
      <trkpt lat="39.932434" lon="3.125242">
        <ele>93.2</ele>
        <time>2020-05-23T19:12:58Z</time>
      </trkpt>
      <trkpt lat="39.932552" lon="3.125351">
        <ele>92</ele>
        <time>2020-05-23T19:12:59Z</time>
      </trkpt>
      <trkpt lat="39.932724" lon="3.125408">
        <ele>90.6</ele>
        <time>2020-05-23T19:13:00Z</time>
      </trkpt>
      <trkpt lat="39.932899" lon="3.125444">
        <ele>89.2</ele>
        <time>2020-05-23T19:13:02Z</time>
      </trkpt>
      <trkpt lat="39.93306" lon="3.12544">
        <ele>88.2</ele>
        <time>2020-05-23T19:13:03Z</time>
      </trkpt>
      <trkpt lat="39.93322" lon="3.125436">
        <ele>87.3</ele>
        <time>2020-05-23T19:13:04Z</time>
      </trkpt>
      <trkpt lat="39.933342" lon="3.125453">
        <ele>86.7</ele>
        <time>2020-05-23T19:13:05Z</time>
      </trkpt>
      <trkpt lat="39.933472" lon="3.125472">
        <ele>85.9</ele>
        <time>2020-05-23T19:13:06Z</time>
      </trkpt>
      <trkpt lat="39.933586" lon="3.125517">
        <ele>85.3</ele>
        <time>2020-05-23T19:13:07Z</time>
      </trkpt>
      <trkpt lat="39.93367" lon="3.125569">
        <ele>84.7</ele>
        <time>2020-05-23T19:13:08Z</time>
      </trkpt>
      <trkpt lat="39.933727" lon="3.125673">
        <ele>83.9</ele>
        <time>2020-05-23T19:13:09Z</time>
      </trkpt>
      <trkpt lat="39.93372" lon="3.125793">
        <ele>83.1</ele>
        <time>2020-05-23T19:13:10Z</time>
      </trkpt>
      <trkpt lat="39.933697" lon="3.125924">
        <ele>82.3</ele>
        <time>2020-05-23T19:13:11Z</time>
      </trkpt>
      <trkpt lat="39.933655" lon="3.126054">
        <ele>81.4</ele>
        <time>2020-05-23T19:13:12Z</time>
      </trkpt>
      <trkpt lat="39.933598" lon="3.126181">
        <ele>80.5</ele>
        <time>2020-05-23T19:13:13Z</time>
      </trkpt>
      <trkpt lat="39.933533" lon="3.126315">
        <ele>79.6</ele>
        <time>2020-05-23T19:13:14Z</time>
      </trkpt>
      <trkpt lat="39.933453" lon="3.126443">
        <ele>78.6</ele>
        <time>2020-05-23T19:13:15Z</time>
      </trkpt>
      <trkpt lat="39.933365" lon="3.126578">
        <ele>77.7</ele>
        <time>2020-05-23T19:13:16Z</time>
      </trkpt>
      <trkpt lat="39.933254" lon="3.126748">
        <ele>76.5</ele>
        <time>2020-05-23T19:13:18Z</time>
      </trkpt>
      <trkpt lat="39.933142" lon="3.12691">
        <ele>75.2</ele>
        <time>2020-05-23T19:13:19Z</time>
      </trkpt>
      <trkpt lat="39.933029" lon="3.127071">
        <ele>74</ele>
        <time>2020-05-23T19:13:20Z</time>
      </trkpt>
      <trkpt lat="39.932888" lon="3.127238">
        <ele>72.7</ele>
        <time>2020-05-23T19:13:21Z</time>
      </trkpt>
      <trkpt lat="39.932777" lon="3.127383">
        <ele>71.6</ele>
        <time>2020-05-23T19:13:22Z</time>
      </trkpt>
      <trkpt lat="39.932651" lon="3.127555">
        <ele>70.5</ele>
        <time>2020-05-23T19:13:23Z</time>
      </trkpt>
      <trkpt lat="39.93256" lon="3.127707">
        <ele>69.5</ele>
        <time>2020-05-23T19:13:24Z</time>
      </trkpt>
      <trkpt lat="39.932472" lon="3.127861">
        <ele>68.5</ele>
        <time>2020-05-23T19:13:25Z</time>
      </trkpt>
      <trkpt lat="39.932404" lon="3.12803">
        <ele>67.5</ele>
        <time>2020-05-23T19:13:26Z</time>
      </trkpt>
      <trkpt lat="39.932342" lon="3.128209">
        <ele>66.5</ele>
        <time>2020-05-23T19:13:27Z</time>
      </trkpt>
      <trkpt lat="39.932301" lon="3.128436">
        <ele>65.4</ele>
        <time>2020-05-23T19:13:28Z</time>
      </trkpt>
      <trkpt lat="39.932259" lon="3.128658">
        <ele>64.2</ele>
        <time>2020-05-23T19:13:30Z</time>
      </trkpt>
      <trkpt lat="39.932239" lon="3.128842">
        <ele>63.2</ele>
        <time>2020-05-23T19:13:31Z</time>
      </trkpt>
      <trkpt lat="39.932236" lon="3.129061">
        <ele>62</ele>
        <time>2020-05-23T19:13:32Z</time>
      </trkpt>
      <trkpt lat="39.932301" lon="3.129259">
        <ele>60.7</ele>
        <time>2020-05-23T19:13:33Z</time>
      </trkpt>
      <trkpt lat="39.932377" lon="3.129414">
        <ele>59.6</ele>
        <time>2020-05-23T19:13:34Z</time>
      </trkpt>
      <trkpt lat="39.932487" lon="3.129589">
        <ele>58.3</ele>
        <time>2020-05-23T19:13:35Z</time>
      </trkpt>
      <trkpt lat="39.932579" lon="3.129739">
        <ele>57.3</ele>
        <time>2020-05-23T19:13:36Z</time>
      </trkpt>
      <trkpt lat="39.932682" lon="3.129932">
        <ele>56.1</ele>
        <time>2020-05-23T19:13:37Z</time>
      </trkpt>
      <trkpt lat="39.932774" lon="3.130139">
        <ele>55</ele>
        <time>2020-05-23T19:13:39Z</time>
      </trkpt>
      <trkpt lat="39.932857" lon="3.130327">
        <ele>54</ele>
        <time>2020-05-23T19:13:40Z</time>
      </trkpt>
      <trkpt lat="39.93293" lon="3.130473">
        <ele>53.1</ele>
        <time>2020-05-23T19:13:41Z</time>
      </trkpt>
      <trkpt lat="39.932999" lon="3.130591">
        <ele>52.4</ele>
        <time>2020-05-23T19:13:42Z</time>
      </trkpt>
      <trkpt lat="39.933075" lon="3.130688">
        <ele>51.9</ele>
        <time>2020-05-23T19:13:43Z</time>
      </trkpt>
      <trkpt lat="39.933144" lon="3.130774">
        <ele>51.5</ele>
        <time>2020-05-23T19:13:45Z</time>
      </trkpt>
      <trkpt lat="39.933186" lon="3.130849">
        <ele>51.2</ele>
        <time>2020-05-23T19:13:46Z</time>
      </trkpt>
      <trkpt lat="39.933136" lon="3.13093">
        <ele>50.8</ele>
        <time>2020-05-23T19:13:47Z</time>
      </trkpt>
      <trkpt lat="39.933048" lon="3.130928">
        <ele>50.3</ele>
        <time>2020-05-23T19:13:48Z</time>
      </trkpt>
      <trkpt lat="39.932995" lon="3.130835">
        <ele>49.6</ele>
        <time>2020-05-23T19:13:49Z</time>
      </trkpt>
      <trkpt lat="39.932926" lon="3.130722">
        <ele>48.6</ele>
        <time>2020-05-23T19:13:50Z</time>
      </trkpt>
      <trkpt lat="39.932838" lon="3.130615">
        <ele>47.5</ele>
        <time>2020-05-23T19:13:51Z</time>
      </trkpt>
      <trkpt lat="39.932747" lon="3.130493">
        <ele>46.3</ele>
        <time>2020-05-23T19:13:53Z</time>
      </trkpt>
      <trkpt lat="39.932651" lon="3.130357">
        <ele>45.1</ele>
        <time>2020-05-23T19:13:54Z</time>
      </trkpt>
      <trkpt lat="39.932568" lon="3.130237">
        <ele>44.1</ele>
        <time>2020-05-23T19:13:55Z</time>
      </trkpt>
      <trkpt lat="39.932453" lon="3.130095">
        <ele>42.9</ele>
        <time>2020-05-23T19:13:56Z</time>
      </trkpt>
      <trkpt lat="39.93232" lon="3.12996">
        <ele>41.5</ele>
        <time>2020-05-23T19:13:57Z</time>
      </trkpt>
      <trkpt lat="39.932197" lon="3.129857">
        <ele>40.3</ele>
        <time>2020-05-23T19:13:58Z</time>
      </trkpt>
      <trkpt lat="39.932041" lon="3.12973">
        <ele>38.9</ele>
        <time>2020-05-23T19:13:59Z</time>
      </trkpt>
      <trkpt lat="39.931881" lon="3.129613">
        <ele>37.5</ele>
        <time>2020-05-23T19:14:01Z</time>
      </trkpt>
      <trkpt lat="39.93174" lon="3.129533">
        <ele>36.3</ele>
        <time>2020-05-23T19:14:02Z</time>
      </trkpt>
      <trkpt lat="39.931572" lon="3.129449">
        <ele>34.8</ele>
        <time>2020-05-23T19:14:03Z</time>
      </trkpt>
      <trkpt lat="39.931404" lon="3.129407">
        <ele>33.4</ele>
        <time>2020-05-23T19:14:04Z</time>
      </trkpt>
      <trkpt lat="39.931232" lon="3.129438">
        <ele>31.5</ele>
        <time>2020-05-23T19:14:05Z</time>
      </trkpt>
      <trkpt lat="39.93111" lon="3.129532">
        <ele>30.6</ele>
        <time>2020-05-23T19:14:06Z</time>
      </trkpt>
      <trkpt lat="39.930988" lon="3.129633">
        <ele>29.5</ele>
        <time>2020-05-23T19:14:07Z</time>
      </trkpt>
      <trkpt lat="39.930866" lon="3.129737">
        <ele>28.5</ele>
        <time>2020-05-23T19:14:08Z</time>
      </trkpt>
      <trkpt lat="39.930725" lon="3.129859">
        <ele>27.3</ele>
        <time>2020-05-23T19:14:09Z</time>
      </trkpt>
      <trkpt lat="39.930576" lon="3.12997">
        <ele>26.2</ele>
        <time>2020-05-23T19:14:11Z</time>
      </trkpt>
      <trkpt lat="39.930424" lon="3.13008">
        <ele>25.1</ele>
        <time>2020-05-23T19:14:12Z</time>
      </trkpt>
      <trkpt lat="39.930275" lon="3.1302">
        <ele>24</ele>
        <time>2020-05-23T19:14:13Z</time>
      </trkpt>
      <trkpt lat="39.930134" lon="3.130324">
        <ele>23.4</ele>
        <time>2020-05-23T19:14:14Z</time>
      </trkpt>
      <trkpt lat="39.930027" lon="3.130434">
        <ele>23.2</ele>
        <time>2020-05-23T19:14:15Z</time>
      </trkpt>
      <trkpt lat="39.929901" lon="3.130568">
        <ele>21.7</ele>
        <time>2020-05-23T19:14:16Z</time>
      </trkpt>
      <trkpt lat="39.929829" lon="3.130711">
        <ele>20.6</ele>
        <time>2020-05-23T19:14:17Z</time>
      </trkpt>
      <trkpt lat="39.929771" lon="3.130914">
        <ele>19.1</ele>
        <time>2020-05-23T19:14:19Z</time>
      </trkpt>
      <trkpt lat="39.929722" lon="3.131131">
        <ele>17.9</ele>
        <time>2020-05-23T19:14:20Z</time>
      </trkpt>
      <trkpt lat="39.92968" lon="3.131361">
        <ele>16.8</ele>
        <time>2020-05-23T19:14:21Z</time>
      </trkpt>
      <trkpt lat="39.929638" lon="3.131598">
        <ele>15.7</ele>
        <time>2020-05-23T19:14:22Z</time>
      </trkpt>
      <trkpt lat="39.929584" lon="3.131835">
        <ele>14.6</ele>
        <time>2020-05-23T19:14:23Z</time>
      </trkpt>
      <trkpt lat="39.929546" lon="3.132034">
        <ele>13.6</ele>
        <time>2020-05-23T19:14:24Z</time>
      </trkpt>
      <trkpt lat="39.929497" lon="3.132269">
        <ele>12.4</ele>
        <time>2020-05-23T19:14:26Z</time>
      </trkpt>
      <trkpt lat="39.929451" lon="3.132477">
        <ele>11.3</ele>
        <time>2020-05-23T19:14:27Z</time>
      </trkpt>
      <trkpt lat="39.929405" lon="3.132684">
        <ele>10.3</ele>
        <time>2020-05-23T19:14:28Z</time>
      </trkpt>
      <trkpt lat="39.929367" lon="3.132864">
        <ele>9.4</ele>
        <time>2020-05-23T19:14:29Z</time>
      </trkpt>
      <trkpt lat="39.929314" lon="3.133074">
        <ele>8.4</ele>
        <time>2020-05-23T19:14:30Z</time>
      </trkpt>
      <trkpt lat="39.92926" lon="3.13327">
        <ele>7.7</ele>
        <time>2020-05-23T19:14:31Z</time>
      </trkpt>
      <trkpt lat="39.929218" lon="3.133461">
        <ele>7.1</ele>
        <time>2020-05-23T19:14:32Z</time>
      </trkpt>
      <trkpt lat="39.929211" lon="3.133648">
        <ele>6.7</ele>
        <time>2020-05-23T19:14:34Z</time>
      </trkpt>
      <trkpt lat="39.929226" lon="3.133829">
        <ele>6.1</ele>
        <time>2020-05-23T19:14:35Z</time>
      </trkpt>
      <trkpt lat="39.929291" lon="3.133945">
        <ele>5.8</ele>
        <time>2020-05-23T19:14:36Z</time>
      </trkpt>
      <trkpt lat="39.929401" lon="3.134047">
        <ele>5.8</ele>
        <time>2020-05-23T19:14:37Z</time>
      </trkpt>
      <trkpt lat="39.929504" lon="3.134109">
        <ele>5.9</ele>
        <time>2020-05-23T19:14:38Z</time>
      </trkpt>
      <trkpt lat="39.929642" lon="3.134134">
        <ele>6</ele>
        <time>2020-05-23T19:14:39Z</time>
      </trkpt>
      <trkpt lat="39.929775" lon="3.134166">
        <ele>6</ele>
        <time>2020-05-23T19:14:40Z</time>
      </trkpt>
      <trkpt lat="39.929905" lon="3.134185">
        <ele>6.2</ele>
        <time>2020-05-23T19:14:42Z</time>
      </trkpt>
      <trkpt lat="39.930008" lon="3.134199">
        <ele>6.4</ele>
        <time>2020-05-23T19:14:43Z</time>
      </trkpt>
      <trkpt lat="39.93013" lon="3.134224">
        <ele>6.6</ele>
        <time>2020-05-23T19:14:44Z</time>
      </trkpt>
      <trkpt lat="39.930241" lon="3.134256">
        <ele>6.8</ele>
        <time>2020-05-23T19:14:45Z</time>
      </trkpt>
      <trkpt lat="39.930347" lon="3.134284">
        <ele>7</ele>
        <time>2020-05-23T19:14:46Z</time>
      </trkpt>
      <trkpt lat="39.93045" lon="3.134313">
        <ele>7.2</ele>
        <time>2020-05-23T19:14:47Z</time>
      </trkpt>
      <trkpt lat="39.93053" lon="3.134345">
        <ele>7.5</ele>
        <time>2020-05-23T19:14:48Z</time>
      </trkpt>
      <trkpt lat="39.930607" lon="3.134381">
        <ele>7.7</ele>
        <time>2020-05-23T19:14:49Z</time>
      </trkpt>
      <trkpt lat="39.930691" lon="3.134423">
        <ele>8</ele>
        <time>2020-05-23T19:14:51Z</time>
      </trkpt>
      <trkpt lat="39.930756" lon="3.134458">
        <ele>8.2</ele>
        <time>2020-05-23T19:14:52Z</time>
      </trkpt>
      <trkpt lat="39.930828" lon="3.1345">
        <ele>8.4</ele>
        <time>2020-05-23T19:14:53Z</time>
      </trkpt>
      <trkpt lat="39.930893" lon="3.134542">
        <ele>8.6</ele>
        <time>2020-05-23T19:14:54Z</time>
      </trkpt>
      <trkpt lat="39.930958" lon="3.134583">
        <ele>8.9</ele>
        <time>2020-05-23T19:14:55Z</time>
      </trkpt>
      <trkpt lat="39.931019" lon="3.134622">
        <ele>9.1</ele>
        <time>2020-05-23T19:14:56Z</time>
      </trkpt>
      <trkpt lat="39.931072" lon="3.134655">
        <ele>9.3</ele>
        <time>2020-05-23T19:14:57Z</time>
      </trkpt>
      <trkpt lat="39.931137" lon="3.134697">
        <ele>9.6</ele>
        <time>2020-05-23T19:14:59Z</time>
      </trkpt>
      <trkpt lat="39.931187" lon="3.134732">
        <ele>9.7</ele>
        <time>2020-05-23T19:15:00Z</time>
      </trkpt>
      <trkpt lat="39.931248" lon="3.134773">
        <ele>9.9</ele>
        <time>2020-05-23T19:15:01Z</time>
      </trkpt>
      <trkpt lat="39.931309" lon="3.134812">
        <ele>10.2</ele>
        <time>2020-05-23T19:15:02Z</time>
      </trkpt>
      <trkpt lat="39.931366" lon="3.134846">
        <ele>10.4</ele>
        <time>2020-05-23T19:15:03Z</time>
      </trkpt>
      <trkpt lat="39.931416" lon="3.134874">
        <ele>10.6</ele>
        <time>2020-05-23T19:15:04Z</time>
      </trkpt>
      <trkpt lat="39.931473" lon="3.134905">
        <ele>10.8</ele>
        <time>2020-05-23T19:15:05Z</time>
      </trkpt>
      <trkpt lat="39.931526" lon="3.134937">
        <ele>11</ele>
        <time>2020-05-23T19:15:07Z</time>
      </trkpt>
      <trkpt lat="39.93158" lon="3.134968">
        <ele>11.2</ele>
        <time>2020-05-23T19:15:08Z</time>
      </trkpt>
      <trkpt lat="39.931633" lon="3.134998">
        <ele>11.4</ele>
        <time>2020-05-23T19:15:09Z</time>
      </trkpt>
      <trkpt lat="39.931679" lon="3.135022">
        <ele>11.5</ele>
        <time>2020-05-23T19:15:10Z</time>
      </trkpt>
      <trkpt lat="39.931724" lon="3.135046">
        <ele>11.7</ele>
        <time>2020-05-23T19:15:11Z</time>
      </trkpt>
      <trkpt lat="39.931778" lon="3.135075">
        <ele>11.9</ele>
        <time>2020-05-23T19:15:12Z</time>
      </trkpt>
      <trkpt lat="39.931835" lon="3.135105">
        <ele>12.2</ele>
        <time>2020-05-23T19:15:13Z</time>
      </trkpt>
      <trkpt lat="39.931889" lon="3.135134">
        <ele>12.4</ele>
        <time>2020-05-23T19:15:15Z</time>
      </trkpt>
      <trkpt lat="39.931934" lon="3.135158">
        <ele>12.6</ele>
        <time>2020-05-23T19:15:16Z</time>
      </trkpt>
      <trkpt lat="39.931995" lon="3.135187">
        <ele>12.8</ele>
        <time>2020-05-23T19:15:17Z</time>
      </trkpt>
      <trkpt lat="39.932045" lon="3.135211">
        <ele>13</ele>
        <time>2020-05-23T19:15:18Z</time>
      </trkpt>
      <trkpt lat="39.932095" lon="3.135236">
        <ele>13.2</ele>
        <time>2020-05-23T19:15:19Z</time>
      </trkpt>
      <trkpt lat="39.932148" lon="3.135261">
        <ele>13.4</ele>
        <time>2020-05-23T19:15:20Z</time>
      </trkpt>
      <trkpt lat="39.932205" lon="3.135288">
        <ele>13.7</ele>
        <time>2020-05-23T19:15:21Z</time>
      </trkpt>
      <trkpt lat="39.932274" lon="3.135324">
        <ele>14</ele>
        <time>2020-05-23T19:15:22Z</time>
      </trkpt>
      <trkpt lat="39.932346" lon="3.135359">
        <ele>14.4</ele>
        <time>2020-05-23T19:15:23Z</time>
      </trkpt>
      <trkpt lat="39.932404" lon="3.135388">
        <ele>14.8</ele>
        <time>2020-05-23T19:15:24Z</time>
      </trkpt>
      <trkpt lat="39.932472" lon="3.135424">
        <ele>15.1</ele>
        <time>2020-05-23T19:15:25Z</time>
      </trkpt>
      <trkpt lat="39.932541" lon="3.135459">
        <ele>15.5</ele>
        <time>2020-05-23T19:15:27Z</time>
      </trkpt>
      <trkpt lat="39.932602" lon="3.135491">
        <ele>15.8</ele>
        <time>2020-05-23T19:15:28Z</time>
      </trkpt>
      <trkpt lat="39.932655" lon="3.135515">
        <ele>16.1</ele>
        <time>2020-05-23T19:15:29Z</time>
      </trkpt>
      <trkpt lat="39.932712" lon="3.135543">
        <ele>16.4</ele>
        <time>2020-05-23T19:15:30Z</time>
      </trkpt>
      <trkpt lat="39.932762" lon="3.135566">
        <ele>16.7</ele>
        <time>2020-05-23T19:15:31Z</time>
      </trkpt>
      <trkpt lat="39.932808" lon="3.135588">
        <ele>16.9</ele>
        <time>2020-05-23T19:15:32Z</time>
      </trkpt>
      <trkpt lat="39.932865" lon="3.135615">
        <ele>17.2</ele>
        <time>2020-05-23T19:15:33Z</time>
      </trkpt>
      <trkpt lat="39.932915" lon="3.135638">
        <ele>17.5</ele>
        <time>2020-05-23T19:15:34Z</time>
      </trkpt>
      <trkpt lat="39.932972" lon="3.135664">
        <ele>17.8</ele>
        <time>2020-05-23T19:15:35Z</time>
      </trkpt>
      <trkpt lat="39.933018" lon="3.135685">
        <ele>18</ele>
        <time>2020-05-23T19:15:36Z</time>
      </trkpt>
      <trkpt lat="39.933063" lon="3.135707">
        <ele>18.2</ele>
        <time>2020-05-23T19:15:37Z</time>
      </trkpt>
      <trkpt lat="39.933117" lon="3.135737">
        <ele>18.4</ele>
        <time>2020-05-23T19:15:39Z</time>
      </trkpt>
      <trkpt lat="39.933159" lon="3.13577">
        <ele>18.6</ele>
        <time>2020-05-23T19:15:40Z</time>
      </trkpt>
      <trkpt lat="39.933205" lon="3.135816">
        <ele>18.9</ele>
        <time>2020-05-23T19:15:41Z</time>
      </trkpt>
      <trkpt lat="39.93325" lon="3.135865">
        <ele>19.1</ele>
        <time>2020-05-23T19:15:42Z</time>
      </trkpt>
      <trkpt lat="39.933289" lon="3.135908">
        <ele>19.3</ele>
        <time>2020-05-23T19:15:43Z</time>
      </trkpt>
      <trkpt lat="39.933334" lon="3.135962">
        <ele>19.5</ele>
        <time>2020-05-23T19:15:44Z</time>
      </trkpt>
      <trkpt lat="39.933376" lon="3.136026">
        <ele>19.8</ele>
        <time>2020-05-23T19:15:45Z</time>
      </trkpt>
      <trkpt lat="39.933407" lon="3.136102">
        <ele>20</ele>
        <time>2020-05-23T19:15:47Z</time>
      </trkpt>
      <trkpt lat="39.933426" lon="3.13617">
        <ele>20.2</ele>
        <time>2020-05-23T19:15:48Z</time>
      </trkpt>
      <trkpt lat="39.933456" lon="3.136256">
        <ele>20.5</ele>
        <time>2020-05-23T19:15:49Z</time>
      </trkpt>
      <trkpt lat="39.933475" lon="3.136348">
        <ele>20.8</ele>
        <time>2020-05-23T19:15:50Z</time>
      </trkpt>
      <trkpt lat="39.933483" lon="3.136443">
        <ele>21.1</ele>
        <time>2020-05-23T19:15:51Z</time>
      </trkpt>
      <trkpt lat="39.933487" lon="3.136523">
        <ele>21.4</ele>
        <time>2020-05-23T19:15:52Z</time>
      </trkpt>
      <trkpt lat="39.933491" lon="3.136601">
        <ele>21.7</ele>
        <time>2020-05-23T19:15:53Z</time>
      </trkpt>
      <trkpt lat="39.933498" lon="3.136697">
        <ele>22</ele>
        <time>2020-05-23T19:15:54Z</time>
      </trkpt>
      <trkpt lat="39.933506" lon="3.136781">
        <ele>22.2</ele>
        <time>2020-05-23T19:15:55Z</time>
      </trkpt>
      <trkpt lat="39.93351" lon="3.136866">
        <ele>22.5</ele>
        <time>2020-05-23T19:15:56Z</time>
      </trkpt>
      <trkpt lat="39.933514" lon="3.136963">
        <ele>22.9</ele>
        <time>2020-05-23T19:15:58Z</time>
      </trkpt>
      <trkpt lat="39.933514" lon="3.137039">
        <ele>23.2</ele>
        <time>2020-05-23T19:15:59Z</time>
      </trkpt>
      <trkpt lat="39.933517" lon="3.137131">
        <ele>23.6</ele>
        <time>2020-05-23T19:16:00Z</time>
      </trkpt>
      <trkpt lat="39.933521" lon="3.137223">
        <ele>23.9</ele>
        <time>2020-05-23T19:16:01Z</time>
      </trkpt>
      <trkpt lat="39.933533" lon="3.137306">
        <ele>24.3</ele>
        <time>2020-05-23T19:16:02Z</time>
      </trkpt>
      <trkpt lat="39.933544" lon="3.137369">
        <ele>24.6</ele>
        <time>2020-05-23T19:16:03Z</time>
      </trkpt>
      <trkpt lat="39.933559" lon="3.137438">
        <ele>25</ele>
        <time>2020-05-23T19:16:04Z</time>
      </trkpt>
      <trkpt lat="39.933571" lon="3.137493">
        <ele>25.3</ele>
        <time>2020-05-23T19:16:05Z</time>
      </trkpt>
      <trkpt lat="39.933586" lon="3.137555">
        <ele>25.6</ele>
        <time>2020-05-23T19:16:07Z</time>
      </trkpt>
      <trkpt lat="39.933601" lon="3.137604">
        <ele>25.9</ele>
        <time>2020-05-23T19:16:08Z</time>
      </trkpt>
      <trkpt lat="39.93362" lon="3.137659">
        <ele>26.2</ele>
        <time>2020-05-23T19:16:09Z</time>
      </trkpt>
      <trkpt lat="39.933643" lon="3.13771">
        <ele>26.5</ele>
        <time>2020-05-23T19:16:10Z</time>
      </trkpt>
      <trkpt lat="39.933666" lon="3.13775">
        <ele>26.7</ele>
        <time>2020-05-23T19:16:11Z</time>
      </trkpt>
      <trkpt lat="39.933693" lon="3.137797">
        <ele>27.1</ele>
        <time>2020-05-23T19:16:12Z</time>
      </trkpt>
      <trkpt lat="39.933712" lon="3.137835">
        <ele>27.3</ele>
        <time>2020-05-23T19:16:13Z</time>
      </trkpt>
      <trkpt lat="39.933735" lon="3.137874">
        <ele>27.6</ele>
        <time>2020-05-23T19:16:14Z</time>
      </trkpt>
      <trkpt lat="39.933762" lon="3.137919">
        <ele>27.9</ele>
        <time>2020-05-23T19:16:15Z</time>
      </trkpt>
      <trkpt lat="39.933788" lon="3.137964">
        <ele>28.2</ele>
        <time>2020-05-23T19:16:17Z</time>
      </trkpt>
      <trkpt lat="39.933815" lon="3.138007">
        <ele>28.5</ele>
        <time>2020-05-23T19:16:18Z</time>
      </trkpt>
      <trkpt lat="39.933842" lon="3.138044">
        <ele>28.8</ele>
        <time>2020-05-23T19:16:19Z</time>
      </trkpt>
      <trkpt lat="39.933872" lon="3.13809">
        <ele>29.1</ele>
        <time>2020-05-23T19:16:20Z</time>
      </trkpt>
      <trkpt lat="39.933903" lon="3.138136">
        <ele>29.4</ele>
        <time>2020-05-23T19:16:21Z</time>
      </trkpt>
      <trkpt lat="39.933933" lon="3.138184">
        <ele>29.8</ele>
        <time>2020-05-23T19:16:22Z</time>
      </trkpt>
      <trkpt lat="39.93396" lon="3.138231">
        <ele>30.2</ele>
        <time>2020-05-23T19:16:24Z</time>
      </trkpt>
      <trkpt lat="39.933983" lon="3.13827">
        <ele>30.5</ele>
        <time>2020-05-23T19:16:25Z</time>
      </trkpt>
      <trkpt lat="39.934009" lon="3.138315">
        <ele>30.8</ele>
        <time>2020-05-23T19:16:26Z</time>
      </trkpt>
      <trkpt lat="39.934032" lon="3.138359">
        <ele>31.1</ele>
        <time>2020-05-23T19:16:27Z</time>
      </trkpt>
      <trkpt lat="39.934055" lon="3.138403">
        <ele>31.4</ele>
        <time>2020-05-23T19:16:28Z</time>
      </trkpt>
      <trkpt lat="39.934078" lon="3.138447">
        <ele>31.8</ele>
        <time>2020-05-23T19:16:29Z</time>
      </trkpt>
      <trkpt lat="39.934097" lon="3.138483">
        <ele>32</ele>
        <time>2020-05-23T19:16:31Z</time>
      </trkpt>
      <trkpt lat="39.93412" lon="3.138518">
        <ele>32.3</ele>
        <time>2020-05-23T19:16:32Z</time>
      </trkpt>
      <trkpt lat="39.934143" lon="3.13856">
        <ele>32.6</ele>
        <time>2020-05-23T19:16:33Z</time>
      </trkpt>
      <trkpt lat="39.934166" lon="3.138603">
        <ele>32.9</ele>
        <time>2020-05-23T19:16:34Z</time>
      </trkpt>
      <trkpt lat="39.934189" lon="3.138642">
        <ele>33.2</ele>
        <time>2020-05-23T19:16:35Z</time>
      </trkpt>
      <trkpt lat="39.934216" lon="3.138687">
        <ele>33.5</ele>
        <time>2020-05-23T19:16:36Z</time>
      </trkpt>
      <trkpt lat="39.934238" lon="3.13873">
        <ele>33.9</ele>
        <time>2020-05-23T19:16:37Z</time>
      </trkpt>
      <trkpt lat="39.934269" lon="3.138779">
        <ele>34.2</ele>
        <time>2020-05-23T19:16:38Z</time>
      </trkpt>
      <trkpt lat="39.934299" lon="3.138837">
        <ele>34.6</ele>
        <time>2020-05-23T19:16:39Z</time>
      </trkpt>
      <trkpt lat="39.934322" lon="3.138879">
        <ele>34.9</ele>
        <time>2020-05-23T19:16:40Z</time>
      </trkpt>
      <trkpt lat="39.934353" lon="3.138929">
        <ele>35.3</ele>
        <time>2020-05-23T19:16:42Z</time>
      </trkpt>
      <trkpt lat="39.934383" lon="3.138983">
        <ele>35.7</ele>
        <time>2020-05-23T19:16:43Z</time>
      </trkpt>
      <trkpt lat="39.93441" lon="3.139031">
        <ele>36</ele>
        <time>2020-05-23T19:16:44Z</time>
      </trkpt>
      <trkpt lat="39.934441" lon="3.13908">
        <ele>36.4</ele>
        <time>2020-05-23T19:16:45Z</time>
      </trkpt>
      <trkpt lat="39.934479" lon="3.139141">
        <ele>36.7</ele>
        <time>2020-05-23T19:16:46Z</time>
      </trkpt>
      <trkpt lat="39.934509" lon="3.139192">
        <ele>37</ele>
        <time>2020-05-23T19:16:47Z</time>
      </trkpt>
      <trkpt lat="39.934544" lon="3.139256">
        <ele>37.2</ele>
        <time>2020-05-23T19:16:48Z</time>
      </trkpt>
      <trkpt lat="39.934574" lon="3.139312">
        <ele>37.3</ele>
        <time>2020-05-23T19:16:49Z</time>
      </trkpt>
      <trkpt lat="39.934616" lon="3.139387">
        <ele>37.4</ele>
        <time>2020-05-23T19:16:50Z</time>
      </trkpt>
      <trkpt lat="39.934666" lon="3.139474">
        <ele>37.5</ele>
        <time>2020-05-23T19:16:52Z</time>
      </trkpt>
      <trkpt lat="39.934715" lon="3.13957">
        <ele>37.5</ele>
        <time>2020-05-23T19:16:53Z</time>
      </trkpt>
      <trkpt lat="39.934761" lon="3.139653">
        <ele>37.5</ele>
        <time>2020-05-23T19:16:54Z</time>
      </trkpt>
      <trkpt lat="39.934822" lon="3.139752">
        <ele>37.6</ele>
        <time>2020-05-23T19:16:55Z</time>
      </trkpt>
      <trkpt lat="39.934879" lon="3.139854">
        <ele>37.7</ele>
        <time>2020-05-23T19:16:56Z</time>
      </trkpt>
      <trkpt lat="39.93494" lon="3.139958">
        <ele>37.8</ele>
        <time>2020-05-23T19:16:57Z</time>
      </trkpt>
      <trkpt lat="39.93499" lon="3.140067">
        <ele>37.9</ele>
        <time>2020-05-23T19:16:59Z</time>
      </trkpt>
      <trkpt lat="39.935032" lon="3.140176">
        <ele>38</ele>
        <time>2020-05-23T19:17:00Z</time>
      </trkpt>
      <trkpt lat="39.935066" lon="3.140264">
        <ele>38.1</ele>
        <time>2020-05-23T19:17:01Z</time>
      </trkpt>
      <trkpt lat="39.935104" lon="3.140362">
        <ele>38.4</ele>
        <time>2020-05-23T19:17:02Z</time>
      </trkpt>
      <trkpt lat="39.935135" lon="3.140442">
        <ele>38.6</ele>
        <time>2020-05-23T19:17:03Z</time>
      </trkpt>
      <trkpt lat="39.935169" lon="3.140524">
        <ele>38.8</ele>
        <time>2020-05-23T19:17:04Z</time>
      </trkpt>
      <trkpt lat="39.935207" lon="3.140626">
        <ele>39.2</ele>
        <time>2020-05-23T19:17:05Z</time>
      </trkpt>
      <trkpt lat="39.935242" lon="3.140714">
        <ele>39.5</ele>
        <time>2020-05-23T19:17:06Z</time>
      </trkpt>
      <trkpt lat="39.93528" lon="3.140798">
        <ele>39.9</ele>
        <time>2020-05-23T19:17:07Z</time>
      </trkpt>
      <trkpt lat="39.935329" lon="3.140886">
        <ele>40.3</ele>
        <time>2020-05-23T19:17:08Z</time>
      </trkpt>
      <trkpt lat="39.935379" lon="3.140968">
        <ele>40.6</ele>
        <time>2020-05-23T19:17:10Z</time>
      </trkpt>
      <trkpt lat="39.935425" lon="3.141045">
        <ele>41</ele>
        <time>2020-05-23T19:17:11Z</time>
      </trkpt>
      <trkpt lat="39.935471" lon="3.141115">
        <ele>41.3</ele>
        <time>2020-05-23T19:17:12Z</time>
      </trkpt>
      <trkpt lat="39.93552" lon="3.14117">
        <ele>41.6</ele>
        <time>2020-05-23T19:17:13Z</time>
      </trkpt>
      <trkpt lat="39.935566" lon="3.141223">
        <ele>41.8</ele>
        <time>2020-05-23T19:17:14Z</time>
      </trkpt>
      <trkpt lat="39.935615" lon="3.141276">
        <ele>42.1</ele>
        <time>2020-05-23T19:17:15Z</time>
      </trkpt>
      <trkpt lat="39.935673" lon="3.141339">
        <ele>42.3</ele>
        <time>2020-05-23T19:17:16Z</time>
      </trkpt>
      <trkpt lat="39.935734" lon="3.1414">
        <ele>42.5</ele>
        <time>2020-05-23T19:17:17Z</time>
      </trkpt>
      <trkpt lat="39.935795" lon="3.14146">
        <ele>42.6</ele>
        <time>2020-05-23T19:17:19Z</time>
      </trkpt>
      <trkpt lat="39.935844" lon="3.141509">
        <ele>42.7</ele>
        <time>2020-05-23T19:17:20Z</time>
      </trkpt>
      <trkpt lat="39.935909" lon="3.141571">
        <ele>42.8</ele>
        <time>2020-05-23T19:17:21Z</time>
      </trkpt>
      <trkpt lat="39.935974" lon="3.141636">
        <ele>42.9</ele>
        <time>2020-05-23T19:17:22Z</time>
      </trkpt>
      <trkpt lat="39.936043" lon="3.141708">
        <ele>42.9</ele>
        <time>2020-05-23T19:17:23Z</time>
      </trkpt>
      <trkpt lat="39.936115" lon="3.141783">
        <ele>42.9</ele>
        <time>2020-05-23T19:17:24Z</time>
      </trkpt>
      <trkpt lat="39.936188" lon="3.14186">
        <ele>42.9</ele>
        <time>2020-05-23T19:17:26Z</time>
      </trkpt>
      <trkpt lat="39.936264" lon="3.141936">
        <ele>43</ele>
        <time>2020-05-23T19:17:27Z</time>
      </trkpt>
      <trkpt lat="39.93634" lon="3.142013">
        <ele>43.1</ele>
        <time>2020-05-23T19:17:28Z</time>
      </trkpt>
      <trkpt lat="39.936413" lon="3.142092">
        <ele>43.1</ele>
        <time>2020-05-23T19:17:29Z</time>
      </trkpt>
      <trkpt lat="39.936489" lon="3.142169">
        <ele>43.2</ele>
        <time>2020-05-23T19:17:30Z</time>
      </trkpt>
      <trkpt lat="39.936565" lon="3.142244">
        <ele>43.3</ele>
        <time>2020-05-23T19:17:32Z</time>
      </trkpt>
      <trkpt lat="39.936638" lon="3.142319">
        <ele>43.5</ele>
        <time>2020-05-23T19:17:33Z</time>
      </trkpt>
      <trkpt lat="39.936699" lon="3.142381">
        <ele>43.6</ele>
        <time>2020-05-23T19:17:34Z</time>
      </trkpt>
      <trkpt lat="39.936768" lon="3.142456">
        <ele>43.9</ele>
        <time>2020-05-23T19:17:35Z</time>
      </trkpt>
      <trkpt lat="39.936825" lon="3.142517">
        <ele>44.1</ele>
        <time>2020-05-23T19:17:36Z</time>
      </trkpt>
      <trkpt lat="39.93689" lon="3.142587">
        <ele>44.4</ele>
        <time>2020-05-23T19:17:37Z</time>
      </trkpt>
      <trkpt lat="39.936939" lon="3.142644">
        <ele>44.6</ele>
        <time>2020-05-23T19:17:38Z</time>
      </trkpt>
      <trkpt lat="39.937" lon="3.14271">
        <ele>44.8</ele>
        <time>2020-05-23T19:17:39Z</time>
      </trkpt>
      <trkpt lat="39.937061" lon="3.142771">
        <ele>45</ele>
        <time>2020-05-23T19:17:41Z</time>
      </trkpt>
      <trkpt lat="39.937115" lon="3.142821">
        <ele>45.2</ele>
        <time>2020-05-23T19:17:42Z</time>
      </trkpt>
      <trkpt lat="39.93718" lon="3.142879">
        <ele>45.5</ele>
        <time>2020-05-23T19:17:43Z</time>
      </trkpt>
      <trkpt lat="39.937244" lon="3.142936">
        <ele>45.8</ele>
        <time>2020-05-23T19:17:44Z</time>
      </trkpt>
      <trkpt lat="39.937305" lon="3.142997">
        <ele>46.1</ele>
        <time>2020-05-23T19:17:45Z</time>
      </trkpt>
      <trkpt lat="39.937359" lon="3.143051">
        <ele>46.4</ele>
        <time>2020-05-23T19:17:46Z</time>
      </trkpt>
      <trkpt lat="39.93742" lon="3.143116">
        <ele>46.8</ele>
        <time>2020-05-23T19:17:47Z</time>
      </trkpt>
      <trkpt lat="39.937469" lon="3.143172">
        <ele>47.3</ele>
        <time>2020-05-23T19:17:48Z</time>
      </trkpt>
      <trkpt lat="39.937519" lon="3.143229">
        <ele>47.7</ele>
        <time>2020-05-23T19:17:49Z</time>
      </trkpt>
      <trkpt lat="39.937576" lon="3.143295">
        <ele>48.1</ele>
        <time>2020-05-23T19:17:51Z</time>
      </trkpt>
      <trkpt lat="39.937633" lon="3.143357">
        <ele>48.4</ele>
        <time>2020-05-23T19:17:52Z</time>
      </trkpt>
      <trkpt lat="39.937679" lon="3.143407">
        <ele>48.8</ele>
        <time>2020-05-23T19:17:53Z</time>
      </trkpt>
      <trkpt lat="39.937733" lon="3.143463">
        <ele>49.2</ele>
        <time>2020-05-23T19:17:54Z</time>
      </trkpt>
      <trkpt lat="39.937786" lon="3.143515">
        <ele>49.5</ele>
        <time>2020-05-23T19:17:55Z</time>
      </trkpt>
      <trkpt lat="39.937832" lon="3.143557">
        <ele>49.9</ele>
        <time>2020-05-23T19:17:56Z</time>
      </trkpt>
      <trkpt lat="39.937889" lon="3.143609">
        <ele>50.3</ele>
        <time>2020-05-23T19:17:57Z</time>
      </trkpt>
      <trkpt lat="39.937935" lon="3.143654">
        <ele>50.6</ele>
        <time>2020-05-23T19:17:58Z</time>
      </trkpt>
      <trkpt lat="39.937988" lon="3.143707">
        <ele>51.1</ele>
        <time>2020-05-23T19:18:00Z</time>
      </trkpt>
      <trkpt lat="39.938034" lon="3.143761">
        <ele>51.5</ele>
        <time>2020-05-23T19:18:01Z</time>
      </trkpt>
      <trkpt lat="39.938084" lon="3.14382">
        <ele>51.9</ele>
        <time>2020-05-23T19:18:02Z</time>
      </trkpt>
      <trkpt lat="39.938122" lon="3.143872">
        <ele>52.3</ele>
        <time>2020-05-23T19:18:03Z</time>
      </trkpt>
      <trkpt lat="39.938168" lon="3.143926">
        <ele>52.7</ele>
        <time>2020-05-23T19:18:04Z</time>
      </trkpt>
      <trkpt lat="39.938217" lon="3.14399">
        <ele>53.2</ele>
        <time>2020-05-23T19:18:05Z</time>
      </trkpt>
      <trkpt lat="39.938267" lon="3.144054">
        <ele>53.6</ele>
        <time>2020-05-23T19:18:06Z</time>
      </trkpt>
      <trkpt lat="39.938305" lon="3.144105">
        <ele>53.9</ele>
        <time>2020-05-23T19:18:07Z</time>
      </trkpt>
      <trkpt lat="39.938351" lon="3.144163">
        <ele>54.3</ele>
        <time>2020-05-23T19:18:09Z</time>
      </trkpt>
      <trkpt lat="39.938389" lon="3.144211">
        <ele>54.6</ele>
        <time>2020-05-23T19:18:10Z</time>
      </trkpt>
      <trkpt lat="39.938435" lon="3.144268">
        <ele>55</ele>
        <time>2020-05-23T19:18:11Z</time>
      </trkpt>
      <trkpt lat="39.938469" lon="3.144315">
        <ele>55.2</ele>
        <time>2020-05-23T19:18:12Z</time>
      </trkpt>
      <trkpt lat="39.938503" lon="3.144365">
        <ele>55.5</ele>
        <time>2020-05-23T19:18:13Z</time>
      </trkpt>
      <trkpt lat="39.938541" lon="3.144427">
        <ele>55.8</ele>
        <time>2020-05-23T19:18:14Z</time>
      </trkpt>
      <trkpt lat="39.938576" lon="3.144481">
        <ele>56</ele>
        <time>2020-05-23T19:18:15Z</time>
      </trkpt>
      <trkpt lat="39.93861" lon="3.144537">
        <ele>56.3</ele>
        <time>2020-05-23T19:18:16Z</time>
      </trkpt>
      <trkpt lat="39.938656" lon="3.144605">
        <ele>56.5</ele>
        <time>2020-05-23T19:18:17Z</time>
      </trkpt>
      <trkpt lat="39.938702" lon="3.144673">
        <ele>56.7</ele>
        <time>2020-05-23T19:18:18Z</time>
      </trkpt>
      <trkpt lat="39.938755" lon="3.144748">
        <ele>56.9</ele>
        <time>2020-05-23T19:18:20Z</time>
      </trkpt>
      <trkpt lat="39.938797" lon="3.144814">
        <ele>57</ele>
        <time>2020-05-23T19:18:21Z</time>
      </trkpt>
      <trkpt lat="39.93885" lon="3.144897">
        <ele>57.1</ele>
        <time>2020-05-23T19:18:22Z</time>
      </trkpt>
      <trkpt lat="39.938904" lon="3.144979">
        <ele>57.1</ele>
        <time>2020-05-23T19:18:23Z</time>
      </trkpt>
      <trkpt lat="39.938957" lon="3.145061">
        <ele>57</ele>
        <time>2020-05-23T19:18:24Z</time>
      </trkpt>
      <trkpt lat="39.938999" lon="3.145129">
        <ele>56.9</ele>
        <time>2020-05-23T19:18:25Z</time>
      </trkpt>
      <trkpt lat="39.939049" lon="3.145212">
        <ele>56.8</ele>
        <time>2020-05-23T19:18:26Z</time>
      </trkpt>
      <trkpt lat="39.939091" lon="3.145286">
        <ele>56.6</ele>
        <time>2020-05-23T19:18:27Z</time>
      </trkpt>
      <trkpt lat="39.939133" lon="3.145366">
        <ele>56.5</ele>
        <time>2020-05-23T19:18:28Z</time>
      </trkpt>
      <trkpt lat="39.939186" lon="3.145469">
        <ele>56.3</ele>
        <time>2020-05-23T19:18:30Z</time>
      </trkpt>
      <trkpt lat="39.939247" lon="3.145576">
        <ele>56.2</ele>
        <time>2020-05-23T19:18:31Z</time>
      </trkpt>
      <trkpt lat="39.939312" lon="3.145685">
        <ele>56.2</ele>
        <time>2020-05-23T19:18:32Z</time>
      </trkpt>
      <trkpt lat="39.939369" lon="3.145777">
        <ele>56.2</ele>
        <time>2020-05-23T19:18:33Z</time>
      </trkpt>
      <trkpt lat="39.939438" lon="3.145888">
        <ele>56.2</ele>
        <time>2020-05-23T19:18:34Z</time>
      </trkpt>
      <trkpt lat="39.93951" lon="3.145993">
        <ele>56.3</ele>
        <time>2020-05-23T19:18:35Z</time>
      </trkpt>
      <trkpt lat="39.939587" lon="3.146099">
        <ele>56.5</ele>
        <time>2020-05-23T19:18:37Z</time>
      </trkpt>
      <trkpt lat="39.939651" lon="3.146192">
        <ele>56.6</ele>
        <time>2020-05-23T19:18:38Z</time>
      </trkpt>
      <trkpt lat="39.939712" lon="3.146288">
        <ele>56.8</ele>
        <time>2020-05-23T19:18:39Z</time>
      </trkpt>
      <trkpt lat="39.939781" lon="3.1464">
        <ele>57</ele>
        <time>2020-05-23T19:18:40Z</time>
      </trkpt>
      <trkpt lat="39.939846" lon="3.146505">
        <ele>57</ele>
        <time>2020-05-23T19:18:41Z</time>
      </trkpt>
      <trkpt lat="39.939911" lon="3.146604">
        <ele>57</ele>
        <time>2020-05-23T19:18:42Z</time>
      </trkpt>
      <trkpt lat="39.939976" lon="3.146703">
        <ele>57.1</ele>
        <time>2020-05-23T19:18:43Z</time>
      </trkpt>
      <trkpt lat="39.940025" lon="3.146786">
        <ele>57.2</ele>
        <time>2020-05-23T19:18:44Z</time>
      </trkpt>
      <trkpt lat="39.940083" lon="3.146891">
        <ele>57.4</ele>
        <time>2020-05-23T19:18:46Z</time>
      </trkpt>
      <trkpt lat="39.940136" lon="3.147003">
        <ele>57.6</ele>
        <time>2020-05-23T19:18:47Z</time>
      </trkpt>
      <trkpt lat="39.940182" lon="3.147117">
        <ele>57.7</ele>
        <time>2020-05-23T19:18:48Z</time>
      </trkpt>
      <trkpt lat="39.940235" lon="3.147231">
        <ele>57.8</ele>
        <time>2020-05-23T19:18:49Z</time>
      </trkpt>
      <trkpt lat="39.940289" lon="3.14734">
        <ele>58</ele>
        <time>2020-05-23T19:18:50Z</time>
      </trkpt>
      <trkpt lat="39.940338" lon="3.147427">
        <ele>58.1</ele>
        <time>2020-05-23T19:18:51Z</time>
      </trkpt>
      <trkpt lat="39.940395" lon="3.147528">
        <ele>58.2</ele>
        <time>2020-05-23T19:18:53Z</time>
      </trkpt>
      <trkpt lat="39.940449" lon="3.147629">
        <ele>58.3</ele>
        <time>2020-05-23T19:18:54Z</time>
      </trkpt>
      <trkpt lat="39.940506" lon="3.14773">
        <ele>58.4</ele>
        <time>2020-05-23T19:18:55Z</time>
      </trkpt>
      <trkpt lat="39.940556" lon="3.147829">
        <ele>58.5</ele>
        <time>2020-05-23T19:18:56Z</time>
      </trkpt>
      <trkpt lat="39.940613" lon="3.147925">
        <ele>58.6</ele>
        <time>2020-05-23T19:18:57Z</time>
      </trkpt>
      <trkpt lat="39.940659" lon="3.148004">
        <ele>58.7</ele>
        <time>2020-05-23T19:18:58Z</time>
      </trkpt>
      <trkpt lat="39.940716" lon="3.148099">
        <ele>58.9</ele>
        <time>2020-05-23T19:19:00Z</time>
      </trkpt>
      <trkpt lat="39.940765" lon="3.148179">
        <ele>59</ele>
        <time>2020-05-23T19:19:01Z</time>
      </trkpt>
      <trkpt lat="39.940823" lon="3.148278">
        <ele>59</ele>
        <time>2020-05-23T19:19:02Z</time>
      </trkpt>
      <trkpt lat="39.940868" lon="3.148363">
        <ele>59</ele>
        <time>2020-05-23T19:19:03Z</time>
      </trkpt>
      <trkpt lat="39.940926" lon="3.148468">
        <ele>59</ele>
        <time>2020-05-23T19:19:04Z</time>
      </trkpt>
      <trkpt lat="39.940987" lon="3.148576">
        <ele>59</ele>
        <time>2020-05-23T19:19:05Z</time>
      </trkpt>
      <trkpt lat="39.941036" lon="3.148665">
        <ele>59</ele>
        <time>2020-05-23T19:19:06Z</time>
      </trkpt>
      <trkpt lat="39.941097" lon="3.148772">
        <ele>59.1</ele>
        <time>2020-05-23T19:19:07Z</time>
      </trkpt>
      <trkpt lat="39.941154" lon="3.148878">
        <ele>59.1</ele>
        <time>2020-05-23T19:19:09Z</time>
      </trkpt>
      <trkpt lat="39.941212" lon="3.148982">
        <ele>59.3</ele>
        <time>2020-05-23T19:19:10Z</time>
      </trkpt>
      <trkpt lat="39.941257" lon="3.149068">
        <ele>59.5</ele>
        <time>2020-05-23T19:19:11Z</time>
      </trkpt>
      <trkpt lat="39.941303" lon="3.149153">
        <ele>59.7</ele>
        <time>2020-05-23T19:19:12Z</time>
      </trkpt>
      <trkpt lat="39.941357" lon="3.149255">
        <ele>60</ele>
        <time>2020-05-23T19:19:13Z</time>
      </trkpt>
      <trkpt lat="39.941399" lon="3.149337">
        <ele>60.3</ele>
        <time>2020-05-23T19:19:14Z</time>
      </trkpt>
      <trkpt lat="39.941456" lon="3.149427">
        <ele>60.6</ele>
        <time>2020-05-23T19:19:15Z</time>
      </trkpt>
      <trkpt lat="39.941505" lon="3.149507">
        <ele>60.8</ele>
        <time>2020-05-23T19:19:16Z</time>
      </trkpt>
      <trkpt lat="39.941555" lon="3.149583">
        <ele>61.1</ele>
        <time>2020-05-23T19:19:18Z</time>
      </trkpt>
      <trkpt lat="39.941601" lon="3.149654">
        <ele>61.4</ele>
        <time>2020-05-23T19:19:19Z</time>
      </trkpt>
      <trkpt lat="39.941639" lon="3.14971">
        <ele>61.7</ele>
        <time>2020-05-23T19:19:20Z</time>
      </trkpt>
      <trkpt lat="39.941677" lon="3.149766">
        <ele>61.9</ele>
        <time>2020-05-23T19:19:21Z</time>
      </trkpt>
      <trkpt lat="39.941719" lon="3.149834">
        <ele>62.2</ele>
        <time>2020-05-23T19:19:22Z</time>
      </trkpt>
      <trkpt lat="39.941757" lon="3.149893">
        <ele>62.5</ele>
        <time>2020-05-23T19:19:23Z</time>
      </trkpt>
      <trkpt lat="39.941792" lon="3.149957">
        <ele>63</ele>
        <time>2020-05-23T19:19:24Z</time>
      </trkpt>
      <trkpt lat="39.941833" lon="3.150041">
        <ele>63.4</ele>
        <time>2020-05-23T19:19:25Z</time>
      </trkpt>
      <trkpt lat="39.941875" lon="3.150132">
        <ele>63.8</ele>
        <time>2020-05-23T19:19:26Z</time>
      </trkpt>
      <trkpt lat="39.941921" lon="3.150224">
        <ele>64.1</ele>
        <time>2020-05-23T19:19:28Z</time>
      </trkpt>
      <trkpt lat="39.941963" lon="3.150301">
        <ele>64.4</ele>
        <time>2020-05-23T19:19:29Z</time>
      </trkpt>
      <trkpt lat="39.942013" lon="3.150391">
        <ele>64.8</ele>
        <time>2020-05-23T19:19:30Z</time>
      </trkpt>
      <trkpt lat="39.942055" lon="3.150465">
        <ele>65</ele>
        <time>2020-05-23T19:19:31Z</time>
      </trkpt>
      <trkpt lat="39.942104" lon="3.15055">
        <ele>65.3</ele>
        <time>2020-05-23T19:19:32Z</time>
      </trkpt>
      <trkpt lat="39.942146" lon="3.150621">
        <ele>65.6</ele>
        <time>2020-05-23T19:19:33Z</time>
      </trkpt>
      <trkpt lat="39.9422" lon="3.150706">
        <ele>65.9</ele>
        <time>2020-05-23T19:19:34Z</time>
      </trkpt>
      <trkpt lat="39.942245" lon="3.150779">
        <ele>66.1</ele>
        <time>2020-05-23T19:19:35Z</time>
      </trkpt>
      <trkpt lat="39.942291" lon="3.150853">
        <ele>66.3</ele>
        <time>2020-05-23T19:19:36Z</time>
      </trkpt>
      <trkpt lat="39.942337" lon="3.150928">
        <ele>66.5</ele>
        <time>2020-05-23T19:19:37Z</time>
      </trkpt>
      <trkpt lat="39.94239" lon="3.151018">
        <ele>66.8</ele>
        <time>2020-05-23T19:19:38Z</time>
      </trkpt>
      <trkpt lat="39.942444" lon="3.151108">
        <ele>67</ele>
        <time>2020-05-23T19:19:40Z</time>
      </trkpt>
      <trkpt lat="39.942486" lon="3.151181">
        <ele>67.1</ele>
        <time>2020-05-23T19:19:41Z</time>
      </trkpt>
      <trkpt lat="39.942539" lon="3.151268">
        <ele>67.2</ele>
        <time>2020-05-23T19:19:42Z</time>
      </trkpt>
      <trkpt lat="39.942585" lon="3.151342">
        <ele>67.3</ele>
        <time>2020-05-23T19:19:43Z</time>
      </trkpt>
      <trkpt lat="39.942638" lon="3.151433">
        <ele>67.4</ele>
        <time>2020-05-23T19:19:44Z</time>
      </trkpt>
      <trkpt lat="39.942692" lon="3.151531">
        <ele>67.5</ele>
        <time>2020-05-23T19:19:45Z</time>
      </trkpt>
      <trkpt lat="39.942741" lon="3.151616">
        <ele>67.5</ele>
        <time>2020-05-23T19:19:46Z</time>
      </trkpt>
      <trkpt lat="39.942787" lon="3.151706">
        <ele>67.5</ele>
        <time>2020-05-23T19:19:47Z</time>
      </trkpt>
      <trkpt lat="39.942833" lon="3.151798">
        <ele>67.5</ele>
        <time>2020-05-23T19:19:48Z</time>
      </trkpt>
      <trkpt lat="39.942879" lon="3.151892">
        <ele>67.5</ele>
        <time>2020-05-23T19:19:49Z</time>
      </trkpt>
      <trkpt lat="39.942936" lon="3.152006">
        <ele>67.5</ele>
        <time>2020-05-23T19:19:50Z</time>
      </trkpt>
      <trkpt lat="39.942986" lon="3.1521">
        <ele>67.5</ele>
        <time>2020-05-23T19:19:51Z</time>
      </trkpt>
      <trkpt lat="39.943054" lon="3.152214">
        <ele>67.6</ele>
        <time>2020-05-23T19:19:53Z</time>
      </trkpt>
      <trkpt lat="39.943123" lon="3.15233">
        <ele>67.6</ele>
        <time>2020-05-23T19:19:54Z</time>
      </trkpt>
      <trkpt lat="39.943176" lon="3.152426">
        <ele>67.6</ele>
        <time>2020-05-23T19:19:55Z</time>
      </trkpt>
      <trkpt lat="39.943241" lon="3.152539">
        <ele>67.7</ele>
        <time>2020-05-23T19:19:56Z</time>
      </trkpt>
      <trkpt lat="39.943294" lon="3.152632">
        <ele>67.9</ele>
        <time>2020-05-23T19:19:57Z</time>
      </trkpt>
      <trkpt lat="39.943359" lon="3.152742">
        <ele>68</ele>
        <time>2020-05-23T19:19:58Z</time>
      </trkpt>
      <trkpt lat="39.943413" lon="3.152833">
        <ele>68.2</ele>
        <time>2020-05-23T19:19:59Z</time>
      </trkpt>
      <trkpt lat="39.943474" lon="3.152943">
        <ele>68.4</ele>
        <time>2020-05-23T19:20:00Z</time>
      </trkpt>
      <trkpt lat="39.943523" lon="3.153032">
        <ele>68.6</ele>
        <time>2020-05-23T19:20:01Z</time>
      </trkpt>
      <trkpt lat="39.943573" lon="3.153116">
        <ele>68.8</ele>
        <time>2020-05-23T19:20:02Z</time>
      </trkpt>
      <trkpt lat="39.943619" lon="3.153194">
        <ele>68.9</ele>
        <time>2020-05-23T19:20:03Z</time>
      </trkpt>
      <trkpt lat="39.943672" lon="3.153284">
        <ele>69.1</ele>
        <time>2020-05-23T19:20:05Z</time>
      </trkpt>
      <trkpt lat="39.943726" lon="3.153373">
        <ele>69.2</ele>
        <time>2020-05-23T19:20:06Z</time>
      </trkpt>
      <trkpt lat="39.943779" lon="3.153463">
        <ele>69.4</ele>
        <time>2020-05-23T19:20:07Z</time>
      </trkpt>
      <trkpt lat="39.943825" lon="3.15354">
        <ele>69.6</ele>
        <time>2020-05-23T19:20:08Z</time>
      </trkpt>
      <trkpt lat="39.943878" lon="3.153635">
        <ele>69.9</ele>
        <time>2020-05-23T19:20:09Z</time>
      </trkpt>
      <trkpt lat="39.943932" lon="3.153735">
        <ele>70.2</ele>
        <time>2020-05-23T19:20:10Z</time>
      </trkpt>
      <trkpt lat="39.943985" lon="3.153834">
        <ele>70.5</ele>
        <time>2020-05-23T19:20:12Z</time>
      </trkpt>
      <trkpt lat="39.944034" lon="3.153926">
        <ele>70.8</ele>
        <time>2020-05-23T19:20:13Z</time>
      </trkpt>
      <trkpt lat="39.944084" lon="3.154011">
        <ele>71.1</ele>
        <time>2020-05-23T19:20:14Z</time>
      </trkpt>
      <trkpt lat="39.944138" lon="3.154089">
        <ele>71.4</ele>
        <time>2020-05-23T19:20:15Z</time>
      </trkpt>
      <trkpt lat="39.944183" lon="3.154155">
        <ele>71.6</ele>
        <time>2020-05-23T19:20:16Z</time>
      </trkpt>
      <trkpt lat="39.944233" lon="3.154234">
        <ele>71.9</ele>
        <time>2020-05-23T19:20:17Z</time>
      </trkpt>
      <trkpt lat="39.944271" lon="3.154297">
        <ele>72.1</ele>
        <time>2020-05-23T19:20:18Z</time>
      </trkpt>
      <trkpt lat="39.944313" lon="3.154372">
        <ele>72.3</ele>
        <time>2020-05-23T19:20:20Z</time>
      </trkpt>
      <trkpt lat="39.944355" lon="3.15445">
        <ele>72.5</ele>
        <time>2020-05-23T19:20:21Z</time>
      </trkpt>
      <trkpt lat="39.944397" lon="3.154534">
        <ele>72.7</ele>
        <time>2020-05-23T19:20:22Z</time>
      </trkpt>
      <trkpt lat="39.944443" lon="3.154623">
        <ele>72.9</ele>
        <time>2020-05-23T19:20:23Z</time>
      </trkpt>
      <trkpt lat="39.944492" lon="3.154716">
        <ele>73.1</ele>
        <time>2020-05-23T19:20:24Z</time>
      </trkpt>
      <trkpt lat="39.944549" lon="3.154821">
        <ele>73.3</ele>
        <time>2020-05-23T19:20:26Z</time>
      </trkpt>
      <trkpt lat="39.944603" lon="3.154915">
        <ele>73.4</ele>
        <time>2020-05-23T19:20:27Z</time>
      </trkpt>
      <trkpt lat="39.944668" lon="3.155033">
        <ele>73.5</ele>
        <time>2020-05-23T19:20:28Z</time>
      </trkpt>
      <trkpt lat="39.944736" lon="3.155152">
        <ele>73.6</ele>
        <time>2020-05-23T19:20:29Z</time>
      </trkpt>
      <trkpt lat="39.944801" lon="3.155273">
        <ele>73.7</ele>
        <time>2020-05-23T19:20:30Z</time>
      </trkpt>
      <trkpt lat="39.944866" lon="3.155392">
        <ele>73.8</ele>
        <time>2020-05-23T19:20:31Z</time>
      </trkpt>
      <trkpt lat="39.944935" lon="3.155508">
        <ele>74</ele>
        <time>2020-05-23T19:20:33Z</time>
      </trkpt>
      <trkpt lat="39.944992" lon="3.155607">
        <ele>74.1</ele>
        <time>2020-05-23T19:20:34Z</time>
      </trkpt>
      <trkpt lat="39.945064" lon="3.155724">
        <ele>74.1</ele>
        <time>2020-05-23T19:20:35Z</time>
      </trkpt>
      <trkpt lat="39.945141" lon="3.155842">
        <ele>74</ele>
        <time>2020-05-23T19:20:36Z</time>
      </trkpt>
      <trkpt lat="39.945202" lon="3.155946">
        <ele>73.9</ele>
        <time>2020-05-23T19:20:37Z</time>
      </trkpt>
      <trkpt lat="39.94527" lon="3.156077">
        <ele>73.8</ele>
        <time>2020-05-23T19:20:38Z</time>
      </trkpt>
      <trkpt lat="39.945332" lon="3.156188">
        <ele>73.7</ele>
        <time>2020-05-23T19:20:39Z</time>
      </trkpt>
      <trkpt lat="39.945404" lon="3.156323">
        <ele>73.5</ele>
        <time>2020-05-23T19:20:40Z</time>
      </trkpt>
      <trkpt lat="39.945465" lon="3.156434">
        <ele>73.4</ele>
        <time>2020-05-23T19:20:41Z</time>
      </trkpt>
      <trkpt lat="39.945538" lon="3.156566">
        <ele>73.4</ele>
        <time>2020-05-23T19:20:43Z</time>
      </trkpt>
      <trkpt lat="39.945614" lon="3.156697">
        <ele>73.4</ele>
        <time>2020-05-23T19:20:44Z</time>
      </trkpt>
      <trkpt lat="39.945686" lon="3.156826">
        <ele>73.4</ele>
        <time>2020-05-23T19:20:45Z</time>
      </trkpt>
      <trkpt lat="39.945747" lon="3.156932">
        <ele>73.5</ele>
        <time>2020-05-23T19:20:46Z</time>
      </trkpt>
      <trkpt lat="39.94582" lon="3.157056">
        <ele>73.6</ele>
        <time>2020-05-23T19:20:47Z</time>
      </trkpt>
      <trkpt lat="39.945881" lon="3.157157">
        <ele>73.6</ele>
        <time>2020-05-23T19:20:48Z</time>
      </trkpt>
      <trkpt lat="39.94595" lon="3.157273">
        <ele>73.7</ele>
        <time>2020-05-23T19:20:49Z</time>
      </trkpt>
      <trkpt lat="39.946014" lon="3.157385">
        <ele>73.9</ele>
        <time>2020-05-23T19:20:51Z</time>
      </trkpt>
      <trkpt lat="39.946072" lon="3.15748">
        <ele>74</ele>
        <time>2020-05-23T19:20:52Z</time>
      </trkpt>
      <trkpt lat="39.946133" lon="3.157593">
        <ele>74.2</ele>
        <time>2020-05-23T19:20:53Z</time>
      </trkpt>
      <trkpt lat="39.946194" lon="3.157703">
        <ele>74.4</ele>
        <time>2020-05-23T19:20:54Z</time>
      </trkpt>
      <trkpt lat="39.946251" lon="3.157809">
        <ele>74.6</ele>
        <time>2020-05-23T19:20:55Z</time>
      </trkpt>
      <trkpt lat="39.9463" lon="3.157895">
        <ele>74.8</ele>
        <time>2020-05-23T19:20:56Z</time>
      </trkpt>
      <trkpt lat="39.946346" lon="3.157976">
        <ele>75</ele>
        <time>2020-05-23T19:20:57Z</time>
      </trkpt>
      <trkpt lat="39.946392" lon="3.158056">
        <ele>75.3</ele>
        <time>2020-05-23T19:20:58Z</time>
      </trkpt>
      <trkpt lat="39.946445" lon="3.158149">
        <ele>75.6</ele>
        <time>2020-05-23T19:20:59Z</time>
      </trkpt>
      <trkpt lat="39.946487" lon="3.158228">
        <ele>75.9</ele>
        <time>2020-05-23T19:21:00Z</time>
      </trkpt>
      <trkpt lat="39.946537" lon="3.158323">
        <ele>76.3</ele>
        <time>2020-05-23T19:21:02Z</time>
      </trkpt>
      <trkpt lat="39.946583" lon="3.15842">
        <ele>76.7</ele>
        <time>2020-05-23T19:21:03Z</time>
      </trkpt>
      <trkpt lat="39.946625" lon="3.158498">
        <ele>77.1</ele>
        <time>2020-05-23T19:21:04Z</time>
      </trkpt>
      <trkpt lat="39.946671" lon="3.158586">
        <ele>77.5</ele>
        <time>2020-05-23T19:21:05Z</time>
      </trkpt>
      <trkpt lat="39.946716" lon="3.158667">
        <ele>77.9</ele>
        <time>2020-05-23T19:21:06Z</time>
      </trkpt>
      <trkpt lat="39.946751" lon="3.158729">
        <ele>78.3</ele>
        <time>2020-05-23T19:21:07Z</time>
      </trkpt>
      <trkpt lat="39.946781" lon="3.158791">
        <ele>78.6</ele>
        <time>2020-05-23T19:21:08Z</time>
      </trkpt>
      <trkpt lat="39.946819" lon="3.158862">
        <ele>79</ele>
        <time>2020-05-23T19:21:09Z</time>
      </trkpt>
      <trkpt lat="39.946854" lon="3.158934">
        <ele>79.5</ele>
        <time>2020-05-23T19:21:11Z</time>
      </trkpt>
      <trkpt lat="39.946892" lon="3.159008">
        <ele>79.9</ele>
        <time>2020-05-23T19:21:12Z</time>
      </trkpt>
      <trkpt lat="39.946922" lon="3.159071">
        <ele>80.2</ele>
        <time>2020-05-23T19:21:13Z</time>
      </trkpt>
      <trkpt lat="39.946957" lon="3.159135">
        <ele>80.6</ele>
        <time>2020-05-23T19:21:14Z</time>
      </trkpt>
      <trkpt lat="39.946999" lon="3.159208">
        <ele>81</ele>
        <time>2020-05-23T19:21:15Z</time>
      </trkpt>
      <trkpt lat="39.947033" lon="3.159268">
        <ele>81.3</ele>
        <time>2020-05-23T19:21:16Z</time>
      </trkpt>
      <trkpt lat="39.947079" lon="3.159339">
        <ele>81.7</ele>
        <time>2020-05-23T19:21:17Z</time>
      </trkpt>
      <trkpt lat="39.947113" lon="3.159398">
        <ele>82</ele>
        <time>2020-05-23T19:21:18Z</time>
      </trkpt>
      <trkpt lat="39.947155" lon="3.15947">
        <ele>82.3</ele>
        <time>2020-05-23T19:21:19Z</time>
      </trkpt>
      <trkpt lat="39.947197" lon="3.159542">
        <ele>82.7</ele>
        <time>2020-05-23T19:21:21Z</time>
      </trkpt>
      <trkpt lat="39.947235" lon="3.159617">
        <ele>83</ele>
        <time>2020-05-23T19:21:22Z</time>
      </trkpt>
      <trkpt lat="39.947266" lon="3.159682">
        <ele>83.3</ele>
        <time>2020-05-23T19:21:23Z</time>
      </trkpt>
      <trkpt lat="39.947304" lon="3.159759">
        <ele>83.6</ele>
        <time>2020-05-23T19:21:24Z</time>
      </trkpt>
      <trkpt lat="39.947338" lon="3.159837">
        <ele>83.9</ele>
        <time>2020-05-23T19:21:25Z</time>
      </trkpt>
      <trkpt lat="39.947372" lon="3.159901">
        <ele>84.1</ele>
        <time>2020-05-23T19:21:26Z</time>
      </trkpt>
      <trkpt lat="39.947403" lon="3.159967">
        <ele>84.3</ele>
        <time>2020-05-23T19:21:27Z</time>
      </trkpt>
      <trkpt lat="39.947445" lon="3.160049">
        <ele>84.6</ele>
        <time>2020-05-23T19:21:28Z</time>
      </trkpt>
      <trkpt lat="39.947491" lon="3.160133">
        <ele>84.9</ele>
        <time>2020-05-23T19:21:30Z</time>
      </trkpt>
      <trkpt lat="39.947536" lon="3.160217">
        <ele>85.1</ele>
        <time>2020-05-23T19:21:31Z</time>
      </trkpt>
      <trkpt lat="39.94759" lon="3.160303">
        <ele>85.4</ele>
        <time>2020-05-23T19:21:32Z</time>
      </trkpt>
      <trkpt lat="39.947643" lon="3.160394">
        <ele>85.7</ele>
        <time>2020-05-23T19:21:33Z</time>
      </trkpt>
      <trkpt lat="39.947685" lon="3.160475">
        <ele>86</ele>
        <time>2020-05-23T19:21:34Z</time>
      </trkpt>
      <trkpt lat="39.947708" lon="3.160567">
        <ele>86.2</ele>
        <time>2020-05-23T19:21:35Z</time>
      </trkpt>
      <trkpt lat="39.94772" lon="3.160681">
        <ele>86.5</ele>
        <time>2020-05-23T19:21:36Z</time>
      </trkpt>
      <trkpt lat="39.947727" lon="3.160776">
        <ele>86.7</ele>
        <time>2020-05-23T19:21:37Z</time>
      </trkpt>
      <trkpt lat="39.947735" lon="3.16089">
        <ele>87</ele>
        <time>2020-05-23T19:21:39Z</time>
      </trkpt>
      <trkpt lat="39.947731" lon="3.160983">
        <ele>87.2</ele>
        <time>2020-05-23T19:21:40Z</time>
      </trkpt>
      <trkpt lat="39.947723" lon="3.161076">
        <ele>87.5</ele>
        <time>2020-05-23T19:21:41Z</time>
      </trkpt>
      <trkpt lat="39.94772" lon="3.161187">
        <ele>87.8</ele>
        <time>2020-05-23T19:21:42Z</time>
      </trkpt>
      <trkpt lat="39.947716" lon="3.161279">
        <ele>88</ele>
        <time>2020-05-23T19:21:43Z</time>
      </trkpt>
      <trkpt lat="39.947708" lon="3.16139">
        <ele>88.1</ele>
        <time>2020-05-23T19:21:44Z</time>
      </trkpt>
      <trkpt lat="39.947693" lon="3.161504">
        <ele>88.3</ele>
        <time>2020-05-23T19:21:45Z</time>
      </trkpt>
      <trkpt lat="39.947678" lon="3.161622">
        <ele>88.5</ele>
        <time>2020-05-23T19:21:46Z</time>
      </trkpt>
      <trkpt lat="39.947666" lon="3.161724">
        <ele>89</ele>
        <time>2020-05-23T19:21:47Z</time>
      </trkpt>
      <trkpt lat="39.947655" lon="3.161847">
        <ele>89.6</ele>
        <time>2020-05-23T19:21:49Z</time>
      </trkpt>
      <trkpt lat="39.947647" lon="3.161948">
        <ele>90.1</ele>
        <time>2020-05-23T19:21:50Z</time>
      </trkpt>
      <trkpt lat="39.947643" lon="3.162065">
        <ele>90.7</ele>
        <time>2020-05-23T19:21:51Z</time>
      </trkpt>
      <trkpt lat="39.947639" lon="3.162178">
        <ele>91.4</ele>
        <time>2020-05-23T19:21:52Z</time>
      </trkpt>
      <trkpt lat="39.947651" lon="3.16228">
        <ele>92.1</ele>
        <time>2020-05-23T19:21:53Z</time>
      </trkpt>
      <trkpt lat="39.947662" lon="3.162366">
        <ele>92.6</ele>
        <time>2020-05-23T19:21:54Z</time>
      </trkpt>
      <trkpt lat="39.947674" lon="3.162429">
        <ele>92.9</ele>
        <time>2020-05-23T19:21:55Z</time>
      </trkpt>
      <trkpt lat="39.947689" lon="3.162484">
        <ele>93.3</ele>
        <time>2020-05-23T19:21:56Z</time>
      </trkpt>
      <trkpt lat="39.947704" lon="3.162532">
        <ele>93.5</ele>
        <time>2020-05-23T19:21:57Z</time>
      </trkpt>
      <trkpt lat="39.947727" lon="3.162572">
        <ele>93.8</ele>
        <time>2020-05-23T19:21:58Z</time>
      </trkpt>
      <trkpt lat="39.947754" lon="3.162614">
        <ele>94.2</ele>
        <time>2020-05-23T19:22:00Z</time>
      </trkpt>
      <trkpt lat="39.947773" lon="3.162645">
        <ele>94.4</ele>
        <time>2020-05-23T19:22:01Z</time>
      </trkpt>
      <trkpt lat="39.947796" lon="3.162679">
        <ele>94.7</ele>
        <time>2020-05-23T19:22:02Z</time>
      </trkpt>
      <trkpt lat="39.947819" lon="3.162715">
        <ele>95</ele>
        <time>2020-05-23T19:22:03Z</time>
      </trkpt>
      <trkpt lat="39.947842" lon="3.162754">
        <ele>95.3</ele>
        <time>2020-05-23T19:22:04Z</time>
      </trkpt>
      <trkpt lat="39.947865" lon="3.162795">
        <ele>95.6</ele>
        <time>2020-05-23T19:22:05Z</time>
      </trkpt>
      <trkpt lat="39.947887" lon="3.162833">
        <ele>95.9</ele>
        <time>2020-05-23T19:22:07Z</time>
      </trkpt>
      <trkpt lat="39.947906" lon="3.162869">
        <ele>96.2</ele>
        <time>2020-05-23T19:22:08Z</time>
      </trkpt>
      <trkpt lat="39.947926" lon="3.162897">
        <ele>96.4</ele>
        <time>2020-05-23T19:22:09Z</time>
      </trkpt>
      <trkpt lat="39.947945" lon="3.162924">
        <ele>96.6</ele>
        <time>2020-05-23T19:22:10Z</time>
      </trkpt>
      <trkpt lat="39.94796" lon="3.16295">
        <ele>96.8</ele>
        <time>2020-05-23T19:22:11Z</time>
      </trkpt>
      <trkpt lat="39.947987" lon="3.162982">
        <ele>97.1</ele>
        <time>2020-05-23T19:22:12Z</time>
      </trkpt>
      <trkpt lat="39.948009" lon="3.163011">
        <ele>97.4</ele>
        <time>2020-05-23T19:22:13Z</time>
      </trkpt>
      <trkpt lat="39.948036" lon="3.163045">
        <ele>97.6</ele>
        <time>2020-05-23T19:22:14Z</time>
      </trkpt>
      <trkpt lat="39.948059" lon="3.163072">
        <ele>97.9</ele>
        <time>2020-05-23T19:22:15Z</time>
      </trkpt>
      <trkpt lat="39.948086" lon="3.1631">
        <ele>98.1</ele>
        <time>2020-05-23T19:22:16Z</time>
      </trkpt>
      <trkpt lat="39.948116" lon="3.16313">
        <ele>98.3</ele>
        <time>2020-05-23T19:22:18Z</time>
      </trkpt>
      <trkpt lat="39.948147" lon="3.163157">
        <ele>98.6</ele>
        <time>2020-05-23T19:22:19Z</time>
      </trkpt>
      <trkpt lat="39.948173" lon="3.163181">
        <ele>98.7</ele>
        <time>2020-05-23T19:22:20Z</time>
      </trkpt>
      <trkpt lat="39.9482" lon="3.163214">
        <ele>98.9</ele>
        <time>2020-05-23T19:22:21Z</time>
      </trkpt>
      <trkpt lat="39.948223" lon="3.163245">
        <ele>99.1</ele>
        <time>2020-05-23T19:22:22Z</time>
      </trkpt>
      <trkpt lat="39.948246" lon="3.163279">
        <ele>99.2</ele>
        <time>2020-05-23T19:22:23Z</time>
      </trkpt>
      <trkpt lat="39.948265" lon="3.163316">
        <ele>99.3</ele>
        <time>2020-05-23T19:22:24Z</time>
      </trkpt>
      <trkpt lat="39.948292" lon="3.163371">
        <ele>99.3</ele>
        <time>2020-05-23T19:22:25Z</time>
      </trkpt>
      <trkpt lat="39.948318" lon="3.163436">
        <ele>99.3</ele>
        <time>2020-05-23T19:22:26Z</time>
      </trkpt>
      <trkpt lat="39.948334" lon="3.1635">
        <ele>99.3</ele>
        <time>2020-05-23T19:22:27Z</time>
      </trkpt>
      <trkpt lat="39.948349" lon="3.163586">
        <ele>99.1</ele>
        <time>2020-05-23T19:22:29Z</time>
      </trkpt>
      <trkpt lat="39.948372" lon="3.163684">
        <ele>98.9</ele>
        <time>2020-05-23T19:22:30Z</time>
      </trkpt>
      <trkpt lat="39.948399" lon="3.163792">
        <ele>98.7</ele>
        <time>2020-05-23T19:22:31Z</time>
      </trkpt>
      <trkpt lat="39.948429" lon="3.163889">
        <ele>98.5</ele>
        <time>2020-05-23T19:22:32Z</time>
      </trkpt>
      <trkpt lat="39.948471" lon="3.164014">
        <ele>98.3</ele>
        <time>2020-05-23T19:22:33Z</time>
      </trkpt>
      <trkpt lat="39.948521" lon="3.164146">
        <ele>98</ele>
        <time>2020-05-23T19:22:34Z</time>
      </trkpt>
      <trkpt lat="39.94857" lon="3.164283">
        <ele>97.6</ele>
        <time>2020-05-23T19:22:36Z</time>
      </trkpt>
      <trkpt lat="39.948616" lon="3.164426">
        <ele>97</ele>
        <time>2020-05-23T19:22:37Z</time>
      </trkpt>
      <trkpt lat="39.948662" lon="3.164574">
        <ele>96.3</ele>
        <time>2020-05-23T19:22:38Z</time>
      </trkpt>
      <trkpt lat="39.948704" lon="3.164728">
        <ele>95.4</ele>
        <time>2020-05-23T19:22:39Z</time>
      </trkpt>
      <trkpt lat="39.948746" lon="3.16489">
        <ele>94.5</ele>
        <time>2020-05-23T19:22:40Z</time>
      </trkpt>
      <trkpt lat="39.94878" lon="3.165034">
        <ele>93.7</ele>
        <time>2020-05-23T19:22:41Z</time>
      </trkpt>
      <trkpt lat="39.948814" lon="3.165188">
        <ele>92.9</ele>
        <time>2020-05-23T19:22:42Z</time>
      </trkpt>
      <trkpt lat="39.948856" lon="3.165384">
        <ele>92</ele>
        <time>2020-05-23T19:22:44Z</time>
      </trkpt>
      <trkpt lat="39.948898" lon="3.165583">
        <ele>91</ele>
        <time>2020-05-23T19:22:45Z</time>
      </trkpt>
      <trkpt lat="39.948944" lon="3.165775">
        <ele>90</ele>
        <time>2020-05-23T19:22:46Z</time>
      </trkpt>
      <trkpt lat="39.948994" lon="3.165963">
        <ele>88.9</ele>
        <time>2020-05-23T19:22:47Z</time>
      </trkpt>
      <trkpt lat="39.949028" lon="3.166121">
        <ele>87.9</ele>
        <time>2020-05-23T19:22:48Z</time>
      </trkpt>
      <trkpt lat="39.949059" lon="3.166283">
        <ele>86.9</ele>
        <time>2020-05-23T19:22:49Z</time>
      </trkpt>
      <trkpt lat="39.949085" lon="3.166483">
        <ele>85.7</ele>
        <time>2020-05-23T19:22:50Z</time>
      </trkpt>
      <trkpt lat="39.949112" lon="3.166692">
        <ele>84.6</ele>
        <time>2020-05-23T19:22:52Z</time>
      </trkpt>
      <trkpt lat="39.949127" lon="3.16688">
        <ele>83.7</ele>
        <time>2020-05-23T19:22:53Z</time>
      </trkpt>
      <trkpt lat="39.94915" lon="3.167115">
        <ele>82.7</ele>
        <time>2020-05-23T19:22:54Z</time>
      </trkpt>
      <trkpt lat="39.949181" lon="3.167354">
        <ele>81.7</ele>
        <time>2020-05-23T19:22:55Z</time>
      </trkpt>
      <trkpt lat="39.949215" lon="3.167589">
        <ele>80.7</ele>
        <time>2020-05-23T19:22:56Z</time>
      </trkpt>
      <trkpt lat="39.949257" lon="3.167815">
        <ele>79.8</ele>
        <time>2020-05-23T19:22:57Z</time>
      </trkpt>
      <trkpt lat="39.949299" lon="3.168037">
        <ele>79.2</ele>
        <time>2020-05-23T19:22:59Z</time>
      </trkpt>
      <trkpt lat="39.949337" lon="3.168253">
        <ele>78.8</ele>
        <time>2020-05-23T19:23:00Z</time>
      </trkpt>
      <trkpt lat="39.949364" lon="3.16843">
        <ele>78.5</ele>
        <time>2020-05-23T19:23:01Z</time>
      </trkpt>
      <trkpt lat="39.949394" lon="3.168637">
        <ele>78.1</ele>
        <time>2020-05-23T19:23:02Z</time>
      </trkpt>
      <trkpt lat="39.949413" lon="3.168839">
        <ele>77.9</ele>
        <time>2020-05-23T19:23:03Z</time>
      </trkpt>
      <trkpt lat="39.949425" lon="3.169001">
        <ele>77.9</ele>
        <time>2020-05-23T19:23:04Z</time>
      </trkpt>
      <trkpt lat="39.949421" lon="3.169189">
        <ele>77.9</ele>
        <time>2020-05-23T19:23:05Z</time>
      </trkpt>
      <trkpt lat="39.949406" lon="3.169368">
        <ele>78.1</ele>
        <time>2020-05-23T19:23:07Z</time>
      </trkpt>
      <trkpt lat="39.949387" lon="3.169512">
        <ele>78.4</ele>
        <time>2020-05-23T19:23:08Z</time>
      </trkpt>
      <trkpt lat="39.949341" lon="3.16967">
        <ele>78.8</ele>
        <time>2020-05-23T19:23:09Z</time>
      </trkpt>
      <trkpt lat="39.949303" lon="3.169801">
        <ele>79.4</ele>
        <time>2020-05-23T19:23:10Z</time>
      </trkpt>
      <trkpt lat="39.949272" lon="3.169962">
        <ele>80.9</ele>
        <time>2020-05-23T19:23:11Z</time>
      </trkpt>
      <trkpt lat="39.949264" lon="3.170095">
        <ele>81.9</ele>
        <time>2020-05-23T19:23:12Z</time>
      </trkpt>
      <trkpt lat="39.949257" lon="3.170243">
        <ele>83.1</ele>
        <time>2020-05-23T19:23:13Z</time>
      </trkpt>
      <trkpt lat="39.949257" lon="3.170355">
        <ele>84</ele>
        <time>2020-05-23T19:23:14Z</time>
      </trkpt>
      <trkpt lat="39.949264" lon="3.170454">
        <ele>84.8</ele>
        <time>2020-05-23T19:23:15Z</time>
      </trkpt>
      <trkpt lat="39.949276" lon="3.170551">
        <ele>85.5</ele>
        <time>2020-05-23T19:23:16Z</time>
      </trkpt>
      <trkpt lat="39.949287" lon="3.170632">
        <ele>86.1</ele>
        <time>2020-05-23T19:23:18Z</time>
      </trkpt>
      <trkpt lat="39.949299" lon="3.170705">
        <ele>86.7</ele>
        <time>2020-05-23T19:23:19Z</time>
      </trkpt>
      <trkpt lat="39.949303" lon="3.170768">
        <ele>87.1</ele>
        <time>2020-05-23T19:23:20Z</time>
      </trkpt>
      <trkpt lat="39.949303" lon="3.170818">
        <ele>87.5</ele>
        <time>2020-05-23T19:23:21Z</time>
      </trkpt>
      <trkpt lat="39.949303" lon="3.170854">
        <ele>87.8</ele>
        <time>2020-05-23T19:23:22Z</time>
      </trkpt>
      <trkpt lat="39.949299" lon="3.170897">
        <ele>88.1</ele>
        <time>2020-05-23T19:23:23Z</time>
      </trkpt>
      <trkpt lat="39.949295" lon="3.170931">
        <ele>88.3</ele>
        <time>2020-05-23T19:23:24Z</time>
      </trkpt>
      <trkpt lat="39.949291" lon="3.170966">
        <ele>88.5</ele>
        <time>2020-05-23T19:23:25Z</time>
      </trkpt>
      <trkpt lat="39.949284" lon="3.171018">
        <ele>88.9</ele>
        <time>2020-05-23T19:23:27Z</time>
      </trkpt>
      <trkpt lat="39.949276" lon="3.171065">
        <ele>89.2</ele>
        <time>2020-05-23T19:23:28Z</time>
      </trkpt>
      <trkpt lat="39.949264" lon="3.171123">
        <ele>89.6</ele>
        <time>2020-05-23T19:23:29Z</time>
      </trkpt>
      <trkpt lat="39.949253" lon="3.171171">
        <ele>89.9</ele>
        <time>2020-05-23T19:23:30Z</time>
      </trkpt>
      <trkpt lat="39.949238" lon="3.171224">
        <ele>90.3</ele>
        <time>2020-05-23T19:23:31Z</time>
      </trkpt>
      <trkpt lat="39.949215" lon="3.171273">
        <ele>90.7</ele>
        <time>2020-05-23T19:23:32Z</time>
      </trkpt>
      <trkpt lat="39.949188" lon="3.171318">
        <ele>91.1</ele>
        <time>2020-05-23T19:23:33Z</time>
      </trkpt>
      <trkpt lat="39.949161" lon="3.171364">
        <ele>91.5</ele>
        <time>2020-05-23T19:23:35Z</time>
      </trkpt>
      <trkpt lat="39.949127" lon="3.171406">
        <ele>91.9</ele>
        <time>2020-05-23T19:23:36Z</time>
      </trkpt>
      <trkpt lat="39.949085" lon="3.171429">
        <ele>92.3</ele>
        <time>2020-05-23T19:23:37Z</time>
      </trkpt>
      <trkpt lat="39.949043" lon="3.171433">
        <ele>92.7</ele>
        <time>2020-05-23T19:23:38Z</time>
      </trkpt>
      <trkpt lat="39.948994" lon="3.171432">
        <ele>93.1</ele>
        <time>2020-05-23T19:23:39Z</time>
      </trkpt>
      <trkpt lat="39.948936" lon="3.171433">
        <ele>93.6</ele>
        <time>2020-05-23T19:23:40Z</time>
      </trkpt>
      <trkpt lat="39.948883" lon="3.171436">
        <ele>94</ele>
        <time>2020-05-23T19:23:42Z</time>
      </trkpt>
      <trkpt lat="39.948826" lon="3.171438">
        <ele>94.5</ele>
        <time>2020-05-23T19:23:43Z</time>
      </trkpt>
      <trkpt lat="39.948769" lon="3.171439">
        <ele>95</ele>
        <time>2020-05-23T19:23:44Z</time>
      </trkpt>
      <trkpt lat="39.948715" lon="3.171442">
        <ele>95.5</ele>
        <time>2020-05-23T19:23:45Z</time>
      </trkpt>
      <trkpt lat="39.948673" lon="3.171446">
        <ele>95.9</ele>
        <time>2020-05-23T19:23:46Z</time>
      </trkpt>
      <trkpt lat="39.948627" lon="3.171451">
        <ele>96.4</ele>
        <time>2020-05-23T19:23:47Z</time>
      </trkpt>
      <trkpt lat="39.948574" lon="3.171458">
        <ele>96.8</ele>
        <time>2020-05-23T19:23:48Z</time>
      </trkpt>
      <trkpt lat="39.948532" lon="3.171466">
        <ele>97.2</ele>
        <time>2020-05-23T19:23:49Z</time>
      </trkpt>
      <trkpt lat="39.948482" lon="3.171482">
        <ele>97.6</ele>
        <time>2020-05-23T19:23:51Z</time>
      </trkpt>
      <trkpt lat="39.948444" lon="3.171504">
        <ele>98</ele>
        <time>2020-05-23T19:23:52Z</time>
      </trkpt>
      <trkpt lat="39.948414" lon="3.171535">
        <ele>98.3</ele>
        <time>2020-05-23T19:23:53Z</time>
      </trkpt>
      <trkpt lat="39.948383" lon="3.171575">
        <ele>98.7</ele>
        <time>2020-05-23T19:23:54Z</time>
      </trkpt>
      <trkpt lat="39.948357" lon="3.171615">
        <ele>99.1</ele>
        <time>2020-05-23T19:23:55Z</time>
      </trkpt>
      <trkpt lat="39.948326" lon="3.171656">
        <ele>99.5</ele>
        <time>2020-05-23T19:23:56Z</time>
      </trkpt>
      <trkpt lat="39.948303" lon="3.171705">
        <ele>100</ele>
        <time>2020-05-23T19:23:57Z</time>
      </trkpt>
      <trkpt lat="39.948292" lon="3.171752">
        <ele>100.4</ele>
        <time>2020-05-23T19:23:58Z</time>
      </trkpt>
      <trkpt lat="39.948296" lon="3.171812">
        <ele>100.9</ele>
        <time>2020-05-23T19:24:00Z</time>
      </trkpt>
      <trkpt lat="39.948311" lon="3.171869">
        <ele>101.5</ele>
        <time>2020-05-23T19:24:01Z</time>
      </trkpt>
      <trkpt lat="39.948322" lon="3.171916">
        <ele>102</ele>
        <time>2020-05-23T19:24:02Z</time>
      </trkpt>
      <trkpt lat="39.948338" lon="3.171967">
        <ele>102.6</ele>
        <time>2020-05-23T19:24:03Z</time>
      </trkpt>
      <trkpt lat="39.948353" lon="3.172016">
        <ele>103.2</ele>
        <time>2020-05-23T19:24:04Z</time>
      </trkpt>
      <trkpt lat="39.948376" lon="3.172061">
        <ele>103.8</ele>
        <time>2020-05-23T19:24:05Z</time>
      </trkpt>
      <trkpt lat="39.948399" lon="3.172092">
        <ele>104.3</ele>
        <time>2020-05-23T19:24:06Z</time>
      </trkpt>
      <trkpt lat="39.948441" lon="3.172115">
        <ele>104.9</ele>
        <time>2020-05-23T19:24:08Z</time>
      </trkpt>
      <trkpt lat="39.948479" lon="3.172127">
        <ele>105.4</ele>
        <time>2020-05-23T19:24:09Z</time>
      </trkpt>
      <trkpt lat="39.948513" lon="3.172137">
        <ele>105.9</ele>
        <time>2020-05-23T19:24:10Z</time>
      </trkpt>
      <trkpt lat="39.948551" lon="3.172149">
        <ele>106.3</ele>
        <time>2020-05-23T19:24:11Z</time>
      </trkpt>
      <trkpt lat="39.948589" lon="3.172161">
        <ele>106.8</ele>
        <time>2020-05-23T19:24:12Z</time>
      </trkpt>
      <trkpt lat="39.948616" lon="3.172172">
        <ele>107.1</ele>
        <time>2020-05-23T19:24:13Z</time>
      </trkpt>
      <trkpt lat="39.94865" lon="3.172185">
        <ele>107.5</ele>
        <time>2020-05-23T19:24:14Z</time>
      </trkpt>
      <trkpt lat="39.948685" lon="3.172198">
        <ele>107.9</ele>
        <time>2020-05-23T19:24:15Z</time>
      </trkpt>
      <trkpt lat="39.948719" lon="3.172212">
        <ele>108.2</ele>
        <time>2020-05-23T19:24:16Z</time>
      </trkpt>
      <trkpt lat="39.948757" lon="3.172232">
        <ele>108.6</ele>
        <time>2020-05-23T19:24:18Z</time>
      </trkpt>
      <trkpt lat="39.948799" lon="3.172257">
        <ele>109</ele>
        <time>2020-05-23T19:24:19Z</time>
      </trkpt>
      <trkpt lat="39.948837" lon="3.172288">
        <ele>109.4</ele>
        <time>2020-05-23T19:24:20Z</time>
      </trkpt>
      <trkpt lat="39.948875" lon="3.172321">
        <ele>109.8</ele>
        <time>2020-05-23T19:24:21Z</time>
      </trkpt>
      <trkpt lat="39.948914" lon="3.172356">
        <ele>110.3</ele>
        <time>2020-05-23T19:24:22Z</time>
      </trkpt>
      <trkpt lat="39.94894" lon="3.172391">
        <ele>110.6</ele>
        <time>2020-05-23T19:24:23Z</time>
      </trkpt>
      <trkpt lat="39.948963" lon="3.17244">
        <ele>111</ele>
        <time>2020-05-23T19:24:25Z</time>
      </trkpt>
      <trkpt lat="39.948975" lon="3.172489">
        <ele>111.4</ele>
        <time>2020-05-23T19:24:26Z</time>
      </trkpt>
      <trkpt lat="39.948982" lon="3.172552">
        <ele>111.9</ele>
        <time>2020-05-23T19:24:27Z</time>
      </trkpt>
      <trkpt lat="39.94899" lon="3.172607">
        <ele>112.3</ele>
        <time>2020-05-23T19:24:28Z</time>
      </trkpt>
      <trkpt lat="39.948997" lon="3.172672">
        <ele>112.7</ele>
        <time>2020-05-23T19:24:29Z</time>
      </trkpt>
      <trkpt lat="39.949005" lon="3.172727">
        <ele>113.1</ele>
        <time>2020-05-23T19:24:30Z</time>
      </trkpt>
      <trkpt lat="39.949005" lon="3.172791">
        <ele>113.6</ele>
        <time>2020-05-23T19:24:31Z</time>
      </trkpt>
      <trkpt lat="39.949001" lon="3.172846">
        <ele>114</ele>
        <time>2020-05-23T19:24:32Z</time>
      </trkpt>
      <trkpt lat="39.94899" lon="3.172911">
        <ele>114.5</ele>
        <time>2020-05-23T19:24:33Z</time>
      </trkpt>
      <trkpt lat="39.948982" lon="3.172966">
        <ele>114.9</ele>
        <time>2020-05-23T19:24:34Z</time>
      </trkpt>
      <trkpt lat="39.948975" lon="3.173036">
        <ele>115.5</ele>
        <time>2020-05-23T19:24:36Z</time>
      </trkpt>
      <trkpt lat="39.948967" lon="3.173108">
        <ele>116</ele>
        <time>2020-05-23T19:24:37Z</time>
      </trkpt>
      <trkpt lat="39.948963" lon="3.17317">
        <ele>116.4</ele>
        <time>2020-05-23T19:24:38Z</time>
      </trkpt>
      <trkpt lat="39.948956" lon="3.173243">
        <ele>116.9</ele>
        <time>2020-05-23T19:24:39Z</time>
      </trkpt>
      <trkpt lat="39.948952" lon="3.173303">
        <ele>117.3</ele>
        <time>2020-05-23T19:24:40Z</time>
      </trkpt>
      <trkpt lat="39.948948" lon="3.173361">
        <ele>117.7</ele>
        <time>2020-05-23T19:24:41Z</time>
      </trkpt>
      <trkpt lat="39.94894" lon="3.173431">
        <ele>118.1</ele>
        <time>2020-05-23T19:24:42Z</time>
      </trkpt>
      <trkpt lat="39.948936" lon="3.173501">
        <ele>118.5</ele>
        <time>2020-05-23T19:24:43Z</time>
      </trkpt>
      <trkpt lat="39.948936" lon="3.17357">
        <ele>118.9</ele>
        <time>2020-05-23T19:24:45Z</time>
      </trkpt>
      <trkpt lat="39.948936" lon="3.173642">
        <ele>119.3</ele>
        <time>2020-05-23T19:24:46Z</time>
      </trkpt>
      <trkpt lat="39.948952" lon="3.173717">
        <ele>119.6</ele>
        <time>2020-05-23T19:24:47Z</time>
      </trkpt>
      <trkpt lat="39.948971" lon="3.173793">
        <ele>120</ele>
        <time>2020-05-23T19:24:48Z</time>
      </trkpt>
      <trkpt lat="39.948994" lon="3.173857">
        <ele>120.2</ele>
        <time>2020-05-23T19:24:49Z</time>
      </trkpt>
      <trkpt lat="39.949013" lon="3.173922">
        <ele>120.5</ele>
        <time>2020-05-23T19:24:50Z</time>
      </trkpt>
      <trkpt lat="39.949036" lon="3.173988">
        <ele>120.8</ele>
        <time>2020-05-23T19:24:51Z</time>
      </trkpt>
      <trkpt lat="39.949066" lon="3.174068">
        <ele>121.1</ele>
        <time>2020-05-23T19:24:52Z</time>
      </trkpt>
      <trkpt lat="39.949097" lon="3.174147">
        <ele>121.5</ele>
        <time>2020-05-23T19:24:54Z</time>
      </trkpt>
      <trkpt lat="39.949127" lon="3.174225">
        <ele>121.9</ele>
        <time>2020-05-23T19:24:55Z</time>
      </trkpt>
      <trkpt lat="39.94915" lon="3.17429">
        <ele>122.2</ele>
        <time>2020-05-23T19:24:56Z</time>
      </trkpt>
      <trkpt lat="39.949173" lon="3.174352">
        <ele>122.5</ele>
        <time>2020-05-23T19:24:57Z</time>
      </trkpt>
      <trkpt lat="39.9492" lon="3.174427">
        <ele>122.8</ele>
        <time>2020-05-23T19:24:58Z</time>
      </trkpt>
      <trkpt lat="39.949234" lon="3.174505">
        <ele>123.2</ele>
        <time>2020-05-23T19:24:59Z</time>
      </trkpt>
      <trkpt lat="39.949261" lon="3.174568">
        <ele>123.5</ele>
        <time>2020-05-23T19:25:00Z</time>
      </trkpt>
      <trkpt lat="39.949291" lon="3.174633">
        <ele>123.9</ele>
        <time>2020-05-23T19:25:01Z</time>
      </trkpt>
      <trkpt lat="39.949329" lon="3.174711">
        <ele>124.3</ele>
        <time>2020-05-23T19:25:02Z</time>
      </trkpt>
      <trkpt lat="39.949367" lon="3.174788">
        <ele>124.7</ele>
        <time>2020-05-23T19:25:04Z</time>
      </trkpt>
      <trkpt lat="39.949402" lon="3.174865">
        <ele>125.1</ele>
        <time>2020-05-23T19:25:05Z</time>
      </trkpt>
      <trkpt lat="39.94944" lon="3.174939">
        <ele>125.5</ele>
        <time>2020-05-23T19:25:06Z</time>
      </trkpt>
      <trkpt lat="39.949467" lon="3.175001">
        <ele>125.9</ele>
        <time>2020-05-23T19:25:07Z</time>
      </trkpt>
      <trkpt lat="39.949493" lon="3.175063">
        <ele>126.2</ele>
        <time>2020-05-23T19:25:08Z</time>
      </trkpt>
      <trkpt lat="39.949524" lon="3.175126">
        <ele>126.5</ele>
        <time>2020-05-23T19:25:09Z</time>
      </trkpt>
      <trkpt lat="39.949551" lon="3.175204">
        <ele>126.9</ele>
        <time>2020-05-23T19:25:10Z</time>
      </trkpt>
      <trkpt lat="39.949577" lon="3.175287">
        <ele>127.2</ele>
        <time>2020-05-23T19:25:11Z</time>
      </trkpt>
      <trkpt lat="39.949604" lon="3.17537">
        <ele>127.6</ele>
        <time>2020-05-23T19:25:13Z</time>
      </trkpt>
      <trkpt lat="39.949627" lon="3.175454">
        <ele>128</ele>
        <time>2020-05-23T19:25:14Z</time>
      </trkpt>
      <trkpt lat="39.949646" lon="3.175538">
        <ele>128.4</ele>
        <time>2020-05-23T19:25:15Z</time>
      </trkpt>
      <trkpt lat="39.949661" lon="3.17561">
        <ele>128.7</ele>
        <time>2020-05-23T19:25:16Z</time>
      </trkpt>
      <trkpt lat="39.949676" lon="3.175696">
        <ele>129.2</ele>
        <time>2020-05-23T19:25:17Z</time>
      </trkpt>
      <trkpt lat="39.949696" lon="3.175782">
        <ele>129.6</ele>
        <time>2020-05-23T19:25:18Z</time>
      </trkpt>
      <trkpt lat="39.949707" lon="3.175854">
        <ele>129.9</ele>
        <time>2020-05-23T19:25:19Z</time>
      </trkpt>
      <trkpt lat="39.949726" lon="3.17594">
        <ele>130.3</ele>
        <time>2020-05-23T19:25:21Z</time>
      </trkpt>
      <trkpt lat="39.949745" lon="3.176027">
        <ele>130.7</ele>
        <time>2020-05-23T19:25:22Z</time>
      </trkpt>
      <trkpt lat="39.949764" lon="3.176112">
        <ele>131</ele>
        <time>2020-05-23T19:25:23Z</time>
      </trkpt>
      <trkpt lat="39.949779" lon="3.176183">
        <ele>131.3</ele>
        <time>2020-05-23T19:25:24Z</time>
      </trkpt>
      <trkpt lat="39.949795" lon="3.176254">
        <ele>131.6</ele>
        <time>2020-05-23T19:25:25Z</time>
      </trkpt>
      <trkpt lat="39.94981" lon="3.176328">
        <ele>131.9</ele>
        <time>2020-05-23T19:25:26Z</time>
      </trkpt>
      <trkpt lat="39.949818" lon="3.176419">
        <ele>132.3</ele>
        <time>2020-05-23T19:25:27Z</time>
      </trkpt>
      <trkpt lat="39.949818" lon="3.176494">
        <ele>132.6</ele>
        <time>2020-05-23T19:25:28Z</time>
      </trkpt>
      <trkpt lat="39.949818" lon="3.176587">
        <ele>133.1</ele>
        <time>2020-05-23T19:25:29Z</time>
      </trkpt>
      <trkpt lat="39.949806" lon="3.17668">
        <ele>133.5</ele>
        <time>2020-05-23T19:25:31Z</time>
      </trkpt>
      <trkpt lat="39.949779" lon="3.176763">
        <ele>133.9</ele>
        <time>2020-05-23T19:25:32Z</time>
      </trkpt>
      <trkpt lat="39.949749" lon="3.176841">
        <ele>134.4</ele>
        <time>2020-05-23T19:25:33Z</time>
      </trkpt>
      <trkpt lat="39.949722" lon="3.176921">
        <ele>134.8</ele>
        <time>2020-05-23T19:25:34Z</time>
      </trkpt>
      <trkpt lat="39.949699" lon="3.176988">
        <ele>135.1</ele>
        <time>2020-05-23T19:25:35Z</time>
      </trkpt>
      <trkpt lat="39.949673" lon="3.177068">
        <ele>135.5</ele>
        <time>2020-05-23T19:25:36Z</time>
      </trkpt>
      <trkpt lat="39.949654" lon="3.177137">
        <ele>135.8</ele>
        <time>2020-05-23T19:25:37Z</time>
      </trkpt>
      <trkpt lat="39.949638" lon="3.177207">
        <ele>136.2</ele>
        <time>2020-05-23T19:25:38Z</time>
      </trkpt>
      <trkpt lat="39.949619" lon="3.177292">
        <ele>136.6</ele>
        <time>2020-05-23T19:25:40Z</time>
      </trkpt>
      <trkpt lat="39.949604" lon="3.177376">
        <ele>137</ele>
        <time>2020-05-23T19:25:41Z</time>
      </trkpt>
      <trkpt lat="39.949585" lon="3.177462">
        <ele>137.5</ele>
        <time>2020-05-23T19:25:42Z</time>
      </trkpt>
      <trkpt lat="39.949574" lon="3.177534">
        <ele>137.8</ele>
        <time>2020-05-23T19:25:43Z</time>
      </trkpt>
      <trkpt lat="39.949562" lon="3.177617">
        <ele>138.2</ele>
        <time>2020-05-23T19:25:44Z</time>
      </trkpt>
      <trkpt lat="39.949551" lon="3.177696">
        <ele>138.6</ele>
        <time>2020-05-23T19:25:45Z</time>
      </trkpt>
      <trkpt lat="39.949543" lon="3.177759">
        <ele>138.9</ele>
        <time>2020-05-23T19:25:46Z</time>
      </trkpt>
      <trkpt lat="39.949539" lon="3.177834">
        <ele>139.3</ele>
        <time>2020-05-23T19:25:48Z</time>
      </trkpt>
      <trkpt lat="39.949539" lon="3.177912">
        <ele>139.7</ele>
        <time>2020-05-23T19:25:49Z</time>
      </trkpt>
      <trkpt lat="39.949551" lon="3.177978">
        <ele>140.1</ele>
        <time>2020-05-23T19:25:50Z</time>
      </trkpt>
      <trkpt lat="39.949566" lon="3.178056">
        <ele>140.5</ele>
        <time>2020-05-23T19:25:51Z</time>
      </trkpt>
      <trkpt lat="39.949581" lon="3.178124">
        <ele>141</ele>
        <time>2020-05-23T19:25:52Z</time>
      </trkpt>
      <trkpt lat="39.949596" lon="3.178206">
        <ele>141.5</ele>
        <time>2020-05-23T19:25:53Z</time>
      </trkpt>
      <trkpt lat="39.949612" lon="3.178274">
        <ele>142</ele>
        <time>2020-05-23T19:25:54Z</time>
      </trkpt>
      <trkpt lat="39.949627" lon="3.178341">
        <ele>142.4</ele>
        <time>2020-05-23T19:25:55Z</time>
      </trkpt>
      <trkpt lat="39.949646" lon="3.178415">
        <ele>143.1</ele>
        <time>2020-05-23T19:25:56Z</time>
      </trkpt>
      <trkpt lat="39.949665" lon="3.178484">
        <ele>143.5</ele>
        <time>2020-05-23T19:25:58Z</time>
      </trkpt>
      <trkpt lat="39.94968" lon="3.178549">
        <ele>143.9</ele>
        <time>2020-05-23T19:25:59Z</time>
      </trkpt>
      <trkpt lat="39.949696" lon="3.1786">
        <ele>144.3</ele>
        <time>2020-05-23T19:26:00Z</time>
      </trkpt>
      <trkpt lat="39.949711" lon="3.178659">
        <ele>144.7</ele>
        <time>2020-05-23T19:26:01Z</time>
      </trkpt>
      <trkpt lat="39.949722" lon="3.178706">
        <ele>144.9</ele>
        <time>2020-05-23T19:26:02Z</time>
      </trkpt>
      <trkpt lat="39.949738" lon="3.178757">
        <ele>145.2</ele>
        <time>2020-05-23T19:26:03Z</time>
      </trkpt>
      <trkpt lat="39.949753" lon="3.178803">
        <ele>145.5</ele>
        <time>2020-05-23T19:26:04Z</time>
      </trkpt>
      <trkpt lat="39.949764" lon="3.178848">
        <ele>145.7</ele>
        <time>2020-05-23T19:26:06Z</time>
      </trkpt>
      <trkpt lat="39.949776" lon="3.17889">
        <ele>145.9</ele>
        <time>2020-05-23T19:26:07Z</time>
      </trkpt>
      <trkpt lat="39.949791" lon="3.178933">
        <ele>146.1</ele>
        <time>2020-05-23T19:26:08Z</time>
      </trkpt>
      <trkpt lat="39.949806" lon="3.178986">
        <ele>146.3</ele>
        <time>2020-05-23T19:26:09Z</time>
      </trkpt>
      <trkpt lat="39.949821" lon="3.179038">
        <ele>146.6</ele>
        <time>2020-05-23T19:26:10Z</time>
      </trkpt>
      <trkpt lat="39.949833" lon="3.179079">
        <ele>146.7</ele>
        <time>2020-05-23T19:26:11Z</time>
      </trkpt>
      <trkpt lat="39.949848" lon="3.179129">
        <ele>146.9</ele>
        <time>2020-05-23T19:26:12Z</time>
      </trkpt>
      <trkpt lat="39.949863" lon="3.179183">
        <ele>147.1</ele>
        <time>2020-05-23T19:26:14Z</time>
      </trkpt>
      <trkpt lat="39.949882" lon="3.179246">
        <ele>147.4</ele>
        <time>2020-05-23T19:26:15Z</time>
      </trkpt>
      <trkpt lat="39.949902" lon="3.179305">
        <ele>147.6</ele>
        <time>2020-05-23T19:26:16Z</time>
      </trkpt>
      <trkpt lat="39.949921" lon="3.179371">
        <ele>147.9</ele>
        <time>2020-05-23T19:26:17Z</time>
      </trkpt>
      <trkpt lat="39.949943" lon="3.179455">
        <ele>148.2</ele>
        <time>2020-05-23T19:26:18Z</time>
      </trkpt>
      <trkpt lat="39.949966" lon="3.179545">
        <ele>148.6</ele>
        <time>2020-05-23T19:26:19Z</time>
      </trkpt>
      <trkpt lat="39.949993" lon="3.179642">
        <ele>148.9</ele>
        <time>2020-05-23T19:26:20Z</time>
      </trkpt>
      <trkpt lat="39.95002" lon="3.179741">
        <ele>149.2</ele>
        <time>2020-05-23T19:26:22Z</time>
      </trkpt>
      <trkpt lat="39.950043" lon="3.179833">
        <ele>149.5</ele>
        <time>2020-05-23T19:26:23Z</time>
      </trkpt>
      <trkpt lat="39.950066" lon="3.179917">
        <ele>149.8</ele>
        <time>2020-05-23T19:26:24Z</time>
      </trkpt>
      <trkpt lat="39.950088" lon="3.179996">
        <ele>150</ele>
        <time>2020-05-23T19:26:25Z</time>
      </trkpt>
      <trkpt lat="39.950108" lon="3.180076">
        <ele>150.4</ele>
        <time>2020-05-23T19:26:26Z</time>
      </trkpt>
      <trkpt lat="39.950127" lon="3.180145">
        <ele>150.6</ele>
        <time>2020-05-23T19:26:27Z</time>
      </trkpt>
      <trkpt lat="39.95015" lon="3.180231">
        <ele>150.9</ele>
        <time>2020-05-23T19:26:29Z</time>
      </trkpt>
      <trkpt lat="39.95018" lon="3.180322">
        <ele>151.3</ele>
        <time>2020-05-23T19:26:30Z</time>
      </trkpt>
      <trkpt lat="39.950207" lon="3.180418">
        <ele>151.7</ele>
        <time>2020-05-23T19:26:31Z</time>
      </trkpt>
      <trkpt lat="39.950226" lon="3.180511">
        <ele>152.2</ele>
        <time>2020-05-23T19:26:32Z</time>
      </trkpt>
      <trkpt lat="39.950241" lon="3.180585">
        <ele>152.5</ele>
        <time>2020-05-23T19:26:33Z</time>
      </trkpt>
      <trkpt lat="39.950256" lon="3.180666">
        <ele>153</ele>
        <time>2020-05-23T19:26:34Z</time>
      </trkpt>
      <trkpt lat="39.950275" lon="3.180743">
        <ele>153.4</ele>
        <time>2020-05-23T19:26:36Z</time>
      </trkpt>
      <trkpt lat="39.950294" lon="3.18082">
        <ele>153.9</ele>
        <time>2020-05-23T19:26:37Z</time>
      </trkpt>
      <trkpt lat="39.950314" lon="3.180885">
        <ele>154.3</ele>
        <time>2020-05-23T19:26:38Z</time>
      </trkpt>
      <trkpt lat="39.950333" lon="3.180965">
        <ele>154.7</ele>
        <time>2020-05-23T19:26:39Z</time>
      </trkpt>
      <trkpt lat="39.950348" lon="3.181032">
        <ele>155.1</ele>
        <time>2020-05-23T19:26:40Z</time>
      </trkpt>
      <trkpt lat="39.950367" lon="3.181111">
        <ele>155.5</ele>
        <time>2020-05-23T19:26:41Z</time>
      </trkpt>
      <trkpt lat="39.950382" lon="3.181183">
        <ele>155.9</ele>
        <time>2020-05-23T19:26:42Z</time>
      </trkpt>
      <trkpt lat="39.950394" lon="3.181236">
        <ele>156.2</ele>
        <time>2020-05-23T19:26:43Z</time>
      </trkpt>
      <trkpt lat="39.950405" lon="3.181296">
        <ele>156.5</ele>
        <time>2020-05-23T19:26:45Z</time>
      </trkpt>
      <trkpt lat="39.950417" lon="3.181363">
        <ele>156.9</ele>
        <time>2020-05-23T19:26:46Z</time>
      </trkpt>
      <trkpt lat="39.950432" lon="3.181436">
        <ele>157.3</ele>
        <time>2020-05-23T19:26:47Z</time>
      </trkpt>
      <trkpt lat="39.950447" lon="3.181498">
        <ele>157.7</ele>
        <time>2020-05-23T19:26:48Z</time>
      </trkpt>
      <trkpt lat="39.950462" lon="3.181558">
        <ele>158.1</ele>
        <time>2020-05-23T19:26:49Z</time>
      </trkpt>
      <trkpt lat="39.950485" lon="3.18163">
        <ele>158.5</ele>
        <time>2020-05-23T19:26:50Z</time>
      </trkpt>
      <trkpt lat="39.9505" lon="3.18169">
        <ele>158.9</ele>
        <time>2020-05-23T19:26:51Z</time>
      </trkpt>
      <trkpt lat="39.950519" lon="3.18175">
        <ele>159.3</ele>
        <time>2020-05-23T19:26:52Z</time>
      </trkpt>
      <trkpt lat="39.950539" lon="3.181823">
        <ele>159.7</ele>
        <time>2020-05-23T19:26:53Z</time>
      </trkpt>
      <trkpt lat="39.950561" lon="3.181897">
        <ele>160.2</ele>
        <time>2020-05-23T19:26:55Z</time>
      </trkpt>
      <trkpt lat="39.950584" lon="3.181975">
        <ele>160.7</ele>
        <time>2020-05-23T19:26:56Z</time>
      </trkpt>
      <trkpt lat="39.950607" lon="3.182056">
        <ele>161.2</ele>
        <time>2020-05-23T19:26:57Z</time>
      </trkpt>
      <trkpt lat="39.95063" lon="3.182126">
        <ele>161.7</ele>
        <time>2020-05-23T19:26:58Z</time>
      </trkpt>
      <trkpt lat="39.950657" lon="3.182211">
        <ele>162.2</ele>
        <time>2020-05-23T19:26:59Z</time>
      </trkpt>
      <trkpt lat="39.950684" lon="3.182296">
        <ele>162.8</ele>
        <time>2020-05-23T19:27:00Z</time>
      </trkpt>
      <trkpt lat="39.95071" lon="3.18238">
        <ele>163.3</ele>
        <time>2020-05-23T19:27:02Z</time>
      </trkpt>
      <trkpt lat="39.950737" lon="3.182463">
        <ele>163.8</ele>
        <time>2020-05-23T19:27:03Z</time>
      </trkpt>
      <trkpt lat="39.950756" lon="3.182532">
        <ele>164.1</ele>
        <time>2020-05-23T19:27:04Z</time>
      </trkpt>
      <trkpt lat="39.950783" lon="3.182615">
        <ele>164.6</ele>
        <time>2020-05-23T19:27:05Z</time>
      </trkpt>
      <trkpt lat="39.950802" lon="3.182684">
        <ele>165</ele>
        <time>2020-05-23T19:27:06Z</time>
      </trkpt>
      <trkpt lat="39.950817" lon="3.182764">
        <ele>165.4</ele>
        <time>2020-05-23T19:27:07Z</time>
      </trkpt>
      <trkpt lat="39.950832" lon="3.182842">
        <ele>165.8</ele>
        <time>2020-05-23T19:27:08Z</time>
      </trkpt>
      <trkpt lat="39.950848" lon="3.182908">
        <ele>166.1</ele>
        <time>2020-05-23T19:27:09Z</time>
      </trkpt>
      <trkpt lat="39.950863" lon="3.182986">
        <ele>166.5</ele>
        <time>2020-05-23T19:27:11Z</time>
      </trkpt>
      <trkpt lat="39.950874" lon="3.183052">
        <ele>166.8</ele>
        <time>2020-05-23T19:27:12Z</time>
      </trkpt>
      <trkpt lat="39.95089" lon="3.18313">
        <ele>167.2</ele>
        <time>2020-05-23T19:27:13Z</time>
      </trkpt>
      <trkpt lat="39.950909" lon="3.183208">
        <ele>167.5</ele>
        <time>2020-05-23T19:27:14Z</time>
      </trkpt>
      <trkpt lat="39.950928" lon="3.183273">
        <ele>167.8</ele>
        <time>2020-05-23T19:27:15Z</time>
      </trkpt>
      <trkpt lat="39.950951" lon="3.18335">
        <ele>168.1</ele>
        <time>2020-05-23T19:27:16Z</time>
      </trkpt>
      <trkpt lat="39.95097" lon="3.183415">
        <ele>168.4</ele>
        <time>2020-05-23T19:27:17Z</time>
      </trkpt>
      <trkpt lat="39.951004" lon="3.183491">
        <ele>168.7</ele>
        <time>2020-05-23T19:27:18Z</time>
      </trkpt>
      <trkpt lat="39.951042" lon="3.183565">
        <ele>169</ele>
        <time>2020-05-23T19:27:20Z</time>
      </trkpt>
      <trkpt lat="39.951084" lon="3.18364">
        <ele>169.3</ele>
        <time>2020-05-23T19:27:21Z</time>
      </trkpt>
      <trkpt lat="39.951118" lon="3.183706">
        <ele>169.6</ele>
        <time>2020-05-23T19:27:22Z</time>
      </trkpt>
      <trkpt lat="39.95116" lon="3.183785">
        <ele>169.9</ele>
        <time>2020-05-23T19:27:23Z</time>
      </trkpt>
      <trkpt lat="39.951202" lon="3.183864">
        <ele>170.3</ele>
        <time>2020-05-23T19:27:24Z</time>
      </trkpt>
      <trkpt lat="39.951244" lon="3.183939">
        <ele>170.6</ele>
        <time>2020-05-23T19:27:25Z</time>
      </trkpt>
      <trkpt lat="39.95129" lon="3.184011">
        <ele>170.9</ele>
        <time>2020-05-23T19:27:27Z</time>
      </trkpt>
      <trkpt lat="39.951332" lon="3.184082">
        <ele>171.3</ele>
        <time>2020-05-23T19:27:28Z</time>
      </trkpt>
      <trkpt lat="39.95137" lon="3.18414">
        <ele>171.6</ele>
        <time>2020-05-23T19:27:29Z</time>
      </trkpt>
      <trkpt lat="39.951412" lon="3.184211">
        <ele>171.9</ele>
        <time>2020-05-23T19:27:30Z</time>
      </trkpt>
      <trkpt lat="39.951447" lon="3.18427">
        <ele>172.2</ele>
        <time>2020-05-23T19:27:31Z</time>
      </trkpt>
      <trkpt lat="39.951492" lon="3.184341">
        <ele>172.5</ele>
        <time>2020-05-23T19:27:32Z</time>
      </trkpt>
      <trkpt lat="39.951534" lon="3.184411">
        <ele>172.8</ele>
        <time>2020-05-23T19:27:33Z</time>
      </trkpt>
      <trkpt lat="39.951576" lon="3.184477">
        <ele>173.1</ele>
        <time>2020-05-23T19:27:35Z</time>
      </trkpt>
      <trkpt lat="39.951618" lon="3.184541">
        <ele>173.5</ele>
        <time>2020-05-23T19:27:36Z</time>
      </trkpt>
      <trkpt lat="39.951656" lon="3.184603">
        <ele>173.9</ele>
        <time>2020-05-23T19:27:37Z</time>
      </trkpt>
      <trkpt lat="39.951698" lon="3.184664">
        <ele>174.2</ele>
        <time>2020-05-23T19:27:38Z</time>
      </trkpt>
      <trkpt lat="39.951733" lon="3.184716">
        <ele>174.5</ele>
        <time>2020-05-23T19:27:39Z</time>
      </trkpt>
      <trkpt lat="39.951767" lon="3.184769">
        <ele>174.7</ele>
        <time>2020-05-23T19:27:40Z</time>
      </trkpt>
      <trkpt lat="39.951801" lon="3.184824">
        <ele>175</ele>
        <time>2020-05-23T19:27:41Z</time>
      </trkpt>
      <trkpt lat="39.951836" lon="3.184894">
        <ele>175.3</ele>
        <time>2020-05-23T19:27:42Z</time>
      </trkpt>
      <trkpt lat="39.951866" lon="3.184953">
        <ele>175.6</ele>
        <time>2020-05-23T19:27:43Z</time>
      </trkpt>
      <trkpt lat="39.951897" lon="3.185023">
        <ele>175.9</ele>
        <time>2020-05-23T19:27:45Z</time>
      </trkpt>
      <trkpt lat="39.951923" lon="3.185082">
        <ele>176.2</ele>
        <time>2020-05-23T19:27:46Z</time>
      </trkpt>
      <trkpt lat="39.951958" lon="3.185154">
        <ele>176.5</ele>
        <time>2020-05-23T19:27:47Z</time>
      </trkpt>
      <trkpt lat="39.951984" lon="3.18523">
        <ele>176.9</ele>
        <time>2020-05-23T19:27:48Z</time>
      </trkpt>
      <trkpt lat="39.952003" lon="3.185312">
        <ele>177.2</ele>
        <time>2020-05-23T19:27:49Z</time>
      </trkpt>
      <trkpt lat="39.952026" lon="3.185399">
        <ele>177.6</ele>
        <time>2020-05-23T19:27:50Z</time>
      </trkpt>
      <trkpt lat="39.952045" lon="3.185488">
        <ele>177.9</ele>
        <time>2020-05-23T19:27:52Z</time>
      </trkpt>
      <trkpt lat="39.952068" lon="3.185575">
        <ele>178.3</ele>
        <time>2020-05-23T19:27:53Z</time>
      </trkpt>
      <trkpt lat="39.952091" lon="3.185658">
        <ele>178.7</ele>
        <time>2020-05-23T19:27:54Z</time>
      </trkpt>
      <trkpt lat="39.952126" lon="3.185735">
        <ele>179</ele>
        <time>2020-05-23T19:27:55Z</time>
      </trkpt>
      <trkpt lat="39.95216" lon="3.185809">
        <ele>179.4</ele>
        <time>2020-05-23T19:27:56Z</time>
      </trkpt>
      <trkpt lat="39.952187" lon="3.185867">
        <ele>179.7</ele>
        <time>2020-05-23T19:27:57Z</time>
      </trkpt>
      <trkpt lat="39.952228" lon="3.185933">
        <ele>180.1</ele>
        <time>2020-05-23T19:27:59Z</time>
      </trkpt>
      <trkpt lat="39.952274" lon="3.18599">
        <ele>180.4</ele>
        <time>2020-05-23T19:28:00Z</time>
      </trkpt>
      <trkpt lat="39.952324" lon="3.186043">
        <ele>180.8</ele>
        <time>2020-05-23T19:28:01Z</time>
      </trkpt>
      <trkpt lat="39.952366" lon="3.186087">
        <ele>181</ele>
        <time>2020-05-23T19:28:02Z</time>
      </trkpt>
      <trkpt lat="39.952412" lon="3.186132">
        <ele>181.3</ele>
        <time>2020-05-23T19:28:03Z</time>
      </trkpt>
      <trkpt lat="39.952461" lon="3.186184">
        <ele>181.7</ele>
        <time>2020-05-23T19:28:04Z</time>
      </trkpt>
      <trkpt lat="39.952507" lon="3.186227">
        <ele>182</ele>
        <time>2020-05-23T19:28:05Z</time>
      </trkpt>
      <trkpt lat="39.952553" lon="3.186273">
        <ele>182.4</ele>
        <time>2020-05-23T19:28:06Z</time>
      </trkpt>
      <trkpt lat="39.952602" lon="3.186319">
        <ele>182.7</ele>
        <time>2020-05-23T19:28:07Z</time>
      </trkpt>
      <trkpt lat="39.952648" lon="3.186366">
        <ele>183</ele>
        <time>2020-05-23T19:28:08Z</time>
      </trkpt>
      <trkpt lat="39.952705" lon="3.186421">
        <ele>183.3</ele>
        <time>2020-05-23T19:28:09Z</time>
      </trkpt>
      <trkpt lat="39.952755" lon="3.186468">
        <ele>183.5</ele>
        <time>2020-05-23T19:28:10Z</time>
      </trkpt>
      <trkpt lat="39.952801" lon="3.18652">
        <ele>183.7</ele>
        <time>2020-05-23T19:28:11Z</time>
      </trkpt>
      <trkpt lat="39.95285" lon="3.186587">
        <ele>183.9</ele>
        <time>2020-05-23T19:28:13Z</time>
      </trkpt>
      <trkpt lat="39.952888" lon="3.186649">
        <ele>183.9</ele>
        <time>2020-05-23T19:28:14Z</time>
      </trkpt>
      <trkpt lat="39.952904" lon="3.186738">
        <ele>183.9</ele>
        <time>2020-05-23T19:28:15Z</time>
      </trkpt>
      <trkpt lat="39.9529" lon="3.186816">
        <ele>183.9</ele>
        <time>2020-05-23T19:28:16Z</time>
      </trkpt>
      <trkpt lat="39.952896" lon="3.186894">
        <ele>183.8</ele>
        <time>2020-05-23T19:28:17Z</time>
      </trkpt>
      <trkpt lat="39.952896" lon="3.186975">
        <ele>183.8</ele>
        <time>2020-05-23T19:28:18Z</time>
      </trkpt>
      <trkpt lat="39.952904" lon="3.187058">
        <ele>183.8</ele>
        <time>2020-05-23T19:28:19Z</time>
      </trkpt>
      <trkpt lat="39.952911" lon="3.187158">
        <ele>183.7</ele>
        <time>2020-05-23T19:28:20Z</time>
      </trkpt>
      <trkpt lat="39.95293" lon="3.187263">
        <ele>183.7</ele>
        <time>2020-05-23T19:28:21Z</time>
      </trkpt>
      <trkpt lat="39.952953" lon="3.187355">
        <ele>183.6</ele>
        <time>2020-05-23T19:28:22Z</time>
      </trkpt>
      <trkpt lat="39.952984" lon="3.187469">
        <ele>183.5</ele>
        <time>2020-05-23T19:28:23Z</time>
      </trkpt>
      <trkpt lat="39.953014" lon="3.187563">
        <ele>183.4</ele>
        <time>2020-05-23T19:28:24Z</time>
      </trkpt>
      <trkpt lat="39.95306" lon="3.187669">
        <ele>183.4</ele>
        <time>2020-05-23T19:28:26Z</time>
      </trkpt>
      <trkpt lat="39.953102" lon="3.187758">
        <ele>183.4</ele>
        <time>2020-05-23T19:28:27Z</time>
      </trkpt>
      <trkpt lat="39.953156" lon="3.187872">
        <ele>183.3</ele>
        <time>2020-05-23T19:28:28Z</time>
      </trkpt>
      <trkpt lat="39.953201" lon="3.187975">
        <ele>183.2</ele>
        <time>2020-05-23T19:28:29Z</time>
      </trkpt>
      <trkpt lat="39.953228" lon="3.188115">
        <ele>183.1</ele>
        <time>2020-05-23T19:28:30Z</time>
      </trkpt>
      <trkpt lat="39.953232" lon="3.188238">
        <ele>182.9</ele>
        <time>2020-05-23T19:28:31Z</time>
      </trkpt>
      <trkpt lat="39.953201" lon="3.18838">
        <ele>182.6</ele>
        <time>2020-05-23T19:28:32Z</time>
      </trkpt>
      <trkpt lat="39.953178" lon="3.1885">
        <ele>182.3</ele>
        <time>2020-05-23T19:28:33Z</time>
      </trkpt>
      <trkpt lat="39.953159" lon="3.188646">
        <ele>182</ele>
        <time>2020-05-23T19:28:34Z</time>
      </trkpt>
      <trkpt lat="39.953156" lon="3.188769">
        <ele>181.7</ele>
        <time>2020-05-23T19:28:35Z</time>
      </trkpt>
      <trkpt lat="39.953167" lon="3.188916">
        <ele>181.2</ele>
        <time>2020-05-23T19:28:37Z</time>
      </trkpt>
      <trkpt lat="39.953197" lon="3.189036">
        <ele>180.7</ele>
        <time>2020-05-23T19:28:38Z</time>
      </trkpt>
      <trkpt lat="39.953285" lon="3.189123">
        <ele>179.9</ele>
        <time>2020-05-23T19:28:39Z</time>
      </trkpt>
      <trkpt lat="39.953388" lon="3.189186">
        <ele>179.1</ele>
        <time>2020-05-23T19:28:40Z</time>
      </trkpt>
      <trkpt lat="39.953499" lon="3.189231">
        <ele>178.2</ele>
        <time>2020-05-23T19:28:41Z</time>
      </trkpt>
      <trkpt lat="39.95359" lon="3.189239">
        <ele>177.6</ele>
        <time>2020-05-23T19:28:42Z</time>
      </trkpt>
      <trkpt lat="39.953709" lon="3.189256">
        <ele>176.9</ele>
        <time>2020-05-23T19:28:43Z</time>
      </trkpt>
      <trkpt lat="39.953808" lon="3.18928">
        <ele>176.4</ele>
        <time>2020-05-23T19:28:44Z</time>
      </trkpt>
      <trkpt lat="39.953907" lon="3.189317">
        <ele>176.1</ele>
        <time>2020-05-23T19:28:45Z</time>
      </trkpt>
      <trkpt lat="39.954033" lon="3.189366">
        <ele>175.7</ele>
        <time>2020-05-23T19:28:47Z</time>
      </trkpt>
      <trkpt lat="39.954121" lon="3.189431">
        <ele>175.4</ele>
        <time>2020-05-23T19:28:48Z</time>
      </trkpt>
      <trkpt lat="39.954178" lon="3.18956">
        <ele>175.2</ele>
        <time>2020-05-23T19:28:49Z</time>
      </trkpt>
      <trkpt lat="39.954212" lon="3.189686">
        <ele>175.2</ele>
        <time>2020-05-23T19:28:50Z</time>
      </trkpt>
      <trkpt lat="39.954166" lon="3.189804">
        <ele>175.2</ele>
        <time>2020-05-23T19:28:51Z</time>
      </trkpt>
      <trkpt lat="39.95409" lon="3.189912">
        <ele>175.3</ele>
        <time>2020-05-23T19:28:52Z</time>
      </trkpt>
      <trkpt lat="39.954006" lon="3.19001">
        <ele>175.5</ele>
        <time>2020-05-23T19:28:54Z</time>
      </trkpt>
      <trkpt lat="39.953915" lon="3.190083">
        <ele>175.8</ele>
        <time>2020-05-23T19:28:55Z</time>
      </trkpt>
      <trkpt lat="39.953831" lon="3.190156">
        <ele>176.2</ele>
        <time>2020-05-23T19:28:56Z</time>
      </trkpt>
      <trkpt lat="39.953762" lon="3.190215">
        <ele>176.5</ele>
        <time>2020-05-23T19:28:57Z</time>
      </trkpt>
      <trkpt lat="39.953701" lon="3.190273">
        <ele>176.9</ele>
        <time>2020-05-23T19:28:58Z</time>
      </trkpt>
      <trkpt lat="39.953629" lon="3.190339">
        <ele>177.3</ele>
        <time>2020-05-23T19:28:59Z</time>
      </trkpt>
      <trkpt lat="39.953575" lon="3.190392">
        <ele>177.7</ele>
        <time>2020-05-23T19:29:00Z</time>
      </trkpt>
      <trkpt lat="39.953518" lon="3.190457">
        <ele>178</ele>
        <time>2020-05-23T19:29:01Z</time>
      </trkpt>
      <trkpt lat="39.953468" lon="3.190518">
        <ele>178.3</ele>
        <time>2020-05-23T19:29:02Z</time>
      </trkpt>
      <trkpt lat="39.953422" lon="3.190595">
        <ele>178.7</ele>
        <time>2020-05-23T19:29:04Z</time>
      </trkpt>
      <trkpt lat="39.953384" lon="3.190653">
        <ele>179</ele>
        <time>2020-05-23T19:29:05Z</time>
      </trkpt>
      <trkpt lat="39.95335" lon="3.190707">
        <ele>179.3</ele>
        <time>2020-05-23T19:29:06Z</time>
      </trkpt>
      <trkpt lat="39.953319" lon="3.190761">
        <ele>179.5</ele>
        <time>2020-05-23T19:29:07Z</time>
      </trkpt>
      <trkpt lat="39.953278" lon="3.190827">
        <ele>179.9</ele>
        <time>2020-05-23T19:29:08Z</time>
      </trkpt>
      <trkpt lat="39.953239" lon="3.190899">
        <ele>180.3</ele>
        <time>2020-05-23T19:29:09Z</time>
      </trkpt>
      <trkpt lat="39.953197" lon="3.190975">
        <ele>180.7</ele>
        <time>2020-05-23T19:29:10Z</time>
      </trkpt>
      <trkpt lat="39.953156" lon="3.191051">
        <ele>181.1</ele>
        <time>2020-05-23T19:29:11Z</time>
      </trkpt>
      <trkpt lat="39.953121" lon="3.191117">
        <ele>181.4</ele>
        <time>2020-05-23T19:29:12Z</time>
      </trkpt>
      <trkpt lat="39.953091" lon="3.191184">
        <ele>181.7</ele>
        <time>2020-05-23T19:29:13Z</time>
      </trkpt>
      <trkpt lat="39.953049" lon="3.191267">
        <ele>182.1</ele>
        <time>2020-05-23T19:29:15Z</time>
      </trkpt>
      <trkpt lat="39.953011" lon="3.191348">
        <ele>182.5</ele>
        <time>2020-05-23T19:29:16Z</time>
      </trkpt>
      <trkpt lat="39.952976" lon="3.191415">
        <ele>182.9</ele>
        <time>2020-05-23T19:29:17Z</time>
      </trkpt>
      <trkpt lat="39.952934" lon="3.191494">
        <ele>183.2</ele>
        <time>2020-05-23T19:29:18Z</time>
      </trkpt>
      <trkpt lat="39.952896" lon="3.191575">
        <ele>183.6</ele>
        <time>2020-05-23T19:29:19Z</time>
      </trkpt>
      <trkpt lat="39.952869" lon="3.191646">
        <ele>183.9</ele>
        <time>2020-05-23T19:29:20Z</time>
      </trkpt>
      <trkpt lat="39.952839" lon="3.191732">
        <ele>184.8</ele>
        <time>2020-05-23T19:29:21Z</time>
      </trkpt>
      <trkpt lat="39.95282" lon="3.191805">
        <ele>185</ele>
        <time>2020-05-23T19:29:22Z</time>
      </trkpt>
      <trkpt lat="39.952804" lon="3.191881">
        <ele>185.3</ele>
        <time>2020-05-23T19:29:23Z</time>
      </trkpt>
      <trkpt lat="39.952812" lon="3.19197">
        <ele>185.6</ele>
        <time>2020-05-23T19:29:25Z</time>
      </trkpt>
      <trkpt lat="39.952827" lon="3.19204">
        <ele>185.8</ele>
        <time>2020-05-23T19:29:26Z</time>
      </trkpt>
      <trkpt lat="39.952846" lon="3.192122">
        <ele>186.1</ele>
        <time>2020-05-23T19:29:27Z</time>
      </trkpt>
      <trkpt lat="39.952862" lon="3.192204">
        <ele>186.3</ele>
        <time>2020-05-23T19:29:28Z</time>
      </trkpt>
      <trkpt lat="39.952881" lon="3.192273">
        <ele>186.6</ele>
        <time>2020-05-23T19:29:29Z</time>
      </trkpt>
      <trkpt lat="39.9529" lon="3.192361">
        <ele>186.8</ele>
        <time>2020-05-23T19:29:30Z</time>
      </trkpt>
      <trkpt lat="39.952896" lon="3.192439">
        <ele>187.1</ele>
        <time>2020-05-23T19:29:31Z</time>
      </trkpt>
      <trkpt lat="39.952877" lon="3.192528">
        <ele>187.4</ele>
        <time>2020-05-23T19:29:32Z</time>
      </trkpt>
      <trkpt lat="39.952835" lon="3.192607">
        <ele>187.7</ele>
        <time>2020-05-23T19:29:34Z</time>
      </trkpt>
      <trkpt lat="39.952774" lon="3.192652">
        <ele>188</ele>
        <time>2020-05-23T19:29:35Z</time>
      </trkpt>
      <trkpt lat="39.952705" lon="3.192688">
        <ele>188.3</ele>
        <time>2020-05-23T19:29:36Z</time>
      </trkpt>
      <trkpt lat="39.952652" lon="3.192721">
        <ele>188.5</ele>
        <time>2020-05-23T19:29:37Z</time>
      </trkpt>
      <trkpt lat="39.952583" lon="3.192753">
        <ele>188.8</ele>
        <time>2020-05-23T19:29:38Z</time>
      </trkpt>
      <trkpt lat="39.952511" lon="3.19277">
        <ele>189.2</ele>
        <time>2020-05-23T19:29:39Z</time>
      </trkpt>
      <trkpt lat="39.952454" lon="3.19278">
        <ele>189.5</ele>
        <time>2020-05-23T19:29:40Z</time>
      </trkpt>
      <trkpt lat="39.952396" lon="3.192793">
        <ele>189.9</ele>
        <time>2020-05-23T19:29:41Z</time>
      </trkpt>
      <trkpt lat="39.952324" lon="3.19281">
        <ele>190.3</ele>
        <time>2020-05-23T19:29:43Z</time>
      </trkpt>
      <trkpt lat="39.952267" lon="3.192823">
        <ele>190.7</ele>
        <time>2020-05-23T19:29:44Z</time>
      </trkpt>
      <trkpt lat="39.952194" lon="3.192837">
        <ele>191.2</ele>
        <time>2020-05-23T19:29:45Z</time>
      </trkpt>
      <trkpt lat="39.952137" lon="3.192851">
        <ele>191.5</ele>
        <time>2020-05-23T19:29:46Z</time>
      </trkpt>
      <trkpt lat="39.95208" lon="3.192866">
        <ele>191.9</ele>
        <time>2020-05-23T19:29:47Z</time>
      </trkpt>
      <trkpt lat="39.952026" lon="3.192884">
        <ele>192.3</ele>
        <time>2020-05-23T19:29:48Z</time>
      </trkpt>
      <trkpt lat="39.951962" lon="3.192917">
        <ele>192.7</ele>
        <time>2020-05-23T19:29:49Z</time>
      </trkpt>
      <trkpt lat="39.951916" lon="3.192959">
        <ele>193.1</ele>
        <time>2020-05-23T19:29:50Z</time>
      </trkpt>
      <trkpt lat="39.95187" lon="3.193012">
        <ele>193.5</ele>
        <time>2020-05-23T19:29:51Z</time>
      </trkpt>
      <trkpt lat="39.95182" lon="3.19308">
        <ele>193.9</ele>
        <time>2020-05-23T19:29:52Z</time>
      </trkpt>
      <trkpt lat="39.951778" lon="3.193133">
        <ele>194.2</ele>
        <time>2020-05-23T19:29:53Z</time>
      </trkpt>
      <trkpt lat="39.951736" lon="3.193185">
        <ele>194.6</ele>
        <time>2020-05-23T19:29:54Z</time>
      </trkpt>
      <trkpt lat="39.951694" lon="3.193238">
        <ele>194.9</ele>
        <time>2020-05-23T19:29:55Z</time>
      </trkpt>
      <trkpt lat="39.951656" lon="3.193304">
        <ele>195.4</ele>
        <time>2020-05-23T19:29:56Z</time>
      </trkpt>
      <trkpt lat="39.951618" lon="3.193364">
        <ele>195.9</ele>
        <time>2020-05-23T19:29:58Z</time>
      </trkpt>
      <trkpt lat="39.951591" lon="3.193409">
        <ele>196.2</ele>
        <time>2020-05-23T19:29:59Z</time>
      </trkpt>
      <trkpt lat="39.951561" lon="3.193452">
        <ele>196.5</ele>
        <time>2020-05-23T19:30:00Z</time>
      </trkpt>
      <trkpt lat="39.951523" lon="3.193504">
        <ele>196.9</ele>
        <time>2020-05-23T19:30:01Z</time>
      </trkpt>
      <trkpt lat="39.951488" lon="3.193548">
        <ele>197.2</ele>
        <time>2020-05-23T19:30:02Z</time>
      </trkpt>
      <trkpt lat="39.951447" lon="3.193591">
        <ele>197.6</ele>
        <time>2020-05-23T19:30:03Z</time>
      </trkpt>
      <trkpt lat="39.951397" lon="3.193644">
        <ele>198</ele>
        <time>2020-05-23T19:30:04Z</time>
      </trkpt>
      <trkpt lat="39.951344" lon="3.1937">
        <ele>198.5</ele>
        <time>2020-05-23T19:30:05Z</time>
      </trkpt>
      <trkpt lat="39.951294" lon="3.19376">
        <ele>198.9</ele>
        <time>2020-05-23T19:30:06Z</time>
      </trkpt>
      <trkpt lat="39.951256" lon="3.193829">
        <ele>199.3</ele>
        <time>2020-05-23T19:30:08Z</time>
      </trkpt>
      <trkpt lat="39.951241" lon="3.193901">
        <ele>199.6</ele>
        <time>2020-05-23T19:30:09Z</time>
      </trkpt>
      <trkpt lat="39.951248" lon="3.193978">
        <ele>199.9</ele>
        <time>2020-05-23T19:30:10Z</time>
      </trkpt>
      <trkpt lat="39.951275" lon="3.194073">
        <ele>200.3</ele>
        <time>2020-05-23T19:30:11Z</time>
      </trkpt>
      <trkpt lat="39.951305" lon="3.194166">
        <ele>200.6</ele>
        <time>2020-05-23T19:30:12Z</time>
      </trkpt>
      <trkpt lat="39.951351" lon="3.194251">
        <ele>200.9</ele>
        <time>2020-05-23T19:30:13Z</time>
      </trkpt>
      <trkpt lat="39.951401" lon="3.194334">
        <ele>201.2</ele>
        <time>2020-05-23T19:30:14Z</time>
      </trkpt>
      <trkpt lat="39.951447" lon="3.194422">
        <ele>201.5</ele>
        <time>2020-05-23T19:30:16Z</time>
      </trkpt>
      <trkpt lat="39.951481" lon="3.194499">
        <ele>201.7</ele>
        <time>2020-05-23T19:30:17Z</time>
      </trkpt>
      <trkpt lat="39.951508" lon="3.194597">
        <ele>202</ele>
        <time>2020-05-23T19:30:18Z</time>
      </trkpt>
      <trkpt lat="39.951511" lon="3.194702">
        <ele>202.2</ele>
        <time>2020-05-23T19:30:19Z</time>
      </trkpt>
      <trkpt lat="39.951508" lon="3.19479">
        <ele>202.5</ele>
        <time>2020-05-23T19:30:20Z</time>
      </trkpt>
      <trkpt lat="39.951481" lon="3.194889">
        <ele>202.7</ele>
        <time>2020-05-23T19:30:21Z</time>
      </trkpt>
      <trkpt lat="39.951424" lon="3.194927">
        <ele>203</ele>
        <time>2020-05-23T19:30:22Z</time>
      </trkpt>
      <trkpt lat="39.951351" lon="3.194961">
        <ele>203.3</ele>
        <time>2020-05-23T19:30:23Z</time>
      </trkpt>
      <trkpt lat="39.951282" lon="3.194997">
        <ele>203.6</ele>
        <time>2020-05-23T19:30:25Z</time>
      </trkpt>
      <trkpt lat="39.951214" lon="3.195034">
        <ele>204</ele>
        <time>2020-05-23T19:30:26Z</time>
      </trkpt>
      <trkpt lat="39.95116" lon="3.19507">
        <ele>204.3</ele>
        <time>2020-05-23T19:30:27Z</time>
      </trkpt>
      <trkpt lat="39.951099" lon="3.195118">
        <ele>204.6</ele>
        <time>2020-05-23T19:30:28Z</time>
      </trkpt>
      <trkpt lat="39.951042" lon="3.195169">
        <ele>205</ele>
        <time>2020-05-23T19:30:29Z</time>
      </trkpt>
      <trkpt lat="39.950996" lon="3.195214">
        <ele>205.2</ele>
        <time>2020-05-23T19:30:30Z</time>
      </trkpt>
      <trkpt lat="39.950954" lon="3.195264">
        <ele>205.5</ele>
        <time>2020-05-23T19:30:31Z</time>
      </trkpt>
      <trkpt lat="39.95092" lon="3.19534">
        <ele>205.9</ele>
        <time>2020-05-23T19:30:32Z</time>
      </trkpt>
      <trkpt lat="39.950901" lon="3.19541">
        <ele>206.2</ele>
        <time>2020-05-23T19:30:33Z</time>
      </trkpt>
      <trkpt lat="39.950882" lon="3.195493">
        <ele>206.6</ele>
        <time>2020-05-23T19:30:35Z</time>
      </trkpt>
      <trkpt lat="39.950863" lon="3.19556">
        <ele>206.9</ele>
        <time>2020-05-23T19:30:36Z</time>
      </trkpt>
      <trkpt lat="39.950851" lon="3.195626">
        <ele>207.2</ele>
        <time>2020-05-23T19:30:37Z</time>
      </trkpt>
      <trkpt lat="39.950855" lon="3.195705">
        <ele>207.6</ele>
        <time>2020-05-23T19:30:38Z</time>
      </trkpt>
      <trkpt lat="39.950867" lon="3.195766">
        <ele>207.9</ele>
        <time>2020-05-23T19:30:39Z</time>
      </trkpt>
      <trkpt lat="39.950882" lon="3.195835">
        <ele>208.2</ele>
        <time>2020-05-23T19:30:40Z</time>
      </trkpt>
      <trkpt lat="39.950893" lon="3.195904">
        <ele>208.6</ele>
        <time>2020-05-23T19:30:41Z</time>
      </trkpt>
      <trkpt lat="39.950905" lon="3.195963">
        <ele>208.9</ele>
        <time>2020-05-23T19:30:42Z</time>
      </trkpt>
      <trkpt lat="39.950912" lon="3.196036">
        <ele>209.2</ele>
        <time>2020-05-23T19:30:43Z</time>
      </trkpt>
      <trkpt lat="39.950924" lon="3.196114">
        <ele>209.5</ele>
        <time>2020-05-23T19:30:45Z</time>
      </trkpt>
      <trkpt lat="39.950932" lon="3.196197">
        <ele>209.9</ele>
        <time>2020-05-23T19:30:46Z</time>
      </trkpt>
      <trkpt lat="39.950939" lon="3.196268">
        <ele>210.2</ele>
        <time>2020-05-23T19:30:47Z</time>
      </trkpt>
      <trkpt lat="39.950951" lon="3.196354">
        <ele>210.6</ele>
        <time>2020-05-23T19:30:48Z</time>
      </trkpt>
      <trkpt lat="39.950962" lon="3.196437">
        <ele>210.9</ele>
        <time>2020-05-23T19:30:49Z</time>
      </trkpt>
      <trkpt lat="39.950977" lon="3.196516">
        <ele>211.2</ele>
        <time>2020-05-23T19:30:50Z</time>
      </trkpt>
      <trkpt lat="39.950996" lon="3.196594">
        <ele>211.6</ele>
        <time>2020-05-23T19:30:52Z</time>
      </trkpt>
      <trkpt lat="39.951015" lon="3.196659">
        <ele>211.9</ele>
        <time>2020-05-23T19:30:53Z</time>
      </trkpt>
      <trkpt lat="39.951034" lon="3.196725">
        <ele>212.2</ele>
        <time>2020-05-23T19:30:54Z</time>
      </trkpt>
      <trkpt lat="39.951057" lon="3.196805">
        <ele>212.6</ele>
        <time>2020-05-23T19:30:55Z</time>
      </trkpt>
      <trkpt lat="39.95108" lon="3.196886">
        <ele>213</ele>
        <time>2020-05-23T19:30:56Z</time>
      </trkpt>
      <trkpt lat="39.951111" lon="3.196967">
        <ele>213.4</ele>
        <time>2020-05-23T19:30:57Z</time>
      </trkpt>
      <trkpt lat="39.951149" lon="3.197049">
        <ele>213.8</ele>
        <time>2020-05-23T19:30:58Z</time>
      </trkpt>
      <trkpt lat="39.951187" lon="3.197134">
        <ele>214.3</ele>
        <time>2020-05-23T19:31:00Z</time>
      </trkpt>
      <trkpt lat="39.951218" lon="3.197204">
        <ele>214.7</ele>
        <time>2020-05-23T19:31:01Z</time>
      </trkpt>
      <trkpt lat="39.951256" lon="3.197285">
        <ele>215.1</ele>
        <time>2020-05-23T19:31:02Z</time>
      </trkpt>
      <trkpt lat="39.951294" lon="3.197359">
        <ele>215.5</ele>
        <time>2020-05-23T19:31:03Z</time>
      </trkpt>
      <trkpt lat="39.951324" lon="3.197418">
        <ele>215.9</ele>
        <time>2020-05-23T19:31:04Z</time>
      </trkpt>
      <trkpt lat="39.951359" lon="3.197488">
        <ele>216.3</ele>
        <time>2020-05-23T19:31:05Z</time>
      </trkpt>
      <trkpt lat="39.951389" lon="3.197557">
        <ele>216.7</ele>
        <time>2020-05-23T19:31:06Z</time>
      </trkpt>
      <trkpt lat="39.951424" lon="3.197635">
        <ele>217.2</ele>
        <time>2020-05-23T19:31:08Z</time>
      </trkpt>
      <trkpt lat="39.951454" lon="3.197702">
        <ele>217.7</ele>
        <time>2020-05-23T19:31:09Z</time>
      </trkpt>
      <trkpt lat="39.951477" lon="3.197769">
        <ele>218.2</ele>
        <time>2020-05-23T19:31:10Z</time>
      </trkpt>
      <trkpt lat="39.951504" lon="3.197849">
        <ele>218.8</ele>
        <time>2020-05-23T19:31:11Z</time>
      </trkpt>
      <trkpt lat="39.95153" lon="3.197921">
        <ele>219.3</ele>
        <time>2020-05-23T19:31:12Z</time>
      </trkpt>
      <trkpt lat="39.951549" lon="3.197991">
        <ele>219.8</ele>
        <time>2020-05-23T19:31:13Z</time>
      </trkpt>
      <trkpt lat="39.951565" lon="3.198072">
        <ele>220.2</ele>
        <time>2020-05-23T19:31:14Z</time>
      </trkpt>
      <trkpt lat="39.951576" lon="3.198137">
        <ele>220.5</ele>
        <time>2020-05-23T19:31:15Z</time>
      </trkpt>
      <trkpt lat="39.951599" lon="3.198209">
        <ele>220.7</ele>
        <time>2020-05-23T19:31:16Z</time>
      </trkpt>
      <trkpt lat="39.951622" lon="3.198277">
        <ele>220.6</ele>
        <time>2020-05-23T19:31:17Z</time>
      </trkpt>
      <trkpt lat="39.951645" lon="3.198332">
        <ele>220.5</ele>
        <time>2020-05-23T19:31:18Z</time>
      </trkpt>
      <trkpt lat="39.951683" lon="3.198393">
        <ele>220.4</ele>
        <time>2020-05-23T19:31:20Z</time>
      </trkpt>
      <trkpt lat="39.951725" lon="3.198429">
        <ele>220.3</ele>
        <time>2020-05-23T19:31:21Z</time>
      </trkpt>
      <trkpt lat="39.95179" lon="3.198454">
        <ele>220.2</ele>
        <time>2020-05-23T19:31:22Z</time>
      </trkpt>
      <trkpt lat="39.951859" lon="3.19848">
        <ele>220</ele>
        <time>2020-05-23T19:31:23Z</time>
      </trkpt>
      <trkpt lat="39.951939" lon="3.198506">
        <ele>219.9</ele>
        <time>2020-05-23T19:31:24Z</time>
      </trkpt>
      <trkpt lat="39.952023" lon="3.19852">
        <ele>219.8</ele>
        <time>2020-05-23T19:31:25Z</time>
      </trkpt>
      <trkpt lat="39.952099" lon="3.198523">
        <ele>219.7</ele>
        <time>2020-05-23T19:31:26Z</time>
      </trkpt>
      <trkpt lat="39.952202" lon="3.198528">
        <ele>219.6</ele>
        <time>2020-05-23T19:31:28Z</time>
      </trkpt>
      <trkpt lat="39.952309" lon="3.198535">
        <ele>219.4</ele>
        <time>2020-05-23T19:31:29Z</time>
      </trkpt>
      <trkpt lat="39.952419" lon="3.198541">
        <ele>219.3</ele>
        <time>2020-05-23T19:31:30Z</time>
      </trkpt>
      <trkpt lat="39.952534" lon="3.19855">
        <ele>219.2</ele>
        <time>2020-05-23T19:31:31Z</time>
      </trkpt>
      <trkpt lat="39.952652" lon="3.198565">
        <ele>219.1</ele>
        <time>2020-05-23T19:31:32Z</time>
      </trkpt>
      <trkpt lat="39.95277" lon="3.19859">
        <ele>219.2</ele>
        <time>2020-05-23T19:31:34Z</time>
      </trkpt>
      <trkpt lat="39.952866" lon="3.198615">
        <ele>219.4</ele>
        <time>2020-05-23T19:31:35Z</time>
      </trkpt>
      <trkpt lat="39.952972" lon="3.198664">
        <ele>219.6</ele>
        <time>2020-05-23T19:31:36Z</time>
      </trkpt>
      <trkpt lat="39.953064" lon="3.198742">
        <ele>219.8</ele>
        <time>2020-05-23T19:31:37Z</time>
      </trkpt>
      <trkpt lat="39.953148" lon="3.198825">
        <ele>219.9</ele>
        <time>2020-05-23T19:31:38Z</time>
      </trkpt>
      <trkpt lat="39.953178" lon="3.198929">
        <ele>220.1</ele>
        <time>2020-05-23T19:31:39Z</time>
      </trkpt>
      <trkpt lat="39.953171" lon="3.199072">
        <ele>220.1</ele>
        <time>2020-05-23T19:31:40Z</time>
      </trkpt>
      <trkpt lat="39.953152" lon="3.199197">
        <ele>220.2</ele>
        <time>2020-05-23T19:31:41Z</time>
      </trkpt>
      <trkpt lat="39.953091" lon="3.199323">
        <ele>220.1</ele>
        <time>2020-05-23T19:31:43Z</time>
      </trkpt>
      <trkpt lat="39.953033" lon="3.199451">
        <ele>220.1</ele>
        <time>2020-05-23T19:31:44Z</time>
      </trkpt>
      <trkpt lat="39.952976" lon="3.199583">
        <ele>220</ele>
        <time>2020-05-23T19:31:45Z</time>
      </trkpt>
      <trkpt lat="39.952938" lon="3.199699">
        <ele>219.8</ele>
        <time>2020-05-23T19:31:46Z</time>
      </trkpt>
      <trkpt lat="39.952907" lon="3.199818">
        <ele>219.7</ele>
        <time>2020-05-23T19:31:47Z</time>
      </trkpt>
      <trkpt lat="39.952888" lon="3.199964">
        <ele>219.5</ele>
        <time>2020-05-23T19:31:48Z</time>
      </trkpt>
      <trkpt lat="39.9529" lon="3.200087">
        <ele>219.4</ele>
        <time>2020-05-23T19:31:49Z</time>
      </trkpt>
      <trkpt lat="39.952923" lon="3.200232">
        <ele>219.2</ele>
        <time>2020-05-23T19:31:50Z</time>
      </trkpt>
      <trkpt lat="39.952942" lon="3.200351">
        <ele>219.1</ele>
        <time>2020-05-23T19:31:51Z</time>
      </trkpt>
      <trkpt lat="39.95298" lon="3.200488">
        <ele>218.9</ele>
        <time>2020-05-23T19:31:53Z</time>
      </trkpt>
      <trkpt lat="39.953026" lon="3.200619">
        <ele>218.6</ele>
        <time>2020-05-23T19:31:54Z</time>
      </trkpt>
      <trkpt lat="39.953068" lon="3.20075">
        <ele>218.3</ele>
        <time>2020-05-23T19:31:55Z</time>
      </trkpt>
      <trkpt lat="39.95311" lon="3.200882">
        <ele>217.8</ele>
        <time>2020-05-23T19:31:56Z</time>
      </trkpt>
      <trkpt lat="39.953159" lon="3.201014">
        <ele>217.1</ele>
        <time>2020-05-23T19:31:57Z</time>
      </trkpt>
      <trkpt lat="39.953205" lon="3.201147">
        <ele>216.5</ele>
        <time>2020-05-23T19:31:59Z</time>
      </trkpt>
      <trkpt lat="39.953262" lon="3.201278">
        <ele>215.8</ele>
        <time>2020-05-23T19:32:00Z</time>
      </trkpt>
      <trkpt lat="39.953331" lon="3.201405">
        <ele>215.1</ele>
        <time>2020-05-23T19:32:01Z</time>
      </trkpt>
      <trkpt lat="39.953392" lon="3.201513">
        <ele>214.5</ele>
        <time>2020-05-23T19:32:02Z</time>
      </trkpt>
      <trkpt lat="39.953457" lon="3.201649">
        <ele>213.6</ele>
        <time>2020-05-23T19:32:03Z</time>
      </trkpt>
      <trkpt lat="39.953514" lon="3.201797">
        <ele>212.6</ele>
        <time>2020-05-23T19:32:04Z</time>
      </trkpt>
      <trkpt lat="39.953548" lon="3.201959">
        <ele>211.6</ele>
        <time>2020-05-23T19:32:06Z</time>
      </trkpt>
      <trkpt lat="39.953552" lon="3.20213">
        <ele>210.7</ele>
        <time>2020-05-23T19:32:07Z</time>
      </trkpt>
      <trkpt lat="39.953556" lon="3.202302">
        <ele>209.8</ele>
        <time>2020-05-23T19:32:08Z</time>
      </trkpt>
      <trkpt lat="39.95356" lon="3.202441">
        <ele>209.1</ele>
        <time>2020-05-23T19:32:09Z</time>
      </trkpt>
      <trkpt lat="39.953567" lon="3.202605">
        <ele>208.3</ele>
        <time>2020-05-23T19:32:10Z</time>
      </trkpt>
      <trkpt lat="39.953579" lon="3.202742">
        <ele>207.6</ele>
        <time>2020-05-23T19:32:11Z</time>
      </trkpt>
      <trkpt lat="39.953609" lon="3.202877">
        <ele>206.8</ele>
        <time>2020-05-23T19:32:12Z</time>
      </trkpt>
      <trkpt lat="39.953671" lon="3.20302">
        <ele>205.8</ele>
        <time>2020-05-23T19:32:13Z</time>
      </trkpt>
      <trkpt lat="39.953789" lon="3.203006">
        <ele>204.8</ele>
        <time>2020-05-23T19:32:15Z</time>
      </trkpt>
      <trkpt lat="39.953892" lon="3.202914">
        <ele>203.7</ele>
        <time>2020-05-23T19:32:16Z</time>
      </trkpt>
      <trkpt lat="39.953957" lon="3.202784">
        <ele>202.7</ele>
        <time>2020-05-23T19:32:17Z</time>
      </trkpt>
      <trkpt lat="39.953964" lon="3.202634">
        <ele>201.8</ele>
        <time>2020-05-23T19:32:18Z</time>
      </trkpt>
      <trkpt lat="39.953964" lon="3.202489">
        <ele>200.9</ele>
        <time>2020-05-23T19:32:19Z</time>
      </trkpt>
      <trkpt lat="39.953976" lon="3.202351">
        <ele>200.1</ele>
        <time>2020-05-23T19:32:21Z</time>
      </trkpt>
      <trkpt lat="39.95401" lon="3.202229">
        <ele>199.9</ele>
        <time>2020-05-23T19:32:22Z</time>
      </trkpt>
      <trkpt lat="39.954067" lon="3.20216">
        <ele>198.2</ele>
        <time>2020-05-23T19:32:23Z</time>
      </trkpt>
      <trkpt lat="39.954174" lon="3.20219">
        <ele>193.5</ele>
        <time>2020-05-23T19:32:24Z</time>
      </trkpt>
      <trkpt lat="39.954296" lon="3.202226">
        <ele>188</ele>
        <time>2020-05-23T19:32:25Z</time>
      </trkpt>
      <trkpt lat="39.954411" lon="3.202233">
        <ele>184.6</ele>
        <time>2020-05-23T19:32:26Z</time>
      </trkpt>
      <trkpt lat="39.954548" lon="3.202146">
        <ele>182.1</ele>
        <time>2020-05-23T19:32:27Z</time>
      </trkpt>
      <trkpt lat="39.954655" lon="3.202006">
        <ele>181.2</ele>
        <time>2020-05-23T19:32:29Z</time>
      </trkpt>
      <trkpt lat="39.954718" lon="3.20183">
        <ele>181.9</ele>
        <time>2020-05-23T19:32:30Z</time>
      </trkpt>
      <trkpt lat="39.954781" lon="3.201653">
        <ele>183.1</ele>
        <time>2020-05-23T19:32:31Z</time>
      </trkpt>
      <trkpt lat="39.954895" lon="3.201498">
        <ele>182</ele>
        <time>2020-05-23T19:32:32Z</time>
      </trkpt>
      <trkpt lat="39.95499" lon="3.201379">
        <ele>181.8</ele>
        <time>2020-05-23T19:32:33Z</time>
      </trkpt>
      <trkpt lat="39.955105" lon="3.201274">
        <ele>181.7</ele>
        <time>2020-05-23T19:32:34Z</time>
      </trkpt>
      <trkpt lat="39.955208" lon="3.201178">
        <ele>182.4</ele>
        <time>2020-05-23T19:32:35Z</time>
      </trkpt>
      <trkpt lat="39.955311" lon="3.2011">
        <ele>181.6</ele>
        <time>2020-05-23T19:32:37Z</time>
      </trkpt>
      <trkpt lat="39.955421" lon="3.201074">
        <ele>181.5</ele>
        <time>2020-05-23T19:32:38Z</time>
      </trkpt>
      <trkpt lat="39.955524" lon="3.201121">
        <ele>181</ele>
        <time>2020-05-23T19:32:39Z</time>
      </trkpt>
      <trkpt lat="39.955582" lon="3.201277">
        <ele>180.5</ele>
        <time>2020-05-23T19:32:40Z</time>
      </trkpt>
      <trkpt lat="39.955597" lon="3.201462">
        <ele>180</ele>
        <time>2020-05-23T19:32:41Z</time>
      </trkpt>
      <trkpt lat="39.955566" lon="3.201623">
        <ele>179.8</ele>
        <time>2020-05-23T19:32:42Z</time>
      </trkpt>
      <trkpt lat="39.955547" lon="3.201823">
        <ele>179.6</ele>
        <time>2020-05-23T19:32:44Z</time>
      </trkpt>
      <trkpt lat="39.955555" lon="3.202023">
        <ele>179.1</ele>
        <time>2020-05-23T19:32:45Z</time>
      </trkpt>
      <trkpt lat="39.955578" lon="3.202215">
        <ele>178.9</ele>
        <time>2020-05-23T19:32:46Z</time>
      </trkpt>
      <trkpt lat="39.955601" lon="3.202371">
        <ele>178.9</ele>
        <time>2020-05-23T19:32:47Z</time>
      </trkpt>
      <trkpt lat="39.95562" lon="3.202553">
        <ele>179.1</ele>
        <time>2020-05-23T19:32:48Z</time>
      </trkpt>
      <trkpt lat="39.955616" lon="3.202729">
        <ele>179.1</ele>
        <time>2020-05-23T19:32:49Z</time>
      </trkpt>
      <trkpt lat="39.95557" lon="3.20286">
        <ele>179</ele>
        <time>2020-05-23T19:32:50Z</time>
      </trkpt>
      <trkpt lat="39.955498" lon="3.203001">
        <ele>178.9</ele>
        <time>2020-05-23T19:32:52Z</time>
      </trkpt>
      <trkpt lat="39.955414" lon="3.203087">
        <ele>178.7</ele>
        <time>2020-05-23T19:32:53Z</time>
      </trkpt>
      <trkpt lat="39.955311" lon="3.203184">
        <ele>178.5</ele>
        <time>2020-05-23T19:32:54Z</time>
      </trkpt>
      <trkpt lat="39.955204" lon="3.203274">
        <ele>178.2</ele>
        <time>2020-05-23T19:32:55Z</time>
      </trkpt>
      <trkpt lat="39.95512" lon="3.203347">
        <ele>178.1</ele>
        <time>2020-05-23T19:32:56Z</time>
      </trkpt>
      <trkpt lat="39.955017" lon="3.203438">
        <ele>177.8</ele>
        <time>2020-05-23T19:32:57Z</time>
      </trkpt>
      <trkpt lat="39.954922" lon="3.203533">
        <ele>177.5</ele>
        <time>2020-05-23T19:32:58Z</time>
      </trkpt>
      <trkpt lat="39.954849" lon="3.203619">
        <ele>177.2</ele>
        <time>2020-05-23T19:32:59Z</time>
      </trkpt>
      <trkpt lat="39.954781" lon="3.203708">
        <ele>176.8</ele>
        <time>2020-05-23T19:33:00Z</time>
      </trkpt>
      <trkpt lat="39.954719" lon="3.203809">
        <ele>176.4</ele>
        <time>2020-05-23T19:33:01Z</time>
      </trkpt>
      <trkpt lat="39.954655" lon="3.20394">
        <ele>175.9</ele>
        <time>2020-05-23T19:33:03Z</time>
      </trkpt>
      <trkpt lat="39.95459" lon="3.204066">
        <ele>175.5</ele>
        <time>2020-05-23T19:33:04Z</time>
      </trkpt>
      <trkpt lat="39.954517" lon="3.20419">
        <ele>175</ele>
        <time>2020-05-23T19:33:05Z</time>
      </trkpt>
      <trkpt lat="39.954449" lon="3.204314">
        <ele>174.7</ele>
        <time>2020-05-23T19:33:06Z</time>
      </trkpt>
      <trkpt lat="39.954395" lon="3.204422">
        <ele>174.6</ele>
        <time>2020-05-23T19:33:07Z</time>
      </trkpt>
      <trkpt lat="39.95433" lon="3.204556">
        <ele>174.5</ele>
        <time>2020-05-23T19:33:08Z</time>
      </trkpt>
      <trkpt lat="39.954266" lon="3.204693">
        <ele>174.4</ele>
        <time>2020-05-23T19:33:10Z</time>
      </trkpt>
      <trkpt lat="39.954212" lon="3.20481">
        <ele>174.4</ele>
        <time>2020-05-23T19:33:11Z</time>
      </trkpt>
      <trkpt lat="39.954166" lon="3.204936">
        <ele>174.6</ele>
        <time>2020-05-23T19:33:12Z</time>
      </trkpt>
      <trkpt lat="39.954117" lon="3.205099">
        <ele>175.1</ele>
        <time>2020-05-23T19:33:13Z</time>
      </trkpt>
      <trkpt lat="39.954071" lon="3.205269">
        <ele>175.9</ele>
        <time>2020-05-23T19:33:14Z</time>
      </trkpt>
      <trkpt lat="39.954037" lon="3.205413">
        <ele>176.8</ele>
        <time>2020-05-23T19:33:15Z</time>
      </trkpt>
      <trkpt lat="39.953991" lon="3.205582">
        <ele>178</ele>
        <time>2020-05-23T19:33:16Z</time>
      </trkpt>
      <trkpt lat="39.953953" lon="3.205719">
        <ele>179.1</ele>
        <time>2020-05-23T19:33:17Z</time>
      </trkpt>
      <trkpt lat="39.953907" lon="3.205874">
        <ele>180.2</ele>
        <time>2020-05-23T19:33:18Z</time>
      </trkpt>
      <trkpt lat="39.953854" lon="3.206019">
        <ele>181.3</ele>
        <time>2020-05-23T19:33:20Z</time>
      </trkpt>
      <trkpt lat="39.953815" lon="3.20613">
        <ele>181.9</ele>
        <time>2020-05-23T19:33:21Z</time>
      </trkpt>
      <trkpt lat="39.953789" lon="3.206233">
        <ele>182.4</ele>
        <time>2020-05-23T19:33:22Z</time>
      </trkpt>
      <trkpt lat="39.953762" lon="3.206344">
        <ele>182.8</ele>
        <time>2020-05-23T19:33:23Z</time>
      </trkpt>
      <trkpt lat="39.953758" lon="3.206443">
        <ele>183.2</ele>
        <time>2020-05-23T19:33:24Z</time>
      </trkpt>
      <trkpt lat="39.953766" lon="3.206516">
        <ele>183.4</ele>
        <time>2020-05-23T19:33:25Z</time>
      </trkpt>
      <trkpt lat="39.953777" lon="3.206598">
        <ele>183.7</ele>
        <time>2020-05-23T19:33:26Z</time>
      </trkpt>
      <trkpt lat="39.953785" lon="3.206665">
        <ele>183.9</ele>
        <time>2020-05-23T19:33:27Z</time>
      </trkpt>
      <trkpt lat="39.953796" lon="3.206744">
        <ele>184.3</ele>
        <time>2020-05-23T19:33:28Z</time>
      </trkpt>
      <trkpt lat="39.953804" lon="3.206808">
        <ele>184.6</ele>
        <time>2020-05-23T19:33:29Z</time>
      </trkpt>
      <trkpt lat="39.953815" lon="3.206883">
        <ele>185</ele>
        <time>2020-05-23T19:33:31Z</time>
      </trkpt>
      <trkpt lat="39.953827" lon="3.20696">
        <ele>185.4</ele>
        <time>2020-05-23T19:33:32Z</time>
      </trkpt>
      <trkpt lat="39.953838" lon="3.207025">
        <ele>185.8</ele>
        <time>2020-05-23T19:33:33Z</time>
      </trkpt>
      <trkpt lat="39.953846" lon="3.207091">
        <ele>186.1</ele>
        <time>2020-05-23T19:33:34Z</time>
      </trkpt>
      <trkpt lat="39.953857" lon="3.207168">
        <ele>186.5</ele>
        <time>2020-05-23T19:33:35Z</time>
      </trkpt>
      <trkpt lat="39.953865" lon="3.207231">
        <ele>186.9</ele>
        <time>2020-05-23T19:33:36Z</time>
      </trkpt>
      <trkpt lat="39.953876" lon="3.207303">
        <ele>187.3</ele>
        <time>2020-05-23T19:33:37Z</time>
      </trkpt>
      <trkpt lat="39.953888" lon="3.20736">
        <ele>187.6</ele>
        <time>2020-05-23T19:33:38Z</time>
      </trkpt>
      <trkpt lat="39.953903" lon="3.207427">
        <ele>187.9</ele>
        <time>2020-05-23T19:33:39Z</time>
      </trkpt>
      <trkpt lat="39.953918" lon="3.207484">
        <ele>188.2</ele>
        <time>2020-05-23T19:33:40Z</time>
      </trkpt>
      <trkpt lat="39.953937" lon="3.207553">
        <ele>188.5</ele>
        <time>2020-05-23T19:33:42Z</time>
      </trkpt>
      <trkpt lat="39.953964" lon="3.20762">
        <ele>188.9</ele>
        <time>2020-05-23T19:33:43Z</time>
      </trkpt>
      <trkpt lat="39.954002" lon="3.20768">
        <ele>189.2</ele>
        <time>2020-05-23T19:33:44Z</time>
      </trkpt>
      <trkpt lat="39.954048" lon="3.207731">
        <ele>189.6</ele>
        <time>2020-05-23T19:33:45Z</time>
      </trkpt>
      <trkpt lat="39.954098" lon="3.207781">
        <ele>189.9</ele>
        <time>2020-05-23T19:33:46Z</time>
      </trkpt>
      <trkpt lat="39.954136" lon="3.207824">
        <ele>190.2</ele>
        <time>2020-05-23T19:33:47Z</time>
      </trkpt>
      <trkpt lat="39.954185" lon="3.207872">
        <ele>190.6</ele>
        <time>2020-05-23T19:33:49Z</time>
      </trkpt>
      <trkpt lat="39.954227" lon="3.207907">
        <ele>190.8</ele>
        <time>2020-05-23T19:33:50Z</time>
      </trkpt>
      <trkpt lat="39.954281" lon="3.207942">
        <ele>191</ele>
        <time>2020-05-23T19:33:51Z</time>
      </trkpt>
      <trkpt lat="39.954338" lon="3.207973">
        <ele>191.2</ele>
        <time>2020-05-23T19:33:52Z</time>
      </trkpt>
      <trkpt lat="39.954384" lon="3.208">
        <ele>191.3</ele>
        <time>2020-05-23T19:33:53Z</time>
      </trkpt>
      <trkpt lat="39.954445" lon="3.208032">
        <ele>191.5</ele>
        <time>2020-05-23T19:33:54Z</time>
      </trkpt>
      <trkpt lat="39.954494" lon="3.208056">
        <ele>191.7</ele>
        <time>2020-05-23T19:33:55Z</time>
      </trkpt>
      <trkpt lat="39.954548" lon="3.208079">
        <ele>191.8</ele>
        <time>2020-05-23T19:33:56Z</time>
      </trkpt>
      <trkpt lat="39.954605" lon="3.208104">
        <ele>192</ele>
        <time>2020-05-23T19:33:57Z</time>
      </trkpt>
      <trkpt lat="39.954678" lon="3.208137">
        <ele>192.2</ele>
        <time>2020-05-23T19:33:58Z</time>
      </trkpt>
      <trkpt lat="39.95475" lon="3.208174">
        <ele>192.4</ele>
        <time>2020-05-23T19:34:00Z</time>
      </trkpt>
      <trkpt lat="39.954826" lon="3.208213">
        <ele>192.5</ele>
        <time>2020-05-23T19:34:01Z</time>
      </trkpt>
      <trkpt lat="39.954903" lon="3.208252">
        <ele>192.8</ele>
        <time>2020-05-23T19:34:02Z</time>
      </trkpt>
      <trkpt lat="39.954964" lon="3.208283">
        <ele>193</ele>
        <time>2020-05-23T19:34:03Z</time>
      </trkpt>
      <trkpt lat="39.955028" lon="3.208313">
        <ele>193.2</ele>
        <time>2020-05-23T19:34:04Z</time>
      </trkpt>
      <trkpt lat="39.95509" lon="3.208341">
        <ele>193.3</ele>
        <time>2020-05-23T19:34:05Z</time>
      </trkpt>
      <trkpt lat="39.955162" lon="3.208369">
        <ele>193.5</ele>
        <time>2020-05-23T19:34:06Z</time>
      </trkpt>
      <trkpt lat="39.955223" lon="3.208391">
        <ele>193.7</ele>
        <time>2020-05-23T19:34:07Z</time>
      </trkpt>
      <trkpt lat="39.95528" lon="3.208413">
        <ele>193.8</ele>
        <time>2020-05-23T19:34:08Z</time>
      </trkpt>
      <trkpt lat="39.955353" lon="3.208438">
        <ele>194</ele>
        <time>2020-05-23T19:34:09Z</time>
      </trkpt>
      <trkpt lat="39.955421" lon="3.208458">
        <ele>194.1</ele>
        <time>2020-05-23T19:34:11Z</time>
      </trkpt>
      <trkpt lat="39.955479" lon="3.208464">
        <ele>194.2</ele>
        <time>2020-05-23T19:34:12Z</time>
      </trkpt>
      <trkpt lat="39.955551" lon="3.208457">
        <ele>194.3</ele>
        <time>2020-05-23T19:34:13Z</time>
      </trkpt>
      <trkpt lat="39.955612" lon="3.208449">
        <ele>194.4</ele>
        <time>2020-05-23T19:34:14Z</time>
      </trkpt>
      <trkpt lat="39.955673" lon="3.208439">
        <ele>194.5</ele>
        <time>2020-05-23T19:34:15Z</time>
      </trkpt>
      <trkpt lat="39.955734" lon="3.208424">
        <ele>194.5</ele>
        <time>2020-05-23T19:34:16Z</time>
      </trkpt>
      <trkpt lat="39.955807" lon="3.208399">
        <ele>194.5</ele>
        <time>2020-05-23T19:34:17Z</time>
      </trkpt>
      <trkpt lat="39.955883" lon="3.208371">
        <ele>194.4</ele>
        <time>2020-05-23T19:34:18Z</time>
      </trkpt>
      <trkpt lat="39.955959" lon="3.208345">
        <ele>194.3</ele>
        <time>2020-05-23T19:34:19Z</time>
      </trkpt>
      <trkpt lat="39.956028" lon="3.208322">
        <ele>194.2</ele>
        <time>2020-05-23T19:34:20Z</time>
      </trkpt>
      <trkpt lat="39.956108" lon="3.208296">
        <ele>194.1</ele>
        <time>2020-05-23T19:34:22Z</time>
      </trkpt>
      <trkpt lat="39.956196" lon="3.208273">
        <ele>194</ele>
        <time>2020-05-23T19:34:23Z</time>
      </trkpt>
      <trkpt lat="39.956284" lon="3.208253">
        <ele>193.8</ele>
        <time>2020-05-23T19:34:24Z</time>
      </trkpt>
      <trkpt lat="39.956371" lon="3.208258">
        <ele>193.5</ele>
        <time>2020-05-23T19:34:25Z</time>
      </trkpt>
      <trkpt lat="39.956459" lon="3.208288">
        <ele>193.4</ele>
        <time>2020-05-23T19:34:26Z</time>
      </trkpt>
      <trkpt lat="39.956554" lon="3.208319">
        <ele>193.2</ele>
        <time>2020-05-23T19:34:28Z</time>
      </trkpt>
      <trkpt lat="39.956654" lon="3.208357">
        <ele>193</ele>
        <time>2020-05-23T19:34:29Z</time>
      </trkpt>
      <trkpt lat="39.956741" lon="3.208384">
        <ele>193</ele>
        <time>2020-05-23T19:34:30Z</time>
      </trkpt>
      <trkpt lat="39.956852" lon="3.208418">
        <ele>192.9</ele>
        <time>2020-05-23T19:34:31Z</time>
      </trkpt>
      <trkpt lat="39.956947" lon="3.208441">
        <ele>192.9</ele>
        <time>2020-05-23T19:34:32Z</time>
      </trkpt>
      <trkpt lat="39.957058" lon="3.208459">
        <ele>192.7</ele>
        <time>2020-05-23T19:34:33Z</time>
      </trkpt>
      <trkpt lat="39.957169" lon="3.208469">
        <ele>192.5</ele>
        <time>2020-05-23T19:34:34Z</time>
      </trkpt>
      <trkpt lat="39.957272" lon="3.208429">
        <ele>192.2</ele>
        <time>2020-05-23T19:34:36Z</time>
      </trkpt>
      <trkpt lat="39.957325" lon="3.208342">
        <ele>191.8</ele>
        <time>2020-05-23T19:34:37Z</time>
      </trkpt>
      <trkpt lat="39.957386" lon="3.208231">
        <ele>191.2</ele>
        <time>2020-05-23T19:34:38Z</time>
      </trkpt>
      <trkpt lat="39.95742" lon="3.208108">
        <ele>190.6</ele>
        <time>2020-05-23T19:34:39Z</time>
      </trkpt>
      <trkpt lat="39.957428" lon="3.207983">
        <ele>190</ele>
        <time>2020-05-23T19:34:40Z</time>
      </trkpt>
      <trkpt lat="39.957436" lon="3.207882">
        <ele>189.6</ele>
        <time>2020-05-23T19:34:41Z</time>
      </trkpt>
      <trkpt lat="39.957451" lon="3.207784">
        <ele>189.3</ele>
        <time>2020-05-23T19:34:42Z</time>
      </trkpt>
      <trkpt lat="39.957474" lon="3.207691">
        <ele>188.9</ele>
        <time>2020-05-23T19:34:43Z</time>
      </trkpt>
      <trkpt lat="39.957531" lon="3.207599">
        <ele>188.4</ele>
        <time>2020-05-23T19:34:44Z</time>
      </trkpt>
      <trkpt lat="39.957596" lon="3.207522">
        <ele>187.8</ele>
        <time>2020-05-23T19:34:46Z</time>
      </trkpt>
      <trkpt lat="39.95768" lon="3.207541">
        <ele>187.4</ele>
        <time>2020-05-23T19:34:47Z</time>
      </trkpt>
      <trkpt lat="39.95776" lon="3.207616">
        <ele>186.9</ele>
        <time>2020-05-23T19:34:48Z</time>
      </trkpt>
      <trkpt lat="39.957844" lon="3.207704">
        <ele>186.6</ele>
        <time>2020-05-23T19:34:49Z</time>
      </trkpt>
      <trkpt lat="39.957882" lon="3.20781">
        <ele>186.5</ele>
        <time>2020-05-23T19:34:50Z</time>
      </trkpt>
      <trkpt lat="39.957912" lon="3.207922">
        <ele>186.5</ele>
        <time>2020-05-23T19:34:51Z</time>
      </trkpt>
      <trkpt lat="39.957954" lon="3.208053">
        <ele>186.8</ele>
        <time>2020-05-23T19:34:52Z</time>
      </trkpt>
      <trkpt lat="39.957977" lon="3.208165">
        <ele>187.1</ele>
        <time>2020-05-23T19:34:53Z</time>
      </trkpt>
      <trkpt lat="39.957989" lon="3.208277">
        <ele>187.5</ele>
        <time>2020-05-23T19:34:54Z</time>
      </trkpt>
      <trkpt lat="39.958" lon="3.208388">
        <ele>188</ele>
        <time>2020-05-23T19:34:55Z</time>
      </trkpt>
      <trkpt lat="39.958004" lon="3.208499">
        <ele>188.5</ele>
        <time>2020-05-23T19:34:56Z</time>
      </trkpt>
      <trkpt lat="39.957993" lon="3.208602">
        <ele>189.1</ele>
        <time>2020-05-23T19:34:58Z</time>
      </trkpt>
      <trkpt lat="39.957966" lon="3.208716">
        <ele>189.8</ele>
        <time>2020-05-23T19:34:59Z</time>
      </trkpt>
      <trkpt lat="39.957943" lon="3.208825">
        <ele>190.5</ele>
        <time>2020-05-23T19:35:00Z</time>
      </trkpt>
      <trkpt lat="39.957916" lon="3.208908">
        <ele>191.1</ele>
        <time>2020-05-23T19:35:01Z</time>
      </trkpt>
      <trkpt lat="39.957874" lon="3.208992">
        <ele>191.8</ele>
        <time>2020-05-23T19:35:02Z</time>
      </trkpt>
      <trkpt lat="39.957829" lon="3.209068">
        <ele>192.5</ele>
        <time>2020-05-23T19:35:03Z</time>
      </trkpt>
      <trkpt lat="39.957787" lon="3.209141">
        <ele>193.2</ele>
        <time>2020-05-23T19:35:05Z</time>
      </trkpt>
      <trkpt lat="39.957748" lon="3.209208">
        <ele>193.8</ele>
        <time>2020-05-23T19:35:06Z</time>
      </trkpt>
      <trkpt lat="39.957706" lon="3.209268">
        <ele>194.4</ele>
        <time>2020-05-23T19:35:07Z</time>
      </trkpt>
      <trkpt lat="39.957668" lon="3.20931">
        <ele>194.9</ele>
        <time>2020-05-23T19:35:08Z</time>
      </trkpt>
      <trkpt lat="39.957622" lon="3.209355">
        <ele>195.4</ele>
        <time>2020-05-23T19:35:09Z</time>
      </trkpt>
      <trkpt lat="39.957588" lon="3.20939">
        <ele>195.8</ele>
        <time>2020-05-23T19:35:10Z</time>
      </trkpt>
      <trkpt lat="39.957554" lon="3.209425">
        <ele>196.2</ele>
        <time>2020-05-23T19:35:11Z</time>
      </trkpt>
      <trkpt lat="39.957512" lon="3.209465">
        <ele>196.7</ele>
        <time>2020-05-23T19:35:12Z</time>
      </trkpt>
      <trkpt lat="39.957481" lon="3.209498">
        <ele>197.1</ele>
        <time>2020-05-23T19:35:13Z</time>
      </trkpt>
      <trkpt lat="39.957447" lon="3.209536">
        <ele>197.5</ele>
        <time>2020-05-23T19:35:15Z</time>
      </trkpt>
      <trkpt lat="39.957409" lon="3.209575">
        <ele>198</ele>
        <time>2020-05-23T19:35:16Z</time>
      </trkpt>
      <trkpt lat="39.957371" lon="3.209614">
        <ele>198.4</ele>
        <time>2020-05-23T19:35:17Z</time>
      </trkpt>
      <trkpt lat="39.957336" lon="3.20965">
        <ele>198.8</ele>
        <time>2020-05-23T19:35:18Z</time>
      </trkpt>
      <trkpt lat="39.957302" lon="3.209689">
        <ele>199.1</ele>
        <time>2020-05-23T19:35:19Z</time>
      </trkpt>
      <trkpt lat="39.95726" lon="3.209739">
        <ele>199.6</ele>
        <time>2020-05-23T19:35:20Z</time>
      </trkpt>
      <trkpt lat="39.957218" lon="3.209793">
        <ele>200</ele>
        <time>2020-05-23T19:35:21Z</time>
      </trkpt>
      <trkpt lat="39.957176" lon="3.209854">
        <ele>200.5</ele>
        <time>2020-05-23T19:35:23Z</time>
      </trkpt>
      <trkpt lat="39.957134" lon="3.209917">
        <ele>201</ele>
        <time>2020-05-23T19:35:24Z</time>
      </trkpt>
      <trkpt lat="39.957085" lon="3.209981">
        <ele>201.5</ele>
        <time>2020-05-23T19:35:25Z</time>
      </trkpt>
      <trkpt lat="39.957046" lon="3.210034">
        <ele>201.8</ele>
        <time>2020-05-23T19:35:26Z</time>
      </trkpt>
      <trkpt lat="39.957001" lon="3.210099">
        <ele>202.2</ele>
        <time>2020-05-23T19:35:27Z</time>
      </trkpt>
      <trkpt lat="39.956966" lon="3.210155">
        <ele>202.4</ele>
        <time>2020-05-23T19:35:28Z</time>
      </trkpt>
      <trkpt lat="39.956928" lon="3.210213">
        <ele>202.6</ele>
        <time>2020-05-23T19:35:29Z</time>
      </trkpt>
      <trkpt lat="39.956886" lon="3.210282">
        <ele>202.8</ele>
        <time>2020-05-23T19:35:30Z</time>
      </trkpt>
      <trkpt lat="39.956848" lon="3.210338">
        <ele>202.7</ele>
        <time>2020-05-23T19:35:31Z</time>
      </trkpt>
      <trkpt lat="39.956802" lon="3.210406">
        <ele>202.7</ele>
        <time>2020-05-23T19:35:33Z</time>
      </trkpt>
      <trkpt lat="39.956753" lon="3.210477">
        <ele>202.6</ele>
        <time>2020-05-23T19:35:34Z</time>
      </trkpt>
      <trkpt lat="39.956699" lon="3.210555">
        <ele>202.4</ele>
        <time>2020-05-23T19:35:35Z</time>
      </trkpt>
      <trkpt lat="39.956638" lon="3.210643">
        <ele>202.2</ele>
        <time>2020-05-23T19:35:36Z</time>
      </trkpt>
      <trkpt lat="39.956573" lon="3.210736">
        <ele>201.9</ele>
        <time>2020-05-23T19:35:37Z</time>
      </trkpt>
      <trkpt lat="39.956516" lon="3.210813">
        <ele>201.6</ele>
        <time>2020-05-23T19:35:38Z</time>
      </trkpt>
      <trkpt lat="39.95644" lon="3.210906">
        <ele>201</ele>
        <time>2020-05-23T19:35:40Z</time>
      </trkpt>
      <trkpt lat="39.956364" lon="3.211">
        <ele>200.3</ele>
        <time>2020-05-23T19:35:41Z</time>
      </trkpt>
      <trkpt lat="39.956276" lon="3.211093">
        <ele>199.3</ele>
        <time>2020-05-23T19:35:42Z</time>
      </trkpt>
      <trkpt lat="39.956177" lon="3.211193">
        <ele>198.2</ele>
        <time>2020-05-23T19:35:43Z</time>
      </trkpt>
      <trkpt lat="39.956058" lon="3.211299">
        <ele>196.9</ele>
        <time>2020-05-23T19:35:44Z</time>
      </trkpt>
      <trkpt lat="39.955933" lon="3.211409">
        <ele>195.7</ele>
        <time>2020-05-23T19:35:46Z</time>
      </trkpt>
      <trkpt lat="39.955822" lon="3.211505">
        <ele>194.9</ele>
        <time>2020-05-23T19:35:47Z</time>
      </trkpt>
      <trkpt lat="39.955719" lon="3.211588">
        <ele>194.2</ele>
        <time>2020-05-23T19:35:48Z</time>
      </trkpt>
      <trkpt lat="39.955597" lon="3.211672">
        <ele>188.8</ele>
        <time>2020-05-23T19:35:49Z</time>
      </trkpt>
      <trkpt lat="39.95549" lon="3.211774">
        <ele>184.7</ele>
        <time>2020-05-23T19:35:50Z</time>
      </trkpt>
      <trkpt lat="39.955437" lon="3.211892">
        <ele>183.3</ele>
        <time>2020-05-23T19:35:51Z</time>
      </trkpt>
      <trkpt lat="39.955456" lon="3.212041">
        <ele>187.6</ele>
        <time>2020-05-23T19:35:52Z</time>
      </trkpt>
      <trkpt lat="39.955578" lon="3.212117">
        <ele>185.9</ele>
        <time>2020-05-23T19:35:53Z</time>
      </trkpt>
      <trkpt lat="39.955723" lon="3.212145">
        <ele>184.2</ele>
        <time>2020-05-23T19:35:55Z</time>
      </trkpt>
      <trkpt lat="39.955864" lon="3.212064">
        <ele>182.4</ele>
        <time>2020-05-23T19:35:56Z</time>
      </trkpt>
      <trkpt lat="39.95602" lon="3.211981">
        <ele>180.5</ele>
        <time>2020-05-23T19:35:57Z</time>
      </trkpt>
      <trkpt lat="39.95615" lon="3.211902">
        <ele>179</ele>
        <time>2020-05-23T19:35:58Z</time>
      </trkpt>
      <trkpt lat="39.956322" lon="3.211818">
        <ele>177</ele>
        <time>2020-05-23T19:35:59Z</time>
      </trkpt>
      <trkpt lat="39.956505" lon="3.211769">
        <ele>175</ele>
        <time>2020-05-23T19:36:00Z</time>
      </trkpt>
      <trkpt lat="39.956665" lon="3.211758">
        <ele>173.3</ele>
        <time>2020-05-23T19:36:01Z</time>
      </trkpt>
      <trkpt lat="39.956856" lon="3.211804">
        <ele>171.4</ele>
        <time>2020-05-23T19:36:03Z</time>
      </trkpt>
      <trkpt lat="39.957012" lon="3.211838">
        <ele>170.2</ele>
        <time>2020-05-23T19:36:04Z</time>
      </trkpt>
      <trkpt lat="39.957199" lon="3.21188">
        <ele>168.6</ele>
        <time>2020-05-23T19:36:05Z</time>
      </trkpt>
      <trkpt lat="39.957386" lon="3.211908">
        <ele>166.6</ele>
        <time>2020-05-23T19:36:06Z</time>
      </trkpt>
      <trkpt lat="39.957569" lon="3.211912">
        <ele>164.3</ele>
        <time>2020-05-23T19:36:07Z</time>
      </trkpt>
      <trkpt lat="39.957748" lon="3.211843">
        <ele>162</ele>
        <time>2020-05-23T19:36:08Z</time>
      </trkpt>
      <trkpt lat="39.957928" lon="3.211751">
        <ele>159.9</ele>
        <time>2020-05-23T19:36:10Z</time>
      </trkpt>
      <trkpt lat="39.958113" lon="3.211645">
        <ele>157.8</ele>
        <time>2020-05-23T19:36:11Z</time>
      </trkpt>
      <trkpt lat="39.958298" lon="3.211539">
        <ele>155.7</ele>
        <time>2020-05-23T19:36:12Z</time>
      </trkpt>
      <trkpt lat="39.958488" lon="3.211452">
        <ele>154</ele>
        <time>2020-05-23T19:36:13Z</time>
      </trkpt>
      <trkpt lat="39.958687" lon="3.211408">
        <ele>152.5</ele>
        <time>2020-05-23T19:36:14Z</time>
      </trkpt>
      <trkpt lat="39.958851" lon="3.211373">
        <ele>151.2</ele>
        <time>2020-05-23T19:36:15Z</time>
      </trkpt>
      <trkpt lat="39.959042" lon="3.2113">
        <ele>149</ele>
        <time>2020-05-23T19:36:17Z</time>
      </trkpt>
      <trkpt lat="39.959209" lon="3.211159">
        <ele>146.6</ele>
        <time>2020-05-23T19:36:18Z</time>
      </trkpt>
      <trkpt lat="39.959358" lon="3.210966">
        <ele>144.2</ele>
        <time>2020-05-23T19:36:19Z</time>
      </trkpt>
      <trkpt lat="39.959454" lon="3.21077">
        <ele>142.5</ele>
        <time>2020-05-23T19:36:20Z</time>
      </trkpt>
      <trkpt lat="39.959579" lon="3.210537">
        <ele>140.5</ele>
        <time>2020-05-23T19:36:21Z</time>
      </trkpt>
      <trkpt lat="39.959686" lon="3.210365">
        <ele>138.8</ele>
        <time>2020-05-23T19:36:22Z</time>
      </trkpt>
      <trkpt lat="39.959808" lon="3.210241">
        <ele>137.4</ele>
        <time>2020-05-23T19:36:23Z</time>
      </trkpt>
      <trkpt lat="39.959923" lon="3.210153">
        <ele>136.2</ele>
        <time>2020-05-23T19:36:24Z</time>
      </trkpt>
      <trkpt lat="39.960056" lon="3.210078">
        <ele>134.8</ele>
        <time>2020-05-23T19:36:25Z</time>
      </trkpt>
      <trkpt lat="39.960182" lon="3.210058">
        <ele>133.8</ele>
        <time>2020-05-23T19:36:27Z</time>
      </trkpt>
      <trkpt lat="39.9603" lon="3.210066">
        <ele>133.2</ele>
        <time>2020-05-23T19:36:28Z</time>
      </trkpt>
      <trkpt lat="39.960377" lon="3.210149">
        <ele>133.1</ele>
        <time>2020-05-23T19:36:29Z</time>
      </trkpt>
      <trkpt lat="39.960464" lon="3.21026">
        <ele>133.3</ele>
        <time>2020-05-23T19:36:30Z</time>
      </trkpt>
      <trkpt lat="39.960506" lon="3.210406">
        <ele>133.9</ele>
        <time>2020-05-23T19:36:31Z</time>
      </trkpt>
      <trkpt lat="39.960514" lon="3.210542">
        <ele>134.7</ele>
        <time>2020-05-23T19:36:32Z</time>
      </trkpt>
      <trkpt lat="39.960529" lon="3.210679">
        <ele>135.7</ele>
        <time>2020-05-23T19:36:33Z</time>
      </trkpt>
      <trkpt lat="39.96056" lon="3.210835">
        <ele>136.8</ele>
        <time>2020-05-23T19:36:34Z</time>
      </trkpt>
      <trkpt lat="39.960609" lon="3.21097">
        <ele>137.7</ele>
        <time>2020-05-23T19:36:36Z</time>
      </trkpt>
      <trkpt lat="39.960663" lon="3.21109">
        <ele>138.4</ele>
        <time>2020-05-23T19:36:37Z</time>
      </trkpt>
      <trkpt lat="39.960716" lon="3.211193">
        <ele>139.1</ele>
        <time>2020-05-23T19:36:38Z</time>
      </trkpt>
      <trkpt lat="39.960758" lon="3.211272">
        <ele>139.7</ele>
        <time>2020-05-23T19:36:39Z</time>
      </trkpt>
      <trkpt lat="39.960793" lon="3.211366">
        <ele>140.2</ele>
        <time>2020-05-23T19:36:40Z</time>
      </trkpt>
      <trkpt lat="39.960793" lon="3.211441">
        <ele>140.6</ele>
        <time>2020-05-23T19:36:41Z</time>
      </trkpt>
      <trkpt lat="39.960773" lon="3.211501">
        <ele>140.9</ele>
        <time>2020-05-23T19:36:42Z</time>
      </trkpt>
      <trkpt lat="39.960743" lon="3.211569">
        <ele>141.3</ele>
        <time>2020-05-23T19:36:43Z</time>
      </trkpt>
      <trkpt lat="39.960716" lon="3.211624">
        <ele>141.6</ele>
        <time>2020-05-23T19:36:44Z</time>
      </trkpt>
      <trkpt lat="39.960697" lon="3.211677">
        <ele>141.8</ele>
        <time>2020-05-23T19:36:46Z</time>
      </trkpt>
      <trkpt lat="39.960678" lon="3.211715">
        <ele>142.1</ele>
        <time>2020-05-23T19:36:47Z</time>
      </trkpt>
      <trkpt lat="39.960655" lon="3.211766">
        <ele>142.3</ele>
        <time>2020-05-23T19:36:48Z</time>
      </trkpt>
      <trkpt lat="39.960632" lon="3.211816">
        <ele>142.6</ele>
        <time>2020-05-23T19:36:49Z</time>
      </trkpt>
      <trkpt lat="39.960609" lon="3.21187">
        <ele>143</ele>
        <time>2020-05-23T19:36:50Z</time>
      </trkpt>
      <trkpt lat="39.960586" lon="3.211925">
        <ele>143.3</ele>
        <time>2020-05-23T19:36:51Z</time>
      </trkpt>
      <trkpt lat="39.960564" lon="3.211992">
        <ele>143.7</ele>
        <time>2020-05-23T19:36:52Z</time>
      </trkpt>
      <trkpt lat="39.960537" lon="3.21206">
        <ele>144.7</ele>
        <time>2020-05-23T19:36:53Z</time>
      </trkpt>
      <trkpt lat="39.960518" lon="3.21213">
        <ele>145.3</ele>
        <time>2020-05-23T19:36:54Z</time>
      </trkpt>
      <trkpt lat="39.960514" lon="3.212189">
        <ele>146</ele>
        <time>2020-05-23T19:36:55Z</time>
      </trkpt>
      <trkpt lat="39.960537" lon="3.21225">
        <ele>146.8</ele>
        <time>2020-05-23T19:36:57Z</time>
      </trkpt>
      <trkpt lat="39.960567" lon="3.212287">
        <ele>147.7</ele>
        <time>2020-05-23T19:36:58Z</time>
      </trkpt>
      <trkpt lat="39.960609" lon="3.212322">
        <ele>148.9</ele>
        <time>2020-05-23T19:36:59Z</time>
      </trkpt>
      <trkpt lat="39.960659" lon="3.212341">
        <ele>149.7</ele>
        <time>2020-05-23T19:37:00Z</time>
      </trkpt>
      <trkpt lat="39.960697" lon="3.212317">
        <ele>150.1</ele>
        <time>2020-05-23T19:37:01Z</time>
      </trkpt>
      <trkpt lat="39.960732" lon="3.212249">
        <ele>150.4</ele>
        <time>2020-05-23T19:37:02Z</time>
      </trkpt>
      <trkpt lat="39.960762" lon="3.212163">
        <ele>153.5</ele>
        <time>2020-05-23T19:37:03Z</time>
      </trkpt>
      <trkpt lat="39.960796" lon="3.212075">
        <ele>157.9</ele>
        <time>2020-05-23T19:37:05Z</time>
      </trkpt>
      <trkpt lat="39.960831" lon="3.212003">
        <ele>159.9</ele>
        <time>2020-05-23T19:37:06Z</time>
      </trkpt>
      <trkpt lat="39.960865" lon="3.211919">
        <ele>157.5</ele>
        <time>2020-05-23T19:37:07Z</time>
      </trkpt>
      <trkpt lat="39.960892" lon="3.21185">
        <ele>154.5</ele>
        <time>2020-05-23T19:37:08Z</time>
      </trkpt>
      <trkpt lat="39.960922" lon="3.211771">
        <ele>156</ele>
        <time>2020-05-23T19:37:09Z</time>
      </trkpt>
      <trkpt lat="39.960949" lon="3.211703">
        <ele>153.3</ele>
        <time>2020-05-23T19:37:10Z</time>
      </trkpt>
      <trkpt lat="39.960987" lon="3.211618">
        <ele>148.3</ele>
        <time>2020-05-23T19:37:11Z</time>
      </trkpt>
      <trkpt lat="39.961025" lon="3.211539">
        <ele>127.5</ele>
        <time>2020-05-23T19:37:12Z</time>
      </trkpt>
      <trkpt lat="39.961071" lon="3.211489">
        <ele>86.4</ele>
        <time>2020-05-23T19:37:14Z</time>
      </trkpt>
      <trkpt lat="39.961113" lon="3.211476">
        <ele>62</ele>
        <time>2020-05-23T19:37:15Z</time>
      </trkpt>
      <trkpt lat="39.961143" lon="3.211474">
        <ele>50.4</ele>
        <time>2020-05-23T19:37:16Z</time>
      </trkpt>
      <trkpt lat="39.961182" lon="3.211477">
        <ele>40.1</ele>
        <time>2020-05-23T19:37:17Z</time>
      </trkpt>
      <trkpt lat="39.961212" lon="3.211495">
        <ele>33.3</ele>
        <time>2020-05-23T19:37:18Z</time>
      </trkpt>
      <trkpt lat="39.961204" lon="3.211528">
        <ele>35.7</ele>
        <time>2020-05-23T19:37:19Z</time>
      </trkpt>
      <trkpt lat="39.961185" lon="3.211575">
        <ele>51.6</ele>
        <time>2020-05-23T19:37:21Z</time>
      </trkpt>
      <trkpt lat="39.961159" lon="3.211626">
        <ele>69.5</ele>
        <time>2020-05-23T19:37:22Z</time>
      </trkpt>
      <trkpt lat="39.961121" lon="3.211695">
        <ele>87.1</ele>
        <time>2020-05-23T19:37:23Z</time>
      </trkpt>
      <trkpt lat="39.961079" lon="3.211771">
        <ele>99.3</ele>
        <time>2020-05-23T19:37:24Z</time>
      </trkpt>
      <trkpt lat="39.96104" lon="3.211848">
        <ele>108.9</ele>
        <time>2020-05-23T19:37:25Z</time>
      </trkpt>
      <trkpt lat="39.96101" lon="3.21191">
        <ele>123.5</ele>
        <time>2020-05-23T19:37:26Z</time>
      </trkpt>
      <trkpt lat="39.960979" lon="3.211979">
        <ele>140.2</ele>
        <time>2020-05-23T19:37:27Z</time>
      </trkpt>
      <trkpt lat="39.960957" lon="3.212033">
        <ele>154.4</ele>
        <time>2020-05-23T19:37:28Z</time>
      </trkpt>
      <trkpt lat="39.960926" lon="3.212099">
        <ele>163.7</ele>
        <time>2020-05-23T19:37:30Z</time>
      </trkpt>
      <trkpt lat="39.960899" lon="3.212155">
        <ele>166.8</ele>
        <time>2020-05-23T19:37:31Z</time>
      </trkpt>
      <trkpt lat="39.960869" lon="3.212221">
        <ele>164.3</ele>
        <time>2020-05-23T19:37:32Z</time>
      </trkpt>
      <trkpt lat="39.96085" lon="3.212286">
        <ele>162.7</ele>
        <time>2020-05-23T19:37:33Z</time>
      </trkpt>
      <trkpt lat="39.960838" lon="3.212346">
        <ele>161.5</ele>
        <time>2020-05-23T19:37:34Z</time>
      </trkpt>
      <trkpt lat="39.960834" lon="3.212397">
        <ele>161.9</ele>
        <time>2020-05-23T19:37:35Z</time>
      </trkpt>
      <trkpt lat="39.960834" lon="3.212444">
        <ele>162.1</ele>
        <time>2020-05-23T19:37:37Z</time>
      </trkpt>
      <trkpt lat="39.960834" lon="3.212485">
        <ele>162.2</ele>
        <time>2020-05-23T19:37:38Z</time>
      </trkpt>
      <trkpt lat="39.960842" lon="3.212536">
        <ele>162.4</ele>
        <time>2020-05-23T19:37:39Z</time>
      </trkpt>
      <trkpt lat="39.960857" lon="3.212584">
        <ele>162.6</ele>
        <time>2020-05-23T19:37:40Z</time>
      </trkpt>
      <trkpt lat="39.96088" lon="3.212629">
        <ele>162.8</ele>
        <time>2020-05-23T19:37:41Z</time>
      </trkpt>
      <trkpt lat="39.960911" lon="3.212665">
        <ele>163</ele>
        <time>2020-05-23T19:37:42Z</time>
      </trkpt>
      <trkpt lat="39.960949" lon="3.212698">
        <ele>163.2</ele>
        <time>2020-05-23T19:37:44Z</time>
      </trkpt>
      <trkpt lat="39.960979" lon="3.212726">
        <ele>163.3</ele>
        <time>2020-05-23T19:37:45Z</time>
      </trkpt>
      <trkpt lat="39.96101" lon="3.212757">
        <ele>163.5</ele>
        <time>2020-05-23T19:37:46Z</time>
      </trkpt>
      <trkpt lat="39.961048" lon="3.212802">
        <ele>163.7</ele>
        <time>2020-05-23T19:37:47Z</time>
      </trkpt>
      <trkpt lat="39.96109" lon="3.212851">
        <ele>163.9</ele>
        <time>2020-05-23T19:37:48Z</time>
      </trkpt>
      <trkpt lat="39.961143" lon="3.212897">
        <ele>164.2</ele>
        <time>2020-05-23T19:37:49Z</time>
      </trkpt>
      <trkpt lat="39.961204" lon="3.212927">
        <ele>164.5</ele>
        <time>2020-05-23T19:37:50Z</time>
      </trkpt>
      <trkpt lat="39.961277" lon="3.212923">
        <ele>164.9</ele>
        <time>2020-05-23T19:37:52Z</time>
      </trkpt>
      <trkpt lat="39.961349" lon="3.212899">
        <ele>165.2</ele>
        <time>2020-05-23T19:37:53Z</time>
      </trkpt>
      <trkpt lat="39.961376" lon="3.212835">
        <ele>166.2</ele>
        <time>2020-05-23T19:37:54Z</time>
      </trkpt>
      <trkpt lat="39.961338" lon="3.212756">
        <ele>166.5</ele>
        <time>2020-05-23T19:37:55Z</time>
      </trkpt>
      <trkpt lat="39.961288" lon="3.212688">
        <ele>166.8</ele>
        <time>2020-05-23T19:37:56Z</time>
      </trkpt>
      <trkpt lat="39.961243" lon="3.212626">
        <ele>167.1</ele>
        <time>2020-05-23T19:37:57Z</time>
      </trkpt>
      <trkpt lat="39.961201" lon="3.212565">
        <ele>167.3</ele>
        <time>2020-05-23T19:37:59Z</time>
      </trkpt>
      <trkpt lat="39.961166" lon="3.212512">
        <ele>167.6</ele>
        <time>2020-05-23T19:38:00Z</time>
      </trkpt>
      <trkpt lat="39.961132" lon="3.212444">
        <ele>167.8</ele>
        <time>2020-05-23T19:38:01Z</time>
      </trkpt>
      <trkpt lat="39.961124" lon="3.212365">
        <ele>168</ele>
        <time>2020-05-23T19:38:02Z</time>
      </trkpt>
      <trkpt lat="39.961143" lon="3.212287">
        <ele>168.5</ele>
        <time>2020-05-23T19:38:03Z</time>
      </trkpt>
      <trkpt lat="39.961166" lon="3.212214">
        <ele>168.7</ele>
        <time>2020-05-23T19:38:04Z</time>
      </trkpt>
      <trkpt lat="39.961201" lon="3.212149">
        <ele>168.9</ele>
        <time>2020-05-23T19:38:06Z</time>
      </trkpt>
      <trkpt lat="39.961243" lon="3.212107">
        <ele>23</ele>
        <time>2020-05-23T19:38:07Z</time>
      </trkpt>
      <trkpt lat="39.961288" lon="3.212079">
        <ele>35.6</ele>
        <time>2020-05-23T19:38:08Z</time>
      </trkpt>
      <trkpt lat="39.961311" lon="3.212061">
        <ele>42.3</ele>
        <time>2020-05-23T19:38:09Z</time>
      </trkpt>
      <trkpt lat="39.961319" lon="3.212055">
        <ele>44.7</ele>
        <time>2020-05-23T19:38:10Z</time>
      </trkpt>
      <trkpt lat="39.961254" lon="3.212061">
        <ele>61.1</ele>
        <time>2020-05-23T19:38:11Z</time>
      </trkpt>
      <trkpt lat="39.961243" lon="3.212074">
        <ele>64.8</ele>
        <time>2020-05-23T19:38:12Z</time>
      </trkpt>
      <trkpt lat="39.961216" lon="3.212095">
        <ele>72.8</ele>
        <time>2020-05-23T19:38:13Z</time>
      </trkpt>
      <trkpt lat="39.961189" lon="3.212126">
        <ele>81.8</ele>
        <time>2020-05-23T19:38:14Z</time>
      </trkpt>
      <trkpt lat="39.961159" lon="3.21217">
        <ele>168.9</ele>
        <time>2020-05-23T19:38:15Z</time>
      </trkpt>
      <trkpt lat="39.961136" lon="3.212226">
        <ele>168.9</ele>
        <time>2020-05-23T19:38:17Z</time>
      </trkpt>
      <trkpt lat="39.961113" lon="3.212291">
        <ele>168.5</ele>
        <time>2020-05-23T19:38:18Z</time>
      </trkpt>
      <trkpt lat="39.961098" lon="3.212364">
        <ele>168.5</ele>
        <time>2020-05-23T19:38:19Z</time>
      </trkpt>
      <trkpt lat="39.961098" lon="3.212444">
        <ele>167.8</ele>
        <time>2020-05-23T19:38:20Z</time>
      </trkpt>
      <trkpt lat="39.961128" lon="3.212515">
        <ele>167.5</ele>
        <time>2020-05-23T19:38:21Z</time>
      </trkpt>
      <trkpt lat="39.961159" lon="3.212567">
        <ele>167.2</ele>
        <time>2020-05-23T19:38:22Z</time>
      </trkpt>
      <trkpt lat="39.961201" lon="3.212628">
        <ele>166.9</ele>
        <time>2020-05-23T19:38:24Z</time>
      </trkpt>
      <trkpt lat="39.961243" lon="3.212686">
        <ele>166.5</ele>
        <time>2020-05-23T19:38:25Z</time>
      </trkpt>
      <trkpt lat="39.961288" lon="3.212744">
        <ele>166.2</ele>
        <time>2020-05-23T19:38:26Z</time>
      </trkpt>
      <trkpt lat="39.961323" lon="3.212794">
        <ele>165.5</ele>
        <time>2020-05-23T19:38:27Z</time>
      </trkpt>
      <trkpt lat="39.961334" lon="3.212863">
        <ele>165.2</ele>
        <time>2020-05-23T19:38:28Z</time>
      </trkpt>
      <trkpt lat="39.961266" lon="3.212883">
        <ele>164.9</ele>
        <time>2020-05-23T19:38:29Z</time>
      </trkpt>
      <trkpt lat="39.961201" lon="3.21288">
        <ele>164.5</ele>
        <time>2020-05-23T19:38:30Z</time>
      </trkpt>
      <trkpt lat="39.961128" lon="3.212827">
        <ele>164.2</ele>
        <time>2020-05-23T19:38:32Z</time>
      </trkpt>
      <trkpt lat="39.96106" lon="3.212742">
        <ele>163.7</ele>
        <time>2020-05-23T19:38:33Z</time>
      </trkpt>
      <trkpt lat="39.960979" lon="3.212653">
        <ele>163.3</ele>
        <time>2020-05-23T19:38:34Z</time>
      </trkpt>
      <trkpt lat="39.960899" lon="3.21254">
        <ele>162.8</ele>
        <time>2020-05-23T19:38:35Z</time>
      </trkpt>
      <trkpt lat="39.960892" lon="3.21239">
        <ele>162.2</ele>
        <time>2020-05-23T19:38:36Z</time>
      </trkpt>
      <trkpt lat="39.960937" lon="3.212207">
        <ele>164.6</ele>
        <time>2020-05-23T19:38:37Z</time>
      </trkpt>
      <trkpt lat="39.960991" lon="3.212078">
        <ele>147.9</ele>
        <time>2020-05-23T19:38:38Z</time>
      </trkpt>
      <trkpt lat="39.961048" lon="3.211936">
        <ele>109.3</ele>
        <time>2020-05-23T19:38:40Z</time>
      </trkpt>
      <trkpt lat="39.961109" lon="3.211806">
        <ele>80.9</ele>
        <time>2020-05-23T19:38:41Z</time>
      </trkpt>
      <trkpt lat="39.961166" lon="3.21169">
        <ele>72</ele>
        <time>2020-05-23T19:38:42Z</time>
      </trkpt>
      <trkpt lat="39.961212" lon="3.211601">
        <ele>40</ele>
        <time>2020-05-23T19:38:43Z</time>
      </trkpt>
      <trkpt lat="39.961239" lon="3.211513">
        <ele>26.4</ele>
        <time>2020-05-23T19:38:44Z</time>
      </trkpt>
      <trkpt lat="39.961178" lon="3.211439">
        <ele>37.2</ele>
        <time>2020-05-23T19:38:45Z</time>
      </trkpt>
      <trkpt lat="39.96106" lon="3.211462">
        <ele>90.2</ele>
        <time>2020-05-23T19:38:46Z</time>
      </trkpt>
      <trkpt lat="39.960972" lon="3.211596">
        <ele>148.5</ele>
        <time>2020-05-23T19:38:48Z</time>
      </trkpt>
      <trkpt lat="39.960915" lon="3.211735">
        <ele>161.8</ele>
        <time>2020-05-23T19:38:49Z</time>
      </trkpt>
      <trkpt lat="39.960869" lon="3.211863">
        <ele>158.7</ele>
        <time>2020-05-23T19:38:50Z</time>
      </trkpt>
      <trkpt lat="39.960827" lon="3.211961">
        <ele>160.2</ele>
        <time>2020-05-23T19:38:51Z</time>
      </trkpt>
      <trkpt lat="39.960773" lon="3.212068">
        <ele>156.2</ele>
        <time>2020-05-23T19:38:52Z</time>
      </trkpt>
      <trkpt lat="39.960728" lon="3.212175">
        <ele>151.5</ele>
        <time>2020-05-23T19:38:53Z</time>
      </trkpt>
      <trkpt lat="39.96069" lon="3.212273">
        <ele>149.8</ele>
        <time>2020-05-23T19:38:55Z</time>
      </trkpt>
      <trkpt lat="39.960613" lon="3.212275">
        <ele>148.4</ele>
        <time>2020-05-23T19:38:56Z</time>
      </trkpt>
      <trkpt lat="39.960552" lon="3.212193">
        <ele>146.2</ele>
        <time>2020-05-23T19:38:57Z</time>
      </trkpt>
      <trkpt lat="39.960583" lon="3.212063">
        <ele>143.6</ele>
        <time>2020-05-23T19:38:58Z</time>
      </trkpt>
      <trkpt lat="39.96064" lon="3.211935">
        <ele>143.2</ele>
        <time>2020-05-23T19:38:59Z</time>
      </trkpt>
      <trkpt lat="39.960716" lon="3.211779">
        <ele>142.1</ele>
        <time>2020-05-23T19:39:00Z</time>
      </trkpt>
      <trkpt lat="39.960785" lon="3.211613">
        <ele>141</ele>
        <time>2020-05-23T19:39:01Z</time>
      </trkpt>
      <trkpt lat="39.96085" lon="3.211445">
        <ele>140</ele>
        <time>2020-05-23T19:39:03Z</time>
      </trkpt>
      <trkpt lat="39.960815" lon="3.211261">
        <ele>139.1</ele>
        <time>2020-05-23T19:39:04Z</time>
      </trkpt>
      <trkpt lat="39.960743" lon="3.211118">
        <ele>138.2</ele>
        <time>2020-05-23T19:39:05Z</time>
      </trkpt>
      <trkpt lat="39.960659" lon="3.21094">
        <ele>137.2</ele>
        <time>2020-05-23T19:39:06Z</time>
      </trkpt>
      <trkpt lat="39.960602" lon="3.210789">
        <ele>136.2</ele>
        <time>2020-05-23T19:39:07Z</time>
      </trkpt>
      <trkpt lat="39.960567" lon="3.210605">
        <ele>134.9</ele>
        <time>2020-05-23T19:39:08Z</time>
      </trkpt>
      <trkpt lat="39.960552" lon="3.210435">
        <ele>134</ele>
        <time>2020-05-23T19:39:09Z</time>
      </trkpt>
      <trkpt lat="39.960533" lon="3.210308">
        <ele>133.5</ele>
        <time>2020-05-23T19:39:10Z</time>
      </trkpt>
      <trkpt lat="39.960464" lon="3.210198">
        <ele>133.1</ele>
        <time>2020-05-23T19:39:12Z</time>
      </trkpt>
      <trkpt lat="39.960396" lon="3.210114">
        <ele>133.1</ele>
        <time>2020-05-23T19:39:13Z</time>
      </trkpt>
      <trkpt lat="39.960335" lon="3.210039">
        <ele>133.2</ele>
        <time>2020-05-23T19:39:14Z</time>
      </trkpt>
      <trkpt lat="39.960266" lon="3.210004">
        <ele>133.5</ele>
        <time>2020-05-23T19:39:15Z</time>
      </trkpt>
      <trkpt lat="39.960205" lon="3.210007">
        <ele>133.8</ele>
        <time>2020-05-23T19:39:16Z</time>
      </trkpt>
      <trkpt lat="39.960152" lon="3.210016">
        <ele>134.2</ele>
        <time>2020-05-23T19:39:17Z</time>
      </trkpt>
      <trkpt lat="39.960087" lon="3.210026">
        <ele>134.7</ele>
        <time>2020-05-23T19:39:18Z</time>
      </trkpt>
      <trkpt lat="39.96003" lon="3.210043">
        <ele>135.2</ele>
        <time>2020-05-23T19:39:20Z</time>
      </trkpt>
      <trkpt lat="39.959976" lon="3.210072">
        <ele>135.7</ele>
        <time>2020-05-23T19:39:21Z</time>
      </trkpt>
      <trkpt lat="39.959942" lon="3.210099">
        <ele>136.1</ele>
        <time>2020-05-23T19:39:22Z</time>
      </trkpt>
      <trkpt lat="39.959904" lon="3.21013">
        <ele>136.5</ele>
        <time>2020-05-23T19:39:23Z</time>
      </trkpt>
      <trkpt lat="39.959877" lon="3.210154">
        <ele>136.7</ele>
        <time>2020-05-23T19:39:24Z</time>
      </trkpt>
      <trkpt lat="39.95985" lon="3.210179">
        <ele>137</ele>
        <time>2020-05-23T19:39:25Z</time>
      </trkpt>
      <trkpt lat="39.959824" lon="3.210202">
        <ele>137.3</ele>
        <time>2020-05-23T19:39:26Z</time>
      </trkpt>
      <trkpt lat="39.959801" lon="3.210221">
        <ele>137.5</ele>
        <time>2020-05-23T19:39:27Z</time>
      </trkpt>
      <trkpt lat="39.959778" lon="3.210243">
        <ele>137.8</ele>
        <time>2020-05-23T19:39:29Z</time>
      </trkpt>
      <trkpt lat="39.959759" lon="3.210262">
        <ele>138</ele>
        <time>2020-05-23T19:39:30Z</time>
      </trkpt>
      <trkpt lat="39.95974" lon="3.210282">
        <ele>138.2</ele>
        <time>2020-05-23T19:39:31Z</time>
      </trkpt>
      <trkpt lat="39.959721" lon="3.210304">
        <ele>138.4</ele>
        <time>2020-05-23T19:39:32Z</time>
      </trkpt>
      <trkpt lat="39.959702" lon="3.210327">
        <ele>138.6</ele>
        <time>2020-05-23T19:39:33Z</time>
      </trkpt>
      <trkpt lat="39.959686" lon="3.21035">
        <ele>138.7</ele>
        <time>2020-05-23T19:39:34Z</time>
      </trkpt>
      <trkpt lat="39.959671" lon="3.210373">
        <ele>138.9</ele>
        <time>2020-05-23T19:39:35Z</time>
      </trkpt>
      <trkpt lat="39.959656" lon="3.210392">
        <ele>139.1</ele>
        <time>2020-05-23T19:39:36Z</time>
      </trkpt>
      <trkpt lat="39.95964" lon="3.210415">
        <ele>139.4</ele>
        <time>2020-05-23T19:39:38Z</time>
      </trkpt>
      <trkpt lat="39.959629" lon="3.210434">
        <ele>139.5</ele>
        <time>2020-05-23T19:39:39Z</time>
      </trkpt>
      <trkpt lat="39.959618" lon="3.210456">
        <ele>139.7</ele>
        <time>2020-05-23T19:39:40Z</time>
      </trkpt>
      <trkpt lat="39.959602" lon="3.210479">
        <ele>139.9</ele>
        <time>2020-05-23T19:39:41Z</time>
      </trkpt>
      <trkpt lat="39.959587" lon="3.210502">
        <ele>140.1</ele>
        <time>2020-05-23T19:39:42Z</time>
      </trkpt>
      <trkpt lat="39.959576" lon="3.210522">
        <ele>140.2</ele>
        <time>2020-05-23T19:39:43Z</time>
      </trkpt>
      <trkpt lat="39.95956" lon="3.210548">
        <ele>140.4</ele>
        <time>2020-05-23T19:39:44Z</time>
      </trkpt>
      <trkpt lat="39.959549" lon="3.210568">
        <ele>140.6</ele>
        <time>2020-05-23T19:39:45Z</time>
      </trkpt>
      <trkpt lat="39.959541" lon="3.210588">
        <ele>140.7</ele>
        <time>2020-05-23T19:39:46Z</time>
      </trkpt>
      <trkpt lat="39.95953" lon="3.210611">
        <ele>140.9</ele>
        <time>2020-05-23T19:39:48Z</time>
      </trkpt>
      <trkpt lat="39.959518" lon="3.210633">
        <ele>141.1</ele>
        <time>2020-05-23T19:39:49Z</time>
      </trkpt>
      <trkpt lat="39.959507" lon="3.210653">
        <ele>141.2</ele>
        <time>2020-05-23T19:39:50Z</time>
      </trkpt>
      <trkpt lat="39.959499" lon="3.210669">
        <ele>141.4</ele>
        <time>2020-05-23T19:39:51Z</time>
      </trkpt>
      <trkpt lat="39.959488" lon="3.210688">
        <ele>141.5</ele>
        <time>2020-05-23T19:39:52Z</time>
      </trkpt>
      <trkpt lat="39.95948" lon="3.210706">
        <ele>141.7</ele>
        <time>2020-05-23T19:39:53Z</time>
      </trkpt>
      <trkpt lat="39.959469" lon="3.210724">
        <ele>141.8</ele>
        <time>2020-05-23T19:39:55Z</time>
      </trkpt>
      <trkpt lat="39.959461" lon="3.210741">
        <ele>142</ele>
        <time>2020-05-23T19:39:56Z</time>
      </trkpt>
      <trkpt lat="39.95945" lon="3.210758">
        <ele>142.1</ele>
        <time>2020-05-23T19:39:57Z</time>
      </trkpt>
      <trkpt lat="39.959442" lon="3.210777">
        <ele>142.3</ele>
        <time>2020-05-23T19:39:58Z</time>
      </trkpt>
      <trkpt lat="39.959431" lon="3.210795">
        <ele>142.4</ele>
        <time>2020-05-23T19:39:59Z</time>
      </trkpt>
      <trkpt lat="39.959423" lon="3.210814">
        <ele>142.6</ele>
        <time>2020-05-23T19:40:01Z</time>
      </trkpt>
      <trkpt lat="39.959415" lon="3.21083">
        <ele>142.7</ele>
        <time>2020-05-23T19:40:02Z</time>
      </trkpt>
      <trkpt lat="39.959404" lon="3.210849">
        <ele>142.9</ele>
        <time>2020-05-23T19:40:03Z</time>
      </trkpt>
      <trkpt lat="39.959396" lon="3.210869">
        <ele>143.1</ele>
        <time>2020-05-23T19:40:04Z</time>
      </trkpt>
      <trkpt lat="39.959389" lon="3.210885">
        <ele>143.2</ele>
        <time>2020-05-23T19:40:05Z</time>
      </trkpt>
      <trkpt lat="39.959381" lon="3.210901">
        <ele>143.3</ele>
        <time>2020-05-23T19:40:06Z</time>
      </trkpt>
      <trkpt lat="39.959373" lon="3.21092">
        <ele>143.5</ele>
        <time>2020-05-23T19:40:07Z</time>
      </trkpt>
      <trkpt lat="39.959366" lon="3.210935">
        <ele>143.6</ele>
        <time>2020-05-23T19:40:08Z</time>
      </trkpt>
      <trkpt lat="39.959354" lon="3.210951">
        <ele>143.8</ele>
        <time>2020-05-23T19:40:09Z</time>
      </trkpt>
      <trkpt lat="39.959347" lon="3.210967">
        <ele>144</ele>
        <time>2020-05-23T19:40:11Z</time>
      </trkpt>
      <trkpt lat="39.959339" lon="3.21098">
        <ele>144.1</ele>
        <time>2020-05-23T19:40:12Z</time>
      </trkpt>
      <trkpt lat="39.959331" lon="3.210992">
        <ele>144.2</ele>
        <time>2020-05-23T19:40:13Z</time>
      </trkpt>
      <trkpt lat="39.959324" lon="3.211004">
        <ele>144.3</ele>
        <time>2020-05-23T19:40:14Z</time>
      </trkpt>
      <trkpt lat="39.959312" lon="3.211018">
        <ele>144.5</ele>
        <time>2020-05-23T19:40:15Z</time>
      </trkpt>
      <trkpt lat="39.959301" lon="3.211032">
        <ele>144.7</ele>
        <time>2020-05-23T19:40:16Z</time>
      </trkpt>
      <trkpt lat="39.959286" lon="3.21105">
        <ele>144.9</ele>
        <time>2020-05-23T19:40:17Z</time>
      </trkpt>
      <trkpt lat="39.959267" lon="3.211074">
        <ele>145.2</ele>
        <time>2020-05-23T19:40:18Z</time>
      </trkpt>
      <trkpt lat="39.959244" lon="3.211103">
        <ele>145.6</ele>
        <time>2020-05-23T19:40:20Z</time>
      </trkpt>
      <trkpt lat="39.959221" lon="3.211129">
        <ele>145.9</ele>
        <time>2020-05-23T19:40:21Z</time>
      </trkpt>
      <trkpt lat="39.959198" lon="3.211156">
        <ele>146.3</ele>
        <time>2020-05-23T19:40:22Z</time>
      </trkpt>
      <trkpt lat="39.959175" lon="3.211183">
        <ele>146.6</ele>
        <time>2020-05-23T19:40:23Z</time>
      </trkpt>
      <trkpt lat="39.959148" lon="3.21121">
        <ele>147</ele>
        <time>2020-05-23T19:40:24Z</time>
      </trkpt>
      <trkpt lat="39.959125" lon="3.211232">
        <ele>147.4</ele>
        <time>2020-05-23T19:40:25Z</time>
      </trkpt>
      <trkpt lat="39.959091" lon="3.211257">
        <ele>147.8</ele>
        <time>2020-05-23T19:40:26Z</time>
      </trkpt>
      <trkpt lat="39.959053" lon="3.211279">
        <ele>148.4</ele>
        <time>2020-05-23T19:40:28Z</time>
      </trkpt>
      <trkpt lat="39.959015" lon="3.211295">
        <ele>148.8</ele>
        <time>2020-05-23T19:40:29Z</time>
      </trkpt>
      <trkpt lat="39.958973" lon="3.211313">
        <ele>149.4</ele>
        <time>2020-05-23T19:40:30Z</time>
      </trkpt>
      <trkpt lat="39.958935" lon="3.211327">
        <ele>149.8</ele>
        <time>2020-05-23T19:40:31Z</time>
      </trkpt>
      <trkpt lat="39.958893" lon="3.211343">
        <ele>150.3</ele>
        <time>2020-05-23T19:40:32Z</time>
      </trkpt>
      <trkpt lat="39.958847" lon="3.211357">
        <ele>150.8</ele>
        <time>2020-05-23T19:40:33Z</time>
      </trkpt>
      <trkpt lat="39.958813" lon="3.211366">
        <ele>151.1</ele>
        <time>2020-05-23T19:40:34Z</time>
      </trkpt>
      <trkpt lat="39.958771" lon="3.211376">
        <ele>151.5</ele>
        <time>2020-05-23T19:40:35Z</time>
      </trkpt>
      <trkpt lat="39.958725" lon="3.211384">
        <ele>151.9</ele>
        <time>2020-05-23T19:40:37Z</time>
      </trkpt>
      <trkpt lat="39.958679" lon="3.211392">
        <ele>152.2</ele>
        <time>2020-05-23T19:40:38Z</time>
      </trkpt>
      <trkpt lat="39.95863" lon="3.2114">
        <ele>152.6</ele>
        <time>2020-05-23T19:40:39Z</time>
      </trkpt>
      <trkpt lat="39.958584" lon="3.211407">
        <ele>152.9</ele>
        <time>2020-05-23T19:40:40Z</time>
      </trkpt>
      <trkpt lat="39.958534" lon="3.211415">
        <ele>153.3</ele>
        <time>2020-05-23T19:40:41Z</time>
      </trkpt>
      <trkpt lat="39.958496" lon="3.211426">
        <ele>153.5</ele>
        <time>2020-05-23T19:40:42Z</time>
      </trkpt>
      <trkpt lat="39.958454" lon="3.211439">
        <ele>153.9</ele>
        <time>2020-05-23T19:40:43Z</time>
      </trkpt>
      <trkpt lat="39.958416" lon="3.211455">
        <ele>154.2</ele>
        <time>2020-05-23T19:40:44Z</time>
      </trkpt>
      <trkpt lat="39.958378" lon="3.211472">
        <ele>154.5</ele>
        <time>2020-05-23T19:40:45Z</time>
      </trkpt>
      <trkpt lat="39.958332" lon="3.211493">
        <ele>154.9</ele>
        <time>2020-05-23T19:40:47Z</time>
      </trkpt>
      <trkpt lat="39.958286" lon="3.211512">
        <ele>155.4</ele>
        <time>2020-05-23T19:40:48Z</time>
      </trkpt>
      <trkpt lat="39.958244" lon="3.211531">
        <ele>155.8</ele>
        <time>2020-05-23T19:40:49Z</time>
      </trkpt>
      <trkpt lat="39.958198" lon="3.21155">
        <ele>156.3</ele>
        <time>2020-05-23T19:40:50Z</time>
      </trkpt>
      <trkpt lat="39.958164" lon="3.211566">
        <ele>156.7</ele>
        <time>2020-05-23T19:40:51Z</time>
      </trkpt>
      <trkpt lat="39.95813" lon="3.211583">
        <ele>157.1</ele>
        <time>2020-05-23T19:40:52Z</time>
      </trkpt>
      <trkpt lat="39.958095" lon="3.211602">
        <ele>157.4</ele>
        <time>2020-05-23T19:40:53Z</time>
      </trkpt>
      <trkpt lat="39.958065" lon="3.211617">
        <ele>157.8</ele>
        <time>2020-05-23T19:40:54Z</time>
      </trkpt>
      <trkpt lat="39.958027" lon="3.211637">
        <ele>158.2</ele>
        <time>2020-05-23T19:40:56Z</time>
      </trkpt>
      <trkpt lat="39.957996" lon="3.211653">
        <ele>158.5</ele>
        <time>2020-05-23T19:40:57Z</time>
      </trkpt>
      <trkpt lat="39.957962" lon="3.211675">
        <ele>158.9</ele>
        <time>2020-05-23T19:40:58Z</time>
      </trkpt>
      <trkpt lat="39.957935" lon="3.211693">
        <ele>159.2</ele>
        <time>2020-05-23T19:40:59Z</time>
      </trkpt>
      <trkpt lat="39.957901" lon="3.211713">
        <ele>159.6</ele>
        <time>2020-05-23T19:41:00Z</time>
      </trkpt>
      <trkpt lat="39.957867" lon="3.211733">
        <ele>160</ele>
        <time>2020-05-23T19:41:01Z</time>
      </trkpt>
      <trkpt lat="39.957829" lon="3.211751">
        <ele>160.4</ele>
        <time>2020-05-23T19:41:02Z</time>
      </trkpt>
      <trkpt lat="39.957798" lon="3.211766">
        <ele>160.8</ele>
        <time>2020-05-23T19:41:03Z</time>
      </trkpt>
      <trkpt lat="39.957767" lon="3.21178">
        <ele>161.1</ele>
        <time>2020-05-23T19:41:04Z</time>
      </trkpt>
      <trkpt lat="39.957725" lon="3.211798">
        <ele>161.6</ele>
        <time>2020-05-23T19:41:06Z</time>
      </trkpt>
      <trkpt lat="39.957687" lon="3.211817">
        <ele>162.1</ele>
        <time>2020-05-23T19:41:07Z</time>
      </trkpt>
      <trkpt lat="39.957645" lon="3.211836">
        <ele>162.6</ele>
        <time>2020-05-23T19:41:08Z</time>
      </trkpt>
      <trkpt lat="39.957603" lon="3.211853">
        <ele>163.1</ele>
        <time>2020-05-23T19:41:09Z</time>
      </trkpt>
      <trkpt lat="39.957554" lon="3.211863">
        <ele>163.7</ele>
        <time>2020-05-23T19:41:10Z</time>
      </trkpt>
      <trkpt lat="39.957516" lon="3.211865">
        <ele>164.2</ele>
        <time>2020-05-23T19:41:11Z</time>
      </trkpt>
      <trkpt lat="39.957474" lon="3.211864">
        <ele>164.8</ele>
        <time>2020-05-23T19:41:12Z</time>
      </trkpt>
      <trkpt lat="39.957432" lon="3.211862">
        <ele>165.3</ele>
        <time>2020-05-23T19:41:13Z</time>
      </trkpt>
      <trkpt lat="39.957386" lon="3.211859">
        <ele>165.9</ele>
        <time>2020-05-23T19:41:15Z</time>
      </trkpt>
      <trkpt lat="39.957344" lon="3.211856">
        <ele>166.4</ele>
        <time>2020-05-23T19:41:16Z</time>
      </trkpt>
      <trkpt lat="39.957298" lon="3.21185">
        <ele>166.9</ele>
        <time>2020-05-23T19:41:17Z</time>
      </trkpt>
      <trkpt lat="39.957249" lon="3.211842">
        <ele>167.4</ele>
        <time>2020-05-23T19:41:18Z</time>
      </trkpt>
      <trkpt lat="39.957199" lon="3.211835">
        <ele>168</ele>
        <time>2020-05-23T19:41:19Z</time>
      </trkpt>
      <trkpt lat="39.957146" lon="3.211827">
        <ele>168.5</ele>
        <time>2020-05-23T19:41:20Z</time>
      </trkpt>
      <trkpt lat="39.957096" lon="3.21182">
        <ele>169</ele>
        <time>2020-05-23T19:41:22Z</time>
      </trkpt>
      <trkpt lat="39.957046" lon="3.211813">
        <ele>169.4</ele>
        <time>2020-05-23T19:41:23Z</time>
      </trkpt>
      <trkpt lat="39.956997" lon="3.211806">
        <ele>169.8</ele>
        <time>2020-05-23T19:41:24Z</time>
      </trkpt>
      <trkpt lat="39.956947" lon="3.211799">
        <ele>170.2</ele>
        <time>2020-05-23T19:41:25Z</time>
      </trkpt>
      <trkpt lat="39.956905" lon="3.211793">
        <ele>170.5</ele>
        <time>2020-05-23T19:41:26Z</time>
      </trkpt>
      <trkpt lat="39.95686" lon="3.211785">
        <ele>170.9</ele>
        <time>2020-05-23T19:41:27Z</time>
      </trkpt>
      <trkpt lat="39.956814" lon="3.211777">
        <ele>171.2</ele>
        <time>2020-05-23T19:41:29Z</time>
      </trkpt>
      <trkpt lat="39.956776" lon="3.21177">
        <ele>171.5</ele>
        <time>2020-05-23T19:41:30Z</time>
      </trkpt>
      <trkpt lat="39.956737" lon="3.211761">
        <ele>171.9</ele>
        <time>2020-05-23T19:41:31Z</time>
      </trkpt>
      <trkpt lat="39.956688" lon="3.211751">
        <ele>172.3</ele>
        <time>2020-05-23T19:41:32Z</time>
      </trkpt>
      <trkpt lat="39.956642" lon="3.211744">
        <ele>172.8</ele>
        <time>2020-05-23T19:41:33Z</time>
      </trkpt>
      <trkpt lat="39.956604" lon="3.211744">
        <ele>173.2</ele>
        <time>2020-05-23T19:41:34Z</time>
      </trkpt>
      <trkpt lat="39.956566" lon="3.211747">
        <ele>173.6</ele>
        <time>2020-05-23T19:41:35Z</time>
      </trkpt>
      <trkpt lat="39.956528" lon="3.211755">
        <ele>174</ele>
        <time>2020-05-23T19:41:36Z</time>
      </trkpt>
      <trkpt lat="39.956486" lon="3.211763">
        <ele>174.4</ele>
        <time>2020-05-23T19:41:37Z</time>
      </trkpt>
      <trkpt lat="39.95644" lon="3.211773">
        <ele>174.9</ele>
        <time>2020-05-23T19:41:39Z</time>
      </trkpt>
      <trkpt lat="39.956398" lon="3.211784">
        <ele>175.4</ele>
        <time>2020-05-23T19:41:40Z</time>
      </trkpt>
      <trkpt lat="39.956352" lon="3.211797">
        <ele>175.9</ele>
        <time>2020-05-23T19:41:41Z</time>
      </trkpt>
      <trkpt lat="39.95631" lon="3.211813">
        <ele>176.3</ele>
        <time>2020-05-23T19:41:42Z</time>
      </trkpt>
      <trkpt lat="39.956272" lon="3.211829">
        <ele>176.8</ele>
        <time>2020-05-23T19:41:43Z</time>
      </trkpt>
      <trkpt lat="39.95623" lon="3.21185">
        <ele>177.2</ele>
        <time>2020-05-23T19:41:44Z</time>
      </trkpt>
      <trkpt lat="39.956188" lon="3.211873">
        <ele>177.7</ele>
        <time>2020-05-23T19:41:46Z</time>
      </trkpt>
      <trkpt lat="39.95615" lon="3.211892">
        <ele>178.2</ele>
        <time>2020-05-23T19:41:47Z</time>
      </trkpt>
      <trkpt lat="39.956108" lon="3.211918">
        <ele>178.7</ele>
        <time>2020-05-23T19:41:48Z</time>
      </trkpt>
      <trkpt lat="39.956062" lon="3.211944">
        <ele>179.2</ele>
        <time>2020-05-23T19:41:49Z</time>
      </trkpt>
      <trkpt lat="39.95602" lon="3.211971">
        <ele>179.7</ele>
        <time>2020-05-23T19:41:50Z</time>
      </trkpt>
      <trkpt lat="39.955975" lon="3.211995">
        <ele>180.2</ele>
        <time>2020-05-23T19:41:51Z</time>
      </trkpt>
      <trkpt lat="39.955936" lon="3.212012">
        <ele>180.7</ele>
        <time>2020-05-23T19:41:52Z</time>
      </trkpt>
      <trkpt lat="39.955891" lon="3.212031">
        <ele>181.2</ele>
        <time>2020-05-23T19:41:54Z</time>
      </trkpt>
      <trkpt lat="39.955849" lon="3.212048">
        <ele>181.7</ele>
        <time>2020-05-23T19:41:55Z</time>
      </trkpt>
      <trkpt lat="39.955803" lon="3.212072">
        <ele>182.2</ele>
        <time>2020-05-23T19:41:56Z</time>
      </trkpt>
      <trkpt lat="39.955765" lon="3.212093">
        <ele>182.7</ele>
        <time>2020-05-23T19:41:57Z</time>
      </trkpt>
      <trkpt lat="39.955715" lon="3.212113">
        <ele>183.3</ele>
        <time>2020-05-23T19:41:58Z</time>
      </trkpt>
      <trkpt lat="39.955669" lon="3.212114">
        <ele>183.8</ele>
        <time>2020-05-23T19:41:59Z</time>
      </trkpt>
      <trkpt lat="39.955635" lon="3.212103">
        <ele>184.2</ele>
        <time>2020-05-23T19:42:00Z</time>
      </trkpt>
      <trkpt lat="39.955601" lon="3.212087">
        <ele>184.6</ele>
        <time>2020-05-23T19:42:01Z</time>
      </trkpt>
      <trkpt lat="39.955563" lon="3.212066">
        <ele>185.1</ele>
        <time>2020-05-23T19:42:02Z</time>
      </trkpt>
      <trkpt lat="39.955528" lon="3.212048">
        <ele>185.6</ele>
        <time>2020-05-23T19:42:03Z</time>
      </trkpt>
      <trkpt lat="39.955486" lon="3.212019">
        <ele>186.1</ele>
        <time>2020-05-23T19:42:05Z</time>
      </trkpt>
      <trkpt lat="39.95546" lon="3.211983">
        <ele>186.6</ele>
        <time>2020-05-23T19:42:06Z</time>
      </trkpt>
      <trkpt lat="39.955456" lon="3.211937">
        <ele>187</ele>
        <time>2020-05-23T19:42:07Z</time>
      </trkpt>
      <trkpt lat="39.955471" lon="3.211892">
        <ele>187.5</ele>
        <time>2020-05-23T19:42:08Z</time>
      </trkpt>
      <trkpt lat="39.955494" lon="3.211841">
        <ele>187.1</ele>
        <time>2020-05-23T19:42:09Z</time>
      </trkpt>
      <trkpt lat="39.955521" lon="3.211791">
        <ele>186.5</ele>
        <time>2020-05-23T19:42:10Z</time>
      </trkpt>
      <trkpt lat="39.955555" lon="3.211749">
        <ele>185.9</ele>
        <time>2020-05-23T19:42:11Z</time>
      </trkpt>
      <trkpt lat="39.955605" lon="3.211713">
        <ele>185.2</ele>
        <time>2020-05-23T19:42:12Z</time>
      </trkpt>
      <trkpt lat="39.955654" lon="3.21168">
        <ele>184.5</ele>
        <time>2020-05-23T19:42:14Z</time>
      </trkpt>
      <trkpt lat="39.955704" lon="3.211646">
        <ele>183.7</ele>
        <time>2020-05-23T19:42:15Z</time>
      </trkpt>
      <trkpt lat="39.955757" lon="3.211611">
        <ele>183</ele>
        <time>2020-05-23T19:42:16Z</time>
      </trkpt>
      <trkpt lat="39.955807" lon="3.211575">
        <ele>182.3</ele>
        <time>2020-05-23T19:42:17Z</time>
      </trkpt>
      <trkpt lat="39.955856" lon="3.211537">
        <ele>181.6</ele>
        <time>2020-05-23T19:42:18Z</time>
      </trkpt>
      <trkpt lat="39.955894" lon="3.211506">
        <ele>181.1</ele>
        <time>2020-05-23T19:42:19Z</time>
      </trkpt>
      <trkpt lat="39.955933" lon="3.211471">
        <ele>180.6</ele>
        <time>2020-05-23T19:42:21Z</time>
      </trkpt>
      <trkpt lat="39.955975" lon="3.211439">
        <ele>180</ele>
        <time>2020-05-23T19:42:22Z</time>
      </trkpt>
      <trkpt lat="39.956009" lon="3.211407">
        <ele>179.5</ele>
        <time>2020-05-23T19:42:23Z</time>
      </trkpt>
      <trkpt lat="39.956043" lon="3.211382">
        <ele>179.1</ele>
        <time>2020-05-23T19:42:24Z</time>
      </trkpt>
      <trkpt lat="39.956074" lon="3.211356">
        <ele>178.7</ele>
        <time>2020-05-23T19:42:25Z</time>
      </trkpt>
      <trkpt lat="39.956108" lon="3.211325">
        <ele>178.2</ele>
        <time>2020-05-23T19:42:26Z</time>
      </trkpt>
      <trkpt lat="39.956146" lon="3.211292">
        <ele>184.1</ele>
        <time>2020-05-23T19:42:27Z</time>
      </trkpt>
      <trkpt lat="39.956184" lon="3.211254">
        <ele>189.5</ele>
        <time>2020-05-23T19:42:29Z</time>
      </trkpt>
      <trkpt lat="39.956226" lon="3.211214">
        <ele>194.2</ele>
        <time>2020-05-23T19:42:30Z</time>
      </trkpt>
      <trkpt lat="39.956268" lon="3.211171">
        <ele>199.4</ele>
        <time>2020-05-23T19:42:31Z</time>
      </trkpt>
      <trkpt lat="39.95631" lon="3.211128">
        <ele>199.9</ele>
        <time>2020-05-23T19:42:32Z</time>
      </trkpt>
      <trkpt lat="39.956356" lon="3.211082">
        <ele>200.4</ele>
        <time>2020-05-23T19:42:33Z</time>
      </trkpt>
      <trkpt lat="39.956398" lon="3.211032">
        <ele>200.9</ele>
        <time>2020-05-23T19:42:35Z</time>
      </trkpt>
      <trkpt lat="39.956444" lon="3.210977">
        <ele>201.3</ele>
        <time>2020-05-23T19:42:36Z</time>
      </trkpt>
      <trkpt lat="39.956493" lon="3.210915">
        <ele>201.6</ele>
        <time>2020-05-23T19:42:37Z</time>
      </trkpt>
      <trkpt lat="39.956547" lon="3.21085">
        <ele>201.7</ele>
        <time>2020-05-23T19:42:38Z</time>
      </trkpt>
      <trkpt lat="39.956589" lon="3.210795">
        <ele>201.9</ele>
        <time>2020-05-23T19:42:39Z</time>
      </trkpt>
      <trkpt lat="39.956627" lon="3.210739">
        <ele>202</ele>
        <time>2020-05-23T19:42:40Z</time>
      </trkpt>
      <trkpt lat="39.956676" lon="3.210668">
        <ele>202.2</ele>
        <time>2020-05-23T19:42:41Z</time>
      </trkpt>
      <trkpt lat="39.956715" lon="3.210609">
        <ele>202.4</ele>
        <time>2020-05-23T19:42:42Z</time>
      </trkpt>
      <trkpt lat="39.956764" lon="3.210537">
        <ele>202.5</ele>
        <time>2020-05-23T19:42:44Z</time>
      </trkpt>
      <trkpt lat="39.956814" lon="3.210465">
        <ele>202.6</ele>
        <time>2020-05-23T19:42:45Z</time>
      </trkpt>
      <trkpt lat="39.956863" lon="3.210393">
        <ele>202.7</ele>
        <time>2020-05-23T19:42:46Z</time>
      </trkpt>
      <trkpt lat="39.956909" lon="3.210326">
        <ele>202.7</ele>
        <time>2020-05-23T19:42:47Z</time>
      </trkpt>
      <trkpt lat="39.956959" lon="3.210247">
        <ele>202.8</ele>
        <time>2020-05-23T19:42:48Z</time>
      </trkpt>
      <trkpt lat="39.957024" lon="3.21014">
        <ele>202.2</ele>
        <time>2020-05-23T19:42:49Z</time>
      </trkpt>
      <trkpt lat="39.957088" lon="3.210046">
        <ele>201.7</ele>
        <time>2020-05-23T19:42:50Z</time>
      </trkpt>
      <trkpt lat="39.95718" lon="3.209925">
        <ele>200.9</ele>
        <time>2020-05-23T19:42:51Z</time>
      </trkpt>
      <trkpt lat="39.957272" lon="3.209794">
        <ele>199.9</ele>
        <time>2020-05-23T19:42:53Z</time>
      </trkpt>
      <trkpt lat="39.957359" lon="3.209688">
        <ele>199</ele>
        <time>2020-05-23T19:42:54Z</time>
      </trkpt>
      <trkpt lat="39.957481" lon="3.209559">
        <ele>197.7</ele>
        <time>2020-05-23T19:42:55Z</time>
      </trkpt>
      <trkpt lat="39.957588" lon="3.209445">
        <ele>196.4</ele>
        <time>2020-05-23T19:42:56Z</time>
      </trkpt>
      <trkpt lat="39.957699" lon="3.209324">
        <ele>195.1</ele>
        <time>2020-05-23T19:42:57Z</time>
      </trkpt>
      <trkpt lat="39.957817" lon="3.209152">
        <ele>193.5</ele>
        <time>2020-05-23T19:42:58Z</time>
      </trkpt>
      <trkpt lat="39.957924" lon="3.208968">
        <ele>191.8</ele>
        <time>2020-05-23T19:42:59Z</time>
      </trkpt>
      <trkpt lat="39.957989" lon="3.208755">
        <ele>190.3</ele>
        <time>2020-05-23T19:43:00Z</time>
      </trkpt>
      <trkpt lat="39.958034" lon="3.208538">
        <ele>189</ele>
        <time>2020-05-23T19:43:02Z</time>
      </trkpt>
      <trkpt lat="39.958027" lon="3.208326">
        <ele>188</ele>
        <time>2020-05-23T19:43:03Z</time>
      </trkpt>
      <trkpt lat="39.958008" lon="3.208162">
        <ele>187.3</ele>
        <time>2020-05-23T19:43:04Z</time>
      </trkpt>
      <trkpt lat="39.957977" lon="3.208014">
        <ele>186.8</ele>
        <time>2020-05-23T19:43:05Z</time>
      </trkpt>
      <trkpt lat="39.957935" lon="3.207885">
        <ele>186.6</ele>
        <time>2020-05-23T19:43:06Z</time>
      </trkpt>
      <trkpt lat="39.957905" lon="3.207767">
        <ele>186.5</ele>
        <time>2020-05-23T19:43:07Z</time>
      </trkpt>
      <trkpt lat="39.957851" lon="3.207653">
        <ele>186.6</ele>
        <time>2020-05-23T19:43:08Z</time>
      </trkpt>
      <trkpt lat="39.957775" lon="3.207578">
        <ele>186.8</ele>
        <time>2020-05-23T19:43:09Z</time>
      </trkpt>
      <trkpt lat="39.957703" lon="3.20751">
        <ele>187.1</ele>
        <time>2020-05-23T19:43:10Z</time>
      </trkpt>
      <trkpt lat="39.957634" lon="3.207472">
        <ele>187.5</ele>
        <time>2020-05-23T19:43:11Z</time>
      </trkpt>
      <trkpt lat="39.957554" lon="3.207512">
        <ele>188</ele>
        <time>2020-05-23T19:43:13Z</time>
      </trkpt>
      <trkpt lat="39.957497" lon="3.207591">
        <ele>188.5</ele>
        <time>2020-05-23T19:43:14Z</time>
      </trkpt>
      <trkpt lat="39.957447" lon="3.20768">
        <ele>188.9</ele>
        <time>2020-05-23T19:43:15Z</time>
      </trkpt>
      <trkpt lat="39.957424" lon="3.207787">
        <ele>189.3</ele>
        <time>2020-05-23T19:43:16Z</time>
      </trkpt>
      <trkpt lat="39.957416" lon="3.207882">
        <ele>189.7</ele>
        <time>2020-05-23T19:43:17Z</time>
      </trkpt>
      <trkpt lat="39.957413" lon="3.20798">
        <ele>190.1</ele>
        <time>2020-05-23T19:43:18Z</time>
      </trkpt>
      <trkpt lat="39.957413" lon="3.208082">
        <ele>190.5</ele>
        <time>2020-05-23T19:43:19Z</time>
      </trkpt>
      <trkpt lat="39.957394" lon="3.208203">
        <ele>191</ele>
        <time>2020-05-23T19:43:20Z</time>
      </trkpt>
      <trkpt lat="39.957348" lon="3.20829">
        <ele>191.5</ele>
        <time>2020-05-23T19:43:21Z</time>
      </trkpt>
      <trkpt lat="39.957287" lon="3.208392">
        <ele>192</ele>
        <time>2020-05-23T19:43:23Z</time>
      </trkpt>
      <trkpt lat="39.957222" lon="3.208452">
        <ele>192.3</ele>
        <time>2020-05-23T19:43:24Z</time>
      </trkpt>
      <trkpt lat="39.957123" lon="3.208455">
        <ele>192.6</ele>
        <time>2020-05-23T19:43:25Z</time>
      </trkpt>
      <trkpt lat="39.957043" lon="3.208443">
        <ele>192.7</ele>
        <time>2020-05-23T19:43:26Z</time>
      </trkpt>
      <trkpt lat="39.956943" lon="3.20842">
        <ele>192.8</ele>
        <time>2020-05-23T19:43:27Z</time>
      </trkpt>
      <trkpt lat="39.956867" lon="3.208393">
        <ele>192.9</ele>
        <time>2020-05-23T19:43:28Z</time>
      </trkpt>
      <trkpt lat="39.956776" lon="3.20836">
        <ele>192.9</ele>
        <time>2020-05-23T19:43:29Z</time>
      </trkpt>
      <trkpt lat="39.956703" lon="3.208331">
        <ele>193</ele>
        <time>2020-05-23T19:43:30Z</time>
      </trkpt>
      <trkpt lat="39.956623" lon="3.208297">
        <ele>193</ele>
        <time>2020-05-23T19:43:31Z</time>
      </trkpt>
      <trkpt lat="39.956547" lon="3.208268">
        <ele>193.1</ele>
        <time>2020-05-23T19:43:33Z</time>
      </trkpt>
      <trkpt lat="39.956463" lon="3.208241">
        <ele>193.3</ele>
        <time>2020-05-23T19:43:34Z</time>
      </trkpt>
      <trkpt lat="39.956394" lon="3.208217">
        <ele>193.4</ele>
        <time>2020-05-23T19:43:35Z</time>
      </trkpt>
      <trkpt lat="39.956322" lon="3.208203">
        <ele>193.6</ele>
        <time>2020-05-23T19:43:36Z</time>
      </trkpt>
      <trkpt lat="39.956249" lon="3.20821">
        <ele>193.7</ele>
        <time>2020-05-23T19:43:37Z</time>
      </trkpt>
      <trkpt lat="39.956158" lon="3.208233">
        <ele>194</ele>
        <time>2020-05-23T19:43:38Z</time>
      </trkpt>
      <trkpt lat="39.956066" lon="3.208258">
        <ele>194.1</ele>
        <time>2020-05-23T19:43:39Z</time>
      </trkpt>
      <trkpt lat="39.95599" lon="3.208284">
        <ele>194.3</ele>
        <time>2020-05-23T19:43:40Z</time>
      </trkpt>
      <trkpt lat="39.955913" lon="3.208314">
        <ele>194.4</ele>
        <time>2020-05-23T19:43:41Z</time>
      </trkpt>
      <trkpt lat="39.955833" lon="3.208346">
        <ele>194.5</ele>
        <time>2020-05-23T19:43:42Z</time>
      </trkpt>
      <trkpt lat="39.955738" lon="3.208388">
        <ele>194.5</ele>
        <time>2020-05-23T19:43:43Z</time>
      </trkpt>
      <trkpt lat="39.955635" lon="3.208417">
        <ele>194.4</ele>
        <time>2020-05-23T19:43:45Z</time>
      </trkpt>
      <trkpt lat="39.955528" lon="3.208435">
        <ele>194.3</ele>
        <time>2020-05-23T19:43:46Z</time>
      </trkpt>
      <trkpt lat="39.955418" lon="3.208434">
        <ele>194.1</ele>
        <time>2020-05-23T19:43:47Z</time>
      </trkpt>
      <trkpt lat="39.955326" lon="3.208405">
        <ele>193.9</ele>
        <time>2020-05-23T19:43:48Z</time>
      </trkpt>
      <trkpt lat="39.955212" lon="3.208366">
        <ele>193.7</ele>
        <time>2020-05-23T19:43:49Z</time>
      </trkpt>
      <trkpt lat="39.955101" lon="3.208324">
        <ele>193.4</ele>
        <time>2020-05-23T19:43:50Z</time>
      </trkpt>
      <trkpt lat="39.95499" lon="3.208276">
        <ele>193.1</ele>
        <time>2020-05-23T19:43:52Z</time>
      </trkpt>
      <trkpt lat="39.954884" lon="3.208223">
        <ele>192.7</ele>
        <time>2020-05-23T19:43:53Z</time>
      </trkpt>
      <trkpt lat="39.954777" lon="3.208168">
        <ele>192.4</ele>
        <time>2020-05-23T19:43:54Z</time>
      </trkpt>
      <trkpt lat="39.95467" lon="3.208114">
        <ele>192.2</ele>
        <time>2020-05-23T19:43:55Z</time>
      </trkpt>
      <trkpt lat="39.954578" lon="3.208071">
        <ele>191.9</ele>
        <time>2020-05-23T19:43:56Z</time>
      </trkpt>
      <trkpt lat="39.954472" lon="3.208017">
        <ele>191.6</ele>
        <time>2020-05-23T19:43:57Z</time>
      </trkpt>
      <trkpt lat="39.954365" lon="3.20795">
        <ele>191.2</ele>
        <time>2020-05-23T19:43:59Z</time>
      </trkpt>
      <trkpt lat="39.95425" lon="3.207876">
        <ele>190.9</ele>
        <time>2020-05-23T19:44:00Z</time>
      </trkpt>
      <trkpt lat="39.95414" lon="3.207774">
        <ele>190.4</ele>
        <time>2020-05-23T19:44:01Z</time>
      </trkpt>
      <trkpt lat="39.954048" lon="3.207678">
        <ele>189.8</ele>
        <time>2020-05-23T19:44:02Z</time>
      </trkpt>
      <trkpt lat="39.953964" lon="3.207529">
        <ele>188.9</ele>
        <time>2020-05-23T19:44:03Z</time>
      </trkpt>
      <trkpt lat="39.953915" lon="3.20734">
        <ele>188</ele>
        <time>2020-05-23T19:44:04Z</time>
      </trkpt>
      <trkpt lat="39.953884" lon="3.207138">
        <ele>186.9</ele>
        <time>2020-05-23T19:44:06Z</time>
      </trkpt>
      <trkpt lat="39.953854" lon="3.20693">
        <ele>185.8</ele>
        <time>2020-05-23T19:44:07Z</time>
      </trkpt>
      <trkpt lat="39.953823" lon="3.206723">
        <ele>184.6</ele>
        <time>2020-05-23T19:44:08Z</time>
      </trkpt>
      <trkpt lat="39.9538" lon="3.206546">
        <ele>183.8</ele>
        <time>2020-05-23T19:44:09Z</time>
      </trkpt>
      <trkpt lat="39.953793" lon="3.206361">
        <ele>183.2</ele>
        <time>2020-05-23T19:44:10Z</time>
      </trkpt>
      <trkpt lat="39.953846" lon="3.206143">
        <ele>182.4</ele>
        <time>2020-05-23T19:44:11Z</time>
      </trkpt>
      <trkpt lat="39.953918" lon="3.20594">
        <ele>181.2</ele>
        <time>2020-05-23T19:44:12Z</time>
      </trkpt>
      <trkpt lat="39.953983" lon="3.205751">
        <ele>179.8</ele>
        <time>2020-05-23T19:44:14Z</time>
      </trkpt>
      <trkpt lat="39.95404" lon="3.205573">
        <ele>178.4</ele>
        <time>2020-05-23T19:44:15Z</time>
      </trkpt>
      <trkpt lat="39.954082" lon="3.205408">
        <ele>177.2</ele>
        <time>2020-05-23T19:44:16Z</time>
      </trkpt>
      <trkpt lat="39.954113" lon="3.205281">
        <ele>176.3</ele>
        <time>2020-05-23T19:44:17Z</time>
      </trkpt>
      <trkpt lat="39.954151" lon="3.205143">
        <ele>175.5</ele>
        <time>2020-05-23T19:44:18Z</time>
      </trkpt>
      <trkpt lat="39.954189" lon="3.20502">
        <ele>175</ele>
        <time>2020-05-23T19:44:19Z</time>
      </trkpt>
      <trkpt lat="39.954224" lon="3.204909">
        <ele>174.6</ele>
        <time>2020-05-23T19:44:21Z</time>
      </trkpt>
      <trkpt lat="39.954258" lon="3.204824">
        <ele>174.5</ele>
        <time>2020-05-23T19:44:22Z</time>
      </trkpt>
      <trkpt lat="39.954304" lon="3.204726">
        <ele>174.4</ele>
        <time>2020-05-23T19:44:23Z</time>
      </trkpt>
      <trkpt lat="39.954349" lon="3.204626">
        <ele>174.4</ele>
        <time>2020-05-23T19:44:24Z</time>
      </trkpt>
      <trkpt lat="39.954391" lon="3.204542">
        <ele>174.4</ele>
        <time>2020-05-23T19:44:25Z</time>
      </trkpt>
      <trkpt lat="39.954441" lon="3.204442">
        <ele>174.5</ele>
        <time>2020-05-23T19:44:26Z</time>
      </trkpt>
      <trkpt lat="39.954494" lon="3.204341">
        <ele>174.7</ele>
        <time>2020-05-23T19:44:27Z</time>
      </trkpt>
      <trkpt lat="39.954548" lon="3.204242">
        <ele>174.8</ele>
        <time>2020-05-23T19:44:29Z</time>
      </trkpt>
      <trkpt lat="39.954597" lon="3.20416">
        <ele>175.1</ele>
        <time>2020-05-23T19:44:30Z</time>
      </trkpt>
      <trkpt lat="39.954643" lon="3.204074">
        <ele>175.4</ele>
        <time>2020-05-23T19:44:31Z</time>
      </trkpt>
      <trkpt lat="39.9547" lon="3.203963">
        <ele>175.8</ele>
        <time>2020-05-23T19:44:32Z</time>
      </trkpt>
      <trkpt lat="39.954758" lon="3.203848">
        <ele>176.2</ele>
        <time>2020-05-23T19:44:33Z</time>
      </trkpt>
      <trkpt lat="39.954823" lon="3.203742">
        <ele>176.7</ele>
        <time>2020-05-23T19:44:34Z</time>
      </trkpt>
      <trkpt lat="39.954899" lon="3.203648">
        <ele>177.1</ele>
        <time>2020-05-23T19:44:35Z</time>
      </trkpt>
      <trkpt lat="39.954964" lon="3.203572">
        <ele>177.4</ele>
        <time>2020-05-23T19:44:36Z</time>
      </trkpt>
      <trkpt lat="39.955048" lon="3.20349">
        <ele>177.7</ele>
        <time>2020-05-23T19:44:38Z</time>
      </trkpt>
      <trkpt lat="39.955131" lon="3.20341">
        <ele>177.9</ele>
        <time>2020-05-23T19:44:39Z</time>
      </trkpt>
      <trkpt lat="39.955215" lon="3.203329">
        <ele>178.1</ele>
        <time>2020-05-23T19:44:40Z</time>
      </trkpt>
      <trkpt lat="39.955299" lon="3.20325">
        <ele>178.3</ele>
        <time>2020-05-23T19:44:41Z</time>
      </trkpt>
      <trkpt lat="39.955379" lon="3.203167">
        <ele>178.5</ele>
        <time>2020-05-23T19:44:42Z</time>
      </trkpt>
      <trkpt lat="39.95546" lon="3.203087">
        <ele>178.7</ele>
        <time>2020-05-23T19:44:44Z</time>
      </trkpt>
      <trkpt lat="39.955532" lon="3.203004">
        <ele>178.8</ele>
        <time>2020-05-23T19:44:45Z</time>
      </trkpt>
      <trkpt lat="39.955585" lon="3.202898">
        <ele>179</ele>
        <time>2020-05-23T19:44:46Z</time>
      </trkpt>
      <trkpt lat="39.955627" lon="3.202787">
        <ele>179.1</ele>
        <time>2020-05-23T19:44:47Z</time>
      </trkpt>
      <trkpt lat="39.955654" lon="3.20267">
        <ele>179.1</ele>
        <time>2020-05-23T19:44:48Z</time>
      </trkpt>
      <trkpt lat="39.95565" lon="3.202551">
        <ele>179.1</ele>
        <time>2020-05-23T19:44:50Z</time>
      </trkpt>
      <trkpt lat="39.955635" lon="3.202439">
        <ele>179</ele>
        <time>2020-05-23T19:44:51Z</time>
      </trkpt>
      <trkpt lat="39.955624" lon="3.202331">
        <ele>178.9</ele>
        <time>2020-05-23T19:44:52Z</time>
      </trkpt>
      <trkpt lat="39.955612" lon="3.20223">
        <ele>178.9</ele>
        <time>2020-05-23T19:44:53Z</time>
      </trkpt>
      <trkpt lat="39.955601" lon="3.20215">
        <ele>178.9</ele>
        <time>2020-05-23T19:44:54Z</time>
      </trkpt>
      <trkpt lat="39.955589" lon="3.202054">
        <ele>179.1</ele>
        <time>2020-05-23T19:44:55Z</time>
      </trkpt>
      <trkpt lat="39.955582" lon="3.201958">
        <ele>179.3</ele>
        <time>2020-05-23T19:44:57Z</time>
      </trkpt>
      <trkpt lat="39.955578" lon="3.201875">
        <ele>179.7</ele>
        <time>2020-05-23T19:44:58Z</time>
      </trkpt>
      <trkpt lat="39.955582" lon="3.201776">
        <ele>179.8</ele>
        <time>2020-05-23T19:44:59Z</time>
      </trkpt>
      <trkpt lat="39.955589" lon="3.201703">
        <ele>179.8</ele>
        <time>2020-05-23T19:45:00Z</time>
      </trkpt>
      <trkpt lat="39.955597" lon="3.201622">
        <ele>179.8</ele>
        <time>2020-05-23T19:45:01Z</time>
      </trkpt>
      <trkpt lat="39.955612" lon="3.201543">
        <ele>179.9</ele>
        <time>2020-05-23T19:45:02Z</time>
      </trkpt>
      <trkpt lat="39.955627" lon="3.201464">
        <ele>179.9</ele>
        <time>2020-05-23T19:45:03Z</time>
      </trkpt>
      <trkpt lat="39.955635" lon="3.201389">
        <ele>180</ele>
        <time>2020-05-23T19:45:05Z</time>
      </trkpt>
      <trkpt lat="39.955627" lon="3.20132">
        <ele>180.3</ele>
        <time>2020-05-23T19:45:06Z</time>
      </trkpt>
      <trkpt lat="39.955608" lon="3.201263">
        <ele>180.5</ele>
        <time>2020-05-23T19:45:07Z</time>
      </trkpt>
      <trkpt lat="39.955593" lon="3.20121">
        <ele>180.7</ele>
        <time>2020-05-23T19:45:08Z</time>
      </trkpt>
      <trkpt lat="39.955578" lon="3.201168">
        <ele>180.8</ele>
        <time>2020-05-23T19:45:09Z</time>
      </trkpt>
      <trkpt lat="39.955559" lon="3.20112">
        <ele>181</ele>
        <time>2020-05-23T19:45:10Z</time>
      </trkpt>
      <trkpt lat="39.95554" lon="3.201083">
        <ele>181.1</ele>
        <time>2020-05-23T19:45:11Z</time>
      </trkpt>
      <trkpt lat="39.955505" lon="3.201047">
        <ele>181.3</ele>
        <time>2020-05-23T19:45:13Z</time>
      </trkpt>
      <trkpt lat="39.955456" lon="3.201032">
        <ele>181.6</ele>
        <time>2020-05-23T19:45:14Z</time>
      </trkpt>
      <trkpt lat="39.955414" lon="3.201034">
        <ele>181.7</ele>
        <time>2020-05-23T19:45:15Z</time>
      </trkpt>
      <trkpt lat="39.955364" lon="3.201042">
        <ele>181.9</ele>
        <time>2020-05-23T19:45:16Z</time>
      </trkpt>
      <trkpt lat="39.955315" lon="3.201056">
        <ele>181.4</ele>
        <time>2020-05-23T19:45:17Z</time>
      </trkpt>
      <trkpt lat="39.955269" lon="3.201079">
        <ele>181.8</ele>
        <time>2020-05-23T19:45:18Z</time>
      </trkpt>
      <trkpt lat="39.955231" lon="3.201108">
        <ele>181.3</ele>
        <time>2020-05-23T19:45:19Z</time>
      </trkpt>
      <trkpt lat="39.955185" lon="3.201148">
        <ele>180.8</ele>
        <time>2020-05-23T19:45:21Z</time>
      </trkpt>
      <trkpt lat="39.955139" lon="3.201191">
        <ele>180.2</ele>
        <time>2020-05-23T19:45:22Z</time>
      </trkpt>
      <trkpt lat="39.955093" lon="3.201234">
        <ele>179.6</ele>
        <time>2020-05-23T19:45:23Z</time>
      </trkpt>
      <trkpt lat="39.955048" lon="3.201276">
        <ele>179.2</ele>
        <time>2020-05-23T19:45:24Z</time>
      </trkpt>
      <trkpt lat="39.955002" lon="3.20132">
        <ele>178.8</ele>
        <time>2020-05-23T19:45:25Z</time>
      </trkpt>
      <trkpt lat="39.954964" lon="3.201359">
        <ele>178.5</ele>
        <time>2020-05-23T19:45:26Z</time>
      </trkpt>
      <trkpt lat="39.954922" lon="3.201409">
        <ele>178.3</ele>
        <time>2020-05-23T19:45:28Z</time>
      </trkpt>
      <trkpt lat="39.95488" lon="3.201461">
        <ele>178.4</ele>
        <time>2020-05-23T19:45:29Z</time>
      </trkpt>
      <trkpt lat="39.954838" lon="3.201514">
        <ele>178.4</ele>
        <time>2020-05-23T19:45:30Z</time>
      </trkpt>
      <trkpt lat="39.954803" lon="3.201559">
        <ele>178.5</ele>
        <time>2020-05-23T19:45:31Z</time>
      </trkpt>
      <trkpt lat="39.954765" lon="3.201616">
        <ele>177.9</ele>
        <time>2020-05-23T19:45:32Z</time>
      </trkpt>
      <trkpt lat="39.954739" lon="3.201667">
        <ele>177.9</ele>
        <time>2020-05-23T19:45:33Z</time>
      </trkpt>
      <trkpt lat="39.954712" lon="3.201728">
        <ele>177.8</ele>
        <time>2020-05-23T19:45:34Z</time>
      </trkpt>
      <trkpt lat="39.954693" lon="3.201777">
        <ele>177.3</ele>
        <time>2020-05-23T19:45:35Z</time>
      </trkpt>
      <trkpt lat="39.954674" lon="3.201835">
        <ele>176.5</ele>
        <time>2020-05-23T19:45:37Z</time>
      </trkpt>
      <trkpt lat="39.954655" lon="3.201893">
        <ele>176.5</ele>
        <time>2020-05-23T19:45:38Z</time>
      </trkpt>
      <trkpt lat="39.954639" lon="3.201943">
        <ele>175.9</ele>
        <time>2020-05-23T19:45:39Z</time>
      </trkpt>
      <trkpt lat="39.95462" lon="3.201999">
        <ele>175.8</ele>
        <time>2020-05-23T19:45:40Z</time>
      </trkpt>
      <trkpt lat="39.954601" lon="3.202038">
        <ele>175.2</ele>
        <time>2020-05-23T19:45:41Z</time>
      </trkpt>
      <trkpt lat="39.954571" lon="3.202073">
        <ele>175.2</ele>
        <time>2020-05-23T19:45:42Z</time>
      </trkpt>
      <trkpt lat="39.95454" lon="3.2021">
        <ele>175.3</ele>
        <time>2020-05-23T19:45:43Z</time>
      </trkpt>
      <trkpt lat="39.954517" lon="3.202122">
        <ele>176.1</ele>
        <time>2020-05-23T19:45:44Z</time>
      </trkpt>
      <trkpt lat="39.954491" lon="3.202144">
        <ele>175.5</ele>
        <time>2020-05-23T19:45:45Z</time>
      </trkpt>
      <trkpt lat="39.954464" lon="3.202164">
        <ele>176.3</ele>
        <time>2020-05-23T19:45:46Z</time>
      </trkpt>
      <trkpt lat="39.954426" lon="3.202185">
        <ele>176.4</ele>
        <time>2020-05-23T19:45:48Z</time>
      </trkpt>
      <trkpt lat="39.954391" lon="3.202195">
        <ele>177.9</ele>
        <time>2020-05-23T19:45:49Z</time>
      </trkpt>
      <trkpt lat="39.954361" lon="3.202196">
        <ele>178</ele>
        <time>2020-05-23T19:45:50Z</time>
      </trkpt>
      <trkpt lat="39.95433" lon="3.202192">
        <ele>178.9</ele>
        <time>2020-05-23T19:45:51Z</time>
      </trkpt>
      <trkpt lat="39.954292" lon="3.202183">
        <ele>180.7</ele>
        <time>2020-05-23T19:45:52Z</time>
      </trkpt>
      <trkpt lat="39.95425" lon="3.202174">
        <ele>181.7</ele>
        <time>2020-05-23T19:45:53Z</time>
      </trkpt>
      <trkpt lat="39.954216" lon="3.202164">
        <ele>183.4</ele>
        <time>2020-05-23T19:45:54Z</time>
      </trkpt>
      <trkpt lat="39.954174" lon="3.202149">
        <ele>184.5</ele>
        <time>2020-05-23T19:45:55Z</time>
      </trkpt>
      <trkpt lat="39.95414" lon="3.202136">
        <ele>185.5</ele>
        <time>2020-05-23T19:45:56Z</time>
      </trkpt>
      <trkpt lat="39.954094" lon="3.202124">
        <ele>188.3</ele>
        <time>2020-05-23T19:45:58Z</time>
      </trkpt>
      <trkpt lat="39.954044" lon="3.20213">
        <ele>188.6</ele>
        <time>2020-05-23T19:45:59Z</time>
      </trkpt>
      <trkpt lat="39.954006" lon="3.202171">
        <ele>189.7</ele>
        <time>2020-05-23T19:46:00Z</time>
      </trkpt>
      <trkpt lat="39.953983" lon="3.20223">
        <ele>189.4</ele>
        <time>2020-05-23T19:46:01Z</time>
      </trkpt>
      <trkpt lat="39.953964" lon="3.202294">
        <ele>189.9</ele>
        <time>2020-05-23T19:46:02Z</time>
      </trkpt>
      <trkpt lat="39.953949" lon="3.202351">
        <ele>188.8</ele>
        <time>2020-05-23T19:46:03Z</time>
      </trkpt>
      <trkpt lat="39.953945" lon="3.202422">
        <ele>188.2</ele>
        <time>2020-05-23T19:46:05Z</time>
      </trkpt>
      <trkpt lat="39.953945" lon="3.202495">
        <ele>187</ele>
        <time>2020-05-23T19:46:06Z</time>
      </trkpt>
      <trkpt lat="39.953945" lon="3.202569">
        <ele>185.7</ele>
        <time>2020-05-23T19:46:07Z</time>
      </trkpt>
      <trkpt lat="39.953941" lon="3.202644">
        <ele>184.4</ele>
        <time>2020-05-23T19:46:08Z</time>
      </trkpt>
      <trkpt lat="39.953941" lon="3.202723">
        <ele>183.8</ele>
        <time>2020-05-23T19:46:09Z</time>
      </trkpt>
      <trkpt lat="39.95393" lon="3.202803">
        <ele>183.8</ele>
        <time>2020-05-23T19:46:11Z</time>
      </trkpt>
      <trkpt lat="39.953903" lon="3.202859">
        <ele>182.6</ele>
        <time>2020-05-23T19:46:12Z</time>
      </trkpt>
      <trkpt lat="39.95385" lon="3.20291">
        <ele>184.4</ele>
        <time>2020-05-23T19:46:13Z</time>
      </trkpt>
      <trkpt lat="39.953804" lon="3.202948">
        <ele>185.1</ele>
        <time>2020-05-23T19:46:14Z</time>
      </trkpt>
      <trkpt lat="39.953758" lon="3.202982">
        <ele>187.7</ele>
        <time>2020-05-23T19:46:15Z</time>
      </trkpt>
      <trkpt lat="39.953701" lon="3.202994">
        <ele>189.6</ele>
        <time>2020-05-23T19:46:16Z</time>
      </trkpt>
      <trkpt lat="39.953671" lon="3.202949">
        <ele>190.4</ele>
        <time>2020-05-23T19:46:17Z</time>
      </trkpt>
      <trkpt lat="39.953655" lon="3.202909">
        <ele>192.4</ele>
        <time>2020-05-23T19:46:18Z</time>
      </trkpt>
      <trkpt lat="39.953644" lon="3.202876">
        <ele>193.1</ele>
        <time>2020-05-23T19:46:20Z</time>
      </trkpt>
      <trkpt lat="39.953636" lon="3.202849">
        <ele>193.9</ele>
        <time>2020-05-23T19:46:21Z</time>
      </trkpt>
      <trkpt lat="39.953629" lon="3.202816">
        <ele>195.3</ele>
        <time>2020-05-23T19:46:22Z</time>
      </trkpt>
      <trkpt lat="39.953621" lon="3.20278">
        <ele>196</ele>
        <time>2020-05-23T19:46:23Z</time>
      </trkpt>
      <trkpt lat="39.953617" lon="3.202736">
        <ele>196.7</ele>
        <time>2020-05-23T19:46:24Z</time>
      </trkpt>
      <trkpt lat="39.953613" lon="3.202691">
        <ele>197.4</ele>
        <time>2020-05-23T19:46:25Z</time>
      </trkpt>
      <trkpt lat="39.953609" lon="3.202639">
        <ele>198.7</ele>
        <time>2020-05-23T19:46:26Z</time>
      </trkpt>
      <trkpt lat="39.953609" lon="3.202567">
        <ele>199.4</ele>
        <time>2020-05-23T19:46:27Z</time>
      </trkpt>
      <trkpt lat="39.953609" lon="3.202489">
        <ele>200.7</ele>
        <time>2020-05-23T19:46:29Z</time>
      </trkpt>
      <trkpt lat="39.953613" lon="3.202408">
        <ele>202</ele>
        <time>2020-05-23T19:46:30Z</time>
      </trkpt>
      <trkpt lat="39.953613" lon="3.202326">
        <ele>203.2</ele>
        <time>2020-05-23T19:46:31Z</time>
      </trkpt>
      <trkpt lat="39.953613" lon="3.202241">
        <ele>204.5</ele>
        <time>2020-05-23T19:46:32Z</time>
      </trkpt>
      <trkpt lat="39.953609" lon="3.202154">
        <ele>205.9</ele>
        <time>2020-05-23T19:46:33Z</time>
      </trkpt>
      <trkpt lat="39.953606" lon="3.202064">
        <ele>207.3</ele>
        <time>2020-05-23T19:46:35Z</time>
      </trkpt>
      <trkpt lat="39.953606" lon="3.201986">
        <ele>208.8</ele>
        <time>2020-05-23T19:46:36Z</time>
      </trkpt>
      <trkpt lat="39.953598" lon="3.201895">
        <ele>211.3</ele>
        <time>2020-05-23T19:46:37Z</time>
      </trkpt>
      <trkpt lat="39.953583" lon="3.201822">
        <ele>211.8</ele>
        <time>2020-05-23T19:46:38Z</time>
      </trkpt>
      <trkpt lat="39.953556" lon="3.201739">
        <ele>212.4</ele>
        <time>2020-05-23T19:46:39Z</time>
      </trkpt>
      <trkpt lat="39.953529" lon="3.201674">
        <ele>212.8</ele>
        <time>2020-05-23T19:46:40Z</time>
      </trkpt>
      <trkpt lat="39.953503" lon="3.20161">
        <ele>213.3</ele>
        <time>2020-05-23T19:46:41Z</time>
      </trkpt>
      <trkpt lat="39.953472" lon="3.201537">
        <ele>213.8</ele>
        <time>2020-05-23T19:46:42Z</time>
      </trkpt>
      <trkpt lat="39.953442" lon="3.20148">
        <ele>214.2</ele>
        <time>2020-05-23T19:46:43Z</time>
      </trkpt>
      <trkpt lat="39.953403" lon="3.201413">
        <ele>214.6</ele>
        <time>2020-05-23T19:46:44Z</time>
      </trkpt>
      <trkpt lat="39.953365" lon="3.201348">
        <ele>215</ele>
        <time>2020-05-23T19:46:46Z</time>
      </trkpt>
      <trkpt lat="39.953331" lon="3.201284">
        <ele>215.4</ele>
        <time>2020-05-23T19:46:47Z</time>
      </trkpt>
      <trkpt lat="39.953297" lon="3.20122">
        <ele>215.8</ele>
        <time>2020-05-23T19:46:48Z</time>
      </trkpt>
      <trkpt lat="39.95327" lon="3.201166">
        <ele>216.1</ele>
        <time>2020-05-23T19:46:49Z</time>
      </trkpt>
      <trkpt lat="39.953239" lon="3.201096">
        <ele>216.4</ele>
        <time>2020-05-23T19:46:50Z</time>
      </trkpt>
      <trkpt lat="39.953213" lon="3.201022">
        <ele>216.8</ele>
        <time>2020-05-23T19:46:51Z</time>
      </trkpt>
      <trkpt lat="39.953186" lon="3.200943">
        <ele>217.5</ele>
        <time>2020-05-23T19:46:53Z</time>
      </trkpt>
      <trkpt lat="39.953156" lon="3.200862">
        <ele>217.9</ele>
        <time>2020-05-23T19:46:54Z</time>
      </trkpt>
      <trkpt lat="39.953129" lon="3.20078">
        <ele>218.2</ele>
        <time>2020-05-23T19:46:55Z</time>
      </trkpt>
      <trkpt lat="39.953106" lon="3.200696">
        <ele>218.4</ele>
        <time>2020-05-23T19:46:56Z</time>
      </trkpt>
      <trkpt lat="39.953079" lon="3.20061">
        <ele>218.6</ele>
        <time>2020-05-23T19:46:57Z</time>
      </trkpt>
      <trkpt lat="39.953053" lon="3.200523">
        <ele>218.8</ele>
        <time>2020-05-23T19:46:59Z</time>
      </trkpt>
      <trkpt lat="39.953018" lon="3.200427">
        <ele>219</ele>
        <time>2020-05-23T19:47:00Z</time>
      </trkpt>
      <trkpt lat="39.952991" lon="3.200317">
        <ele>219.1</ele>
        <time>2020-05-23T19:47:01Z</time>
      </trkpt>
      <trkpt lat="39.952976" lon="3.200196">
        <ele>219.3</ele>
        <time>2020-05-23T19:47:02Z</time>
      </trkpt>
      <trkpt lat="39.952957" lon="3.200091">
        <ele>219.4</ele>
        <time>2020-05-23T19:47:03Z</time>
      </trkpt>
      <trkpt lat="39.952942" lon="3.199986">
        <ele>219.5</ele>
        <time>2020-05-23T19:47:04Z</time>
      </trkpt>
      <trkpt lat="39.952953" lon="3.199877">
        <ele>219.6</ele>
        <time>2020-05-23T19:47:05Z</time>
      </trkpt>
      <trkpt lat="39.952984" lon="3.199753">
        <ele>219.8</ele>
        <time>2020-05-23T19:47:06Z</time>
      </trkpt>
      <trkpt lat="39.953014" lon="3.199651">
        <ele>219.9</ele>
        <time>2020-05-23T19:47:07Z</time>
      </trkpt>
      <trkpt lat="39.953056" lon="3.199535">
        <ele>220</ele>
        <time>2020-05-23T19:47:09Z</time>
      </trkpt>
      <trkpt lat="39.953094" lon="3.19944">
        <ele>220.1</ele>
        <time>2020-05-23T19:47:10Z</time>
      </trkpt>
      <trkpt lat="39.953133" lon="3.199349">
        <ele>220.1</ele>
        <time>2020-05-23T19:47:11Z</time>
      </trkpt>
      <trkpt lat="39.953178" lon="3.199243">
        <ele>220.2</ele>
        <time>2020-05-23T19:47:12Z</time>
      </trkpt>
      <trkpt lat="39.953201" lon="3.199147">
        <ele>220.2</ele>
        <time>2020-05-23T19:47:13Z</time>
      </trkpt>
      <trkpt lat="39.953205" lon="3.19903">
        <ele>220.1</ele>
        <time>2020-05-23T19:47:14Z</time>
      </trkpt>
      <trkpt lat="39.953209" lon="3.198938">
        <ele>220.1</ele>
        <time>2020-05-23T19:47:15Z</time>
      </trkpt>
      <trkpt lat="39.953194" lon="3.198836">
        <ele>220</ele>
        <time>2020-05-23T19:47:16Z</time>
      </trkpt>
      <trkpt lat="39.953148" lon="3.19877">
        <ele>219.9</ele>
        <time>2020-05-23T19:47:17Z</time>
      </trkpt>
      <trkpt lat="39.953079" lon="3.198707">
        <ele>219.7</ele>
        <time>2020-05-23T19:47:18Z</time>
      </trkpt>
      <trkpt lat="39.953011" lon="3.198649">
        <ele>219.6</ele>
        <time>2020-05-23T19:47:20Z</time>
      </trkpt>
      <trkpt lat="39.952938" lon="3.198604">
        <ele>219.5</ele>
        <time>2020-05-23T19:47:21Z</time>
      </trkpt>
      <trkpt lat="39.952869" lon="3.198583">
        <ele>219.3</ele>
        <time>2020-05-23T19:47:22Z</time>
      </trkpt>
      <trkpt lat="39.952797" lon="3.19857">
        <ele>219.2</ele>
        <time>2020-05-23T19:47:23Z</time>
      </trkpt>
      <trkpt lat="39.952717" lon="3.198558">
        <ele>219.1</ele>
        <time>2020-05-23T19:47:24Z</time>
      </trkpt>
      <trkpt lat="39.952633" lon="3.198548">
        <ele>219.1</ele>
        <time>2020-05-23T19:47:25Z</time>
      </trkpt>
      <trkpt lat="39.952564" lon="3.198543">
        <ele>219.2</ele>
        <time>2020-05-23T19:47:26Z</time>
      </trkpt>
      <trkpt lat="39.952496" lon="3.198539">
        <ele>219.2</ele>
        <time>2020-05-23T19:47:27Z</time>
      </trkpt>
      <trkpt lat="39.952423" lon="3.198533">
        <ele>219.3</ele>
        <time>2020-05-23T19:47:28Z</time>
      </trkpt>
      <trkpt lat="39.952343" lon="3.198528">
        <ele>219.4</ele>
        <time>2020-05-23T19:47:30Z</time>
      </trkpt>
      <trkpt lat="39.952259" lon="3.198519">
        <ele>219.5</ele>
        <time>2020-05-23T19:47:31Z</time>
      </trkpt>
      <trkpt lat="39.952171" lon="3.198509">
        <ele>219.7</ele>
        <time>2020-05-23T19:47:32Z</time>
      </trkpt>
      <trkpt lat="39.952099" lon="3.198501">
        <ele>219.8</ele>
        <time>2020-05-23T19:47:33Z</time>
      </trkpt>
      <trkpt lat="39.952007" lon="3.198492">
        <ele>219.9</ele>
        <time>2020-05-23T19:47:34Z</time>
      </trkpt>
      <trkpt lat="39.951916" lon="3.198469">
        <ele>220</ele>
        <time>2020-05-23T19:47:35Z</time>
      </trkpt>
      <trkpt lat="39.951836" lon="3.198435">
        <ele>220.2</ele>
        <time>2020-05-23T19:47:36Z</time>
      </trkpt>
      <trkpt lat="39.951744" lon="3.198399">
        <ele>220.4</ele>
        <time>2020-05-23T19:47:37Z</time>
      </trkpt>
      <trkpt lat="39.95166" lon="3.198287">
        <ele>220.6</ele>
        <time>2020-05-23T19:47:39Z</time>
      </trkpt>
      <trkpt lat="39.951607" lon="3.198121">
        <ele>220.6</ele>
        <time>2020-05-23T19:47:40Z</time>
      </trkpt>
      <trkpt lat="39.951569" lon="3.197935">
        <ele>219.5</ele>
        <time>2020-05-23T19:47:41Z</time>
      </trkpt>
      <trkpt lat="39.951523" lon="3.197781">
        <ele>218.4</ele>
        <time>2020-05-23T19:47:42Z</time>
      </trkpt>
      <trkpt lat="39.951469" lon="3.197624">
        <ele>217.3</ele>
        <time>2020-05-23T19:47:43Z</time>
      </trkpt>
      <trkpt lat="39.951408" lon="3.197472">
        <ele>216.4</ele>
        <time>2020-05-23T19:47:44Z</time>
      </trkpt>
      <trkpt lat="39.951321" lon="3.197295">
        <ele>215.3</ele>
        <time>2020-05-23T19:47:45Z</time>
      </trkpt>
      <trkpt lat="39.951233" lon="3.197116">
        <ele>214.3</ele>
        <time>2020-05-23T19:47:46Z</time>
      </trkpt>
      <trkpt lat="39.951153" lon="3.196934">
        <ele>213.4</ele>
        <time>2020-05-23T19:47:48Z</time>
      </trkpt>
      <trkpt lat="39.9511" lon="3.196756">
        <ele>212.5</ele>
        <time>2020-05-23T19:47:49Z</time>
      </trkpt>
      <trkpt lat="39.951046" lon="3.196579">
        <ele>211.6</ele>
        <time>2020-05-23T19:47:50Z</time>
      </trkpt>
      <trkpt lat="39.951012" lon="3.196408">
        <ele>210.9</ele>
        <time>2020-05-23T19:47:51Z</time>
      </trkpt>
      <trkpt lat="39.950985" lon="3.196207">
        <ele>210</ele>
        <time>2020-05-23T19:47:52Z</time>
      </trkpt>
      <trkpt lat="39.950966" lon="3.196013">
        <ele>209.2</ele>
        <time>2020-05-23T19:47:53Z</time>
      </trkpt>
      <trkpt lat="39.950943" lon="3.195857">
        <ele>208.4</ele>
        <time>2020-05-23T19:47:54Z</time>
      </trkpt>
      <trkpt lat="39.950909" lon="3.195675">
        <ele>207.5</ele>
        <time>2020-05-23T19:47:55Z</time>
      </trkpt>
      <trkpt lat="39.950932" lon="3.195521">
        <ele>206.8</ele>
        <time>2020-05-23T19:47:56Z</time>
      </trkpt>
      <trkpt lat="39.950981" lon="3.195347">
        <ele>206</ele>
        <time>2020-05-23T19:47:58Z</time>
      </trkpt>
      <trkpt lat="39.951076" lon="3.195219">
        <ele>205.2</ele>
        <time>2020-05-23T19:47:59Z</time>
      </trkpt>
      <trkpt lat="39.951183" lon="3.195117">
        <ele>204.6</ele>
        <time>2020-05-23T19:48:00Z</time>
      </trkpt>
      <trkpt lat="39.951298" lon="3.195041">
        <ele>204</ele>
        <time>2020-05-23T19:48:01Z</time>
      </trkpt>
      <trkpt lat="39.951408" lon="3.194981">
        <ele>203.4</ele>
        <time>2020-05-23T19:48:02Z</time>
      </trkpt>
      <trkpt lat="39.951492" lon="3.194928">
        <ele>203</ele>
        <time>2020-05-23T19:48:03Z</time>
      </trkpt>
      <trkpt lat="39.951534" lon="3.194796">
        <ele>202.6</ele>
        <time>2020-05-23T19:48:05Z</time>
      </trkpt>
      <trkpt lat="39.951534" lon="3.194642">
        <ele>202.2</ele>
        <time>2020-05-23T19:48:06Z</time>
      </trkpt>
      <trkpt lat="39.9515" lon="3.194498">
        <ele>201.8</ele>
        <time>2020-05-23T19:48:07Z</time>
      </trkpt>
      <trkpt lat="39.951443" lon="3.194371">
        <ele>201.5</ele>
        <time>2020-05-23T19:48:08Z</time>
      </trkpt>
      <trkpt lat="39.951389" lon="3.194273">
        <ele>201.1</ele>
        <time>2020-05-23T19:48:09Z</time>
      </trkpt>
      <trkpt lat="39.951336" lon="3.194177">
        <ele>200.8</ele>
        <time>2020-05-23T19:48:10Z</time>
      </trkpt>
      <trkpt lat="39.951294" lon="3.194043">
        <ele>200.3</ele>
        <time>2020-05-23T19:48:11Z</time>
      </trkpt>
      <trkpt lat="39.951267" lon="3.193901">
        <ele>199.8</ele>
        <time>2020-05-23T19:48:13Z</time>
      </trkpt>
      <trkpt lat="39.951317" lon="3.193787">
        <ele>199.3</ele>
        <time>2020-05-23T19:48:14Z</time>
      </trkpt>
      <trkpt lat="39.951424" lon="3.193671">
        <ele>198.4</ele>
        <time>2020-05-23T19:48:15Z</time>
      </trkpt>
      <trkpt lat="39.951523" lon="3.193574">
        <ele>197.6</ele>
        <time>2020-05-23T19:48:16Z</time>
      </trkpt>
      <trkpt lat="39.951633" lon="3.193434">
        <ele>196.5</ele>
        <time>2020-05-23T19:48:17Z</time>
      </trkpt>
      <trkpt lat="39.951744" lon="3.193279">
        <ele>195.3</ele>
        <time>2020-05-23T19:48:18Z</time>
      </trkpt>
      <trkpt lat="39.951859" lon="3.193135">
        <ele>194.2</ele>
        <time>2020-05-23T19:48:19Z</time>
      </trkpt>
      <trkpt lat="39.95195" lon="3.193016">
        <ele>193.5</ele>
        <time>2020-05-23T19:48:20Z</time>
      </trkpt>
      <trkpt lat="39.952064" lon="3.192945">
        <ele>192.7</ele>
        <time>2020-05-23T19:48:21Z</time>
      </trkpt>
      <trkpt lat="39.952217" lon="3.192904">
        <ele>191.6</ele>
        <time>2020-05-23T19:48:23Z</time>
      </trkpt>
      <trkpt lat="39.952343" lon="3.19287">
        <ele>190.8</ele>
        <time>2020-05-23T19:48:24Z</time>
      </trkpt>
      <trkpt lat="39.952461" lon="3.192833">
        <ele>190.1</ele>
        <time>2020-05-23T19:48:25Z</time>
      </trkpt>
      <trkpt lat="39.952602" lon="3.192793">
        <ele>189.2</ele>
        <time>2020-05-23T19:48:26Z</time>
      </trkpt>
      <trkpt lat="39.952709" lon="3.192732">
        <ele>188.6</ele>
        <time>2020-05-23T19:48:27Z</time>
      </trkpt>
      <trkpt lat="39.952831" lon="3.192659">
        <ele>188.1</ele>
        <time>2020-05-23T19:48:28Z</time>
      </trkpt>
      <trkpt lat="39.952904" lon="3.19255">
        <ele>187.6</ele>
        <time>2020-05-23T19:48:29Z</time>
      </trkpt>
      <trkpt lat="39.952934" lon="3.192388">
        <ele>187.1</ele>
        <time>2020-05-23T19:48:30Z</time>
      </trkpt>
      <trkpt lat="39.9529" lon="3.19223">
        <ele>186.6</ele>
        <time>2020-05-23T19:48:31Z</time>
      </trkpt>
      <trkpt lat="39.952858" lon="3.192073">
        <ele>186</ele>
        <time>2020-05-23T19:48:33Z</time>
      </trkpt>
      <trkpt lat="39.952824" lon="3.191912">
        <ele>185.5</ele>
        <time>2020-05-23T19:48:34Z</time>
      </trkpt>
      <trkpt lat="39.952846" lon="3.191772">
        <ele>185</ele>
        <time>2020-05-23T19:48:35Z</time>
      </trkpt>
      <trkpt lat="39.9529" lon="3.191637">
        <ele>183.8</ele>
        <time>2020-05-23T19:48:36Z</time>
      </trkpt>
      <trkpt lat="39.95298" lon="3.191482">
        <ele>183</ele>
        <time>2020-05-23T19:48:37Z</time>
      </trkpt>
      <trkpt lat="39.953064" lon="3.191329">
        <ele>182.2</ele>
        <time>2020-05-23T19:48:38Z</time>
      </trkpt>
      <trkpt lat="39.953136" lon="3.191198">
        <ele>181.5</ele>
        <time>2020-05-23T19:48:39Z</time>
      </trkpt>
      <trkpt lat="39.953209" lon="3.191066">
        <ele>180.8</ele>
        <time>2020-05-23T19:48:40Z</time>
      </trkpt>
      <trkpt lat="39.9533" lon="3.190902">
        <ele>179.9</ele>
        <time>2020-05-23T19:48:41Z</time>
      </trkpt>
      <trkpt lat="39.9534" lon="3.19074">
        <ele>179</ele>
        <time>2020-05-23T19:48:43Z</time>
      </trkpt>
      <trkpt lat="39.953499" lon="3.190578">
        <ele>178.2</ele>
        <time>2020-05-23T19:48:44Z</time>
      </trkpt>
      <trkpt lat="39.953617" lon="3.190437">
        <ele>177.4</ele>
        <time>2020-05-23T19:48:45Z</time>
      </trkpt>
      <trkpt lat="39.953724" lon="3.190331">
        <ele>176.7</ele>
        <time>2020-05-23T19:48:46Z</time>
      </trkpt>
      <trkpt lat="39.953846" lon="3.190208">
        <ele>176</ele>
        <time>2020-05-23T19:48:47Z</time>
      </trkpt>
      <trkpt lat="39.953941" lon="3.190117">
        <ele>175.6</ele>
        <time>2020-05-23T19:48:48Z</time>
      </trkpt>
      <trkpt lat="39.954048" lon="3.19002">
        <ele>175.3</ele>
        <time>2020-05-23T19:48:49Z</time>
      </trkpt>
      <trkpt lat="39.954132" lon="3.189912">
        <ele>175.2</ele>
        <time>2020-05-23T19:48:51Z</time>
      </trkpt>
      <trkpt lat="39.954205" lon="3.189809">
        <ele>175.2</ele>
        <time>2020-05-23T19:48:52Z</time>
      </trkpt>
      <trkpt lat="39.954247" lon="3.189692">
        <ele>175.2</ele>
        <time>2020-05-23T19:48:53Z</time>
      </trkpt>
      <trkpt lat="39.954216" lon="3.189569">
        <ele>175.3</ele>
        <time>2020-05-23T19:48:54Z</time>
      </trkpt>
      <trkpt lat="39.954182" lon="3.189477">
        <ele>175.4</ele>
        <time>2020-05-23T19:48:55Z</time>
      </trkpt>
      <trkpt lat="39.954136" lon="3.189397">
        <ele>175.6</ele>
        <time>2020-05-23T19:48:56Z</time>
      </trkpt>
      <trkpt lat="39.95406" lon="3.189346">
        <ele>175.8</ele>
        <time>2020-05-23T19:48:57Z</time>
      </trkpt>
      <trkpt lat="39.953979" lon="3.189319">
        <ele>176.1</ele>
        <time>2020-05-23T19:48:59Z</time>
      </trkpt>
      <trkpt lat="39.953911" lon="3.189297">
        <ele>176.3</ele>
        <time>2020-05-23T19:49:00Z</time>
      </trkpt>
      <trkpt lat="39.953857" lon="3.189282">
        <ele>176.5</ele>
        <time>2020-05-23T19:49:01Z</time>
      </trkpt>
      <trkpt lat="39.953796" lon="3.189267">
        <ele>176.8</ele>
        <time>2020-05-23T19:49:02Z</time>
      </trkpt>
      <trkpt lat="39.953743" lon="3.189251">
        <ele>177.1</ele>
        <time>2020-05-23T19:49:03Z</time>
      </trkpt>
      <trkpt lat="39.953693" lon="3.189238">
        <ele>177.4</ele>
        <time>2020-05-23T19:49:04Z</time>
      </trkpt>
      <trkpt lat="39.953648" lon="3.189226">
        <ele>177.7</ele>
        <time>2020-05-23T19:49:05Z</time>
      </trkpt>
      <trkpt lat="39.953579" lon="3.189215">
        <ele>178.2</ele>
        <time>2020-05-23T19:49:06Z</time>
      </trkpt>
      <trkpt lat="39.953522" lon="3.189208">
        <ele>178.6</ele>
        <time>2020-05-23T19:49:07Z</time>
      </trkpt>
      <trkpt lat="39.953457" lon="3.18919">
        <ele>179.1</ele>
        <time>2020-05-23T19:49:08Z</time>
      </trkpt>
      <trkpt lat="39.9534" lon="3.189156">
        <ele>179.6</ele>
        <time>2020-05-23T19:49:09Z</time>
      </trkpt>
      <trkpt lat="39.953327" lon="3.189108">
        <ele>180.2</ele>
        <time>2020-05-23T19:49:11Z</time>
      </trkpt>
      <trkpt lat="39.953262" lon="3.189067">
        <ele>180.6</ele>
        <time>2020-05-23T19:49:12Z</time>
      </trkpt>
      <trkpt lat="39.953217" lon="3.189004">
        <ele>181</ele>
        <time>2020-05-23T19:49:13Z</time>
      </trkpt>
      <trkpt lat="39.953197" lon="3.188899">
        <ele>181.4</ele>
        <time>2020-05-23T19:49:14Z</time>
      </trkpt>
      <trkpt lat="39.95319" lon="3.188811">
        <ele>181.7</ele>
        <time>2020-05-23T19:49:15Z</time>
      </trkpt>
      <trkpt lat="39.953186" lon="3.188705">
        <ele>181.9</ele>
        <time>2020-05-23T19:49:16Z</time>
      </trkpt>
      <trkpt lat="39.953201" lon="3.188598">
        <ele>182.2</ele>
        <time>2020-05-23T19:49:17Z</time>
      </trkpt>
      <trkpt lat="39.953217" lon="3.188507">
        <ele>182.4</ele>
        <time>2020-05-23T19:49:18Z</time>
      </trkpt>
      <trkpt lat="39.953247" lon="3.188398">
        <ele>182.7</ele>
        <time>2020-05-23T19:49:19Z</time>
      </trkpt>
      <trkpt lat="39.953274" lon="3.188306">
        <ele>182.9</ele>
        <time>2020-05-23T19:49:20Z</time>
      </trkpt>
      <trkpt lat="39.953289" lon="3.188209">
        <ele>183</ele>
        <time>2020-05-23T19:49:21Z</time>
      </trkpt>
      <trkpt lat="39.953281" lon="3.188091">
        <ele>183.1</ele>
        <time>2020-05-23T19:49:23Z</time>
      </trkpt>
      <trkpt lat="39.953258" lon="3.187976">
        <ele>183.2</ele>
        <time>2020-05-23T19:49:24Z</time>
      </trkpt>
      <trkpt lat="39.953228" lon="3.187886">
        <ele>183.3</ele>
        <time>2020-05-23T19:49:25Z</time>
      </trkpt>
      <trkpt lat="39.953178" lon="3.187784">
        <ele>183.4</ele>
        <time>2020-05-23T19:49:26Z</time>
      </trkpt>
      <trkpt lat="39.95314" lon="3.187699">
        <ele>183.4</ele>
        <time>2020-05-23T19:49:27Z</time>
      </trkpt>
      <trkpt lat="39.953091" lon="3.187597">
        <ele>183.4</ele>
        <time>2020-05-23T19:49:28Z</time>
      </trkpt>
      <trkpt lat="39.953049" lon="3.18751">
        <ele>183.5</ele>
        <time>2020-05-23T19:49:29Z</time>
      </trkpt>
      <trkpt lat="39.953014" lon="3.187399">
        <ele>183.6</ele>
        <time>2020-05-23T19:49:30Z</time>
      </trkpt>
      <trkpt lat="39.952984" lon="3.187304">
        <ele>183.6</ele>
        <time>2020-05-23T19:49:31Z</time>
      </trkpt>
      <trkpt lat="39.952953" lon="3.18719">
        <ele>183.7</ele>
        <time>2020-05-23T19:49:33Z</time>
      </trkpt>
      <trkpt lat="39.952938" lon="3.18709">
        <ele>183.8</ele>
        <time>2020-05-23T19:49:34Z</time>
      </trkpt>
      <trkpt lat="39.952927" lon="3.186963">
        <ele>183.8</ele>
        <time>2020-05-23T19:49:35Z</time>
      </trkpt>
      <trkpt lat="39.95293" lon="3.186827">
        <ele>183.9</ele>
        <time>2020-05-23T19:49:36Z</time>
      </trkpt>
      <trkpt lat="39.95293" lon="3.186689">
        <ele>183.9</ele>
        <time>2020-05-23T19:49:37Z</time>
      </trkpt>
      <trkpt lat="39.952873" lon="3.186566">
        <ele>183.8</ele>
        <time>2020-05-23T19:49:38Z</time>
      </trkpt>
      <trkpt lat="39.952789" lon="3.186463">
        <ele>183.5</ele>
        <time>2020-05-23T19:49:40Z</time>
      </trkpt>
      <trkpt lat="39.95269" lon="3.186374">
        <ele>183</ele>
        <time>2020-05-23T19:49:41Z</time>
      </trkpt>
      <trkpt lat="39.952591" lon="3.186286">
        <ele>182.4</ele>
        <time>2020-05-23T19:49:42Z</time>
      </trkpt>
      <trkpt lat="39.952503" lon="3.186211">
        <ele>181.8</ele>
        <time>2020-05-23T19:49:43Z</time>
      </trkpt>
      <trkpt lat="39.9524" lon="3.186111">
        <ele>181.1</ele>
        <time>2020-05-23T19:49:44Z</time>
      </trkpt>
      <trkpt lat="39.952297" lon="3.186004">
        <ele>180.5</ele>
        <time>2020-05-23T19:49:45Z</time>
      </trkpt>
      <trkpt lat="39.952213" lon="3.1859">
        <ele>179.8</ele>
        <time>2020-05-23T19:49:46Z</time>
      </trkpt>
      <trkpt lat="39.952137" lon="3.185748">
        <ele>179</ele>
        <time>2020-05-23T19:49:48Z</time>
      </trkpt>
      <trkpt lat="39.95208" lon="3.185581">
        <ele>178.3</ele>
        <time>2020-05-23T19:49:49Z</time>
      </trkpt>
      <trkpt lat="39.952049" lon="3.18543">
        <ele>177.7</ele>
        <time>2020-05-23T19:49:50Z</time>
      </trkpt>
      <trkpt lat="39.952019" lon="3.185275">
        <ele>177.1</ele>
        <time>2020-05-23T19:49:51Z</time>
      </trkpt>
      <trkpt lat="39.951981" lon="3.185121">
        <ele>176.4</ele>
        <time>2020-05-23T19:49:52Z</time>
      </trkpt>
      <trkpt lat="39.951904" lon="3.184948">
        <ele>175.7</ele>
        <time>2020-05-23T19:49:53Z</time>
      </trkpt>
      <trkpt lat="39.951832" lon="3.184808">
        <ele>175</ele>
        <time>2020-05-23T19:49:54Z</time>
      </trkpt>
      <trkpt lat="39.951744" lon="3.184681">
        <ele>174.4</ele>
        <time>2020-05-23T19:49:55Z</time>
      </trkpt>
      <trkpt lat="39.951637" lon="3.184535">
        <ele>173.6</ele>
        <time>2020-05-23T19:49:56Z</time>
      </trkpt>
      <trkpt lat="39.951534" lon="3.184384">
        <ele>172.7</ele>
        <time>2020-05-23T19:49:57Z</time>
      </trkpt>
      <trkpt lat="39.951439" lon="3.184225">
        <ele>172</ele>
        <time>2020-05-23T19:49:59Z</time>
      </trkpt>
      <trkpt lat="39.951351" lon="3.184064">
        <ele>171.3</ele>
        <time>2020-05-23T19:50:00Z</time>
      </trkpt>
      <trkpt lat="39.95126" lon="3.183906">
        <ele>170.5</ele>
        <time>2020-05-23T19:50:01Z</time>
      </trkpt>
      <trkpt lat="39.951176" lon="3.183743">
        <ele>169.8</ele>
        <time>2020-05-23T19:50:02Z</time>
      </trkpt>
      <trkpt lat="39.951092" lon="3.183582">
        <ele>169.2</ele>
        <time>2020-05-23T19:50:03Z</time>
      </trkpt>
      <trkpt lat="39.951008" lon="3.18342">
        <ele>168.5</ele>
        <time>2020-05-23T19:50:05Z</time>
      </trkpt>
      <trkpt lat="39.950951" lon="3.183236">
        <ele>167.7</ele>
        <time>2020-05-23T19:50:06Z</time>
      </trkpt>
      <trkpt lat="39.950905" lon="3.18304">
        <ele>166.9</ele>
        <time>2020-05-23T19:50:07Z</time>
      </trkpt>
      <trkpt lat="39.950867" lon="3.182838">
        <ele>165.8</ele>
        <time>2020-05-23T19:50:08Z</time>
      </trkpt>
      <trkpt lat="39.950821" lon="3.182632">
        <ele>164.8</ele>
        <time>2020-05-23T19:50:09Z</time>
      </trkpt>
      <trkpt lat="39.95076" lon="3.182431">
        <ele>163.7</ele>
        <time>2020-05-23T19:50:11Z</time>
      </trkpt>
      <trkpt lat="39.950695" lon="3.182232">
        <ele>162.5</ele>
        <time>2020-05-23T19:50:12Z</time>
      </trkpt>
      <trkpt lat="39.950645" lon="3.182065">
        <ele>161.4</ele>
        <time>2020-05-23T19:50:13Z</time>
      </trkpt>
      <trkpt lat="39.950581" lon="3.181865">
        <ele>160.1</ele>
        <time>2020-05-23T19:50:14Z</time>
      </trkpt>
      <trkpt lat="39.950523" lon="3.18166">
        <ele>158.8</ele>
        <time>2020-05-23T19:50:15Z</time>
      </trkpt>
      <trkpt lat="39.95047" lon="3.181486">
        <ele>157.7</ele>
        <time>2020-05-23T19:50:16Z</time>
      </trkpt>
      <trkpt lat="39.950424" lon="3.181266">
        <ele>156.4</ele>
        <time>2020-05-23T19:50:17Z</time>
      </trkpt>
      <trkpt lat="39.950378" lon="3.181041">
        <ele>155.2</ele>
        <time>2020-05-23T19:50:19Z</time>
      </trkpt>
      <trkpt lat="39.950333" lon="3.180819">
        <ele>154</ele>
        <time>2020-05-23T19:50:20Z</time>
      </trkpt>
      <trkpt lat="39.950291" lon="3.180636">
        <ele>152.9</ele>
        <time>2020-05-23T19:50:21Z</time>
      </trkpt>
      <trkpt lat="39.950253" lon="3.180454">
        <ele>151.9</ele>
        <time>2020-05-23T19:50:22Z</time>
      </trkpt>
      <trkpt lat="39.950199" lon="3.180245">
        <ele>150.9</ele>
        <time>2020-05-23T19:50:23Z</time>
      </trkpt>
      <trkpt lat="39.950142" lon="3.180049">
        <ele>150.2</ele>
        <time>2020-05-23T19:50:24Z</time>
      </trkpt>
      <trkpt lat="39.950096" lon="3.179893">
        <ele>149.7</ele>
        <time>2020-05-23T19:50:25Z</time>
      </trkpt>
      <trkpt lat="39.950043" lon="3.179715">
        <ele>149.2</ele>
        <time>2020-05-23T19:50:26Z</time>
      </trkpt>
      <trkpt lat="39.949993" lon="3.179541">
        <ele>148.6</ele>
        <time>2020-05-23T19:50:28Z</time>
      </trkpt>
      <trkpt lat="39.949943" lon="3.179369">
        <ele>147.9</ele>
        <time>2020-05-23T19:50:29Z</time>
      </trkpt>
      <trkpt lat="39.949902" lon="3.179224">
        <ele>147.3</ele>
        <time>2020-05-23T19:50:30Z</time>
      </trkpt>
      <trkpt lat="39.949848" lon="3.179041">
        <ele>146.6</ele>
        <time>2020-05-23T19:50:31Z</time>
      </trkpt>
      <trkpt lat="39.949787" lon="3.178838">
        <ele>145.7</ele>
        <time>2020-05-23T19:50:32Z</time>
      </trkpt>
      <trkpt lat="39.949726" lon="3.178612">
        <ele>144.4</ele>
        <time>2020-05-23T19:50:33Z</time>
      </trkpt>
      <trkpt lat="39.949669" lon="3.17838">
        <ele>142.9</ele>
        <time>2020-05-23T19:50:35Z</time>
      </trkpt>
      <trkpt lat="39.949622" lon="3.178146">
        <ele>141.2</ele>
        <time>2020-05-23T19:50:36Z</time>
      </trkpt>
      <trkpt lat="39.949574" lon="3.177913">
        <ele>139.7</ele>
        <time>2020-05-23T19:50:37Z</time>
      </trkpt>
      <trkpt lat="39.949593" lon="3.177669">
        <ele>138.5</ele>
        <time>2020-05-23T19:50:38Z</time>
      </trkpt>
      <trkpt lat="39.949638" lon="3.177427">
        <ele>137.3</ele>
        <time>2020-05-23T19:50:39Z</time>
      </trkpt>
      <trkpt lat="39.949676" lon="3.177232">
        <ele>136.3</ele>
        <time>2020-05-23T19:50:40Z</time>
      </trkpt>
      <trkpt lat="39.949722" lon="3.177046">
        <ele>135.3</ele>
        <time>2020-05-23T19:50:41Z</time>
      </trkpt>
      <trkpt lat="39.949787" lon="3.176838">
        <ele>134.3</ele>
        <time>2020-05-23T19:50:43Z</time>
      </trkpt>
      <trkpt lat="39.94984" lon="3.176672">
        <ele>133.4</ele>
        <time>2020-05-23T19:50:44Z</time>
      </trkpt>
      <trkpt lat="39.949848" lon="3.176456">
        <ele>132.4</ele>
        <time>2020-05-23T19:50:45Z</time>
      </trkpt>
      <trkpt lat="39.949833" lon="3.17628">
        <ele>131.7</ele>
        <time>2020-05-23T19:50:46Z</time>
      </trkpt>
      <trkpt lat="39.949783" lon="3.176075">
        <ele>130.8</ele>
        <time>2020-05-23T19:50:47Z</time>
      </trkpt>
      <trkpt lat="39.949734" lon="3.175871">
        <ele>129.8</ele>
        <time>2020-05-23T19:50:48Z</time>
      </trkpt>
      <trkpt lat="39.949688" lon="3.175664">
        <ele>128.8</ele>
        <time>2020-05-23T19:50:49Z</time>
      </trkpt>
      <trkpt lat="39.949654" lon="3.17549">
        <ele>128</ele>
        <time>2020-05-23T19:50:50Z</time>
      </trkpt>
      <trkpt lat="39.949596" lon="3.175285">
        <ele>127</ele>
        <time>2020-05-23T19:50:52Z</time>
      </trkpt>
      <trkpt lat="39.949524" lon="3.175087">
        <ele>126.1</ele>
        <time>2020-05-23T19:50:53Z</time>
      </trkpt>
      <trkpt lat="39.94944" lon="3.174901">
        <ele>125.1</ele>
        <time>2020-05-23T19:50:54Z</time>
      </trkpt>
      <trkpt lat="39.949352" lon="3.17472">
        <ele>124.1</ele>
        <time>2020-05-23T19:50:55Z</time>
      </trkpt>
      <trkpt lat="39.949268" lon="3.174538">
        <ele>123.1</ele>
        <time>2020-05-23T19:50:56Z</time>
      </trkpt>
      <trkpt lat="39.949211" lon="3.174381">
        <ele>122.3</ele>
        <time>2020-05-23T19:50:57Z</time>
      </trkpt>
      <trkpt lat="39.949158" lon="3.174219">
        <ele>121.6</ele>
        <time>2020-05-23T19:50:58Z</time>
      </trkpt>
      <trkpt lat="39.949089" lon="3.174029">
        <ele>120.7</ele>
        <time>2020-05-23T19:51:00Z</time>
      </trkpt>
      <trkpt lat="39.949036" lon="3.173871">
        <ele>120</ele>
        <time>2020-05-23T19:51:01Z</time>
      </trkpt>
      <trkpt lat="39.948978" lon="3.173677">
        <ele>119.1</ele>
        <time>2020-05-23T19:51:02Z</time>
      </trkpt>
      <trkpt lat="39.948971" lon="3.173501">
        <ele>118.1</ele>
        <time>2020-05-23T19:51:03Z</time>
      </trkpt>
      <trkpt lat="39.948986" lon="3.173285">
        <ele>116.7</ele>
        <time>2020-05-23T19:51:04Z</time>
      </trkpt>
      <trkpt lat="39.949001" lon="3.17307">
        <ele>115.1</ele>
        <time>2020-05-23T19:51:05Z</time>
      </trkpt>
      <trkpt lat="39.949017" lon="3.172897">
        <ele>113.8</ele>
        <time>2020-05-23T19:51:06Z</time>
      </trkpt>
      <trkpt lat="39.94902" lon="3.172697">
        <ele>112.3</ele>
        <time>2020-05-23T19:51:07Z</time>
      </trkpt>
      <trkpt lat="39.948997" lon="3.172537">
        <ele>111.1</ele>
        <time>2020-05-23T19:51:08Z</time>
      </trkpt>
      <trkpt lat="39.948944" lon="3.172369">
        <ele>109.8</ele>
        <time>2020-05-23T19:51:10Z</time>
      </trkpt>
      <trkpt lat="39.94883" lon="3.172258">
        <ele>108.5</ele>
        <time>2020-05-23T19:51:11Z</time>
      </trkpt>
      <trkpt lat="39.948708" lon="3.172175">
        <ele>107.1</ele>
        <time>2020-05-23T19:51:12Z</time>
      </trkpt>
      <trkpt lat="39.948574" lon="3.172116">
        <ele>105.3</ele>
        <time>2020-05-23T19:51:13Z</time>
      </trkpt>
      <trkpt lat="39.948467" lon="3.172082">
        <ele>103.8</ele>
        <time>2020-05-23T19:51:14Z</time>
      </trkpt>
      <trkpt lat="39.948376" lon="3.171975">
        <ele>102</ele>
        <time>2020-05-23T19:51:15Z</time>
      </trkpt>
      <trkpt lat="39.94833" lon="3.171814">
        <ele>100.3</ele>
        <time>2020-05-23T19:51:17Z</time>
      </trkpt>
      <trkpt lat="39.948364" lon="3.171661">
        <ele>99</ele>
        <time>2020-05-23T19:51:18Z</time>
      </trkpt>
      <trkpt lat="39.948452" lon="3.171553">
        <ele>97.9</ele>
        <time>2020-05-23T19:51:19Z</time>
      </trkpt>
      <trkpt lat="39.948597" lon="3.171512">
        <ele>96.6</ele>
        <time>2020-05-23T19:51:20Z</time>
      </trkpt>
      <trkpt lat="39.948749" lon="3.171502">
        <ele>95.1</ele>
        <time>2020-05-23T19:51:21Z</time>
      </trkpt>
      <trkpt lat="39.948894" lon="3.171493">
        <ele>93.9</ele>
        <time>2020-05-23T19:51:22Z</time>
      </trkpt>
      <trkpt lat="39.949017" lon="3.171485">
        <ele>92.9</ele>
        <time>2020-05-23T19:51:23Z</time>
      </trkpt>
      <trkpt lat="39.949127" lon="3.171463">
        <ele>92</ele>
        <time>2020-05-23T19:51:24Z</time>
      </trkpt>
      <trkpt lat="39.949226" lon="3.17133">
        <ele>90.9</ele>
        <time>2020-05-23T19:51:26Z</time>
      </trkpt>
      <trkpt lat="39.949287" lon="3.171186">
        <ele>89.9</ele>
        <time>2020-05-23T19:51:27Z</time>
      </trkpt>
      <trkpt lat="39.949322" lon="3.170977">
        <ele>88.6</ele>
        <time>2020-05-23T19:51:28Z</time>
      </trkpt>
      <trkpt lat="39.949333" lon="3.17075">
        <ele>87.2</ele>
        <time>2020-05-23T19:51:29Z</time>
      </trkpt>
      <trkpt lat="39.949303" lon="3.170509">
        <ele>85.6</ele>
        <time>2020-05-23T19:51:30Z</time>
      </trkpt>
      <trkpt lat="39.949287" lon="3.170301">
        <ele>83.6</ele>
        <time>2020-05-23T19:51:31Z</time>
      </trkpt>
      <trkpt lat="39.949303" lon="3.17006">
        <ele>81.6</ele>
        <time>2020-05-23T19:51:32Z</time>
      </trkpt>
      <trkpt lat="39.949333" lon="3.169836">
        <ele>79.6</ele>
        <time>2020-05-23T19:51:34Z</time>
      </trkpt>
      <trkpt lat="39.949379" lon="3.169672">
        <ele>78.8</ele>
        <time>2020-05-23T19:51:35Z</time>
      </trkpt>
      <trkpt lat="39.949432" lon="3.169486">
        <ele>78.3</ele>
        <time>2020-05-23T19:51:36Z</time>
      </trkpt>
      <trkpt lat="39.949451" lon="3.1693">
        <ele>78</ele>
        <time>2020-05-23T19:51:37Z</time>
      </trkpt>
      <trkpt lat="39.949463" lon="3.169121">
        <ele>77.9</ele>
        <time>2020-05-23T19:51:38Z</time>
      </trkpt>
      <trkpt lat="39.949459" lon="3.168949">
        <ele>77.9</ele>
        <time>2020-05-23T19:51:39Z</time>
      </trkpt>
      <trkpt lat="39.949448" lon="3.168786">
        <ele>78</ele>
        <time>2020-05-23T19:51:41Z</time>
      </trkpt>
      <trkpt lat="39.949432" lon="3.168654">
        <ele>78.1</ele>
        <time>2020-05-23T19:51:42Z</time>
      </trkpt>
      <trkpt lat="39.949409" lon="3.168503">
        <ele>78.3</ele>
        <time>2020-05-23T19:51:43Z</time>
      </trkpt>
      <trkpt lat="39.949387" lon="3.168357">
        <ele>78.6</ele>
        <time>2020-05-23T19:51:44Z</time>
      </trkpt>
      <trkpt lat="39.949367" lon="3.168216">
        <ele>78.8</ele>
        <time>2020-05-23T19:51:45Z</time>
      </trkpt>
      <trkpt lat="39.949348" lon="3.168105">
        <ele>79</ele>
        <time>2020-05-23T19:51:46Z</time>
      </trkpt>
      <trkpt lat="39.949325" lon="3.16798">
        <ele>79.3</ele>
        <time>2020-05-23T19:51:47Z</time>
      </trkpt>
      <trkpt lat="39.949306" lon="3.167881">
        <ele>79.6</ele>
        <time>2020-05-23T19:51:48Z</time>
      </trkpt>
      <trkpt lat="39.949291" lon="3.167789">
        <ele>79.9</ele>
        <time>2020-05-23T19:51:49Z</time>
      </trkpt>
      <trkpt lat="39.949276" lon="3.167705">
        <ele>80.2</ele>
        <time>2020-05-23T19:51:50Z</time>
      </trkpt>
      <trkpt lat="39.949261" lon="3.167629">
        <ele>80.5</ele>
        <time>2020-05-23T19:51:51Z</time>
      </trkpt>
      <trkpt lat="39.949245" lon="3.167539">
        <ele>80.9</ele>
        <time>2020-05-23T19:51:53Z</time>
      </trkpt>
      <trkpt lat="39.94923" lon="3.167445">
        <ele>81.3</ele>
        <time>2020-05-23T19:51:54Z</time>
      </trkpt>
      <trkpt lat="39.949223" lon="3.167366">
        <ele>81.6</ele>
        <time>2020-05-23T19:51:55Z</time>
      </trkpt>
      <trkpt lat="39.949211" lon="3.167271">
        <ele>81.9</ele>
        <time>2020-05-23T19:51:56Z</time>
      </trkpt>
      <trkpt lat="39.9492" lon="3.167176">
        <ele>82.3</ele>
        <time>2020-05-23T19:51:57Z</time>
      </trkpt>
      <trkpt lat="39.949188" lon="3.167099">
        <ele>82.7</ele>
        <time>2020-05-23T19:51:58Z</time>
      </trkpt>
      <trkpt lat="39.949181" lon="3.167014">
        <ele>83</ele>
        <time>2020-05-23T19:51:59Z</time>
      </trkpt>
      <trkpt lat="39.949173" lon="3.166954">
        <ele>83.3</ele>
        <time>2020-05-23T19:52:00Z</time>
      </trkpt>
      <trkpt lat="39.949161" lon="3.166888">
        <ele>83.6</ele>
        <time>2020-05-23T19:52:02Z</time>
      </trkpt>
      <trkpt lat="39.949158" lon="3.166833">
        <ele>83.9</ele>
        <time>2020-05-23T19:52:03Z</time>
      </trkpt>
      <trkpt lat="39.94915" lon="3.166769">
        <ele>84.2</ele>
        <time>2020-05-23T19:52:04Z</time>
      </trkpt>
      <trkpt lat="39.949146" lon="3.166717">
        <ele>84.4</ele>
        <time>2020-05-23T19:52:05Z</time>
      </trkpt>
      <trkpt lat="39.949139" lon="3.166656">
        <ele>84.7</ele>
        <time>2020-05-23T19:52:06Z</time>
      </trkpt>
      <trkpt lat="39.949131" lon="3.166603">
        <ele>85</ele>
        <time>2020-05-23T19:52:07Z</time>
      </trkpt>
      <trkpt lat="39.949123" lon="3.166545">
        <ele>85.3</ele>
        <time>2020-05-23T19:52:08Z</time>
      </trkpt>
      <trkpt lat="39.949116" lon="3.16647">
        <ele>85.7</ele>
        <time>2020-05-23T19:52:09Z</time>
      </trkpt>
      <trkpt lat="39.949104" lon="3.166402">
        <ele>86.1</ele>
        <time>2020-05-23T19:52:10Z</time>
      </trkpt>
      <trkpt lat="39.949097" lon="3.166331">
        <ele>86.5</ele>
        <time>2020-05-23T19:52:11Z</time>
      </trkpt>
      <trkpt lat="39.949085" lon="3.166258">
        <ele>86.9</ele>
        <time>2020-05-23T19:52:12Z</time>
      </trkpt>
      <trkpt lat="39.949074" lon="3.166171">
        <ele>87.5</ele>
        <time>2020-05-23T19:52:13Z</time>
      </trkpt>
      <trkpt lat="39.949055" lon="3.166083">
        <ele>88.1</ele>
        <time>2020-05-23T19:52:15Z</time>
      </trkpt>
      <trkpt lat="39.949032" lon="3.165992">
        <ele>88.7</ele>
        <time>2020-05-23T19:52:16Z</time>
      </trkpt>
      <trkpt lat="39.949009" lon="3.165901">
        <ele>89.2</ele>
        <time>2020-05-23T19:52:17Z</time>
      </trkpt>
      <trkpt lat="39.948986" lon="3.16581">
        <ele>89.7</ele>
        <time>2020-05-23T19:52:18Z</time>
      </trkpt>
      <trkpt lat="39.948967" lon="3.165734">
        <ele>90.2</ele>
        <time>2020-05-23T19:52:19Z</time>
      </trkpt>
      <trkpt lat="39.948948" lon="3.165644">
        <ele>90.6</ele>
        <time>2020-05-23T19:52:20Z</time>
      </trkpt>
      <trkpt lat="39.948925" lon="3.165552">
        <ele>91.1</ele>
        <time>2020-05-23T19:52:22Z</time>
      </trkpt>
      <trkpt lat="39.948902" lon="3.165458">
        <ele>91.6</ele>
        <time>2020-05-23T19:52:23Z</time>
      </trkpt>
      <trkpt lat="39.948887" lon="3.165379">
        <ele>91.9</ele>
        <time>2020-05-23T19:52:24Z</time>
      </trkpt>
      <trkpt lat="39.948872" lon="3.165303">
        <ele>92.3</ele>
        <time>2020-05-23T19:52:25Z</time>
      </trkpt>
      <trkpt lat="39.948852" lon="3.165231">
        <ele>92.6</ele>
        <time>2020-05-23T19:52:26Z</time>
      </trkpt>
      <trkpt lat="39.948837" lon="3.16515">
        <ele>93</ele>
        <time>2020-05-23T19:52:27Z</time>
      </trkpt>
      <trkpt lat="39.948818" lon="3.165075">
        <ele>93.4</ele>
        <time>2020-05-23T19:52:28Z</time>
      </trkpt>
      <trkpt lat="39.948803" lon="3.165004">
        <ele>93.7</ele>
        <time>2020-05-23T19:52:29Z</time>
      </trkpt>
      <trkpt lat="39.948784" lon="3.164933">
        <ele>94.1</ele>
        <time>2020-05-23T19:52:31Z</time>
      </trkpt>
      <trkpt lat="39.948769" lon="3.16487">
        <ele>94.5</ele>
        <time>2020-05-23T19:52:32Z</time>
      </trkpt>
      <trkpt lat="39.948749" lon="3.164788">
        <ele>94.9</ele>
        <time>2020-05-23T19:52:33Z</time>
      </trkpt>
      <trkpt lat="39.94873" lon="3.164715">
        <ele>95.4</ele>
        <time>2020-05-23T19:52:34Z</time>
      </trkpt>
      <trkpt lat="39.948711" lon="3.164639">
        <ele>95.8</ele>
        <time>2020-05-23T19:52:35Z</time>
      </trkpt>
      <trkpt lat="39.948692" lon="3.164561">
        <ele>96.2</ele>
        <time>2020-05-23T19:52:36Z</time>
      </trkpt>
      <trkpt lat="39.948669" lon="3.164478">
        <ele>96.7</ele>
        <time>2020-05-23T19:52:37Z</time>
      </trkpt>
      <trkpt lat="39.948643" lon="3.164393">
        <ele>97.1</ele>
        <time>2020-05-23T19:52:38Z</time>
      </trkpt>
      <trkpt lat="39.948612" lon="3.164291">
        <ele>97.4</ele>
        <time>2020-05-23T19:52:39Z</time>
      </trkpt>
      <trkpt lat="39.948578" lon="3.164207">
        <ele>97.7</ele>
        <time>2020-05-23T19:52:40Z</time>
      </trkpt>
      <trkpt lat="39.948547" lon="3.164124">
        <ele>98</ele>
        <time>2020-05-23T19:52:41Z</time>
      </trkpt>
      <trkpt lat="39.948517" lon="3.164042">
        <ele>98.2</ele>
        <time>2020-05-23T19:52:42Z</time>
      </trkpt>
      <trkpt lat="39.948482" lon="3.163946">
        <ele>98.4</ele>
        <time>2020-05-23T19:52:43Z</time>
      </trkpt>
      <trkpt lat="39.948452" lon="3.163855">
        <ele>98.5</ele>
        <time>2020-05-23T19:52:44Z</time>
      </trkpt>
      <trkpt lat="39.948429" lon="3.163779">
        <ele>98.7</ele>
        <time>2020-05-23T19:52:45Z</time>
      </trkpt>
      <trkpt lat="39.948402" lon="3.163683">
        <ele>98.9</ele>
        <time>2020-05-23T19:52:47Z</time>
      </trkpt>
      <trkpt lat="39.94838" lon="3.163582">
        <ele>99.1</ele>
        <time>2020-05-23T19:52:48Z</time>
      </trkpt>
      <trkpt lat="39.948364" lon="3.163491">
        <ele>99.2</ele>
        <time>2020-05-23T19:52:49Z</time>
      </trkpt>
      <trkpt lat="39.94833" lon="3.163377">
        <ele>99.4</ele>
        <time>2020-05-23T19:52:50Z</time>
      </trkpt>
      <trkpt lat="39.948269" lon="3.163263">
        <ele>99.2</ele>
        <time>2020-05-23T19:52:51Z</time>
      </trkpt>
      <trkpt lat="39.948185" lon="3.163156">
        <ele>98.7</ele>
        <time>2020-05-23T19:52:52Z</time>
      </trkpt>
      <trkpt lat="39.948078" lon="3.163064">
        <ele>97.9</ele>
        <time>2020-05-23T19:52:54Z</time>
      </trkpt>
      <trkpt lat="39.947975" lon="3.162939">
        <ele>96.9</ele>
        <time>2020-05-23T19:52:55Z</time>
      </trkpt>
      <trkpt lat="39.947884" lon="3.16278">
        <ele>95.6</ele>
        <time>2020-05-23T19:52:56Z</time>
      </trkpt>
      <trkpt lat="39.947784" lon="3.162608">
        <ele>94.3</ele>
        <time>2020-05-23T19:52:57Z</time>
      </trkpt>
      <trkpt lat="39.947704" lon="3.162418">
        <ele>93.1</ele>
        <time>2020-05-23T19:52:58Z</time>
      </trkpt>
      <trkpt lat="39.947678" lon="3.16223">
        <ele>91.6</ele>
        <time>2020-05-23T19:52:59Z</time>
      </trkpt>
      <trkpt lat="39.947685" lon="3.162001">
        <ele>90.3</ele>
        <time>2020-05-23T19:53:01Z</time>
      </trkpt>
      <trkpt lat="39.947704" lon="3.16182">
        <ele>89.3</ele>
        <time>2020-05-23T19:53:02Z</time>
      </trkpt>
      <trkpt lat="39.947735" lon="3.161616">
        <ele>88.4</ele>
        <time>2020-05-23T19:53:03Z</time>
      </trkpt>
      <trkpt lat="39.947758" lon="3.161427">
        <ele>88.2</ele>
        <time>2020-05-23T19:53:04Z</time>
      </trkpt>
      <trkpt lat="39.947765" lon="3.161247">
        <ele>87.9</ele>
        <time>2020-05-23T19:53:05Z</time>
      </trkpt>
      <trkpt lat="39.947765" lon="3.161098">
        <ele>87.6</ele>
        <time>2020-05-23T19:53:06Z</time>
      </trkpt>
      <trkpt lat="39.947769" lon="3.16092">
        <ele>87.1</ele>
        <time>2020-05-23T19:53:07Z</time>
      </trkpt>
      <trkpt lat="39.947758" lon="3.160745">
        <ele>86.6</ele>
        <time>2020-05-23T19:53:09Z</time>
      </trkpt>
      <trkpt lat="39.947742" lon="3.160599">
        <ele>86.3</ele>
        <time>2020-05-23T19:53:10Z</time>
      </trkpt>
      <trkpt lat="39.947704" lon="3.160435">
        <ele>85.9</ele>
        <time>2020-05-23T19:53:11Z</time>
      </trkpt>
      <trkpt lat="39.947639" lon="3.160316">
        <ele>85.5</ele>
        <time>2020-05-23T19:53:12Z</time>
      </trkpt>
      <trkpt lat="39.947555" lon="3.160179">
        <ele>85.1</ele>
        <time>2020-05-23T19:53:13Z</time>
      </trkpt>
      <trkpt lat="39.947487" lon="3.160061">
        <ele>84.7</ele>
        <time>2020-05-23T19:53:14Z</time>
      </trkpt>
      <trkpt lat="39.947411" lon="3.159908">
        <ele>84.2</ele>
        <time>2020-05-23T19:53:15Z</time>
      </trkpt>
      <trkpt lat="39.947334" lon="3.159747">
        <ele>83.6</ele>
        <time>2020-05-23T19:53:16Z</time>
      </trkpt>
      <trkpt lat="39.94725" lon="3.159579">
        <ele>82.8</ele>
        <time>2020-05-23T19:53:18Z</time>
      </trkpt>
      <trkpt lat="39.947163" lon="3.159413">
        <ele>82.1</ele>
        <time>2020-05-23T19:53:19Z</time>
      </trkpt>
      <trkpt lat="39.947063" lon="3.159249">
        <ele>81.2</ele>
        <time>2020-05-23T19:53:20Z</time>
      </trkpt>
      <trkpt lat="39.946983" lon="3.159112">
        <ele>80.5</ele>
        <time>2020-05-23T19:53:21Z</time>
      </trkpt>
      <trkpt lat="39.946892" lon="3.158943">
        <ele>79.6</ele>
        <time>2020-05-23T19:53:22Z</time>
      </trkpt>
      <trkpt lat="39.946815" lon="3.158801">
        <ele>78.7</ele>
        <time>2020-05-23T19:53:23Z</time>
      </trkpt>
      <trkpt lat="39.946724" lon="3.158632">
        <ele>77.8</ele>
        <time>2020-05-23T19:53:24Z</time>
      </trkpt>
      <trkpt lat="39.946644" lon="3.158491">
        <ele>77.1</ele>
        <time>2020-05-23T19:53:25Z</time>
      </trkpt>
      <trkpt lat="39.94656" lon="3.158317">
        <ele>76.3</ele>
        <time>2020-05-23T19:53:27Z</time>
      </trkpt>
      <trkpt lat="39.946484" lon="3.158176">
        <ele>75.7</ele>
        <time>2020-05-23T19:53:28Z</time>
      </trkpt>
      <trkpt lat="39.946411" lon="3.158041">
        <ele>75.3</ele>
        <time>2020-05-23T19:53:29Z</time>
      </trkpt>
      <trkpt lat="39.946323" lon="3.157885">
        <ele>74.8</ele>
        <time>2020-05-23T19:53:30Z</time>
      </trkpt>
      <trkpt lat="39.946251" lon="3.157758">
        <ele>74.6</ele>
        <time>2020-05-23T19:53:31Z</time>
      </trkpt>
      <trkpt lat="39.946182" lon="3.157632">
        <ele>74.3</ele>
        <time>2020-05-23T19:53:32Z</time>
      </trkpt>
      <trkpt lat="39.946102" lon="3.157484">
        <ele>74.1</ele>
        <time>2020-05-23T19:53:33Z</time>
      </trkpt>
      <trkpt lat="39.946033" lon="3.157362">
        <ele>73.9</ele>
        <time>2020-05-23T19:53:34Z</time>
      </trkpt>
      <trkpt lat="39.945946" lon="3.157221">
        <ele>73.7</ele>
        <time>2020-05-23T19:53:35Z</time>
      </trkpt>
      <trkpt lat="39.945866" lon="3.157079">
        <ele>73.6</ele>
        <time>2020-05-23T19:53:36Z</time>
      </trkpt>
      <trkpt lat="39.945782" lon="3.156939">
        <ele>73.5</ele>
        <time>2020-05-23T19:53:38Z</time>
      </trkpt>
      <trkpt lat="39.945702" lon="3.156803">
        <ele>73.4</ele>
        <time>2020-05-23T19:53:39Z</time>
      </trkpt>
      <trkpt lat="39.945625" lon="3.15667">
        <ele>73.4</ele>
        <time>2020-05-23T19:53:40Z</time>
      </trkpt>
      <trkpt lat="39.945553" lon="3.15654">
        <ele>73.4</ele>
        <time>2020-05-23T19:53:41Z</time>
      </trkpt>
      <trkpt lat="39.94548" lon="3.156412">
        <ele>73.5</ele>
        <time>2020-05-23T19:53:42Z</time>
      </trkpt>
      <trkpt lat="39.945412" lon="3.156287">
        <ele>73.6</ele>
        <time>2020-05-23T19:53:44Z</time>
      </trkpt>
      <trkpt lat="39.945343" lon="3.156163">
        <ele>73.7</ele>
        <time>2020-05-23T19:53:45Z</time>
      </trkpt>
      <trkpt lat="39.945278" lon="3.15604">
        <ele>73.8</ele>
        <time>2020-05-23T19:53:46Z</time>
      </trkpt>
      <trkpt lat="39.945209" lon="3.155922">
        <ele>73.9</ele>
        <time>2020-05-23T19:53:47Z</time>
      </trkpt>
      <trkpt lat="39.945141" lon="3.155802">
        <ele>74.1</ele>
        <time>2020-05-23T19:53:48Z</time>
      </trkpt>
      <trkpt lat="39.945076" lon="3.155702">
        <ele>74.1</ele>
        <time>2020-05-23T19:53:49Z</time>
      </trkpt>
      <trkpt lat="39.945" lon="3.155578">
        <ele>74</ele>
        <time>2020-05-23T19:53:51Z</time>
      </trkpt>
      <trkpt lat="39.944935" lon="3.155471">
        <ele>73.9</ele>
        <time>2020-05-23T19:53:52Z</time>
      </trkpt>
      <trkpt lat="39.94487" lon="3.155362">
        <ele>73.8</ele>
        <time>2020-05-23T19:53:53Z</time>
      </trkpt>
      <trkpt lat="39.944798" lon="3.15523">
        <ele>73.7</ele>
        <time>2020-05-23T19:53:54Z</time>
      </trkpt>
      <trkpt lat="39.944725" lon="3.155099">
        <ele>73.6</ele>
        <time>2020-05-23T19:53:55Z</time>
      </trkpt>
      <trkpt lat="39.944652" lon="3.154972">
        <ele>73.4</ele>
        <time>2020-05-23T19:53:56Z</time>
      </trkpt>
      <trkpt lat="39.944591" lon="3.154869">
        <ele>73.3</ele>
        <time>2020-05-23T19:53:57Z</time>
      </trkpt>
      <trkpt lat="39.944538" lon="3.154773">
        <ele>73.2</ele>
        <time>2020-05-23T19:53:58Z</time>
      </trkpt>
      <trkpt lat="39.944485" lon="3.154682">
        <ele>73.1</ele>
        <time>2020-05-23T19:53:59Z</time>
      </trkpt>
      <trkpt lat="39.944435" lon="3.154591">
        <ele>72.9</ele>
        <time>2020-05-23T19:54:00Z</time>
      </trkpt>
      <trkpt lat="39.944385" lon="3.154493">
        <ele>72.6</ele>
        <time>2020-05-23T19:54:01Z</time>
      </trkpt>
      <trkpt lat="39.944328" lon="3.154365">
        <ele>72.3</ele>
        <time>2020-05-23T19:54:02Z</time>
      </trkpt>
      <trkpt lat="39.944256" lon="3.154232">
        <ele>71.9</ele>
        <time>2020-05-23T19:54:04Z</time>
      </trkpt>
      <trkpt lat="39.944176" lon="3.1541">
        <ele>71.5</ele>
        <time>2020-05-23T19:54:05Z</time>
      </trkpt>
      <trkpt lat="39.944103" lon="3.153988">
        <ele>71.1</ele>
        <time>2020-05-23T19:54:06Z</time>
      </trkpt>
      <trkpt lat="39.944023" lon="3.153841">
        <ele>70.6</ele>
        <time>2020-05-23T19:54:07Z</time>
      </trkpt>
      <trkpt lat="39.943947" lon="3.153688">
        <ele>70.1</ele>
        <time>2020-05-23T19:54:08Z</time>
      </trkpt>
      <trkpt lat="39.943878" lon="3.153564">
        <ele>69.7</ele>
        <time>2020-05-23T19:54:09Z</time>
      </trkpt>
      <trkpt lat="39.943794" lon="3.153424">
        <ele>69.4</ele>
        <time>2020-05-23T19:54:10Z</time>
      </trkpt>
      <trkpt lat="39.943714" lon="3.153288">
        <ele>69.1</ele>
        <time>2020-05-23T19:54:12Z</time>
      </trkpt>
      <trkpt lat="39.943634" lon="3.153152">
        <ele>68.9</ele>
        <time>2020-05-23T19:54:13Z</time>
      </trkpt>
      <trkpt lat="39.94355" lon="3.153013">
        <ele>68.6</ele>
        <time>2020-05-23T19:54:14Z</time>
      </trkpt>
      <trkpt lat="39.943481" lon="3.152894">
        <ele>68.3</ele>
        <time>2020-05-23T19:54:15Z</time>
      </trkpt>
      <trkpt lat="39.943417" lon="3.152777">
        <ele>68.1</ele>
        <time>2020-05-23T19:54:16Z</time>
      </trkpt>
      <trkpt lat="39.943336" lon="3.152641">
        <ele>67.9</ele>
        <time>2020-05-23T19:54:17Z</time>
      </trkpt>
      <trkpt lat="39.94326" lon="3.15251">
        <ele>67.7</ele>
        <time>2020-05-23T19:54:18Z</time>
      </trkpt>
      <trkpt lat="39.943199" lon="3.152403">
        <ele>67.6</ele>
        <time>2020-05-23T19:54:19Z</time>
      </trkpt>
      <trkpt lat="39.943134" lon="3.152297">
        <ele>67.6</ele>
        <time>2020-05-23T19:54:20Z</time>
      </trkpt>
      <trkpt lat="39.943073" lon="3.152194">
        <ele>67.6</ele>
        <time>2020-05-23T19:54:21Z</time>
      </trkpt>
      <trkpt lat="39.943005" lon="3.152076">
        <ele>67.5</ele>
        <time>2020-05-23T19:54:23Z</time>
      </trkpt>
      <trkpt lat="39.942951" lon="3.15198">
        <ele>67.5</ele>
        <time>2020-05-23T19:54:24Z</time>
      </trkpt>
      <trkpt lat="39.94289" lon="3.151862">
        <ele>67.5</ele>
        <time>2020-05-23T19:54:25Z</time>
      </trkpt>
      <trkpt lat="39.942829" lon="3.151743">
        <ele>67.5</ele>
        <time>2020-05-23T19:54:26Z</time>
      </trkpt>
      <trkpt lat="39.942772" lon="3.151622">
        <ele>67.5</ele>
        <time>2020-05-23T19:54:27Z</time>
      </trkpt>
      <trkpt lat="39.942707" lon="3.151501">
        <ele>67.5</ele>
        <time>2020-05-23T19:54:28Z</time>
      </trkpt>
      <trkpt lat="39.942642" lon="3.15138">
        <ele>67.4</ele>
        <time>2020-05-23T19:54:30Z</time>
      </trkpt>
      <trkpt lat="39.942574" lon="3.151259">
        <ele>67.3</ele>
        <time>2020-05-23T19:54:31Z</time>
      </trkpt>
      <trkpt lat="39.942513" lon="3.151159">
        <ele>67.1</ele>
        <time>2020-05-23T19:54:32Z</time>
      </trkpt>
      <trkpt lat="39.94244" lon="3.151035">
        <ele>66.9</ele>
        <time>2020-05-23T19:54:33Z</time>
      </trkpt>
      <trkpt lat="39.942368" lon="3.150907">
        <ele>66.5</ele>
        <time>2020-05-23T19:54:34Z</time>
      </trkpt>
      <trkpt lat="39.942287" lon="3.150778">
        <ele>66.2</ele>
        <time>2020-05-23T19:54:35Z</time>
      </trkpt>
      <trkpt lat="39.942203" lon="3.15065">
        <ele>65.8</ele>
        <time>2020-05-23T19:54:37Z</time>
      </trkpt>
      <trkpt lat="39.942123" lon="3.150518">
        <ele>65.3</ele>
        <time>2020-05-23T19:54:38Z</time>
      </trkpt>
      <trkpt lat="39.942047" lon="3.150382">
        <ele>64.8</ele>
        <time>2020-05-23T19:54:39Z</time>
      </trkpt>
      <trkpt lat="39.941967" lon="3.150239">
        <ele>64.3</ele>
        <time>2020-05-23T19:54:40Z</time>
      </trkpt>
      <trkpt lat="39.941906" lon="3.150116">
        <ele>63.8</ele>
        <time>2020-05-23T19:54:41Z</time>
      </trkpt>
      <trkpt lat="39.941833" lon="3.149963">
        <ele>63.1</ele>
        <time>2020-05-23T19:54:42Z</time>
      </trkpt>
      <trkpt lat="39.94175" lon="3.149816">
        <ele>62.4</ele>
        <time>2020-05-23T19:54:44Z</time>
      </trkpt>
      <trkpt lat="39.941654" lon="3.149672">
        <ele>61.7</ele>
        <time>2020-05-23T19:54:45Z</time>
      </trkpt>
      <trkpt lat="39.941555" lon="3.149523">
        <ele>61</ele>
        <time>2020-05-23T19:54:46Z</time>
      </trkpt>
      <trkpt lat="39.94146" lon="3.149371">
        <ele>60.5</ele>
        <time>2020-05-23T19:54:47Z</time>
      </trkpt>
      <trkpt lat="39.941368" lon="3.149216">
        <ele>59.9</ele>
        <time>2020-05-23T19:54:48Z</time>
      </trkpt>
      <trkpt lat="39.941284" lon="3.149062">
        <ele>59.5</ele>
        <time>2020-05-23T19:54:50Z</time>
      </trkpt>
      <trkpt lat="39.941219" lon="3.148936">
        <ele>59.3</ele>
        <time>2020-05-23T19:54:51Z</time>
      </trkpt>
      <trkpt lat="39.941139" lon="3.14879">
        <ele>59.1</ele>
        <time>2020-05-23T19:54:52Z</time>
      </trkpt>
      <trkpt lat="39.941063" lon="3.148647">
        <ele>59</ele>
        <time>2020-05-23T19:54:53Z</time>
      </trkpt>
      <trkpt lat="39.940983" lon="3.148507">
        <ele>59</ele>
        <time>2020-05-23T19:54:54Z</time>
      </trkpt>
      <trkpt lat="39.940922" lon="3.148391">
        <ele>59</ele>
        <time>2020-05-23T19:54:55Z</time>
      </trkpt>
      <trkpt lat="39.940861" lon="3.148277">
        <ele>59</ele>
        <time>2020-05-23T19:54:56Z</time>
      </trkpt>
      <trkpt lat="39.940788" lon="3.148144">
        <ele>59</ele>
        <time>2020-05-23T19:54:57Z</time>
      </trkpt>
      <trkpt lat="39.940723" lon="3.148035">
        <ele>58.8</ele>
        <time>2020-05-23T19:54:58Z</time>
      </trkpt>
      <trkpt lat="39.940643" lon="3.147905">
        <ele>58.6</ele>
        <time>2020-05-23T19:55:00Z</time>
      </trkpt>
      <trkpt lat="39.940582" lon="3.147793">
        <ele>58.5</ele>
        <time>2020-05-23T19:55:01Z</time>
      </trkpt>
      <trkpt lat="39.940521" lon="3.14768">
        <ele>58.4</ele>
        <time>2020-05-23T19:55:02Z</time>
      </trkpt>
      <trkpt lat="39.940449" lon="3.147546">
        <ele>58.3</ele>
        <time>2020-05-23T19:55:03Z</time>
      </trkpt>
      <trkpt lat="39.940369" lon="3.147413">
        <ele>58.1</ele>
        <time>2020-05-23T19:55:04Z</time>
      </trkpt>
      <trkpt lat="39.940308" lon="3.1473">
        <ele>58</ele>
        <time>2020-05-23T19:55:05Z</time>
      </trkpt>
      <trkpt lat="39.940239" lon="3.147159">
        <ele>57.8</ele>
        <time>2020-05-23T19:55:06Z</time>
      </trkpt>
      <trkpt lat="39.940174" lon="3.147016">
        <ele>57.6</ele>
        <time>2020-05-23T19:55:07Z</time>
      </trkpt>
      <trkpt lat="39.940125" lon="3.146898">
        <ele>57.4</ele>
        <time>2020-05-23T19:55:08Z</time>
      </trkpt>
      <trkpt lat="39.940063" lon="3.146786">
        <ele>57.3</ele>
        <time>2020-05-23T19:55:09Z</time>
      </trkpt>
      <trkpt lat="39.939987" lon="3.146658">
        <ele>57.1</ele>
        <time>2020-05-23T19:55:11Z</time>
      </trkpt>
      <trkpt lat="39.939918" lon="3.146552">
        <ele>57</ele>
        <time>2020-05-23T19:55:12Z</time>
      </trkpt>
      <trkpt lat="39.939838" lon="3.146425">
        <ele>57</ele>
        <time>2020-05-23T19:55:13Z</time>
      </trkpt>
      <trkpt lat="39.939754" lon="3.146295">
        <ele>56.9</ele>
        <time>2020-05-23T19:55:14Z</time>
      </trkpt>
      <trkpt lat="39.93969" lon="3.146186">
        <ele>56.7</ele>
        <time>2020-05-23T19:55:15Z</time>
      </trkpt>
      <trkpt lat="39.939621" lon="3.146084">
        <ele>56.5</ele>
        <time>2020-05-23T19:55:16Z</time>
      </trkpt>
      <trkpt lat="39.939537" lon="3.14597">
        <ele>56.3</ele>
        <time>2020-05-23T19:55:17Z</time>
      </trkpt>
      <trkpt lat="39.939457" lon="3.145857">
        <ele>56.2</ele>
        <time>2020-05-23T19:55:18Z</time>
      </trkpt>
      <trkpt lat="39.9394" lon="3.145764">
        <ele>56.2</ele>
        <time>2020-05-23T19:55:19Z</time>
      </trkpt>
      <trkpt lat="39.939339" lon="3.145658">
        <ele>56.2</ele>
        <time>2020-05-23T19:55:21Z</time>
      </trkpt>
      <trkpt lat="39.939285" lon="3.145572">
        <ele>56.2</ele>
        <time>2020-05-23T19:55:22Z</time>
      </trkpt>
      <trkpt lat="39.939228" lon="3.145468">
        <ele>56.3</ele>
        <time>2020-05-23T19:55:23Z</time>
      </trkpt>
      <trkpt lat="39.939171" lon="3.145362">
        <ele>56.4</ele>
        <time>2020-05-23T19:55:24Z</time>
      </trkpt>
      <trkpt lat="39.939117" lon="3.145257">
        <ele>56.6</ele>
        <time>2020-05-23T19:55:25Z</time>
      </trkpt>
      <trkpt lat="39.93906" lon="3.145156">
        <ele>56.8</ele>
        <time>2020-05-23T19:55:26Z</time>
      </trkpt>
      <trkpt lat="39.938999" lon="3.145054">
        <ele>57</ele>
        <time>2020-05-23T19:55:28Z</time>
      </trkpt>
      <trkpt lat="39.938931" lon="3.144947">
        <ele>57.1</ele>
        <time>2020-05-23T19:55:29Z</time>
      </trkpt>
      <trkpt lat="39.938866" lon="3.144856">
        <ele>57.1</ele>
        <time>2020-05-23T19:55:30Z</time>
      </trkpt>
      <trkpt lat="39.938789" lon="3.144741">
        <ele>56.9</ele>
        <time>2020-05-23T19:55:31Z</time>
      </trkpt>
      <trkpt lat="39.938709" lon="3.144624">
        <ele>56.7</ele>
        <time>2020-05-23T19:55:32Z</time>
      </trkpt>
      <trkpt lat="39.938641" lon="3.144521">
        <ele>56.3</ele>
        <time>2020-05-23T19:55:33Z</time>
      </trkpt>
      <trkpt lat="39.938557" lon="3.144386">
        <ele>55.7</ele>
        <time>2020-05-23T19:55:35Z</time>
      </trkpt>
      <trkpt lat="39.93848" lon="3.144271">
        <ele>55.1</ele>
        <time>2020-05-23T19:55:36Z</time>
      </trkpt>
      <trkpt lat="39.93837" lon="3.144136">
        <ele>54.3</ele>
        <time>2020-05-23T19:55:37Z</time>
      </trkpt>
      <trkpt lat="39.938259" lon="3.143999">
        <ele>53.4</ele>
        <time>2020-05-23T19:55:38Z</time>
      </trkpt>
      <trkpt lat="39.938137" lon="3.143865">
        <ele>52.3</ele>
        <time>2020-05-23T19:55:39Z</time>
      </trkpt>
      <trkpt lat="39.938038" lon="3.143754">
        <ele>51.4</ele>
        <time>2020-05-23T19:55:40Z</time>
      </trkpt>
      <trkpt lat="39.937939" lon="3.143647">
        <ele>50.6</ele>
        <time>2020-05-23T19:55:41Z</time>
      </trkpt>
      <trkpt lat="39.937809" lon="3.143526">
        <ele>49.6</ele>
        <time>2020-05-23T19:55:42Z</time>
      </trkpt>
      <trkpt lat="39.937683" lon="3.143399">
        <ele>48.7</ele>
        <time>2020-05-23T19:55:44Z</time>
      </trkpt>
      <trkpt lat="39.937561" lon="3.143261">
        <ele>47.9</ele>
        <time>2020-05-23T19:55:45Z</time>
      </trkpt>
      <trkpt lat="39.937443" lon="3.143124">
        <ele>46.9</ele>
        <time>2020-05-23T19:55:46Z</time>
      </trkpt>
      <trkpt lat="39.937321" lon="3.142996">
        <ele>46.2</ele>
        <time>2020-05-23T19:55:47Z</time>
      </trkpt>
      <trkpt lat="39.937222" lon="3.142895">
        <ele>45.7</ele>
        <time>2020-05-23T19:55:48Z</time>
      </trkpt>
      <trkpt lat="39.937122" lon="3.1428">
        <ele>45.2</ele>
        <time>2020-05-23T19:55:49Z</time>
      </trkpt>
      <trkpt lat="39.937004" lon="3.142684">
        <ele>44.8</ele>
        <time>2020-05-23T19:55:50Z</time>
      </trkpt>
      <trkpt lat="39.936912" lon="3.142584">
        <ele>44.4</ele>
        <time>2020-05-23T19:55:51Z</time>
      </trkpt>
      <trkpt lat="39.936806" lon="3.142465">
        <ele>44</ele>
        <time>2020-05-23T19:55:53Z</time>
      </trkpt>
      <trkpt lat="39.936699" lon="3.142353">
        <ele>43.6</ele>
        <time>2020-05-23T19:55:54Z</time>
      </trkpt>
      <trkpt lat="39.936596" lon="3.142249">
        <ele>43.4</ele>
        <time>2020-05-23T19:55:55Z</time>
      </trkpt>
      <trkpt lat="39.936497" lon="3.14215">
        <ele>43.2</ele>
        <time>2020-05-23T19:55:56Z</time>
      </trkpt>
      <trkpt lat="39.936401" lon="3.142054">
        <ele>43.1</ele>
        <time>2020-05-23T19:55:57Z</time>
      </trkpt>
      <trkpt lat="39.936325" lon="3.141974">
        <ele>43.1</ele>
        <time>2020-05-23T19:55:58Z</time>
      </trkpt>
      <trkpt lat="39.936249" lon="3.141896">
        <ele>43</ele>
        <time>2020-05-23T19:55:59Z</time>
      </trkpt>
      <trkpt lat="39.936157" lon="3.141803">
        <ele>42.9</ele>
        <time>2020-05-23T19:56:01Z</time>
      </trkpt>
      <trkpt lat="39.936066" lon="3.141706">
        <ele>42.9</ele>
        <time>2020-05-23T19:56:02Z</time>
      </trkpt>
      <trkpt lat="39.935993" lon="3.141624">
        <ele>42.9</ele>
        <time>2020-05-23T19:56:03Z</time>
      </trkpt>
      <trkpt lat="39.935917" lon="3.141539">
        <ele>42.8</ele>
        <time>2020-05-23T19:56:04Z</time>
      </trkpt>
      <trkpt lat="39.935837" lon="3.141455">
        <ele>42.6</ele>
        <time>2020-05-23T19:56:05Z</time>
      </trkpt>
      <trkpt lat="39.935738" lon="3.141354">
        <ele>42.4</ele>
        <time>2020-05-23T19:56:06Z</time>
      </trkpt>
      <trkpt lat="39.935635" lon="3.141243">
        <ele>42</ele>
        <time>2020-05-23T19:56:07Z</time>
      </trkpt>
      <trkpt lat="39.935532" lon="3.141129">
        <ele>41.4</ele>
        <time>2020-05-23T19:56:08Z</time>
      </trkpt>
      <trkpt lat="39.935436" lon="3.140997">
        <ele>40.8</ele>
        <time>2020-05-23T19:56:10Z</time>
      </trkpt>
      <trkpt lat="39.935364" lon="3.140875">
        <ele>40.3</ele>
        <time>2020-05-23T19:56:11Z</time>
      </trkpt>
      <trkpt lat="39.935284" lon="3.140727">
        <ele>39.7</ele>
        <time>2020-05-23T19:56:12Z</time>
      </trkpt>
      <trkpt lat="39.935223" lon="3.140565">
        <ele>39</ele>
        <time>2020-05-23T19:56:13Z</time>
      </trkpt>
      <trkpt lat="39.935177" lon="3.140429">
        <ele>38.6</ele>
        <time>2020-05-23T19:56:14Z</time>
      </trkpt>
      <trkpt lat="39.93512" lon="3.140269">
        <ele>38.3</ele>
        <time>2020-05-23T19:56:15Z</time>
      </trkpt>
      <trkpt lat="39.935062" lon="3.140117">
        <ele>38</ele>
        <time>2020-05-23T19:56:16Z</time>
      </trkpt>
      <trkpt lat="39.935009" lon="3.139995">
        <ele>37.9</ele>
        <time>2020-05-23T19:56:17Z</time>
      </trkpt>
      <trkpt lat="39.934933" lon="3.139862">
        <ele>37.8</ele>
        <time>2020-05-23T19:56:19Z</time>
      </trkpt>
      <trkpt lat="39.93486" lon="3.139738">
        <ele>37.6</ele>
        <time>2020-05-23T19:56:20Z</time>
      </trkpt>
      <trkpt lat="39.934784" lon="3.139619">
        <ele>37.5</ele>
        <time>2020-05-23T19:56:21Z</time>
      </trkpt>
      <trkpt lat="39.934715" lon="3.139502">
        <ele>37.5</ele>
        <time>2020-05-23T19:56:22Z</time>
      </trkpt>
      <trkpt lat="39.934647" lon="3.139387">
        <ele>37.5</ele>
        <time>2020-05-23T19:56:23Z</time>
      </trkpt>
      <trkpt lat="39.934585" lon="3.139289">
        <ele>37.4</ele>
        <time>2020-05-23T19:56:24Z</time>
      </trkpt>
      <trkpt lat="39.934521" lon="3.139184">
        <ele>37.1</ele>
        <time>2020-05-23T19:56:25Z</time>
      </trkpt>
      <trkpt lat="39.934437" lon="3.139046">
        <ele>36.3</ele>
        <time>2020-05-23T19:56:27Z</time>
      </trkpt>
      <trkpt lat="39.934349" lon="3.138896">
        <ele>35.3</ele>
        <time>2020-05-23T19:56:28Z</time>
      </trkpt>
      <trkpt lat="39.934261" lon="3.138734">
        <ele>34</ele>
        <time>2020-05-23T19:56:29Z</time>
      </trkpt>
      <trkpt lat="39.934181" lon="3.138596">
        <ele>33</ele>
        <time>2020-05-23T19:56:30Z</time>
      </trkpt>
      <trkpt lat="39.934101" lon="3.138453">
        <ele>31.9</ele>
        <time>2020-05-23T19:56:31Z</time>
      </trkpt>
      <trkpt lat="39.934013" lon="3.138272">
        <ele>30.5</ele>
        <time>2020-05-23T19:56:32Z</time>
      </trkpt>
      <trkpt lat="39.933914" lon="3.138091">
        <ele>29.2</ele>
        <time>2020-05-23T19:56:33Z</time>
      </trkpt>
      <trkpt lat="39.933807" lon="3.137917">
        <ele>27.9</ele>
        <time>2020-05-23T19:56:35Z</time>
      </trkpt>
      <trkpt lat="39.933727" lon="3.137765">
        <ele>26.9</ele>
        <time>2020-05-23T19:56:36Z</time>
      </trkpt>
      <trkpt lat="39.933651" lon="3.137606">
        <ele>25.9</ele>
        <time>2020-05-23T19:56:37Z</time>
      </trkpt>
      <trkpt lat="39.933609" lon="3.137425">
        <ele>24.9</ele>
        <time>2020-05-23T19:56:38Z</time>
      </trkpt>
      <trkpt lat="39.933578" lon="3.137203">
        <ele>23.8</ele>
        <time>2020-05-23T19:56:39Z</time>
      </trkpt>
      <trkpt lat="39.933559" lon="3.13698">
        <ele>22.9</ele>
        <time>2020-05-23T19:56:40Z</time>
      </trkpt>
      <trkpt lat="39.933544" lon="3.136798">
        <ele>22.2</ele>
        <time>2020-05-23T19:56:41Z</time>
      </trkpt>
      <trkpt lat="39.933521" lon="3.13662">
        <ele>21.6</ele>
        <time>2020-05-23T19:56:42Z</time>
      </trkpt>
      <trkpt lat="39.933514" lon="3.136409">
        <ele>21</ele>
        <time>2020-05-23T19:56:43Z</time>
      </trkpt>
      <trkpt lat="39.933475" lon="3.13621">
        <ele>20.4</ele>
        <time>2020-05-23T19:56:44Z</time>
      </trkpt>
      <trkpt lat="39.933422" lon="3.136055">
        <ele>19.9</ele>
        <time>2020-05-23T19:56:45Z</time>
      </trkpt>
      <trkpt lat="39.93333" lon="3.1359">
        <ele>19.4</ele>
        <time>2020-05-23T19:56:47Z</time>
      </trkpt>
      <trkpt lat="39.933212" lon="3.135772">
        <ele>18.8</ele>
        <time>2020-05-23T19:56:48Z</time>
      </trkpt>
      <trkpt lat="39.933083" lon="3.135672">
        <ele>18.1</ele>
        <time>2020-05-23T19:56:49Z</time>
      </trkpt>
      <trkpt lat="39.93296" lon="3.135615">
        <ele>17.6</ele>
        <time>2020-05-23T19:56:50Z</time>
      </trkpt>
      <trkpt lat="39.932812" lon="3.135553">
        <ele>16.8</ele>
        <time>2020-05-23T19:56:51Z</time>
      </trkpt>
      <trkpt lat="39.932686" lon="3.1355">
        <ele>16.2</ele>
        <time>2020-05-23T19:56:52Z</time>
      </trkpt>
      <trkpt lat="39.932533" lon="3.135431">
        <ele>15.4</ele>
        <time>2020-05-23T19:56:53Z</time>
      </trkpt>
      <trkpt lat="39.932381" lon="3.135355">
        <ele>14.6</ele>
        <time>2020-05-23T19:56:55Z</time>
      </trkpt>
      <trkpt lat="39.932251" lon="3.135291">
        <ele>13.9</ele>
        <time>2020-05-23T19:56:56Z</time>
      </trkpt>
      <trkpt lat="39.932125" lon="3.135227">
        <ele>13.3</ele>
        <time>2020-05-23T19:56:57Z</time>
      </trkpt>
      <trkpt lat="39.931976" lon="3.135154">
        <ele>12.7</ele>
        <time>2020-05-23T19:56:58Z</time>
      </trkpt>
      <trkpt lat="39.931831" lon="3.135077">
        <ele>12.1</ele>
        <time>2020-05-23T19:56:59Z</time>
      </trkpt>
      <trkpt lat="39.931686" lon="3.134999">
        <ele>11.5</ele>
        <time>2020-05-23T19:57:00Z</time>
      </trkpt>
      <trkpt lat="39.931541" lon="3.134919">
        <ele>11</ele>
        <time>2020-05-23T19:57:01Z</time>
      </trkpt>
      <trkpt lat="39.9314" lon="3.134837">
        <ele>10.5</ele>
        <time>2020-05-23T19:57:03Z</time>
      </trkpt>
      <trkpt lat="39.931259" lon="3.134751">
        <ele>10</ele>
        <time>2020-05-23T19:57:04Z</time>
      </trkpt>
      <trkpt lat="39.931122" lon="3.134661">
        <ele>9.5</ele>
        <time>2020-05-23T19:57:05Z</time>
      </trkpt>
      <trkpt lat="39.930981" lon="3.13458">
        <ele>9</ele>
        <time>2020-05-23T19:57:06Z</time>
      </trkpt>
      <trkpt lat="39.930843" lon="3.134494">
        <ele>8.5</ele>
        <time>2020-05-23T19:57:07Z</time>
      </trkpt>
      <trkpt lat="39.930702" lon="3.134416">
        <ele>8</ele>
        <time>2020-05-23T19:57:09Z</time>
      </trkpt>
      <trkpt lat="39.930557" lon="3.134346">
        <ele>7.6</ele>
        <time>2020-05-23T19:57:10Z</time>
      </trkpt>
      <trkpt lat="39.930439" lon="3.134299">
        <ele>7.2</ele>
        <time>2020-05-23T19:57:11Z</time>
      </trkpt>
      <trkpt lat="39.930302" lon="3.134262">
        <ele>6.9</ele>
        <time>2020-05-23T19:57:12Z</time>
      </trkpt>
      <trkpt lat="39.930168" lon="3.134226">
        <ele>6.6</ele>
        <time>2020-05-23T19:57:13Z</time>
      </trkpt>
      <trkpt lat="39.930065" lon="3.134201">
        <ele>6.4</ele>
        <time>2020-05-23T19:57:14Z</time>
      </trkpt>
      <trkpt lat="39.929943" lon="3.134181">
        <ele>6.3</ele>
        <time>2020-05-23T19:57:15Z</time>
      </trkpt>
      <trkpt lat="39.929829" lon="3.134167">
        <ele>6.1</ele>
        <time>2020-05-23T19:57:17Z</time>
      </trkpt>
      <trkpt lat="39.929718" lon="3.134136">
        <ele>6</ele>
        <time>2020-05-23T19:57:18Z</time>
      </trkpt>
      <trkpt lat="39.929619" lon="3.134104">
        <ele>5.9</ele>
        <time>2020-05-23T19:57:19Z</time>
      </trkpt>
      <trkpt lat="39.929527" lon="3.13408">
        <ele>5.9</ele>
        <time>2020-05-23T19:57:20Z</time>
      </trkpt>
      <trkpt lat="39.929447" lon="3.134038">
        <ele>5.8</ele>
        <time>2020-05-23T19:57:21Z</time>
      </trkpt>
      <trkpt lat="39.929378" lon="3.133975">
        <ele>5.8</ele>
        <time>2020-05-23T19:57:23Z</time>
      </trkpt>
      <trkpt lat="39.929314" lon="3.133916">
        <ele>5.8</ele>
        <time>2020-05-23T19:57:24Z</time>
      </trkpt>
      <trkpt lat="39.929264" lon="3.133845">
        <ele>5.9</ele>
        <time>2020-05-23T19:57:25Z</time>
      </trkpt>
      <trkpt lat="39.929245" lon="3.133751">
        <ele>6.1</ele>
        <time>2020-05-23T19:57:26Z</time>
      </trkpt>
      <trkpt lat="39.929241" lon="3.133675">
        <ele>6.7</ele>
        <time>2020-05-23T19:57:27Z</time>
      </trkpt>
      <trkpt lat="39.929241" lon="3.133587">
        <ele>6.8</ele>
        <time>2020-05-23T19:57:28Z</time>
      </trkpt>
      <trkpt lat="39.929245" lon="3.133517">
        <ele>6.9</ele>
        <time>2020-05-23T19:57:29Z</time>
      </trkpt>
      <trkpt lat="39.929253" lon="3.133438">
        <ele>7.2</ele>
        <time>2020-05-23T19:57:31Z</time>
      </trkpt>
      <trkpt lat="39.929272" lon="3.133361">
        <ele>7.5</ele>
        <time>2020-05-23T19:57:32Z</time>
      </trkpt>
      <trkpt lat="39.929287" lon="3.133287">
        <ele>7.7</ele>
        <time>2020-05-23T19:57:33Z</time>
      </trkpt>
      <trkpt lat="39.929306" lon="3.133225">
        <ele>8</ele>
        <time>2020-05-23T19:57:34Z</time>
      </trkpt>
      <trkpt lat="39.929325" lon="3.133151">
        <ele>8.2</ele>
        <time>2020-05-23T19:57:35Z</time>
      </trkpt>
      <trkpt lat="39.929348" lon="3.133075">
        <ele>8.5</ele>
        <time>2020-05-23T19:57:36Z</time>
      </trkpt>
      <trkpt lat="39.929371" lon="3.132997">
        <ele>8.9</ele>
        <time>2020-05-23T19:57:38Z</time>
      </trkpt>
      <trkpt lat="39.929386" lon="3.132932">
        <ele>9.2</ele>
        <time>2020-05-23T19:57:39Z</time>
      </trkpt>
      <trkpt lat="39.929405" lon="3.132852">
        <ele>9.6</ele>
        <time>2020-05-23T19:57:40Z</time>
      </trkpt>
      <trkpt lat="39.92942" lon="3.132783">
        <ele>10</ele>
        <time>2020-05-23T19:57:41Z</time>
      </trkpt>
      <trkpt lat="39.92944" lon="3.132698">
        <ele>10.4</ele>
        <time>2020-05-23T19:57:42Z</time>
      </trkpt>
      <trkpt lat="39.929455" lon="3.132624">
        <ele>10.7</ele>
        <time>2020-05-23T19:57:43Z</time>
      </trkpt>
      <trkpt lat="39.929474" lon="3.132536">
        <ele>11.1</ele>
        <time>2020-05-23T19:57:44Z</time>
      </trkpt>
      <trkpt lat="39.929489" lon="3.132451">
        <ele>11.6</ele>
        <time>2020-05-23T19:57:45Z</time>
      </trkpt>
      <trkpt lat="39.929504" lon="3.13238">
        <ele>11.9</ele>
        <time>2020-05-23T19:57:46Z</time>
      </trkpt>
      <trkpt lat="39.929523" lon="3.132299">
        <ele>12.3</ele>
        <time>2020-05-23T19:57:48Z</time>
      </trkpt>
      <trkpt lat="39.929535" lon="3.132232">
        <ele>12.7</ele>
        <time>2020-05-23T19:57:49Z</time>
      </trkpt>
      <trkpt lat="39.92955" lon="3.132167">
        <ele>13</ele>
        <time>2020-05-23T19:57:50Z</time>
      </trkpt>
      <trkpt lat="39.929565" lon="3.132088">
        <ele>13.5</ele>
        <time>2020-05-23T19:57:51Z</time>
      </trkpt>
      <trkpt lat="39.929577" lon="3.132022">
        <ele>13.8</ele>
        <time>2020-05-23T19:57:52Z</time>
      </trkpt>
      <trkpt lat="39.929592" lon="3.131944">
        <ele>14.2</ele>
        <time>2020-05-23T19:57:53Z</time>
      </trkpt>
      <trkpt lat="39.929607" lon="3.131872">
        <ele>14.6</ele>
        <time>2020-05-23T19:57:54Z</time>
      </trkpt>
      <trkpt lat="39.929619" lon="3.131817">
        <ele>14.8</ele>
        <time>2020-05-23T19:57:55Z</time>
      </trkpt>
      <trkpt lat="39.92963" lon="3.131764">
        <ele>15.1</ele>
        <time>2020-05-23T19:57:56Z</time>
      </trkpt>
      <trkpt lat="39.929642" lon="3.131702">
        <ele>15.4</ele>
        <time>2020-05-23T19:57:57Z</time>
      </trkpt>
      <trkpt lat="39.929657" lon="3.131642">
        <ele>15.6</ele>
        <time>2020-05-23T19:57:59Z</time>
      </trkpt>
      <trkpt lat="39.929665" lon="3.131592">
        <ele>15.9</ele>
        <time>2020-05-23T19:58:00Z</time>
      </trkpt>
      <trkpt lat="39.929676" lon="3.131536">
        <ele>16.1</ele>
        <time>2020-05-23T19:58:01Z</time>
      </trkpt>
      <trkpt lat="39.929687" lon="3.13148">
        <ele>16.4</ele>
        <time>2020-05-23T19:58:02Z</time>
      </trkpt>
      <trkpt lat="39.929699" lon="3.131426">
        <ele>16.6</ele>
        <time>2020-05-23T19:58:03Z</time>
      </trkpt>
      <trkpt lat="39.929707" lon="3.13138">
        <ele>16.8</ele>
        <time>2020-05-23T19:58:04Z</time>
      </trkpt>
      <trkpt lat="39.929718" lon="3.131326">
        <ele>17.1</ele>
        <time>2020-05-23T19:58:05Z</time>
      </trkpt>
      <trkpt lat="39.929729" lon="3.131272">
        <ele>17.3</ele>
        <time>2020-05-23T19:58:07Z</time>
      </trkpt>
      <trkpt lat="39.929737" lon="3.13122">
        <ele>17.6</ele>
        <time>2020-05-23T19:58:08Z</time>
      </trkpt>
      <trkpt lat="39.929748" lon="3.131175">
        <ele>17.8</ele>
        <time>2020-05-23T19:58:09Z</time>
      </trkpt>
      <trkpt lat="39.929756" lon="3.131122">
        <ele>18.1</ele>
        <time>2020-05-23T19:58:10Z</time>
      </trkpt>
      <trkpt lat="39.929768" lon="3.131068">
        <ele>18.4</ele>
        <time>2020-05-23T19:58:11Z</time>
      </trkpt>
      <trkpt lat="39.929779" lon="3.131014">
        <ele>18.7</ele>
        <time>2020-05-23T19:58:12Z</time>
      </trkpt>
      <trkpt lat="39.92979" lon="3.13096">
        <ele>19</ele>
        <time>2020-05-23T19:58:14Z</time>
      </trkpt>
      <trkpt lat="39.929806" lon="3.130907">
        <ele>19.4</ele>
        <time>2020-05-23T19:58:15Z</time>
      </trkpt>
      <trkpt lat="39.929821" lon="3.13085">
        <ele>19.8</ele>
        <time>2020-05-23T19:58:16Z</time>
      </trkpt>
      <trkpt lat="39.929836" lon="3.130794">
        <ele>20.2</ele>
        <time>2020-05-23T19:58:17Z</time>
      </trkpt>
      <trkpt lat="39.929851" lon="3.130748">
        <ele>20.6</ele>
        <time>2020-05-23T19:58:18Z</time>
      </trkpt>
      <trkpt lat="39.929867" lon="3.130695">
        <ele>20.9</ele>
        <time>2020-05-23T19:58:19Z</time>
      </trkpt>
      <trkpt lat="39.929893" lon="3.130643">
        <ele>21.4</ele>
        <time>2020-05-23T19:58:21Z</time>
      </trkpt>
      <trkpt lat="39.929928" lon="3.130593">
        <ele>21.8</ele>
        <time>2020-05-23T19:58:22Z</time>
      </trkpt>
      <trkpt lat="39.929974" lon="3.130543">
        <ele>22.4</ele>
        <time>2020-05-23T19:58:23Z</time>
      </trkpt>
      <trkpt lat="39.930019" lon="3.130491">
        <ele>23</ele>
        <time>2020-05-23T19:58:24Z</time>
      </trkpt>
      <trkpt lat="39.930073" lon="3.130437">
        <ele>23.6</ele>
        <time>2020-05-23T19:58:25Z</time>
      </trkpt>
      <trkpt lat="39.930126" lon="3.130383">
        <ele>23.1</ele>
        <time>2020-05-23T19:58:27Z</time>
      </trkpt>
      <trkpt lat="39.930172" lon="3.13034">
        <ele>23.4</ele>
        <time>2020-05-23T19:58:28Z</time>
      </trkpt>
      <trkpt lat="39.930218" lon="3.130299">
        <ele>23.8</ele>
        <time>2020-05-23T19:58:29Z</time>
      </trkpt>
      <trkpt lat="39.930271" lon="3.130252">
        <ele>24.2</ele>
        <time>2020-05-23T19:58:30Z</time>
      </trkpt>
      <trkpt lat="39.930325" lon="3.130208">
        <ele>24.6</ele>
        <time>2020-05-23T19:58:31Z</time>
      </trkpt>
      <trkpt lat="39.930374" lon="3.130167">
        <ele>24.9</ele>
        <time>2020-05-23T19:58:32Z</time>
      </trkpt>
      <trkpt lat="39.93042" lon="3.130132">
        <ele>25.2</ele>
        <time>2020-05-23T19:58:33Z</time>
      </trkpt>
      <trkpt lat="39.930462" lon="3.130101">
        <ele>25.5</ele>
        <time>2020-05-23T19:58:35Z</time>
      </trkpt>
      <trkpt lat="39.9305" lon="3.130071">
        <ele>25.7</ele>
        <time>2020-05-23T19:58:36Z</time>
      </trkpt>
      <trkpt lat="39.930534" lon="3.130047">
        <ele>26</ele>
        <time>2020-05-23T19:58:37Z</time>
      </trkpt>
      <trkpt lat="39.930569" lon="3.130022">
        <ele>26.2</ele>
        <time>2020-05-23T19:58:38Z</time>
      </trkpt>
      <trkpt lat="39.930607" lon="3.129995">
        <ele>26.5</ele>
        <time>2020-05-23T19:58:39Z</time>
      </trkpt>
      <trkpt lat="39.930653" lon="3.129964">
        <ele>26.8</ele>
        <time>2020-05-23T19:58:40Z</time>
      </trkpt>
      <trkpt lat="39.930698" lon="3.129931">
        <ele>27.1</ele>
        <time>2020-05-23T19:58:41Z</time>
      </trkpt>
      <trkpt lat="39.93074" lon="3.129895">
        <ele>27.4</ele>
        <time>2020-05-23T19:58:42Z</time>
      </trkpt>
      <trkpt lat="39.930786" lon="3.129858">
        <ele>27.8</ele>
        <time>2020-05-23T19:58:44Z</time>
      </trkpt>
      <trkpt lat="39.930832" lon="3.129818">
        <ele>28.1</ele>
        <time>2020-05-23T19:58:45Z</time>
      </trkpt>
      <trkpt lat="39.930878" lon="3.129777">
        <ele>28.5</ele>
        <time>2020-05-23T19:58:46Z</time>
      </trkpt>
      <trkpt lat="39.930927" lon="3.129734">
        <ele>28.9</ele>
        <time>2020-05-23T19:58:47Z</time>
      </trkpt>
      <trkpt lat="39.930973" lon="3.129693">
        <ele>29.3</ele>
        <time>2020-05-23T19:58:48Z</time>
      </trkpt>
      <trkpt lat="39.931019" lon="3.129655">
        <ele>29.7</ele>
        <time>2020-05-23T19:58:50Z</time>
      </trkpt>
      <trkpt lat="39.931061" lon="3.129624">
        <ele>30</ele>
        <time>2020-05-23T19:58:51Z</time>
      </trkpt>
      <trkpt lat="39.931099" lon="3.129591">
        <ele>30.4</ele>
        <time>2020-05-23T19:58:52Z</time>
      </trkpt>
      <trkpt lat="39.931145" lon="3.129549">
        <ele>30.8</ele>
        <time>2020-05-23T19:58:53Z</time>
      </trkpt>
      <trkpt lat="39.93119" lon="3.129509">
        <ele>31.1</ele>
        <time>2020-05-23T19:58:54Z</time>
      </trkpt>
      <trkpt lat="39.931236" lon="3.129479">
        <ele>31.4</ele>
        <time>2020-05-23T19:58:55Z</time>
      </trkpt>
      <trkpt lat="39.931274" lon="3.129465">
        <ele>31.7</ele>
        <time>2020-05-23T19:58:56Z</time>
      </trkpt>
      <trkpt lat="39.93132" lon="3.129456">
        <ele>31.9</ele>
        <time>2020-05-23T19:58:57Z</time>
      </trkpt>
      <trkpt lat="39.931366" lon="3.129451">
        <ele>32.1</ele>
        <time>2020-05-23T19:58:59Z</time>
      </trkpt>
      <trkpt lat="39.931412" lon="3.129447">
        <ele>32.5</ele>
        <time>2020-05-23T19:59:00Z</time>
      </trkpt>
      <trkpt lat="39.931461" lon="3.12945">
        <ele>33</ele>
        <time>2020-05-23T19:59:01Z</time>
      </trkpt>
      <trkpt lat="39.931511" lon="3.129464">
        <ele>33.4</ele>
        <time>2020-05-23T19:59:02Z</time>
      </trkpt>
      <trkpt lat="39.931549" lon="3.129482">
        <ele>33.7</ele>
        <time>2020-05-23T19:59:03Z</time>
      </trkpt>
      <trkpt lat="39.931599" lon="3.129507">
        <ele>34.2</ele>
        <time>2020-05-23T19:59:04Z</time>
      </trkpt>
      <trkpt lat="39.931652" lon="3.129534">
        <ele>34.7</ele>
        <time>2020-05-23T19:59:06Z</time>
      </trkpt>
      <trkpt lat="39.931702" lon="3.129562">
        <ele>35.2</ele>
        <time>2020-05-23T19:59:07Z</time>
      </trkpt>
      <trkpt lat="39.931747" lon="3.129586">
        <ele>35.6</ele>
        <time>2020-05-23T19:59:08Z</time>
      </trkpt>
      <trkpt lat="39.931786" lon="3.129612">
        <ele>36</ele>
        <time>2020-05-23T19:59:09Z</time>
      </trkpt>
      <trkpt lat="39.931831" lon="3.129644">
        <ele>36.4</ele>
        <time>2020-05-23T19:59:10Z</time>
      </trkpt>
      <trkpt lat="39.931866" lon="3.129671">
        <ele>36.7</ele>
        <time>2020-05-23T19:59:11Z</time>
      </trkpt>
      <trkpt lat="39.9319" lon="3.129696">
        <ele>37.1</ele>
        <time>2020-05-23T19:59:12Z</time>
      </trkpt>
      <trkpt lat="39.931931" lon="3.12972">
        <ele>37.4</ele>
        <time>2020-05-23T19:59:13Z</time>
      </trkpt>
      <trkpt lat="39.931969" lon="3.129749">
        <ele>37.7</ele>
        <time>2020-05-23T19:59:14Z</time>
      </trkpt>
      <trkpt lat="39.932007" lon="3.12978">
        <ele>38.1</ele>
        <time>2020-05-23T19:59:15Z</time>
      </trkpt>
      <trkpt lat="39.932045" lon="3.129811">
        <ele>38.4</ele>
        <time>2020-05-23T19:59:17Z</time>
      </trkpt>
      <trkpt lat="39.932083" lon="3.129843">
        <ele>38.8</ele>
        <time>2020-05-23T19:59:18Z</time>
      </trkpt>
      <trkpt lat="39.932114" lon="3.129871">
        <ele>39.1</ele>
        <time>2020-05-23T19:59:19Z</time>
      </trkpt>
      <trkpt lat="39.932152" lon="3.129904">
        <ele>39.5</ele>
        <time>2020-05-23T19:59:20Z</time>
      </trkpt>
      <trkpt lat="39.932186" lon="3.129931">
        <ele>39.8</ele>
        <time>2020-05-23T19:59:21Z</time>
      </trkpt>
      <trkpt lat="39.93222" lon="3.129962">
        <ele>40.2</ele>
        <time>2020-05-23T19:59:22Z</time>
      </trkpt>
      <trkpt lat="39.932259" lon="3.129992">
        <ele>40.6</ele>
        <time>2020-05-23T19:59:23Z</time>
      </trkpt>
      <trkpt lat="39.932293" lon="3.130022">
        <ele>40.9</ele>
        <time>2020-05-23T19:59:25Z</time>
      </trkpt>
      <trkpt lat="39.932327" lon="3.130052">
        <ele>41.3</ele>
        <time>2020-05-23T19:59:26Z</time>
      </trkpt>
      <trkpt lat="39.932354" lon="3.13008">
        <ele>41.5</ele>
        <time>2020-05-23T19:59:27Z</time>
      </trkpt>
      <trkpt lat="39.932384" lon="3.13011">
        <ele>41.9</ele>
        <time>2020-05-23T19:59:28Z</time>
      </trkpt>
      <trkpt lat="39.932415" lon="3.130148">
        <ele>42.2</ele>
        <time>2020-05-23T19:59:29Z</time>
      </trkpt>
      <trkpt lat="39.932449" lon="3.130188">
        <ele>42.6</ele>
        <time>2020-05-23T19:59:30Z</time>
      </trkpt>
      <trkpt lat="39.932476" lon="3.130222">
        <ele>42.9</ele>
        <time>2020-05-23T19:59:31Z</time>
      </trkpt>
      <trkpt lat="39.93251" lon="3.130263">
        <ele>43.3</ele>
        <time>2020-05-23T19:59:32Z</time>
      </trkpt>
      <trkpt lat="39.932537" lon="3.130299">
        <ele>43.7</ele>
        <time>2020-05-23T19:59:33Z</time>
      </trkpt>
      <trkpt lat="39.932571" lon="3.130342">
        <ele>44.1</ele>
        <time>2020-05-23T19:59:35Z</time>
      </trkpt>
      <trkpt lat="39.932606" lon="3.130387">
        <ele>44.5</ele>
        <time>2020-05-23T19:59:36Z</time>
      </trkpt>
      <trkpt lat="39.932636" lon="3.130427">
        <ele>44.8</ele>
        <time>2020-05-23T19:59:37Z</time>
      </trkpt>
      <trkpt lat="39.932674" lon="3.130475">
        <ele>45.3</ele>
        <time>2020-05-23T19:59:38Z</time>
      </trkpt>
      <trkpt lat="39.932705" lon="3.130516">
        <ele>45.7</ele>
        <time>2020-05-23T19:59:39Z</time>
      </trkpt>
      <trkpt lat="39.932739" lon="3.130557">
        <ele>46.1</ele>
        <time>2020-05-23T19:59:40Z</time>
      </trkpt>
      <trkpt lat="39.93277" lon="3.130598">
        <ele>46.5</ele>
        <time>2020-05-23T19:59:41Z</time>
      </trkpt>
      <trkpt lat="39.932812" lon="3.130646">
        <ele>47</ele>
        <time>2020-05-23T19:59:42Z</time>
      </trkpt>
      <trkpt lat="39.932857" lon="3.130696">
        <ele>47.6</ele>
        <time>2020-05-23T19:59:43Z</time>
      </trkpt>
      <trkpt lat="39.932899" lon="3.130748">
        <ele>48.1</ele>
        <time>2020-05-23T19:59:45Z</time>
      </trkpt>
      <trkpt lat="39.932934" lon="3.130798">
        <ele>48.6</ele>
        <time>2020-05-23T19:59:46Z</time>
      </trkpt>
      <trkpt lat="39.932972" lon="3.130864">
        <ele>49.2</ele>
        <time>2020-05-23T19:59:47Z</time>
      </trkpt>
      <trkpt lat="39.933006" lon="3.130924">
        <ele>49.7</ele>
        <time>2020-05-23T19:59:48Z</time>
      </trkpt>
      <trkpt lat="39.933052" lon="3.130983">
        <ele>50.3</ele>
        <time>2020-05-23T19:59:49Z</time>
      </trkpt>
      <trkpt lat="39.933105" lon="3.13099">
        <ele>50.8</ele>
        <time>2020-05-23T19:59:50Z</time>
      </trkpt>
      <trkpt lat="39.933155" lon="3.130963">
        <ele>51</ele>
        <time>2020-05-23T19:59:51Z</time>
      </trkpt>
      <trkpt lat="39.933189" lon="3.130937">
        <ele>51.2</ele>
        <time>2020-05-23T19:59:52Z</time>
      </trkpt>
      <trkpt lat="39.933208" lon="3.130908">
        <ele>51.3</ele>
        <time>2020-05-23T19:59:53Z</time>
      </trkpt>
      <trkpt lat="39.93322" lon="3.130863">
        <ele>51.4</ele>
        <time>2020-05-23T19:59:54Z</time>
      </trkpt>
      <trkpt lat="39.933205" lon="3.130809">
        <ele>51.6</ele>
        <time>2020-05-23T19:59:56Z</time>
      </trkpt>
      <trkpt lat="39.93317" lon="3.130756">
        <ele>51.8</ele>
        <time>2020-05-23T19:59:57Z</time>
      </trkpt>
      <trkpt lat="39.933136" lon="3.130706">
        <ele>52.1</ele>
        <time>2020-05-23T19:59:58Z</time>
      </trkpt>
      <trkpt lat="39.933094" lon="3.130658">
        <ele>52.3</ele>
        <time>2020-05-23T19:59:59Z</time>
      </trkpt>
      <trkpt lat="39.933056" lon="3.13061">
        <ele>52.7</ele>
        <time>2020-05-23T20:00:00Z</time>
      </trkpt>
      <trkpt lat="39.933014" lon="3.130561">
        <ele>53</ele>
        <time>2020-05-23T20:00:02Z</time>
      </trkpt>
      <trkpt lat="39.93298" lon="3.13051">
        <ele>53.3</ele>
        <time>2020-05-23T20:00:03Z</time>
      </trkpt>
      <trkpt lat="39.932945" lon="3.130458">
        <ele>53.7</ele>
        <time>2020-05-23T20:00:04Z</time>
      </trkpt>
      <trkpt lat="39.932922" lon="3.130415">
        <ele>53.9</ele>
        <time>2020-05-23T20:00:05Z</time>
      </trkpt>
      <trkpt lat="39.932896" lon="3.130363">
        <ele>54.2</ele>
        <time>2020-05-23T20:00:06Z</time>
      </trkpt>
      <trkpt lat="39.932873" lon="3.130319">
        <ele>54.5</ele>
        <time>2020-05-23T20:00:07Z</time>
      </trkpt>
      <trkpt lat="39.932842" lon="3.130265">
        <ele>54.8</ele>
        <time>2020-05-23T20:00:08Z</time>
      </trkpt>
      <trkpt lat="39.932815" lon="3.130212">
        <ele>55.1</ele>
        <time>2020-05-23T20:00:10Z</time>
      </trkpt>
      <trkpt lat="39.932793" lon="3.130159">
        <ele>55.4</ele>
        <time>2020-05-23T20:00:11Z</time>
      </trkpt>
      <trkpt lat="39.932766" lon="3.130106">
        <ele>55.7</ele>
        <time>2020-05-23T20:00:12Z</time>
      </trkpt>
      <trkpt lat="39.932743" lon="3.130052">
        <ele>55.9</ele>
        <time>2020-05-23T20:00:13Z</time>
      </trkpt>
      <trkpt lat="39.93272" lon="3.129998">
        <ele>56.2</ele>
        <time>2020-05-23T20:00:14Z</time>
      </trkpt>
      <trkpt lat="39.932693" lon="3.129943">
        <ele>56.5</ele>
        <time>2020-05-23T20:00:16Z</time>
      </trkpt>
      <trkpt lat="39.932671" lon="3.129888">
        <ele>56.8</ele>
        <time>2020-05-23T20:00:17Z</time>
      </trkpt>
      <trkpt lat="39.93264" lon="3.129834">
        <ele>57.2</ele>
        <time>2020-05-23T20:00:18Z</time>
      </trkpt>
      <trkpt lat="39.932613" lon="3.12978">
        <ele>57.5</ele>
        <time>2020-05-23T20:00:19Z</time>
      </trkpt>
      <trkpt lat="39.932583" lon="3.129728">
        <ele>57.8</ele>
        <time>2020-05-23T20:00:20Z</time>
      </trkpt>
      <trkpt lat="39.932556" lon="3.129684">
        <ele>58</ele>
        <time>2020-05-23T20:00:21Z</time>
      </trkpt>
      <trkpt lat="39.932526" lon="3.129632">
        <ele>58.4</ele>
        <time>2020-05-23T20:00:23Z</time>
      </trkpt>
      <trkpt lat="39.932499" lon="3.129589">
        <ele>58.7</ele>
        <time>2020-05-23T20:00:24Z</time>
      </trkpt>
      <trkpt lat="39.932468" lon="3.129548">
        <ele>59</ele>
        <time>2020-05-23T20:00:25Z</time>
      </trkpt>
      <trkpt lat="39.932438" lon="3.129498">
        <ele>59.4</ele>
        <time>2020-05-23T20:00:26Z</time>
      </trkpt>
      <trkpt lat="39.932411" lon="3.129456">
        <ele>59.7</ele>
        <time>2020-05-23T20:00:27Z</time>
      </trkpt>
      <trkpt lat="39.932384" lon="3.129404">
        <ele>60.1</ele>
        <time>2020-05-23T20:00:28Z</time>
      </trkpt>
      <trkpt lat="39.932358" lon="3.12935">
        <ele>60.5</ele>
        <time>2020-05-23T20:00:29Z</time>
      </trkpt>
      <trkpt lat="39.932335" lon="3.129304">
        <ele>60.8</ele>
        <time>2020-05-23T20:00:30Z</time>
      </trkpt>
      <trkpt lat="39.932312" lon="3.129258">
        <ele>61.1</ele>
        <time>2020-05-23T20:00:31Z</time>
      </trkpt>
      <trkpt lat="39.932281" lon="3.129202">
        <ele>61.5</ele>
        <time>2020-05-23T20:00:32Z</time>
      </trkpt>
      <trkpt lat="39.932259" lon="3.129144">
        <ele>61.8</ele>
        <time>2020-05-23T20:00:34Z</time>
      </trkpt>
      <trkpt lat="39.932247" lon="3.129083">
        <ele>62.2</ele>
        <time>2020-05-23T20:00:35Z</time>
      </trkpt>
      <trkpt lat="39.932243" lon="3.12902">
        <ele>62.6</ele>
        <time>2020-05-23T20:00:36Z</time>
      </trkpt>
      <trkpt lat="39.932243" lon="3.128956">
        <ele>62.9</ele>
        <time>2020-05-23T20:00:37Z</time>
      </trkpt>
      <trkpt lat="39.932247" lon="3.12889">
        <ele>63.3</ele>
        <time>2020-05-23T20:00:38Z</time>
      </trkpt>
      <trkpt lat="39.932251" lon="3.128825">
        <ele>63.6</ele>
        <time>2020-05-23T20:00:40Z</time>
      </trkpt>
      <trkpt lat="39.932255" lon="3.12877">
        <ele>63.9</ele>
        <time>2020-05-23T20:00:41Z</time>
      </trkpt>
      <trkpt lat="39.932266" lon="3.128704">
        <ele>64.3</ele>
        <time>2020-05-23T20:00:42Z</time>
      </trkpt>
      <trkpt lat="39.932278" lon="3.128637">
        <ele>64.6</ele>
        <time>2020-05-23T20:00:43Z</time>
      </trkpt>
      <trkpt lat="39.932289" lon="3.12857">
        <ele>65</ele>
        <time>2020-05-23T20:00:44Z</time>
      </trkpt>
      <trkpt lat="39.932301" lon="3.128515">
        <ele>65.3</ele>
        <time>2020-05-23T20:00:45Z</time>
      </trkpt>
      <trkpt lat="39.932308" lon="3.12846">
        <ele>65.5</ele>
        <time>2020-05-23T20:00:46Z</time>
      </trkpt>
      <trkpt lat="39.932316" lon="3.128402">
        <ele>65.8</ele>
        <time>2020-05-23T20:00:47Z</time>
      </trkpt>
      <trkpt lat="39.932327" lon="3.128332">
        <ele>66.2</ele>
        <time>2020-05-23T20:00:48Z</time>
      </trkpt>
      <trkpt lat="39.932342" lon="3.128265">
        <ele>66.5</ele>
        <time>2020-05-23T20:00:50Z</time>
      </trkpt>
      <trkpt lat="39.932362" lon="3.1282">
        <ele>66.8</ele>
        <time>2020-05-23T20:00:51Z</time>
      </trkpt>
      <trkpt lat="39.932384" lon="3.128137">
        <ele>67.1</ele>
        <time>2020-05-23T20:00:52Z</time>
      </trkpt>
      <trkpt lat="39.932404" lon="3.128086">
        <ele>67.4</ele>
        <time>2020-05-23T20:00:53Z</time>
      </trkpt>
      <trkpt lat="39.932423" lon="3.128025">
        <ele>67.7</ele>
        <time>2020-05-23T20:00:54Z</time>
      </trkpt>
      <trkpt lat="39.932442" lon="3.127976">
        <ele>68</ele>
        <time>2020-05-23T20:00:55Z</time>
      </trkpt>
      <trkpt lat="39.932461" lon="3.127928">
        <ele>68.3</ele>
        <time>2020-05-23T20:00:56Z</time>
      </trkpt>
      <trkpt lat="39.932491" lon="3.127872">
        <ele>68.6</ele>
        <time>2020-05-23T20:00:57Z</time>
      </trkpt>
      <trkpt lat="39.932518" lon="3.127824">
        <ele>68.9</ele>
        <time>2020-05-23T20:00:58Z</time>
      </trkpt>
      <trkpt lat="39.932552" lon="3.127764">
        <ele>69.3</ele>
        <time>2020-05-23T20:01:00Z</time>
      </trkpt>
      <trkpt lat="39.93259" lon="3.127702">
        <ele>69.7</ele>
        <time>2020-05-23T20:01:01Z</time>
      </trkpt>
      <trkpt lat="39.932621" lon="3.12765">
        <ele>70.1</ele>
        <time>2020-05-23T20:01:02Z</time>
      </trkpt>
      <trkpt lat="39.932655" lon="3.127598">
        <ele>70.4</ele>
        <time>2020-05-23T20:01:03Z</time>
      </trkpt>
      <trkpt lat="39.932701" lon="3.127537">
        <ele>70.8</ele>
        <time>2020-05-23T20:01:04Z</time>
      </trkpt>
      <trkpt lat="39.932739" lon="3.127485">
        <ele>71.1</ele>
        <time>2020-05-23T20:01:05Z</time>
      </trkpt>
      <trkpt lat="39.932781" lon="3.127433">
        <ele>71.5</ele>
        <time>2020-05-23T20:01:06Z</time>
      </trkpt>
      <trkpt lat="39.932835" lon="3.127368">
        <ele>71.9</ele>
        <time>2020-05-23T20:01:07Z</time>
      </trkpt>
      <trkpt lat="39.932888" lon="3.127301">
        <ele>72.4</ele>
        <time>2020-05-23T20:01:08Z</time>
      </trkpt>
      <trkpt lat="39.932941" lon="3.127237">
        <ele>72.9</ele>
        <time>2020-05-23T20:01:10Z</time>
      </trkpt>
      <trkpt lat="39.932983" lon="3.127187">
        <ele>73.3</ele>
        <time>2020-05-23T20:01:11Z</time>
      </trkpt>
      <trkpt lat="39.933022" lon="3.127144">
        <ele>73.6</ele>
        <time>2020-05-23T20:01:12Z</time>
      </trkpt>
      <trkpt lat="39.933063" lon="3.127095">
        <ele>74</ele>
        <time>2020-05-23T20:01:13Z</time>
      </trkpt>
      <trkpt lat="39.933094" lon="3.127057">
        <ele>74.3</ele>
        <time>2020-05-23T20:01:14Z</time>
      </trkpt>
      <trkpt lat="39.933125" lon="3.127014">
        <ele>74.6</ele>
        <time>2020-05-23T20:01:15Z</time>
      </trkpt>
      <trkpt lat="39.933147" lon="3.126981">
        <ele>74.8</ele>
        <time>2020-05-23T20:01:16Z</time>
      </trkpt>
      <trkpt lat="39.933174" lon="3.126944">
        <ele>75.1</ele>
        <time>2020-05-23T20:01:17Z</time>
      </trkpt>
      <trkpt lat="39.933201" lon="3.126907">
        <ele>75.4</ele>
        <time>2020-05-23T20:01:18Z</time>
      </trkpt>
      <trkpt lat="39.933224" lon="3.126871">
        <ele>75.7</ele>
        <time>2020-05-23T20:01:20Z</time>
      </trkpt>
      <trkpt lat="39.93325" lon="3.126835">
        <ele>76</ele>
        <time>2020-05-23T20:01:21Z</time>
      </trkpt>
      <trkpt lat="39.933269" lon="3.126803">
        <ele>76.2</ele>
        <time>2020-05-23T20:01:22Z</time>
      </trkpt>
      <trkpt lat="39.933292" lon="3.126769">
        <ele>76.5</ele>
        <time>2020-05-23T20:01:23Z</time>
      </trkpt>
      <trkpt lat="39.933323" lon="3.126727">
        <ele>76.8</ele>
        <time>2020-05-23T20:01:24Z</time>
      </trkpt>
      <trkpt lat="39.93335" lon="3.126685">
        <ele>77.1</ele>
        <time>2020-05-23T20:01:25Z</time>
      </trkpt>
      <trkpt lat="39.933376" lon="3.126643">
        <ele>77.3</ele>
        <time>2020-05-23T20:01:26Z</time>
      </trkpt>
      <trkpt lat="39.933403" lon="3.126601">
        <ele>77.6</ele>
        <time>2020-05-23T20:01:28Z</time>
      </trkpt>
      <trkpt lat="39.933426" lon="3.126566">
        <ele>77.8</ele>
        <time>2020-05-23T20:01:29Z</time>
      </trkpt>
      <trkpt lat="39.933449" lon="3.126531">
        <ele>78.1</ele>
        <time>2020-05-23T20:01:30Z</time>
      </trkpt>
      <trkpt lat="39.933472" lon="3.126496">
        <ele>78.3</ele>
        <time>2020-05-23T20:01:31Z</time>
      </trkpt>
      <trkpt lat="39.933495" lon="3.126461">
        <ele>78.6</ele>
        <time>2020-05-23T20:01:32Z</time>
      </trkpt>
      <trkpt lat="39.933521" lon="3.126419">
        <ele>78.9</ele>
        <time>2020-05-23T20:01:33Z</time>
      </trkpt>
      <trkpt lat="39.933544" lon="3.126382">
        <ele>79.1</ele>
        <time>2020-05-23T20:01:34Z</time>
      </trkpt>
      <trkpt lat="39.933567" lon="3.126334">
        <ele>79.4</ele>
        <time>2020-05-23T20:01:35Z</time>
      </trkpt>
      <trkpt lat="39.93359" lon="3.126281">
        <ele>79.8</ele>
        <time>2020-05-23T20:01:36Z</time>
      </trkpt>
      <trkpt lat="39.933617" lon="3.126224">
        <ele>80.2</ele>
        <time>2020-05-23T20:01:37Z</time>
      </trkpt>
      <trkpt lat="39.933636" lon="3.126174">
        <ele>80.5</ele>
        <time>2020-05-23T20:01:38Z</time>
      </trkpt>
      <trkpt lat="39.933666" lon="3.126114">
        <ele>80.9</ele>
        <time>2020-05-23T20:01:40Z</time>
      </trkpt>
      <trkpt lat="39.933689" lon="3.126062">
        <ele>81.3</ele>
        <time>2020-05-23T20:01:41Z</time>
      </trkpt>
      <trkpt lat="39.933716" lon="3.125993">
        <ele>81.7</ele>
        <time>2020-05-23T20:01:42Z</time>
      </trkpt>
      <trkpt lat="39.933731" lon="3.125929">
        <ele>82.2</ele>
        <time>2020-05-23T20:01:43Z</time>
      </trkpt>
      <trkpt lat="39.933742" lon="3.125849">
        <ele>82.7</ele>
        <time>2020-05-23T20:01:44Z</time>
      </trkpt>
      <trkpt lat="39.93375" lon="3.125782">
        <ele>83.1</ele>
        <time>2020-05-23T20:01:45Z</time>
      </trkpt>
      <trkpt lat="39.933762" lon="3.125701">
        <ele>83.6</ele>
        <time>2020-05-23T20:01:46Z</time>
      </trkpt>
      <trkpt lat="39.933754" lon="3.125618">
        <ele>84.1</ele>
        <time>2020-05-23T20:01:47Z</time>
      </trkpt>
      <trkpt lat="39.933708" lon="3.125553">
        <ele>84.6</ele>
        <time>2020-05-23T20:01:49Z</time>
      </trkpt>
      <trkpt lat="39.933651" lon="3.12551">
        <ele>85.1</ele>
        <time>2020-05-23T20:01:50Z</time>
      </trkpt>
      <trkpt lat="39.93359" lon="3.125474">
        <ele>85.4</ele>
        <time>2020-05-23T20:01:51Z</time>
      </trkpt>
      <trkpt lat="39.933529" lon="3.125448">
        <ele>85.9</ele>
        <time>2020-05-23T20:01:52Z</time>
      </trkpt>
      <trkpt lat="39.933464" lon="3.125435">
        <ele>86.3</ele>
        <time>2020-05-23T20:01:53Z</time>
      </trkpt>
      <trkpt lat="39.933399" lon="3.125429">
        <ele>86.6</ele>
        <time>2020-05-23T20:01:55Z</time>
      </trkpt>
      <trkpt lat="39.933346" lon="3.125426">
        <ele>86.8</ele>
        <time>2020-05-23T20:01:56Z</time>
      </trkpt>
      <trkpt lat="39.933289" lon="3.125423">
        <ele>87.1</ele>
        <time>2020-05-23T20:01:57Z</time>
      </trkpt>
      <trkpt lat="39.933239" lon="3.125421">
        <ele>87.4</ele>
        <time>2020-05-23T20:01:58Z</time>
      </trkpt>
      <trkpt lat="39.933182" lon="3.12542">
        <ele>87.7</ele>
        <time>2020-05-23T20:01:59Z</time>
      </trkpt>
      <trkpt lat="39.933121" lon="3.125421">
        <ele>88</ele>
        <time>2020-05-23T20:02:00Z</time>
      </trkpt>
      <trkpt lat="39.933075" lon="3.125424">
        <ele>88.3</ele>
        <time>2020-05-23T20:02:01Z</time>
      </trkpt>
      <trkpt lat="39.933025" lon="3.125427">
        <ele>88.6</ele>
        <time>2020-05-23T20:02:02Z</time>
      </trkpt>
      <trkpt lat="39.93298" lon="3.125431">
        <ele>88.9</ele>
        <time>2020-05-23T20:02:03Z</time>
      </trkpt>
      <trkpt lat="39.932922" lon="3.125435">
        <ele>89.3</ele>
        <time>2020-05-23T20:02:04Z</time>
      </trkpt>
      <trkpt lat="39.932865" lon="3.125435">
        <ele>89.7</ele>
        <time>2020-05-23T20:02:06Z</time>
      </trkpt>
      <trkpt lat="39.932808" lon="3.125426">
        <ele>90.1</ele>
        <time>2020-05-23T20:02:07Z</time>
      </trkpt>
      <trkpt lat="39.932766" lon="3.125413">
        <ele>90.5</ele>
        <time>2020-05-23T20:02:08Z</time>
      </trkpt>
      <trkpt lat="39.932712" lon="3.125395">
        <ele>90.9</ele>
        <time>2020-05-23T20:02:09Z</time>
      </trkpt>
      <trkpt lat="39.932671" lon="3.12538">
        <ele>91.2</ele>
        <time>2020-05-23T20:02:10Z</time>
      </trkpt>
      <trkpt lat="39.932617" lon="3.125365">
        <ele>91.6</ele>
        <time>2020-05-23T20:02:11Z</time>
      </trkpt>
      <trkpt lat="39.932564" lon="3.125347">
        <ele>92.1</ele>
        <time>2020-05-23T20:02:12Z</time>
      </trkpt>
      <trkpt lat="39.932526" lon="3.125323">
        <ele>92.4</ele>
        <time>2020-05-23T20:02:13Z</time>
      </trkpt>
      <trkpt lat="39.932484" lon="3.125285">
        <ele>92.8</ele>
        <time>2020-05-23T20:02:15Z</time>
      </trkpt>
      <trkpt lat="39.932453" lon="3.125248">
        <ele>93.2</ele>
        <time>2020-05-23T20:02:16Z</time>
      </trkpt>
      <trkpt lat="39.932423" lon="3.125209">
        <ele>93.5</ele>
        <time>2020-05-23T20:02:17Z</time>
      </trkpt>
      <trkpt lat="39.932388" lon="3.125163">
        <ele>93.9</ele>
        <time>2020-05-23T20:02:18Z</time>
      </trkpt>
      <trkpt lat="39.932358" lon="3.125118">
        <ele>94.3</ele>
        <time>2020-05-23T20:02:19Z</time>
      </trkpt>
      <trkpt lat="39.932327" lon="3.125071">
        <ele>94.7</ele>
        <time>2020-05-23T20:02:20Z</time>
      </trkpt>
      <trkpt lat="39.932304" lon="3.125019">
        <ele>95.1</ele>
        <time>2020-05-23T20:02:21Z</time>
      </trkpt>
      <trkpt lat="39.932289" lon="3.124974">
        <ele>95.4</ele>
        <time>2020-05-23T20:02:22Z</time>
      </trkpt>
      <trkpt lat="39.932274" lon="3.124919">
        <ele>95.8</ele>
        <time>2020-05-23T20:02:24Z</time>
      </trkpt>
      <trkpt lat="39.932259" lon="3.124866">
        <ele>96.2</ele>
        <time>2020-05-23T20:02:25Z</time>
      </trkpt>
      <trkpt lat="39.932251" lon="3.124824">
        <ele>96.5</ele>
        <time>2020-05-23T20:02:26Z</time>
      </trkpt>
      <trkpt lat="39.932236" lon="3.124774">
        <ele>96.8</ele>
        <time>2020-05-23T20:02:27Z</time>
      </trkpt>
      <trkpt lat="39.932224" lon="3.124723">
        <ele>97.2</ele>
        <time>2020-05-23T20:02:28Z</time>
      </trkpt>
      <trkpt lat="39.932217" lon="3.124681">
        <ele>97.5</ele>
        <time>2020-05-23T20:02:29Z</time>
      </trkpt>
      <trkpt lat="39.932209" lon="3.124638">
        <ele>98.2</ele>
        <time>2020-05-23T20:02:30Z</time>
      </trkpt>
      <trkpt lat="39.932197" lon="3.124585">
        <ele>98.6</ele>
        <time>2020-05-23T20:02:31Z</time>
      </trkpt>
      <trkpt lat="39.93219" lon="3.124528">
        <ele>99</ele>
        <time>2020-05-23T20:02:33Z</time>
      </trkpt>
      <trkpt lat="39.932182" lon="3.124479">
        <ele>99.4</ele>
        <time>2020-05-23T20:02:34Z</time>
      </trkpt>
      <trkpt lat="39.932171" lon="3.124421">
        <ele>99.8</ele>
        <time>2020-05-23T20:02:35Z</time>
      </trkpt>
      <trkpt lat="39.932163" lon="3.124374">
        <ele>100.1</ele>
        <time>2020-05-23T20:02:36Z</time>
      </trkpt>
      <trkpt lat="39.932156" lon="3.124322">
        <ele>100.5</ele>
        <time>2020-05-23T20:02:37Z</time>
      </trkpt>
      <trkpt lat="39.932148" lon="3.124279">
        <ele>100.8</ele>
        <time>2020-05-23T20:02:38Z</time>
      </trkpt>
      <trkpt lat="39.93214" lon="3.124228">
        <ele>101.1</ele>
        <time>2020-05-23T20:02:39Z</time>
      </trkpt>
      <trkpt lat="39.932129" lon="3.124176">
        <ele>101.4</ele>
        <time>2020-05-23T20:02:40Z</time>
      </trkpt>
      <trkpt lat="39.932121" lon="3.124124">
        <ele>101.8</ele>
        <time>2020-05-23T20:02:42Z</time>
      </trkpt>
      <trkpt lat="39.93211" lon="3.124079">
        <ele>102.1</ele>
        <time>2020-05-23T20:02:43Z</time>
      </trkpt>
      <trkpt lat="39.932102" lon="3.124034">
        <ele>102.3</ele>
        <time>2020-05-23T20:02:44Z</time>
      </trkpt>
      <trkpt lat="39.932091" lon="3.12398">
        <ele>102.7</ele>
        <time>2020-05-23T20:02:45Z</time>
      </trkpt>
      <trkpt lat="39.932079" lon="3.123927">
        <ele>103</ele>
        <time>2020-05-23T20:02:46Z</time>
      </trkpt>
      <trkpt lat="39.932068" lon="3.123883">
        <ele>103.3</ele>
        <time>2020-05-23T20:02:47Z</time>
      </trkpt>
      <trkpt lat="39.932056" lon="3.12383">
        <ele>103.7</ele>
        <time>2020-05-23T20:02:48Z</time>
      </trkpt>
      <trkpt lat="39.932045" lon="3.123784">
        <ele>104</ele>
        <time>2020-05-23T20:02:49Z</time>
      </trkpt>
      <trkpt lat="39.932026" lon="3.123726">
        <ele>104.4</ele>
        <time>2020-05-23T20:02:50Z</time>
      </trkpt>
      <trkpt lat="39.932007" lon="3.123665">
        <ele>104.8</ele>
        <time>2020-05-23T20:02:52Z</time>
      </trkpt>
      <trkpt lat="39.931988" lon="3.123604">
        <ele>105.2</ele>
        <time>2020-05-23T20:02:53Z</time>
      </trkpt>
      <trkpt lat="39.931972" lon="3.123543">
        <ele>105.6</ele>
        <time>2020-05-23T20:02:54Z</time>
      </trkpt>
      <trkpt lat="39.931953" lon="3.123481">
        <ele>106.1</ele>
        <time>2020-05-23T20:02:55Z</time>
      </trkpt>
      <trkpt lat="39.931934" lon="3.12343">
        <ele>106.4</ele>
        <time>2020-05-23T20:02:56Z</time>
      </trkpt>
      <trkpt lat="39.931904" lon="3.123374">
        <ele>106.9</ele>
        <time>2020-05-23T20:02:57Z</time>
      </trkpt>
      <trkpt lat="39.931862" lon="3.123326">
        <ele>107.3</ele>
        <time>2020-05-23T20:02:59Z</time>
      </trkpt>
      <trkpt lat="39.931816" lon="3.123279">
        <ele>107.8</ele>
        <time>2020-05-23T20:03:00Z</time>
      </trkpt>
      <trkpt lat="39.931782" lon="3.123241">
        <ele>108.2</ele>
        <time>2020-05-23T20:03:01Z</time>
      </trkpt>
      <trkpt lat="39.931736" lon="3.123198">
        <ele>108.6</ele>
        <time>2020-05-23T20:03:02Z</time>
      </trkpt>
      <trkpt lat="39.931683" lon="3.123174">
        <ele>109</ele>
        <time>2020-05-23T20:03:03Z</time>
      </trkpt>
      <trkpt lat="39.931633" lon="3.12317">
        <ele>109.3</ele>
        <time>2020-05-23T20:03:04Z</time>
      </trkpt>
      <trkpt lat="39.931568" lon="3.123176">
        <ele>109.7</ele>
        <time>2020-05-23T20:03:05Z</time>
      </trkpt>
      <trkpt lat="39.931511" lon="3.123183">
        <ele>110</ele>
        <time>2020-05-23T20:03:06Z</time>
      </trkpt>
      <trkpt lat="39.931438" lon="3.123192">
        <ele>110.4</ele>
        <time>2020-05-23T20:03:08Z</time>
      </trkpt>
      <trkpt lat="39.931377" lon="3.1232">
        <ele>110.8</ele>
        <time>2020-05-23T20:03:09Z</time>
      </trkpt>
      <trkpt lat="39.931305" lon="3.123208">
        <ele>111.1</ele>
        <time>2020-05-23T20:03:10Z</time>
      </trkpt>
      <trkpt lat="39.93124" lon="3.123213">
        <ele>111.4</ele>
        <time>2020-05-23T20:03:11Z</time>
      </trkpt>
      <trkpt lat="39.931168" lon="3.123214">
        <ele>111.8</ele>
        <time>2020-05-23T20:03:12Z</time>
      </trkpt>
      <trkpt lat="39.931103" lon="3.123215">
        <ele>112.1</ele>
        <time>2020-05-23T20:03:13Z</time>
      </trkpt>
      <trkpt lat="39.931023" lon="3.123229">
        <ele>112.6</ele>
        <time>2020-05-23T20:03:14Z</time>
      </trkpt>
      <trkpt lat="39.93095" lon="3.123258">
        <ele>113.1</ele>
        <time>2020-05-23T20:03:15Z</time>
      </trkpt>
      <trkpt lat="39.930885" lon="3.123282">
        <ele>113.6</ele>
        <time>2020-05-23T20:03:16Z</time>
      </trkpt>
      <trkpt lat="39.930813" lon="3.123318">
        <ele>115</ele>
        <time>2020-05-23T20:03:18Z</time>
      </trkpt>
      <trkpt lat="39.930767" lon="3.123392">
        <ele>115.4</ele>
        <time>2020-05-23T20:03:19Z</time>
      </trkpt>
      <trkpt lat="39.930748" lon="3.123464">
        <ele>115.7</ele>
        <time>2020-05-23T20:03:20Z</time>
      </trkpt>
      <trkpt lat="39.930737" lon="3.123545">
        <ele>116.1</ele>
        <time>2020-05-23T20:03:21Z</time>
      </trkpt>
      <trkpt lat="39.930729" lon="3.123618">
        <ele>116.3</ele>
        <time>2020-05-23T20:03:22Z</time>
      </trkpt>
      <trkpt lat="39.930721" lon="3.123687">
        <ele>116.6</ele>
        <time>2020-05-23T20:03:23Z</time>
      </trkpt>
      <trkpt lat="39.930714" lon="3.123741">
        <ele>116.8</ele>
        <time>2020-05-23T20:03:24Z</time>
      </trkpt>
      <trkpt lat="39.930702" lon="3.123805">
        <ele>117.1</ele>
        <time>2020-05-23T20:03:26Z</time>
      </trkpt>
      <trkpt lat="39.930695" lon="3.12386">
        <ele>117.3</ele>
        <time>2020-05-23T20:03:27Z</time>
      </trkpt>
      <trkpt lat="39.930679" lon="3.123924">
        <ele>117.6</ele>
        <time>2020-05-23T20:03:28Z</time>
      </trkpt>
      <trkpt lat="39.930668" lon="3.123987">
        <ele>117.9</ele>
        <time>2020-05-23T20:03:29Z</time>
      </trkpt>
      <trkpt lat="39.930656" lon="3.12405">
        <ele>118.2</ele>
        <time>2020-05-23T20:03:30Z</time>
      </trkpt>
      <trkpt lat="39.930645" lon="3.124116">
        <ele>118.5</ele>
        <time>2020-05-23T20:03:31Z</time>
      </trkpt>
      <trkpt lat="39.930634" lon="3.124171">
        <ele>118.8</ele>
        <time>2020-05-23T20:03:32Z</time>
      </trkpt>
      <trkpt lat="39.930626" lon="3.124227">
        <ele>119.1</ele>
        <time>2020-05-23T20:03:33Z</time>
      </trkpt>
      <trkpt lat="39.930618" lon="3.124296">
        <ele>119.5</ele>
        <time>2020-05-23T20:03:35Z</time>
      </trkpt>
      <trkpt lat="39.930614" lon="3.124354">
        <ele>119.8</ele>
        <time>2020-05-23T20:03:36Z</time>
      </trkpt>
      <trkpt lat="39.930611" lon="3.124411">
        <ele>120.2</ele>
        <time>2020-05-23T20:03:37Z</time>
      </trkpt>
      <trkpt lat="39.930611" lon="3.124481">
        <ele>120.6</ele>
        <time>2020-05-23T20:03:38Z</time>
      </trkpt>
      <trkpt lat="39.930611" lon="3.124538">
        <ele>120.9</ele>
        <time>2020-05-23T20:03:39Z</time>
      </trkpt>
      <trkpt lat="39.930603" lon="3.124604">
        <ele>121.3</ele>
        <time>2020-05-23T20:03:40Z</time>
      </trkpt>
      <trkpt lat="39.930584" lon="3.124667">
        <ele>121.7</ele>
        <time>2020-05-23T20:03:41Z</time>
      </trkpt>
      <trkpt lat="39.930561" lon="3.124716">
        <ele>122</ele>
        <time>2020-05-23T20:03:42Z</time>
      </trkpt>
      <trkpt lat="39.930527" lon="3.124777">
        <ele>122.4</ele>
        <time>2020-05-23T20:03:43Z</time>
      </trkpt>
      <trkpt lat="39.930496" lon="3.124828">
        <ele>122.8</ele>
        <time>2020-05-23T20:03:44Z</time>
      </trkpt>
      <trkpt lat="39.930447" lon="3.124867">
        <ele>123.2</ele>
        <time>2020-05-23T20:03:46Z</time>
      </trkpt>
      <trkpt lat="39.930412" lon="3.124803">
        <ele>123.7</ele>
        <time>2020-05-23T20:03:47Z</time>
      </trkpt>
      <trkpt lat="39.930389" lon="3.124728">
        <ele>124.2</ele>
        <time>2020-05-23T20:03:48Z</time>
      </trkpt>
      <trkpt lat="39.930378" lon="3.124646">
        <ele>124.7</ele>
        <time>2020-05-23T20:03:49Z</time>
      </trkpt>
      <trkpt lat="39.930386" lon="3.124558">
        <ele>125.7</ele>
        <time>2020-05-23T20:03:50Z</time>
      </trkpt>
      <trkpt lat="39.930393" lon="3.124464">
        <ele>126.2</ele>
        <time>2020-05-23T20:03:52Z</time>
      </trkpt>
      <trkpt lat="39.930397" lon="3.124387">
        <ele>126.5</ele>
        <time>2020-05-23T20:03:53Z</time>
      </trkpt>
      <trkpt lat="39.930408" lon="3.124296">
        <ele>127</ele>
        <time>2020-05-23T20:03:54Z</time>
      </trkpt>
      <trkpt lat="39.930412" lon="3.124222">
        <ele>127.3</ele>
        <time>2020-05-23T20:03:55Z</time>
      </trkpt>
      <trkpt lat="39.93042" lon="3.124136">
        <ele>127.7</ele>
        <time>2020-05-23T20:03:56Z</time>
      </trkpt>
      <trkpt lat="39.930427" lon="3.124053">
        <ele>128</ele>
        <time>2020-05-23T20:03:57Z</time>
      </trkpt>
      <trkpt lat="39.930431" lon="3.123985">
        <ele>128.3</ele>
        <time>2020-05-23T20:03:58Z</time>
      </trkpt>
      <trkpt lat="39.930439" lon="3.123905">
        <ele>128.6</ele>
        <time>2020-05-23T20:03:59Z</time>
      </trkpt>
      <trkpt lat="39.930443" lon="3.12384">
        <ele>128.9</ele>
        <time>2020-05-23T20:04:00Z</time>
      </trkpt>
      <trkpt lat="39.930447" lon="3.123776">
        <ele>129.1</ele>
        <time>2020-05-23T20:04:01Z</time>
      </trkpt>
      <trkpt lat="39.930447" lon="3.123713">
        <ele>129.3</ele>
        <time>2020-05-23T20:04:03Z</time>
      </trkpt>
      <trkpt lat="39.930447" lon="3.123638">
        <ele>129.6</ele>
        <time>2020-05-23T20:04:04Z</time>
      </trkpt>
      <trkpt lat="39.930443" lon="3.123563">
        <ele>129.9</ele>
        <time>2020-05-23T20:04:05Z</time>
      </trkpt>
      <trkpt lat="39.930443" lon="3.123501">
        <ele>130.1</ele>
        <time>2020-05-23T20:04:06Z</time>
      </trkpt>
      <trkpt lat="39.930439" lon="3.123426">
        <ele>130.4</ele>
        <time>2020-05-23T20:04:07Z</time>
      </trkpt>
      <trkpt lat="39.930439" lon="3.123363">
        <ele>130.7</ele>
        <time>2020-05-23T20:04:08Z</time>
      </trkpt>
      <trkpt lat="39.930443" lon="3.123286">
        <ele>131</ele>
        <time>2020-05-23T20:04:09Z</time>
      </trkpt>
      <trkpt lat="39.93045" lon="3.123209">
        <ele>131.4</ele>
        <time>2020-05-23T20:04:11Z</time>
      </trkpt>
      <trkpt lat="39.930458" lon="3.123131">
        <ele>131.8</ele>
        <time>2020-05-23T20:04:12Z</time>
      </trkpt>
      <trkpt lat="39.930469" lon="3.123054">
        <ele>132.2</ele>
        <time>2020-05-23T20:04:13Z</time>
      </trkpt>
      <trkpt lat="39.930489" lon="3.122997">
        <ele>132.5</ele>
        <time>2020-05-23T20:04:14Z</time>
      </trkpt>
      <trkpt lat="39.93053" lon="3.122938">
        <ele>133</ele>
        <time>2020-05-23T20:04:15Z</time>
      </trkpt>
      <trkpt lat="39.930565" lon="3.122895">
        <ele>133.3</ele>
        <time>2020-05-23T20:04:16Z</time>
      </trkpt>
      <trkpt lat="39.930607" lon="3.122844">
        <ele>133.7</ele>
        <time>2020-05-23T20:04:17Z</time>
      </trkpt>
      <trkpt lat="39.930649" lon="3.122793">
        <ele>134.1</ele>
        <time>2020-05-23T20:04:19Z</time>
      </trkpt>
      <trkpt lat="39.930691" lon="3.122741">
        <ele>134.5</ele>
        <time>2020-05-23T20:04:20Z</time>
      </trkpt>
      <trkpt lat="39.930737" lon="3.122688">
        <ele>135</ele>
        <time>2020-05-23T20:04:21Z</time>
      </trkpt>
      <trkpt lat="39.930778" lon="3.12264">
        <ele>135.3</ele>
        <time>2020-05-23T20:04:22Z</time>
      </trkpt>
      <trkpt lat="39.930824" lon="3.122591">
        <ele>135.7</ele>
        <time>2020-05-23T20:04:23Z</time>
      </trkpt>
      <trkpt lat="39.93087" lon="3.122546">
        <ele>136.1</ele>
        <time>2020-05-23T20:04:25Z</time>
      </trkpt>
      <trkpt lat="39.930912" lon="3.122508">
        <ele>136.4</ele>
        <time>2020-05-23T20:04:26Z</time>
      </trkpt>
      <trkpt lat="39.93095" lon="3.122482">
        <ele>136.6</ele>
        <time>2020-05-23T20:04:27Z</time>
      </trkpt>
      <trkpt lat="39.930988" lon="3.122456">
        <ele>136.9</ele>
        <time>2020-05-23T20:04:28Z</time>
      </trkpt>
      <trkpt lat="39.931019" lon="3.122435">
        <ele>137.2</ele>
        <time>2020-05-23T20:04:29Z</time>
      </trkpt>
      <trkpt lat="39.931053" lon="3.122413">
        <ele>137.5</ele>
        <time>2020-05-23T20:04:30Z</time>
      </trkpt>
      <trkpt lat="39.93108" lon="3.122395">
        <ele>137.7</ele>
        <time>2020-05-23T20:04:31Z</time>
      </trkpt>
      <trkpt lat="39.931107" lon="3.122377">
        <ele>138</ele>
        <time>2020-05-23T20:04:32Z</time>
      </trkpt>
      <trkpt lat="39.931133" lon="3.122358">
        <ele>138.2</ele>
        <time>2020-05-23T20:04:33Z</time>
      </trkpt>
      <trkpt lat="39.931164" lon="3.122334">
        <ele>138.6</ele>
        <time>2020-05-23T20:04:34Z</time>
      </trkpt>
      <trkpt lat="39.931194" lon="3.122309">
        <ele>138.9</ele>
        <time>2020-05-23T20:04:35Z</time>
      </trkpt>
      <trkpt lat="39.931229" lon="3.122275">
        <ele>139.3</ele>
        <time>2020-05-23T20:04:37Z</time>
      </trkpt>
      <trkpt lat="39.931255" lon="3.122228">
        <ele>139.7</ele>
        <time>2020-05-23T20:04:38Z</time>
      </trkpt>
      <trkpt lat="39.931255" lon="3.122181">
        <ele>140</ele>
        <time>2020-05-23T20:04:39Z</time>
      </trkpt>
      <trkpt lat="39.931229" lon="3.122133">
        <ele>140.4</ele>
        <time>2020-05-23T20:04:40Z</time>
      </trkpt>
      <trkpt lat="39.931202" lon="3.122099">
        <ele>140.8</ele>
        <time>2020-05-23T20:04:41Z</time>
      </trkpt>
      <trkpt lat="39.931168" lon="3.122066">
        <ele>141.1</ele>
        <time>2020-05-23T20:04:42Z</time>
      </trkpt>
      <trkpt lat="39.931126" lon="3.12203">
        <ele>141.6</ele>
        <time>2020-05-23T20:04:43Z</time>
      </trkpt>
      <trkpt lat="39.931076" lon="3.121996">
        <ele>142.1</ele>
        <time>2020-05-23T20:04:44Z</time>
      </trkpt>
      <trkpt lat="39.931026" lon="3.121962">
        <ele>142.6</ele>
        <time>2020-05-23T20:04:46Z</time>
      </trkpt>
      <trkpt lat="39.930977" lon="3.121926">
        <ele>143.1</ele>
        <time>2020-05-23T20:04:47Z</time>
      </trkpt>
      <trkpt lat="39.930935" lon="3.121896">
        <ele>143.6</ele>
        <time>2020-05-23T20:04:48Z</time>
      </trkpt>
      <trkpt lat="39.930897" lon="3.12187">
        <ele>144</ele>
        <time>2020-05-23T20:04:49Z</time>
      </trkpt>
      <trkpt lat="39.930847" lon="3.12184">
        <ele>144.5</ele>
        <time>2020-05-23T20:04:50Z</time>
      </trkpt>
      <trkpt lat="39.930801" lon="3.121807">
        <ele>145</ele>
        <time>2020-05-23T20:04:51Z</time>
      </trkpt>
      <trkpt lat="39.930767" lon="3.121761">
        <ele>145.4</ele>
        <time>2020-05-23T20:04:52Z</time>
      </trkpt>
      <trkpt lat="39.930752" lon="3.121708">
        <ele>145.8</ele>
        <time>2020-05-23T20:04:54Z</time>
      </trkpt>
      <trkpt lat="39.930748" lon="3.121653">
        <ele>146.1</ele>
        <time>2020-05-23T20:04:55Z</time>
      </trkpt>
      <trkpt lat="39.930748" lon="3.121605">
        <ele>146.4</ele>
        <time>2020-05-23T20:04:56Z</time>
      </trkpt>
      <trkpt lat="39.930752" lon="3.121546">
        <ele>146.8</ele>
        <time>2020-05-23T20:04:57Z</time>
      </trkpt>
      <trkpt lat="39.930752" lon="3.121487">
        <ele>147.2</ele>
        <time>2020-05-23T20:04:58Z</time>
      </trkpt>
      <trkpt lat="39.930759" lon="3.12143">
        <ele>147.5</ele>
        <time>2020-05-23T20:04:59Z</time>
      </trkpt>
      <trkpt lat="39.930771" lon="3.121373">
        <ele>147.9</ele>
        <time>2020-05-23T20:05:01Z</time>
      </trkpt>
      <trkpt lat="39.930778" lon="3.121316">
        <ele>148.3</ele>
        <time>2020-05-23T20:05:02Z</time>
      </trkpt>
      <trkpt lat="39.930786" lon="3.121263">
        <ele>148.7</ele>
        <time>2020-05-23T20:05:03Z</time>
      </trkpt>
      <trkpt lat="39.930794" lon="3.121214">
        <ele>149</ele>
        <time>2020-05-23T20:05:04Z</time>
      </trkpt>
      <trkpt lat="39.930798" lon="3.121168">
        <ele>149.4</ele>
        <time>2020-05-23T20:05:05Z</time>
      </trkpt>
      <trkpt lat="39.930805" lon="3.121126">
        <ele>149.7</ele>
        <time>2020-05-23T20:05:07Z</time>
      </trkpt>
      <trkpt lat="39.930813" lon="3.121083">
        <ele>150</ele>
        <time>2020-05-23T20:05:08Z</time>
      </trkpt>
      <trkpt lat="39.930817" lon="3.121039">
        <ele>150.3</ele>
        <time>2020-05-23T20:05:09Z</time>
      </trkpt>
      <trkpt lat="39.93082" lon="3.121">
        <ele>150.6</ele>
        <time>2020-05-23T20:05:10Z</time>
      </trkpt>
      <trkpt lat="39.930817" lon="3.120951">
        <ele>151</ele>
        <time>2020-05-23T20:05:11Z</time>
      </trkpt>
      <trkpt lat="39.930813" lon="3.120901">
        <ele>151.4</ele>
        <time>2020-05-23T20:05:12Z</time>
      </trkpt>
      <trkpt lat="39.930801" lon="3.120849">
        <ele>151.7</ele>
        <time>2020-05-23T20:05:14Z</time>
      </trkpt>
      <trkpt lat="39.930794" lon="3.120804">
        <ele>152</ele>
        <time>2020-05-23T20:05:15Z</time>
      </trkpt>
      <trkpt lat="39.930782" lon="3.120749">
        <ele>152.4</ele>
        <time>2020-05-23T20:05:16Z</time>
      </trkpt>
      <trkpt lat="39.930771" lon="3.120692">
        <ele>152.8</ele>
        <time>2020-05-23T20:05:17Z</time>
      </trkpt>
      <trkpt lat="39.930756" lon="3.120637">
        <ele>153.2</ele>
        <time>2020-05-23T20:05:18Z</time>
      </trkpt>
      <trkpt lat="39.93074" lon="3.12058">
        <ele>153.6</ele>
        <time>2020-05-23T20:05:19Z</time>
      </trkpt>
      <trkpt lat="39.930725" lon="3.120519">
        <ele>154</ele>
        <time>2020-05-23T20:05:21Z</time>
      </trkpt>
      <trkpt lat="39.93071" lon="3.120449">
        <ele>154.4</ele>
        <time>2020-05-23T20:05:22Z</time>
      </trkpt>
      <trkpt lat="39.930695" lon="3.120371">
        <ele>154.9</ele>
        <time>2020-05-23T20:05:23Z</time>
      </trkpt>
      <trkpt lat="39.930679" lon="3.120299">
        <ele>155.4</ele>
        <time>2020-05-23T20:05:24Z</time>
      </trkpt>
      <trkpt lat="39.930656" lon="3.120211">
        <ele>155.9</ele>
        <time>2020-05-23T20:05:25Z</time>
      </trkpt>
      <trkpt lat="39.93063" lon="3.120119">
        <ele>156.5</ele>
        <time>2020-05-23T20:05:26Z</time>
      </trkpt>
      <trkpt lat="39.930607" lon="3.120039">
        <ele>157</ele>
        <time>2020-05-23T20:05:27Z</time>
      </trkpt>
      <trkpt lat="39.930576" lon="3.119938">
        <ele>157.6</ele>
        <time>2020-05-23T20:05:29Z</time>
      </trkpt>
      <trkpt lat="39.930546" lon="3.119832">
        <ele>158</ele>
        <time>2020-05-23T20:05:30Z</time>
      </trkpt>
      <trkpt lat="39.93053" lon="3.119718">
        <ele>158.2</ele>
        <time>2020-05-23T20:05:31Z</time>
      </trkpt>
      <trkpt lat="39.930523" lon="3.119618">
        <ele>158.3</ele>
        <time>2020-05-23T20:05:32Z</time>
      </trkpt>
      <trkpt lat="39.930519" lon="3.119495">
        <ele>158.3</ele>
        <time>2020-05-23T20:05:33Z</time>
      </trkpt>
      <trkpt lat="39.930515" lon="3.119366">
        <ele>158.3</ele>
        <time>2020-05-23T20:05:34Z</time>
      </trkpt>
      <trkpt lat="39.930515" lon="3.119256">
        <ele>158.3</ele>
        <time>2020-05-23T20:05:35Z</time>
      </trkpt>
      <trkpt lat="39.930511" lon="3.119122">
        <ele>158.3</ele>
        <time>2020-05-23T20:05:37Z</time>
      </trkpt>
      <trkpt lat="39.930508" lon="3.118988">
        <ele>158.3</ele>
        <time>2020-05-23T20:05:38Z</time>
      </trkpt>
      <trkpt lat="39.930508" lon="3.118852">
        <ele>158.2</ele>
        <time>2020-05-23T20:05:39Z</time>
      </trkpt>
      <trkpt lat="39.930508" lon="3.118738">
        <ele>158.2</ele>
        <time>2020-05-23T20:05:40Z</time>
      </trkpt>
      <trkpt lat="39.930504" lon="3.118599">
        <ele>158.1</ele>
        <time>2020-05-23T20:05:41Z</time>
      </trkpt>
      <trkpt lat="39.930523" lon="3.11846">
        <ele>158.1</ele>
        <time>2020-05-23T20:05:42Z</time>
      </trkpt>
      <trkpt lat="39.930553" lon="3.118345">
        <ele>158.1</ele>
        <time>2020-05-23T20:05:43Z</time>
      </trkpt>
      <trkpt lat="39.930595" lon="3.118206">
        <ele>158.1</ele>
        <time>2020-05-23T20:05:45Z</time>
      </trkpt>
      <trkpt lat="39.93063" lon="3.118087">
        <ele>158</ele>
        <time>2020-05-23T20:05:46Z</time>
      </trkpt>
      <trkpt lat="39.930656" lon="3.117965">
        <ele>157.9</ele>
        <time>2020-05-23T20:05:47Z</time>
      </trkpt>
      <trkpt lat="39.930691" lon="3.117843">
        <ele>157.9</ele>
        <time>2020-05-23T20:05:48Z</time>
      </trkpt>
      <trkpt lat="39.930725" lon="3.117696">
        <ele>157.7</ele>
        <time>2020-05-23T20:05:49Z</time>
      </trkpt>
      <trkpt lat="39.930752" lon="3.117547">
        <ele>157.6</ele>
        <time>2020-05-23T20:05:50Z</time>
      </trkpt>
      <trkpt lat="39.930778" lon="3.117403">
        <ele>157.5</ele>
        <time>2020-05-23T20:05:51Z</time>
      </trkpt>
      <trkpt lat="39.93079" lon="3.11726">
        <ele>157.5</ele>
        <time>2020-05-23T20:05:52Z</time>
      </trkpt>
      <trkpt lat="39.930782" lon="3.117125">
        <ele>157.5</ele>
        <time>2020-05-23T20:05:54Z</time>
      </trkpt>
      <trkpt lat="39.930775" lon="3.117019">
        <ele>157.6</ele>
        <time>2020-05-23T20:05:55Z</time>
      </trkpt>
      <trkpt lat="39.930763" lon="3.116903">
        <ele>157.8</ele>
        <time>2020-05-23T20:05:56Z</time>
      </trkpt>
      <trkpt lat="39.93074" lon="3.116798">
        <ele>158</ele>
        <time>2020-05-23T20:05:57Z</time>
      </trkpt>
      <trkpt lat="39.930717" lon="3.116704">
        <ele>158.2</ele>
        <time>2020-05-23T20:05:58Z</time>
      </trkpt>
      <trkpt lat="39.930695" lon="3.116621">
        <ele>158.4</ele>
        <time>2020-05-23T20:05:59Z</time>
      </trkpt>
      <trkpt lat="39.930672" lon="3.116545">
        <ele>158.7</ele>
        <time>2020-05-23T20:06:01Z</time>
      </trkpt>
      <trkpt lat="39.930653" lon="3.116475">
        <ele>159</ele>
        <time>2020-05-23T20:06:02Z</time>
      </trkpt>
      <trkpt lat="39.930637" lon="3.116408">
        <ele>159.3</ele>
        <time>2020-05-23T20:06:03Z</time>
      </trkpt>
      <trkpt lat="39.930622" lon="3.116341">
        <ele>159.7</ele>
        <time>2020-05-23T20:06:04Z</time>
      </trkpt>
      <trkpt lat="39.930611" lon="3.116286">
        <ele>159.9</ele>
        <time>2020-05-23T20:06:05Z</time>
      </trkpt>
      <trkpt lat="39.930603" lon="3.116219">
        <ele>160.3</ele>
        <time>2020-05-23T20:06:06Z</time>
      </trkpt>
      <trkpt lat="39.930595" lon="3.116151">
        <ele>160.6</ele>
        <time>2020-05-23T20:06:08Z</time>
      </trkpt>
      <trkpt lat="39.930592" lon="3.11608">
        <ele>161</ele>
        <time>2020-05-23T20:06:09Z</time>
      </trkpt>
      <trkpt lat="39.930588" lon="3.116019">
        <ele>161.3</ele>
        <time>2020-05-23T20:06:10Z</time>
      </trkpt>
      <trkpt lat="39.930584" lon="3.115941">
        <ele>161.8</ele>
        <time>2020-05-23T20:06:11Z</time>
      </trkpt>
      <trkpt lat="39.930576" lon="3.115864">
        <ele>162.3</ele>
        <time>2020-05-23T20:06:12Z</time>
      </trkpt>
      <trkpt lat="39.930565" lon="3.115788">
        <ele>162.7</ele>
        <time>2020-05-23T20:06:13Z</time>
      </trkpt>
      <trkpt lat="39.930546" lon="3.115716">
        <ele>163.3</ele>
        <time>2020-05-23T20:06:15Z</time>
      </trkpt>
      <trkpt lat="39.930519" lon="3.115652">
        <ele>163.8</ele>
        <time>2020-05-23T20:06:16Z</time>
      </trkpt>
      <trkpt lat="39.930489" lon="3.115597">
        <ele>164.2</ele>
        <time>2020-05-23T20:06:17Z</time>
      </trkpt>
      <trkpt lat="39.930462" lon="3.115546">
        <ele>164.7</ele>
        <time>2020-05-23T20:06:18Z</time>
      </trkpt>
      <trkpt lat="39.930439" lon="3.1155">
        <ele>165</ele>
        <time>2020-05-23T20:06:19Z</time>
      </trkpt>
      <trkpt lat="39.930412" lon="3.115455">
        <ele>165.3</ele>
        <time>2020-05-23T20:06:21Z</time>
      </trkpt>
      <trkpt lat="39.930386" lon="3.11541">
        <ele>165.7</ele>
        <time>2020-05-23T20:06:22Z</time>
      </trkpt>
      <trkpt lat="39.930363" lon="3.115374">
        <ele>165.9</ele>
        <time>2020-05-23T20:06:23Z</time>
      </trkpt>
      <trkpt lat="39.930336" lon="3.115339">
        <ele>166.2</ele>
        <time>2020-05-23T20:06:24Z</time>
      </trkpt>
      <trkpt lat="39.930302" lon="3.115297">
        <ele>166.6</ele>
        <time>2020-05-23T20:06:25Z</time>
      </trkpt>
      <trkpt lat="39.930271" lon="3.11526">
        <ele>166.9</ele>
        <time>2020-05-23T20:06:26Z</time>
      </trkpt>
      <trkpt lat="39.930237" lon="3.115214">
        <ele>167.3</ele>
        <time>2020-05-23T20:06:27Z</time>
      </trkpt>
      <trkpt lat="39.930199" lon="3.115165">
        <ele>167.7</ele>
        <time>2020-05-23T20:06:28Z</time>
      </trkpt>
      <trkpt lat="39.930161" lon="3.115118">
        <ele>168.1</ele>
        <time>2020-05-23T20:06:30Z</time>
      </trkpt>
      <trkpt lat="39.930122" lon="3.115072">
        <ele>168.5</ele>
        <time>2020-05-23T20:06:31Z</time>
      </trkpt>
      <trkpt lat="39.930077" lon="3.11503">
        <ele>169</ele>
        <time>2020-05-23T20:06:32Z</time>
      </trkpt>
      <trkpt lat="39.930031" lon="3.114991">
        <ele>169.4</ele>
        <time>2020-05-23T20:06:33Z</time>
      </trkpt>
      <trkpt lat="39.929981" lon="3.114955">
        <ele>169.9</ele>
        <time>2020-05-23T20:06:34Z</time>
      </trkpt>
      <trkpt lat="39.929928" lon="3.114924">
        <ele>170.4</ele>
        <time>2020-05-23T20:06:36Z</time>
      </trkpt>
      <trkpt lat="39.929871" lon="3.114898">
        <ele>170.9</ele>
        <time>2020-05-23T20:06:37Z</time>
      </trkpt>
      <trkpt lat="39.929817" lon="3.114866">
        <ele>171.4</ele>
        <time>2020-05-23T20:06:38Z</time>
      </trkpt>
      <trkpt lat="39.929783" lon="3.11482">
        <ele>171.9</ele>
        <time>2020-05-23T20:06:39Z</time>
      </trkpt>
      <trkpt lat="39.929756" lon="3.114753">
        <ele>172.4</ele>
        <time>2020-05-23T20:06:40Z</time>
      </trkpt>
      <trkpt lat="39.929733" lon="3.114695">
        <ele>172.8</ele>
        <time>2020-05-23T20:06:41Z</time>
      </trkpt>
      <trkpt lat="39.929714" lon="3.114624">
        <ele>173.3</ele>
        <time>2020-05-23T20:06:42Z</time>
      </trkpt>
      <trkpt lat="39.929703" lon="3.114561">
        <ele>173.8</ele>
        <time>2020-05-23T20:06:43Z</time>
      </trkpt>
      <trkpt lat="39.929691" lon="3.114485">
        <ele>174.2</ele>
        <time>2020-05-23T20:06:45Z</time>
      </trkpt>
      <trkpt lat="39.929684" lon="3.114421">
        <ele>174.6</ele>
        <time>2020-05-23T20:06:46Z</time>
      </trkpt>
      <trkpt lat="39.92968" lon="3.114356">
        <ele>174.9</ele>
        <time>2020-05-23T20:06:47Z</time>
      </trkpt>
      <trkpt lat="39.929668" lon="3.114279">
        <ele>175.3</ele>
        <time>2020-05-23T20:06:48Z</time>
      </trkpt>
      <trkpt lat="39.929661" lon="3.114203">
        <ele>175.7</ele>
        <time>2020-05-23T20:06:49Z</time>
      </trkpt>
      <trkpt lat="39.929649" lon="3.11413">
        <ele>176.1</ele>
        <time>2020-05-23T20:06:50Z</time>
      </trkpt>
      <trkpt lat="39.929642" lon="3.114059">
        <ele>176.4</ele>
        <time>2020-05-23T20:06:51Z</time>
      </trkpt>
      <trkpt lat="39.92963" lon="3.113988">
        <ele>176.8</ele>
        <time>2020-05-23T20:06:53Z</time>
      </trkpt>
      <trkpt lat="39.929623" lon="3.113918">
        <ele>177.1</ele>
        <time>2020-05-23T20:06:54Z</time>
      </trkpt>
      <trkpt lat="39.929615" lon="3.11385">
        <ele>177.5</ele>
        <time>2020-05-23T20:06:55Z</time>
      </trkpt>
      <trkpt lat="39.929607" lon="3.113784">
        <ele>177.8</ele>
        <time>2020-05-23T20:06:56Z</time>
      </trkpt>
      <trkpt lat="39.929604" lon="3.113718">
        <ele>178.2</ele>
        <time>2020-05-23T20:06:57Z</time>
      </trkpt>
      <trkpt lat="39.929596" lon="3.11365">
        <ele>178.5</ele>
        <time>2020-05-23T20:06:59Z</time>
      </trkpt>
      <trkpt lat="39.929592" lon="3.113591">
        <ele>178.8</ele>
        <time>2020-05-23T20:07:00Z</time>
      </trkpt>
      <trkpt lat="39.929588" lon="3.113519">
        <ele>179.2</ele>
        <time>2020-05-23T20:07:01Z</time>
      </trkpt>
      <trkpt lat="39.929584" lon="3.113448">
        <ele>179.6</ele>
        <time>2020-05-23T20:07:02Z</time>
      </trkpt>
      <trkpt lat="39.929581" lon="3.11338">
        <ele>180</ele>
        <time>2020-05-23T20:07:03Z</time>
      </trkpt>
      <trkpt lat="39.929577" lon="3.113314">
        <ele>180.5</ele>
        <time>2020-05-23T20:07:04Z</time>
      </trkpt>
      <trkpt lat="39.929573" lon="3.11325">
        <ele>180.8</ele>
        <time>2020-05-23T20:07:06Z</time>
      </trkpt>
      <trkpt lat="39.929569" lon="3.113188">
        <ele>181.2</ele>
        <time>2020-05-23T20:07:07Z</time>
      </trkpt>
      <trkpt lat="39.929565" lon="3.113125">
        <ele>181.6</ele>
        <time>2020-05-23T20:07:08Z</time>
      </trkpt>
      <trkpt lat="39.929562" lon="3.113061">
        <ele>181.9</ele>
        <time>2020-05-23T20:07:09Z</time>
      </trkpt>
      <trkpt lat="39.929558" lon="3.112999">
        <ele>182.3</ele>
        <time>2020-05-23T20:07:10Z</time>
      </trkpt>
      <trkpt lat="39.929554" lon="3.112948">
        <ele>182.6</ele>
        <time>2020-05-23T20:07:11Z</time>
      </trkpt>
      <trkpt lat="39.929546" lon="3.112886">
        <ele>182.9</ele>
        <time>2020-05-23T20:07:13Z</time>
      </trkpt>
      <trkpt lat="39.929543" lon="3.112836">
        <ele>183.2</ele>
        <time>2020-05-23T20:07:14Z</time>
      </trkpt>
      <trkpt lat="39.929535" lon="3.112777">
        <ele>183.6</ele>
        <time>2020-05-23T20:07:15Z</time>
      </trkpt>
      <trkpt lat="39.929531" lon="3.112725">
        <ele>183.9</ele>
        <time>2020-05-23T20:07:16Z</time>
      </trkpt>
      <trkpt lat="39.929523" lon="3.112673">
        <ele>184.2</ele>
        <time>2020-05-23T20:07:17Z</time>
      </trkpt>
      <trkpt lat="39.92952" lon="3.112622">
        <ele>184.4</ele>
        <time>2020-05-23T20:07:18Z</time>
      </trkpt>
      <trkpt lat="39.929516" lon="3.112565">
        <ele>184.6</ele>
        <time>2020-05-23T20:07:19Z</time>
      </trkpt>
      <trkpt lat="39.929512" lon="3.112513">
        <ele>184.8</ele>
        <time>2020-05-23T20:07:20Z</time>
      </trkpt>
      <trkpt lat="39.929512" lon="3.11247">
        <ele>185</ele>
        <time>2020-05-23T20:07:21Z</time>
      </trkpt>
      <trkpt lat="39.929508" lon="3.112419">
        <ele>185.2</ele>
        <time>2020-05-23T20:07:22Z</time>
      </trkpt>
      <trkpt lat="39.929501" lon="3.112366">
        <ele>185.4</ele>
        <time>2020-05-23T20:07:24Z</time>
      </trkpt>
      <trkpt lat="39.929497" lon="3.112319">
        <ele>185.6</ele>
        <time>2020-05-23T20:07:25Z</time>
      </trkpt>
      <trkpt lat="39.929493" lon="3.11226">
        <ele>185.9</ele>
        <time>2020-05-23T20:07:26Z</time>
      </trkpt>
      <trkpt lat="39.929489" lon="3.112193">
        <ele>186.2</ele>
        <time>2020-05-23T20:07:27Z</time>
      </trkpt>
      <trkpt lat="39.929493" lon="3.112119">
        <ele>186.5</ele>
        <time>2020-05-23T20:07:28Z</time>
      </trkpt>
      <trkpt lat="39.929489" lon="3.112056">
        <ele>186.8</ele>
        <time>2020-05-23T20:07:29Z</time>
      </trkpt>
      <trkpt lat="39.929466" lon="3.111988">
        <ele>187.1</ele>
        <time>2020-05-23T20:07:30Z</time>
      </trkpt>
      <trkpt lat="39.929409" lon="3.111968">
        <ele>187.5</ele>
        <time>2020-05-23T20:07:32Z</time>
      </trkpt>
      <trkpt lat="39.929344" lon="3.111976">
        <ele>187.9</ele>
        <time>2020-05-23T20:07:33Z</time>
      </trkpt>
      <trkpt lat="39.929279" lon="3.112001">
        <ele>188.3</ele>
        <time>2020-05-23T20:07:34Z</time>
      </trkpt>
      <trkpt lat="39.929241" lon="3.112061">
        <ele>188.1</ele>
        <time>2020-05-23T20:07:35Z</time>
      </trkpt>
      <trkpt lat="39.929233" lon="3.112163">
        <ele>187.4</ele>
        <time>2020-05-23T20:07:36Z</time>
      </trkpt>
      <trkpt lat="39.929241" lon="3.11225">
        <ele>186.9</ele>
        <time>2020-05-23T20:07:37Z</time>
      </trkpt>
      <trkpt lat="39.929256" lon="3.112357">
        <ele>186.2</ele>
        <time>2020-05-23T20:07:38Z</time>
      </trkpt>
      <trkpt lat="39.929272" lon="3.112447">
        <ele>185.7</ele>
        <time>2020-05-23T20:07:39Z</time>
      </trkpt>
      <trkpt lat="39.929287" lon="3.112554">
        <ele>185.1</ele>
        <time>2020-05-23T20:07:41Z</time>
      </trkpt>
      <trkpt lat="39.929302" lon="3.112654">
        <ele>184.6</ele>
        <time>2020-05-23T20:07:42Z</time>
      </trkpt>
      <trkpt lat="39.929317" lon="3.112746">
        <ele>183.9</ele>
        <time>2020-05-23T20:07:43Z</time>
      </trkpt>
      <trkpt lat="39.929333" lon="3.112817">
        <ele>183.5</ele>
        <time>2020-05-23T20:07:44Z</time>
      </trkpt>
      <trkpt lat="39.929344" lon="3.112898">
        <ele>183.1</ele>
        <time>2020-05-23T20:07:45Z</time>
      </trkpt>
      <trkpt lat="39.929336" lon="3.11297">
        <ele>182.7</ele>
        <time>2020-05-23T20:07:46Z</time>
      </trkpt>
      <trkpt lat="39.929314" lon="3.11303">
        <ele>182.4</ele>
        <time>2020-05-23T20:07:48Z</time>
      </trkpt>
      <trkpt lat="39.929291" lon="3.11308">
        <ele>182.1</ele>
        <time>2020-05-23T20:07:49Z</time>
      </trkpt>
      <trkpt lat="39.929256" lon="3.113115">
        <ele>183.3</ele>
        <time>2020-05-23T20:07:50Z</time>
      </trkpt>
      <trkpt lat="39.929218" lon="3.113111">
        <ele>185.9</ele>
        <time>2020-05-23T20:07:51Z</time>
      </trkpt>
      <trkpt lat="39.929199" lon="3.113078">
        <ele>186.4</ele>
        <time>2020-05-23T20:07:52Z</time>
      </trkpt>
      <trkpt lat="39.929184" lon="3.113027">
        <ele>188.1</ele>
        <time>2020-05-23T20:07:53Z</time>
      </trkpt>
      <trkpt lat="39.929172" lon="3.112981">
        <ele>188.6</ele>
        <time>2020-05-23T20:07:54Z</time>
      </trkpt>
      <trkpt lat="39.929161" lon="3.112933">
        <ele>189.2</ele>
        <time>2020-05-23T20:07:55Z</time>
      </trkpt>
      <trkpt lat="39.92915" lon="3.112872">
        <ele>190.9</ele>
        <time>2020-05-23T20:07:57Z</time>
      </trkpt>
      <trkpt lat="39.929138" lon="3.112818">
        <ele>191.8</ele>
        <time>2020-05-23T20:07:58Z</time>
      </trkpt>
      <trkpt lat="39.929123" lon="3.112753">
        <ele>192.3</ele>
        <time>2020-05-23T20:07:59Z</time>
      </trkpt>
      <trkpt lat="39.929108" lon="3.112687">
        <ele>194.1</ele>
        <time>2020-05-23T20:08:00Z</time>
      </trkpt>
      <trkpt lat="39.929092" lon="3.112632">
        <ele>194.6</ele>
        <time>2020-05-23T20:08:01Z</time>
      </trkpt>
      <trkpt lat="39.929077" lon="3.11257">
        <ele>196</ele>
        <time>2020-05-23T20:08:02Z</time>
      </trkpt>
      <trkpt lat="39.929066" lon="3.112521">
        <ele>196.7</ele>
        <time>2020-05-23T20:08:03Z</time>
      </trkpt>
      <trkpt lat="39.92905" lon="3.112464">
        <ele>198.1</ele>
        <time>2020-05-23T20:08:04Z</time>
      </trkpt>
      <trkpt lat="39.929039" lon="3.112408">
        <ele>198.6</ele>
        <time>2020-05-23T20:08:06Z</time>
      </trkpt>
      <trkpt lat="39.92902" lon="3.112348">
        <ele>198.9</ele>
        <time>2020-05-23T20:08:07Z</time>
      </trkpt>
      <trkpt lat="39.929001" lon="3.112283">
        <ele>199.3</ele>
        <time>2020-05-23T20:08:08Z</time>
      </trkpt>
      <trkpt lat="39.928978" lon="3.112214">
        <ele>199.8</ele>
        <time>2020-05-23T20:08:09Z</time>
      </trkpt>
      <trkpt lat="39.928951" lon="3.112138">
        <ele>200.3</ele>
        <time>2020-05-23T20:08:10Z</time>
      </trkpt>
      <trkpt lat="39.928925" lon="3.112071">
        <ele>200.8</ele>
        <time>2020-05-23T20:08:11Z</time>
      </trkpt>
      <trkpt lat="39.928898" lon="3.11199">
        <ele>201.3</ele>
        <time>2020-05-23T20:08:13Z</time>
      </trkpt>
      <trkpt lat="39.928875" lon="3.111897">
        <ele>201.9</ele>
        <time>2020-05-23T20:08:14Z</time>
      </trkpt>
      <trkpt lat="39.928856" lon="3.111803">
        <ele>202.5</ele>
        <time>2020-05-23T20:08:15Z</time>
      </trkpt>
      <trkpt lat="39.928833" lon="3.111712">
        <ele>203.1</ele>
        <time>2020-05-23T20:08:16Z</time>
      </trkpt>
      <trkpt lat="39.928814" lon="3.111634">
        <ele>203.6</ele>
        <time>2020-05-23T20:08:17Z</time>
      </trkpt>
      <trkpt lat="39.928806" lon="3.111531">
        <ele>204.2</ele>
        <time>2020-05-23T20:08:18Z</time>
      </trkpt>
      <trkpt lat="39.92881" lon="3.111426">
        <ele>204.8</ele>
        <time>2020-05-23T20:08:20Z</time>
      </trkpt>
      <trkpt lat="39.928822" lon="3.111324">
        <ele>205.3</ele>
        <time>2020-05-23T20:08:21Z</time>
      </trkpt>
      <trkpt lat="39.928856" lon="3.111229">
        <ele>205.8</ele>
        <time>2020-05-23T20:08:22Z</time>
      </trkpt>
      <trkpt lat="39.928898" lon="3.111131">
        <ele>206.4</ele>
        <time>2020-05-23T20:08:23Z</time>
      </trkpt>
      <trkpt lat="39.928944" lon="3.111026">
        <ele>207</ele>
        <time>2020-05-23T20:08:24Z</time>
      </trkpt>
      <trkpt lat="39.92897" lon="3.110926">
        <ele>207.5</ele>
        <time>2020-05-23T20:08:25Z</time>
      </trkpt>
      <trkpt lat="39.928951" lon="3.110791">
        <ele>208</ele>
        <time>2020-05-23T20:08:27Z</time>
      </trkpt>
      <trkpt lat="39.928913" lon="3.110674">
        <ele>208.2</ele>
        <time>2020-05-23T20:08:28Z</time>
      </trkpt>
      <trkpt lat="39.928856" lon="3.110523">
        <ele>207.8</ele>
        <time>2020-05-23T20:08:29Z</time>
      </trkpt>
      <trkpt lat="39.928772" lon="3.11038">
        <ele>207.3</ele>
        <time>2020-05-23T20:08:30Z</time>
      </trkpt>
      <trkpt lat="39.928677" lon="3.110239">
        <ele>206.4</ele>
        <time>2020-05-23T20:08:31Z</time>
      </trkpt>
      <trkpt lat="39.928547" lon="3.110154">
        <ele>205.2</ele>
        <time>2020-05-23T20:08:32Z</time>
      </trkpt>
      <trkpt lat="39.928417" lon="3.110133">
        <ele>204.1</ele>
        <time>2020-05-23T20:08:33Z</time>
      </trkpt>
      <trkpt lat="39.928257" lon="3.110117">
        <ele>202.9</ele>
        <time>2020-05-23T20:08:35Z</time>
      </trkpt>
      <trkpt lat="39.928093" lon="3.110089">
        <ele>201.8</ele>
        <time>2020-05-23T20:08:36Z</time>
      </trkpt>
      <trkpt lat="39.927929" lon="3.110034">
        <ele>200.5</ele>
        <time>2020-05-23T20:08:37Z</time>
      </trkpt>
      <trkpt lat="39.927773" lon="3.109962">
        <ele>199</ele>
        <time>2020-05-23T20:08:38Z</time>
      </trkpt>
      <trkpt lat="39.927616" lon="3.109895">
        <ele>197.6</ele>
        <time>2020-05-23T20:08:39Z</time>
      </trkpt>
      <trkpt lat="39.927471" lon="3.109814">
        <ele>196.3</ele>
        <time>2020-05-23T20:08:41Z</time>
      </trkpt>
      <trkpt lat="39.927326" lon="3.109776">
        <ele>195.1</ele>
        <time>2020-05-23T20:08:42Z</time>
      </trkpt>
      <trkpt lat="39.927177" lon="3.109817">
        <ele>194.1</ele>
        <time>2020-05-23T20:08:43Z</time>
      </trkpt>
      <trkpt lat="39.927029" lon="3.10984">
        <ele>193.1</ele>
        <time>2020-05-23T20:08:44Z</time>
      </trkpt>
      <trkpt lat="39.92688" lon="3.109776">
        <ele>192</ele>
        <time>2020-05-23T20:08:45Z</time>
      </trkpt>
      <trkpt lat="39.926769" lon="3.109676">
        <ele>190.9</ele>
        <time>2020-05-23T20:08:46Z</time>
      </trkpt>
      <trkpt lat="39.92664" lon="3.109546">
        <ele>189.4</ele>
        <time>2020-05-23T20:08:48Z</time>
      </trkpt>
      <trkpt lat="39.926491" lon="3.109475">
        <ele>188</ele>
        <time>2020-05-23T20:08:49Z</time>
      </trkpt>
      <trkpt lat="39.926357" lon="3.109463">
        <ele>186.9</ele>
        <time>2020-05-23T20:08:50Z</time>
      </trkpt>
      <trkpt lat="39.926205" lon="3.109446">
        <ele>185.7</ele>
        <time>2020-05-23T20:08:51Z</time>
      </trkpt>
      <trkpt lat="39.92606" lon="3.1094">
        <ele>184.8</ele>
        <time>2020-05-23T20:08:52Z</time>
      </trkpt>
      <trkpt lat="39.925941" lon="3.109293">
        <ele>183.8</ele>
        <time>2020-05-23T20:08:53Z</time>
      </trkpt>
      <trkpt lat="39.925846" lon="3.109135">
        <ele>182.8</ele>
        <time>2020-05-23T20:08:55Z</time>
      </trkpt>
      <trkpt lat="39.925762" lon="3.108971">
        <ele>181.6</ele>
        <time>2020-05-23T20:08:56Z</time>
      </trkpt>
      <trkpt lat="39.925678" lon="3.108813">
        <ele>180.4</ele>
        <time>2020-05-23T20:08:57Z</time>
      </trkpt>
      <trkpt lat="39.925594" lon="3.108703">
        <ele>179.4</ele>
        <time>2020-05-23T20:08:58Z</time>
      </trkpt>
      <trkpt lat="39.925457" lon="3.108651">
        <ele>178.2</ele>
        <time>2020-05-23T20:08:59Z</time>
      </trkpt>
      <trkpt lat="39.925312" lon="3.108628">
        <ele>177.1</ele>
        <time>2020-05-23T20:09:00Z</time>
      </trkpt>
      <trkpt lat="39.925171" lon="3.10859">
        <ele>176</ele>
        <time>2020-05-23T20:09:02Z</time>
      </trkpt>
      <trkpt lat="39.925049" lon="3.108514">
        <ele>175.1</ele>
        <time>2020-05-23T20:09:03Z</time>
      </trkpt>
      <trkpt lat="39.924957" lon="3.108365">
        <ele>174.2</ele>
        <time>2020-05-23T20:09:04Z</time>
      </trkpt>
      <trkpt lat="39.92487" lon="3.108204">
        <ele>173.1</ele>
        <time>2020-05-23T20:09:05Z</time>
      </trkpt>
      <trkpt lat="39.924793" lon="3.108033">
        <ele>171.7</ele>
        <time>2020-05-23T20:09:06Z</time>
      </trkpt>
      <trkpt lat="39.924744" lon="3.107884">
        <ele>170.7</ele>
        <time>2020-05-23T20:09:07Z</time>
      </trkpt>
      <trkpt lat="39.924667" lon="3.10773">
        <ele>169.5</ele>
        <time>2020-05-23T20:09:09Z</time>
      </trkpt>
      <trkpt lat="39.924553" lon="3.107657">
        <ele>168.3</ele>
        <time>2020-05-23T20:09:10Z</time>
      </trkpt>
      <trkpt lat="39.924423" lon="3.107627">
        <ele>167.1</ele>
        <time>2020-05-23T20:09:11Z</time>
      </trkpt>
      <trkpt lat="39.924255" lon="3.107683">
        <ele>165.4</ele>
        <time>2020-05-23T20:09:12Z</time>
      </trkpt>
      <trkpt lat="39.924087" lon="3.107767">
        <ele>163.7</ele>
        <time>2020-05-23T20:09:13Z</time>
      </trkpt>
      <trkpt lat="39.92395" lon="3.107839">
        <ele>162.5</ele>
        <time>2020-05-23T20:09:14Z</time>
      </trkpt>
      <trkpt lat="39.923817" lon="3.107903">
        <ele>161.6</ele>
        <time>2020-05-23T20:09:15Z</time>
      </trkpt>
      <trkpt lat="39.923641" lon="3.10792">
        <ele>160.6</ele>
        <time>2020-05-23T20:09:16Z</time>
      </trkpt>
      <trkpt lat="39.923469" lon="3.107913">
        <ele>159.6</ele>
        <time>2020-05-23T20:09:17Z</time>
      </trkpt>
      <trkpt lat="39.923294" lon="3.107876">
        <ele>158.5</ele>
        <time>2020-05-23T20:09:19Z</time>
      </trkpt>
      <trkpt lat="39.923149" lon="3.107842">
        <ele>157.5</ele>
        <time>2020-05-23T20:09:20Z</time>
      </trkpt>
      <trkpt lat="39.922974" lon="3.107779">
        <ele>156.1</ele>
        <time>2020-05-23T20:09:21Z</time>
      </trkpt>
      <trkpt lat="39.922798" lon="3.107688">
        <ele>154.4</ele>
        <time>2020-05-23T20:09:22Z</time>
      </trkpt>
      <trkpt lat="39.922653" lon="3.107599">
        <ele>153</ele>
        <time>2020-05-23T20:09:23Z</time>
      </trkpt>
      <trkpt lat="39.922474" lon="3.10751">
        <ele>151.2</ele>
        <time>2020-05-23T20:09:24Z</time>
      </trkpt>
      <trkpt lat="39.922283" lon="3.107451">
        <ele>149.6</ele>
        <time>2020-05-23T20:09:25Z</time>
      </trkpt>
      <trkpt lat="39.922092" lon="3.10742">
        <ele>148.2</ele>
        <time>2020-05-23T20:09:27Z</time>
      </trkpt>
      <trkpt lat="39.921905" lon="3.107386">
        <ele>146.8</ele>
        <time>2020-05-23T20:09:28Z</time>
      </trkpt>
      <trkpt lat="39.921715" lon="3.107337">
        <ele>145.5</ele>
        <time>2020-05-23T20:09:29Z</time>
      </trkpt>
      <trkpt lat="39.921532" lon="3.107267">
        <ele>144</ele>
        <time>2020-05-23T20:09:30Z</time>
      </trkpt>
      <trkpt lat="39.921345" lon="3.107187">
        <ele>142.4</ele>
        <time>2020-05-23T20:09:31Z</time>
      </trkpt>
      <trkpt lat="39.921177" lon="3.107158">
        <ele>141</ele>
        <time>2020-05-23T20:09:32Z</time>
      </trkpt>
      <trkpt lat="39.921013" lon="3.107142">
        <ele>139.4</ele>
        <time>2020-05-23T20:09:33Z</time>
      </trkpt>
      <trkpt lat="39.920811" lon="3.107138">
        <ele>137.5</ele>
        <time>2020-05-23T20:09:35Z</time>
      </trkpt>
      <trkpt lat="39.920609" lon="3.107135">
        <ele>135.7</ele>
        <time>2020-05-23T20:09:36Z</time>
      </trkpt>
      <trkpt lat="39.920406" lon="3.107132">
        <ele>133.9</ele>
        <time>2020-05-23T20:09:37Z</time>
      </trkpt>
      <trkpt lat="39.920204" lon="3.107115">
        <ele>132</ele>
        <time>2020-05-23T20:09:38Z</time>
      </trkpt>
      <trkpt lat="39.92004" lon="3.107105">
        <ele>130.6</ele>
        <time>2020-05-23T20:09:39Z</time>
      </trkpt>
      <trkpt lat="39.919838" lon="3.107077">
        <ele>128.8</ele>
        <time>2020-05-23T20:09:40Z</time>
      </trkpt>
      <trkpt lat="39.919647" lon="3.10701">
        <ele>127.1</ele>
        <time>2020-05-23T20:09:42Z</time>
      </trkpt>
      <trkpt lat="39.91946" lon="3.106897">
        <ele>125.2</ele>
        <time>2020-05-23T20:09:43Z</time>
      </trkpt>
      <trkpt lat="39.919311" lon="3.106797">
        <ele>123.7</ele>
        <time>2020-05-23T20:09:44Z</time>
      </trkpt>
      <trkpt lat="39.919132" lon="3.106678">
        <ele>122.2</ele>
        <time>2020-05-23T20:09:45Z</time>
      </trkpt>
      <trkpt lat="39.918957" lon="3.106563">
        <ele>120.7</ele>
        <time>2020-05-23T20:09:46Z</time>
      </trkpt>
      <trkpt lat="39.918781" lon="3.106464">
        <ele>119.3</ele>
        <time>2020-05-23T20:09:47Z</time>
      </trkpt>
      <trkpt lat="39.918602" lon="3.106364">
        <ele>117.9</ele>
        <time>2020-05-23T20:09:49Z</time>
      </trkpt>
      <trkpt lat="39.918461" lon="3.106266">
        <ele>116.7</ele>
        <time>2020-05-23T20:09:50Z</time>
      </trkpt>
      <trkpt lat="39.918297" lon="3.106141">
        <ele>115.4</ele>
        <time>2020-05-23T20:09:51Z</time>
      </trkpt>
      <trkpt lat="39.918133" lon="3.106018">
        <ele>114</ele>
        <time>2020-05-23T20:09:52Z</time>
      </trkpt>
      <trkpt lat="39.917973" lon="3.105908">
        <ele>112.5</ele>
        <time>2020-05-23T20:09:53Z</time>
      </trkpt>
      <trkpt lat="39.91782" lon="3.105833">
        <ele>111.2</ele>
        <time>2020-05-23T20:09:54Z</time>
      </trkpt>
      <trkpt lat="39.917706" lon="3.105766">
        <ele>110.1</ele>
        <time>2020-05-23T20:09:55Z</time>
      </trkpt>
      <trkpt lat="39.917587" lon="3.105741">
        <ele>109.2</ele>
        <time>2020-05-23T20:09:56Z</time>
      </trkpt>
      <trkpt lat="39.917458" lon="3.105725">
        <ele>108.3</ele>
        <time>2020-05-23T20:09:58Z</time>
      </trkpt>
      <trkpt lat="39.917343" lon="3.105773">
        <ele>107.4</ele>
        <time>2020-05-23T20:09:59Z</time>
      </trkpt>
      <trkpt lat="39.917274" lon="3.105927">
        <ele>106.5</ele>
        <time>2020-05-23T20:10:00Z</time>
      </trkpt>
      <trkpt lat="39.917259" lon="3.106081">
        <ele>105.8</ele>
        <time>2020-05-23T20:10:01Z</time>
      </trkpt>
      <trkpt lat="39.917286" lon="3.106264">
        <ele>104.8</ele>
        <time>2020-05-23T20:10:02Z</time>
      </trkpt>
      <trkpt lat="39.917316" lon="3.106411">
        <ele>104</ele>
        <time>2020-05-23T20:10:03Z</time>
      </trkpt>
      <trkpt lat="39.917347" lon="3.106554">
        <ele>103.3</ele>
        <time>2020-05-23T20:10:04Z</time>
      </trkpt>
      <trkpt lat="39.91737" lon="3.106696">
        <ele>102.6</ele>
        <time>2020-05-23T20:10:05Z</time>
      </trkpt>
      <trkpt lat="39.917404" lon="3.106857">
        <ele>101.8</ele>
        <time>2020-05-23T20:10:06Z</time>
      </trkpt>
      <trkpt lat="39.917377" lon="3.106994">
        <ele>101.2</ele>
        <time>2020-05-23T20:10:07Z</time>
      </trkpt>
      <trkpt lat="39.917297" lon="3.107146">
        <ele>100.2</ele>
        <time>2020-05-23T20:10:09Z</time>
      </trkpt>
      <trkpt lat="39.917194" lon="3.107292">
        <ele>99.2</ele>
        <time>2020-05-23T20:10:10Z</time>
      </trkpt>
      <trkpt lat="39.917088" lon="3.107445">
        <ele>98.1</ele>
        <time>2020-05-23T20:10:11Z</time>
      </trkpt>
      <trkpt lat="39.916977" lon="3.107589">
        <ele>97</ele>
        <time>2020-05-23T20:10:12Z</time>
      </trkpt>
      <trkpt lat="39.916881" lon="3.107732">
        <ele>96</ele>
        <time>2020-05-23T20:10:13Z</time>
      </trkpt>
      <trkpt lat="39.916809" lon="3.107845">
        <ele>95.2</ele>
        <time>2020-05-23T20:10:14Z</time>
      </trkpt>
      <trkpt lat="39.916698" lon="3.107948">
        <ele>94.4</ele>
        <time>2020-05-23T20:10:16Z</time>
      </trkpt>
      <trkpt lat="39.916611" lon="3.108023">
        <ele>93.9</ele>
        <time>2020-05-23T20:10:17Z</time>
      </trkpt>
      <trkpt lat="39.916477" lon="3.108007">
        <ele>93.3</ele>
        <time>2020-05-23T20:10:18Z</time>
      </trkpt>
      <trkpt lat="39.916347" lon="3.107919">
        <ele>92.4</ele>
        <time>2020-05-23T20:10:19Z</time>
      </trkpt>
      <trkpt lat="39.916248" lon="3.107799">
        <ele>91</ele>
        <time>2020-05-23T20:10:20Z</time>
      </trkpt>
      <trkpt lat="39.91613" lon="3.107644">
        <ele>89.6</ele>
        <time>2020-05-23T20:10:21Z</time>
      </trkpt>
      <trkpt lat="39.916023" lon="3.107515">
        <ele>88.4</ele>
        <time>2020-05-23T20:10:22Z</time>
      </trkpt>
      <trkpt lat="39.91589" lon="3.107358">
        <ele>87</ele>
        <time>2020-05-23T20:10:23Z</time>
      </trkpt>
      <trkpt lat="39.915752" lon="3.107197">
        <ele>85.6</ele>
        <time>2020-05-23T20:10:25Z</time>
      </trkpt>
      <trkpt lat="39.915611" lon="3.107041">
        <ele>84.2</ele>
        <time>2020-05-23T20:10:26Z</time>
      </trkpt>
      <trkpt lat="39.915474" lon="3.106882">
        <ele>82.8</ele>
        <time>2020-05-23T20:10:27Z</time>
      </trkpt>
      <trkpt lat="39.915352" lon="3.106756">
        <ele>81.6</ele>
        <time>2020-05-23T20:10:28Z</time>
      </trkpt>
      <trkpt lat="39.915207" lon="3.106607">
        <ele>80.3</ele>
        <time>2020-05-23T20:10:29Z</time>
      </trkpt>
      <trkpt lat="39.915066" lon="3.106441">
        <ele>79</ele>
        <time>2020-05-23T20:10:30Z</time>
      </trkpt>
      <trkpt lat="39.914963" lon="3.106284">
        <ele>77.9</ele>
        <time>2020-05-23T20:10:31Z</time>
      </trkpt>
      <trkpt lat="39.914856" lon="3.106131">
        <ele>76.8</ele>
        <time>2020-05-23T20:10:32Z</time>
      </trkpt>
      <trkpt lat="39.914711" lon="3.105963">
        <ele>75.3</ele>
        <time>2020-05-23T20:10:34Z</time>
      </trkpt>
      <trkpt lat="39.914581" lon="3.10584">
        <ele>74</ele>
        <time>2020-05-23T20:10:35Z</time>
      </trkpt>
      <trkpt lat="39.914421" lon="3.105705">
        <ele>72.7</ele>
        <time>2020-05-23T20:10:36Z</time>
      </trkpt>
      <trkpt lat="39.914288" lon="3.105596">
        <ele>71.7</ele>
        <time>2020-05-23T20:10:37Z</time>
      </trkpt>
      <trkpt lat="39.914135" lon="3.105459">
        <ele>70.6</ele>
        <time>2020-05-23T20:10:38Z</time>
      </trkpt>
      <trkpt lat="39.91399" lon="3.105317">
        <ele>69.6</ele>
        <time>2020-05-23T20:10:39Z</time>
      </trkpt>
      <trkpt lat="39.913837" lon="3.105193">
        <ele>68.4</ele>
        <time>2020-05-23T20:10:40Z</time>
      </trkpt>
      <trkpt lat="39.9137" lon="3.105121">
        <ele>67.5</ele>
        <time>2020-05-23T20:10:41Z</time>
      </trkpt>
      <trkpt lat="39.913528" lon="3.105052">
        <ele>66.2</ele>
        <time>2020-05-23T20:10:43Z</time>
      </trkpt>
      <trkpt lat="39.913383" lon="3.10501">
        <ele>65</ele>
        <time>2020-05-23T20:10:44Z</time>
      </trkpt>
      <trkpt lat="39.913208" lon="3.104947">
        <ele>63.7</ele>
        <time>2020-05-23T20:10:45Z</time>
      </trkpt>
      <trkpt lat="39.91304" lon="3.104847">
        <ele>62.4</ele>
        <time>2020-05-23T20:10:46Z</time>
      </trkpt>
      <trkpt lat="39.91288" lon="3.104727">
        <ele>61</ele>
        <time>2020-05-23T20:10:47Z</time>
      </trkpt>
      <trkpt lat="39.912723" lon="3.104608">
        <ele>59.5</ele>
        <time>2020-05-23T20:10:48Z</time>
      </trkpt>
      <trkpt lat="39.912544" lon="3.104542">
        <ele>58</ele>
        <time>2020-05-23T20:10:50Z</time>
      </trkpt>
      <trkpt lat="39.912361" lon="3.104497">
        <ele>56.5</ele>
        <time>2020-05-23T20:10:51Z</time>
      </trkpt>
      <trkpt lat="39.912216" lon="3.104479">
        <ele>55.4</ele>
        <time>2020-05-23T20:10:52Z</time>
      </trkpt>
      <trkpt lat="39.912113" lon="3.104465">
        <ele>54.6</ele>
        <time>2020-05-23T20:10:53Z</time>
      </trkpt>
      <trkpt lat="39.911999" lon="3.104455">
        <ele>53.8</ele>
        <time>2020-05-23T20:10:54Z</time>
      </trkpt>
      <trkpt lat="39.911888" lon="3.10445">
        <ele>52.9</ele>
        <time>2020-05-23T20:10:55Z</time>
      </trkpt>
      <trkpt lat="39.911789" lon="3.104468">
        <ele>52.2</ele>
        <time>2020-05-23T20:10:57Z</time>
      </trkpt>
      <trkpt lat="39.911709" lon="3.10448">
        <ele>51.7</ele>
        <time>2020-05-23T20:10:58Z</time>
      </trkpt>
      <trkpt lat="39.911659" lon="3.104405">
        <ele>50.4</ele>
        <time>2020-05-23T20:10:59Z</time>
      </trkpt>
      <trkpt lat="39.911659" lon="3.104271">
        <ele>49.7</ele>
        <time>2020-05-23T20:11:00Z</time>
      </trkpt>
      <trkpt lat="39.911743" lon="3.104215">
        <ele>49.2</ele>
        <time>2020-05-23T20:11:01Z</time>
      </trkpt>
      <trkpt lat="39.911858" lon="3.104186">
        <ele>48.5</ele>
        <time>2020-05-23T20:11:02Z</time>
      </trkpt>
      <trkpt lat="39.911957" lon="3.10417">
        <ele>48.1</ele>
        <time>2020-05-23T20:11:03Z</time>
      </trkpt>
      <trkpt lat="39.912064" lon="3.104162">
        <ele>47.6</ele>
        <time>2020-05-23T20:11:04Z</time>
      </trkpt>
      <trkpt lat="39.91217" lon="3.104155">
        <ele>47.1</ele>
        <time>2020-05-23T20:11:05Z</time>
      </trkpt>
      <trkpt lat="39.912285" lon="3.104152">
        <ele>46.7</ele>
        <time>2020-05-23T20:11:06Z</time>
      </trkpt>
      <trkpt lat="39.912422" lon="3.104163">
        <ele>46.1</ele>
        <time>2020-05-23T20:11:07Z</time>
      </trkpt>
      <trkpt lat="39.912559" lon="3.104174">
        <ele>45.7</ele>
        <time>2020-05-23T20:11:08Z</time>
      </trkpt>
      <trkpt lat="39.912674" lon="3.104195">
        <ele>45.3</ele>
        <time>2020-05-23T20:11:09Z</time>
      </trkpt>
      <trkpt lat="39.912788" lon="3.104224">
        <ele>44.9</ele>
        <time>2020-05-23T20:11:10Z</time>
      </trkpt>
      <trkpt lat="39.912907" lon="3.104253">
        <ele>44.5</ele>
        <time>2020-05-23T20:11:11Z</time>
      </trkpt>
      <trkpt lat="39.913044" lon="3.104294">
        <ele>44</ele>
        <time>2020-05-23T20:11:13Z</time>
      </trkpt>
      <trkpt lat="39.913185" lon="3.104338">
        <ele>43.5</ele>
        <time>2020-05-23T20:11:14Z</time>
      </trkpt>
      <trkpt lat="39.913303" lon="3.104377">
        <ele>43.1</ele>
        <time>2020-05-23T20:11:15Z</time>
      </trkpt>
      <trkpt lat="39.913422" lon="3.104413">
        <ele>42.6</ele>
        <time>2020-05-23T20:11:16Z</time>
      </trkpt>
      <trkpt lat="39.913544" lon="3.104451">
        <ele>42.1</ele>
        <time>2020-05-23T20:11:17Z</time>
      </trkpt>
      <trkpt lat="39.913692" lon="3.104495">
        <ele>41.3</ele>
        <time>2020-05-23T20:11:18Z</time>
      </trkpt>
      <trkpt lat="39.913822" lon="3.104531">
        <ele>40.6</ele>
        <time>2020-05-23T20:11:19Z</time>
      </trkpt>
      <trkpt lat="39.913979" lon="3.104571">
        <ele>39.7</ele>
        <time>2020-05-23T20:11:20Z</time>
      </trkpt>
      <trkpt lat="39.914108" lon="3.104607">
        <ele>39</ele>
        <time>2020-05-23T20:11:21Z</time>
      </trkpt>
      <trkpt lat="39.914238" lon="3.104643">
        <ele>38.2</ele>
        <time>2020-05-23T20:11:22Z</time>
      </trkpt>
      <trkpt lat="39.914364" lon="3.104672">
        <ele>37.6</ele>
        <time>2020-05-23T20:11:23Z</time>
      </trkpt>
      <trkpt lat="39.914509" lon="3.104704">
        <ele>36.8</ele>
        <time>2020-05-23T20:11:24Z</time>
      </trkpt>
      <trkpt lat="39.914616" lon="3.104732">
        <ele>36.3</ele>
        <time>2020-05-23T20:11:25Z</time>
      </trkpt>
      <trkpt lat="39.914738" lon="3.104771">
        <ele>35.6</ele>
        <time>2020-05-23T20:11:27Z</time>
      </trkpt>
      <trkpt lat="39.914833" lon="3.104781">
        <ele>35</ele>
        <time>2020-05-23T20:11:28Z</time>
      </trkpt>
      <trkpt lat="39.914921" lon="3.104736">
        <ele>34.3</ele>
        <time>2020-05-23T20:11:29Z</time>
      </trkpt>
      <trkpt lat="39.914989" lon="3.104629">
        <ele>33.4</ele>
        <time>2020-05-23T20:11:30Z</time>
      </trkpt>
      <trkpt lat="39.914959" lon="3.104516">
        <ele>32.5</ele>
        <time>2020-05-23T20:11:31Z</time>
      </trkpt>
      <trkpt lat="39.914856" lon="3.104399">
        <ele>31</ele>
        <time>2020-05-23T20:11:32Z</time>
      </trkpt>
      <trkpt lat="39.914738" lon="3.104283">
        <ele>29.5</ele>
        <time>2020-05-23T20:11:33Z</time>
      </trkpt>
      <trkpt lat="39.914593" lon="3.104182">
        <ele>27.9</ele>
        <time>2020-05-23T20:11:34Z</time>
      </trkpt>
      <trkpt lat="39.914471" lon="3.104094">
        <ele>26.8</ele>
        <time>2020-05-23T20:11:35Z</time>
      </trkpt>
      <trkpt lat="39.914345" lon="3.104004">
        <ele>25.7</ele>
        <time>2020-05-23T20:11:36Z</time>
      </trkpt>
      <trkpt lat="39.914196" lon="3.103896">
        <ele>24.5</ele>
        <time>2020-05-23T20:11:38Z</time>
      </trkpt>
      <trkpt lat="39.91407" lon="3.10381">
        <ele>23.7</ele>
        <time>2020-05-23T20:11:39Z</time>
      </trkpt>
      <trkpt lat="39.913917" lon="3.103707">
        <ele>22.8</ele>
        <time>2020-05-23T20:11:40Z</time>
      </trkpt>
      <trkpt lat="39.913792" lon="3.10362">
        <ele>21.9</ele>
        <time>2020-05-23T20:11:41Z</time>
      </trkpt>
      <trkpt lat="39.913639" lon="3.103516">
        <ele>21</ele>
        <time>2020-05-23T20:11:42Z</time>
      </trkpt>
      <trkpt lat="39.913483" lon="3.103412">
        <ele>20</ele>
        <time>2020-05-23T20:11:43Z</time>
      </trkpt>
      <trkpt lat="39.91333" lon="3.103307">
        <ele>19</ele>
        <time>2020-05-23T20:11:44Z</time>
      </trkpt>
      <trkpt lat="39.913177" lon="3.103199">
        <ele>17.9</ele>
        <time>2020-05-23T20:11:46Z</time>
      </trkpt>
      <trkpt lat="39.913025" lon="3.10309">
        <ele>16.8</ele>
        <time>2020-05-23T20:11:47Z</time>
      </trkpt>
      <trkpt lat="39.912876" lon="3.102977">
        <ele>15.7</ele>
        <time>2020-05-23T20:11:48Z</time>
      </trkpt>
      <trkpt lat="39.912727" lon="3.102868">
        <ele>14.7</ele>
        <time>2020-05-23T20:11:49Z</time>
      </trkpt>
      <trkpt lat="39.912613" lon="3.102758">
        <ele>14</ele>
        <time>2020-05-23T20:11:50Z</time>
      </trkpt>
      <trkpt lat="39.91251" lon="3.102637">
        <ele>13.2</ele>
        <time>2020-05-23T20:11:51Z</time>
      </trkpt>
      <trkpt lat="39.912434" lon="3.102453">
        <ele>12.2</ele>
        <time>2020-05-23T20:11:52Z</time>
      </trkpt>
      <trkpt lat="39.912369" lon="3.102266">
        <ele>11.5</ele>
        <time>2020-05-23T20:11:54Z</time>
      </trkpt>
      <trkpt lat="39.912361" lon="3.102097">
        <ele>11.1</ele>
        <time>2020-05-23T20:11:55Z</time>
      </trkpt>
      <trkpt lat="39.912365" lon="3.101934">
        <ele>10.9</ele>
        <time>2020-05-23T20:11:56Z</time>
      </trkpt>
      <trkpt lat="39.912399" lon="3.101751">
        <ele>10.7</ele>
        <time>2020-05-23T20:11:57Z</time>
      </trkpt>
      <trkpt lat="39.912437" lon="3.101579">
        <ele>10.7</ele>
        <time>2020-05-23T20:11:58Z</time>
      </trkpt>
      <trkpt lat="39.912472" lon="3.101415">
        <ele>10.7</ele>
        <time>2020-05-23T20:11:59Z</time>
      </trkpt>
      <trkpt lat="39.912514" lon="3.101259">
        <ele>10.7</ele>
        <time>2020-05-23T20:12:00Z</time>
      </trkpt>
      <trkpt lat="39.912548" lon="3.101133">
        <ele>10.7</ele>
        <time>2020-05-23T20:12:01Z</time>
      </trkpt>
      <trkpt lat="39.912586" lon="3.100986">
        <ele>10.8</ele>
        <time>2020-05-23T20:12:03Z</time>
      </trkpt>
      <trkpt lat="39.912617" lon="3.100866">
        <ele>10.9</ele>
        <time>2020-05-23T20:12:04Z</time>
      </trkpt>
      <trkpt lat="39.912647" lon="3.100748">
        <ele>11</ele>
        <time>2020-05-23T20:12:05Z</time>
      </trkpt>
      <trkpt lat="39.912685" lon="3.100609">
        <ele>11</ele>
        <time>2020-05-23T20:12:06Z</time>
      </trkpt>
      <trkpt lat="39.912723" lon="3.10047">
        <ele>11.1</ele>
        <time>2020-05-23T20:12:07Z</time>
      </trkpt>
      <trkpt lat="39.912762" lon="3.100357">
        <ele>11.1</ele>
        <time>2020-05-23T20:12:08Z</time>
      </trkpt>
      <trkpt lat="39.912792" lon="3.100249">
        <ele>11.2</ele>
        <time>2020-05-23T20:12:09Z</time>
      </trkpt>
      <trkpt lat="39.912815" lon="3.100123">
        <ele>11.2</ele>
        <time>2020-05-23T20:12:10Z</time>
      </trkpt>
      <trkpt lat="39.912834" lon="3.100021">
        <ele>11.2</ele>
        <time>2020-05-23T20:12:11Z</time>
      </trkpt>
      <trkpt lat="39.912849" lon="3.099918">
        <ele>11.1</ele>
        <time>2020-05-23T20:12:12Z</time>
      </trkpt>
      <trkpt lat="39.912849" lon="3.099813">
        <ele>11.2</ele>
        <time>2020-05-23T20:12:13Z</time>
      </trkpt>
      <trkpt lat="39.912842" lon="3.09969">
        <ele>11.2</ele>
        <time>2020-05-23T20:12:14Z</time>
      </trkpt>
      <trkpt lat="39.912872" lon="3.099584">
        <ele>11.4</ele>
        <time>2020-05-23T20:12:16Z</time>
      </trkpt>
      <trkpt lat="39.912937" lon="3.099526">
        <ele>11.5</ele>
        <time>2020-05-23T20:12:17Z</time>
      </trkpt>
      <trkpt lat="39.913006" lon="3.099456">
        <ele>11.5</ele>
        <time>2020-05-23T20:12:18Z</time>
      </trkpt>
      <trkpt lat="39.913059" lon="3.099371">
        <ele>11.9</ele>
        <time>2020-05-23T20:12:19Z</time>
      </trkpt>
      <trkpt lat="39.913082" lon="3.09929">
        <ele>11.8</ele>
        <time>2020-05-23T20:12:20Z</time>
      </trkpt>
      <trkpt lat="39.913105" lon="3.099192">
        <ele>11.8</ele>
        <time>2020-05-23T20:12:21Z</time>
      </trkpt>
      <trkpt lat="39.913128" lon="3.099094">
        <ele>11.7</ele>
        <time>2020-05-23T20:12:22Z</time>
      </trkpt>
      <trkpt lat="39.913155" lon="3.098993">
        <ele>11.7</ele>
        <time>2020-05-23T20:12:24Z</time>
      </trkpt>
      <trkpt lat="39.913177" lon="3.098885">
        <ele>11.6</ele>
        <time>2020-05-23T20:12:25Z</time>
      </trkpt>
      <trkpt lat="39.913204" lon="3.098768">
        <ele>11.6</ele>
        <time>2020-05-23T20:12:26Z</time>
      </trkpt>
      <trkpt lat="39.913231" lon="3.098645">
        <ele>11.6</ele>
        <time>2020-05-23T20:12:27Z</time>
      </trkpt>
      <trkpt lat="39.913254" lon="3.098538">
        <ele>11.6</ele>
        <time>2020-05-23T20:12:28Z</time>
      </trkpt>
      <trkpt lat="39.913277" lon="3.098428">
        <ele>11.5</ele>
        <time>2020-05-23T20:12:29Z</time>
      </trkpt>
      <trkpt lat="39.913303" lon="3.098316">
        <ele>11.5</ele>
        <time>2020-05-23T20:12:30Z</time>
      </trkpt>
      <trkpt lat="39.913334" lon="3.098179">
        <ele>11.5</ele>
        <time>2020-05-23T20:12:31Z</time>
      </trkpt>
      <trkpt lat="39.913364" lon="3.098041">
        <ele>11.4</ele>
        <time>2020-05-23T20:12:33Z</time>
      </trkpt>
      <trkpt lat="39.913391" lon="3.097926">
        <ele>11.3</ele>
        <time>2020-05-23T20:12:34Z</time>
      </trkpt>
      <trkpt lat="39.913418" lon="3.09781">
        <ele>11.2</ele>
        <time>2020-05-23T20:12:35Z</time>
      </trkpt>
      <trkpt lat="39.913444" lon="3.097694">
        <ele>11.2</ele>
        <time>2020-05-23T20:12:36Z</time>
      </trkpt>
      <trkpt lat="39.913471" lon="3.097577">
        <ele>11.2</ele>
        <time>2020-05-23T20:12:37Z</time>
      </trkpt>
      <trkpt lat="39.913506" lon="3.097437">
        <ele>11.2</ele>
        <time>2020-05-23T20:12:38Z</time>
      </trkpt>
      <trkpt lat="39.913532" lon="3.097319">
        <ele>11.2</ele>
        <time>2020-05-23T20:12:39Z</time>
      </trkpt>
      <trkpt lat="39.913563" lon="3.097178">
        <ele>11.2</ele>
        <time>2020-05-23T20:12:40Z</time>
      </trkpt>
      <trkpt lat="39.913593" lon="3.097036">
        <ele>11.2</ele>
        <time>2020-05-23T20:12:41Z</time>
      </trkpt>
      <trkpt lat="39.913624" lon="3.096894">
        <ele>11.2</ele>
        <time>2020-05-23T20:12:42Z</time>
      </trkpt>
      <trkpt lat="39.91365" lon="3.096775">
        <ele>11.2</ele>
        <time>2020-05-23T20:12:43Z</time>
      </trkpt>
      <trkpt lat="39.913677" lon="3.096655">
        <ele>11.2</ele>
        <time>2020-05-23T20:12:44Z</time>
      </trkpt>
      <trkpt lat="39.913704" lon="3.096534">
        <ele>11.2</ele>
        <time>2020-05-23T20:12:45Z</time>
      </trkpt>
      <trkpt lat="39.913734" lon="3.096389">
        <ele>11.3</ele>
        <time>2020-05-23T20:12:47Z</time>
      </trkpt>
      <trkpt lat="39.913753" lon="3.096265">
        <ele>11.3</ele>
        <time>2020-05-23T20:12:48Z</time>
      </trkpt>
      <trkpt lat="39.913773" lon="3.096142">
        <ele>11.4</ele>
        <time>2020-05-23T20:12:49Z</time>
      </trkpt>
      <trkpt lat="39.913792" lon="3.096014">
        <ele>11.4</ele>
        <time>2020-05-23T20:12:50Z</time>
      </trkpt>
      <trkpt lat="39.913818" lon="3.095859">
        <ele>11.4</ele>
        <time>2020-05-23T20:12:51Z</time>
      </trkpt>
      <trkpt lat="39.913837" lon="3.095728">
        <ele>11.3</ele>
        <time>2020-05-23T20:12:52Z</time>
      </trkpt>
      <trkpt lat="39.913856" lon="3.095569">
        <ele>11.3</ele>
        <time>2020-05-23T20:12:53Z</time>
      </trkpt>
      <trkpt lat="39.913872" lon="3.095406">
        <ele>11.1</ele>
        <time>2020-05-23T20:12:54Z</time>
      </trkpt>
      <trkpt lat="39.913891" lon="3.095242">
        <ele>11</ele>
        <time>2020-05-23T20:12:56Z</time>
      </trkpt>
      <trkpt lat="39.913902" lon="3.095077">
        <ele>11</ele>
        <time>2020-05-23T20:12:57Z</time>
      </trkpt>
      <trkpt lat="39.913914" lon="3.094916">
        <ele>10.9</ele>
        <time>2020-05-23T20:12:58Z</time>
      </trkpt>
      <trkpt lat="39.913917" lon="3.094757">
        <ele>10.7</ele>
        <time>2020-05-23T20:12:59Z</time>
      </trkpt>
      <trkpt lat="39.913917" lon="3.094601">
        <ele>10.6</ele>
        <time>2020-05-23T20:13:00Z</time>
      </trkpt>
      <trkpt lat="39.913914" lon="3.094448">
        <ele>10.6</ele>
        <time>2020-05-23T20:13:02Z</time>
      </trkpt>
      <trkpt lat="39.91391" lon="3.094297">
        <ele>10.5</ele>
        <time>2020-05-23T20:13:03Z</time>
      </trkpt>
      <trkpt lat="39.913906" lon="3.094171">
        <ele>10.4</ele>
        <time>2020-05-23T20:13:04Z</time>
      </trkpt>
      <trkpt lat="39.913902" lon="3.094046">
        <ele>10.3</ele>
        <time>2020-05-23T20:13:05Z</time>
      </trkpt>
      <trkpt lat="39.913895" lon="3.093897">
        <ele>10.3</ele>
        <time>2020-05-23T20:13:06Z</time>
      </trkpt>
      <trkpt lat="39.913887" lon="3.093752">
        <ele>10.3</ele>
        <time>2020-05-23T20:13:07Z</time>
      </trkpt>
      <trkpt lat="39.913879" lon="3.093611">
        <ele>10.4</ele>
        <time>2020-05-23T20:13:08Z</time>
      </trkpt>
      <trkpt lat="39.913876" lon="3.093478">
        <ele>10.5</ele>
        <time>2020-05-23T20:13:10Z</time>
      </trkpt>
      <trkpt lat="39.913868" lon="3.093373">
        <ele>10.6</ele>
        <time>2020-05-23T20:13:11Z</time>
      </trkpt>
      <trkpt lat="39.913864" lon="3.093253">
        <ele>10.8</ele>
        <time>2020-05-23T20:13:12Z</time>
      </trkpt>
      <trkpt lat="39.91386" lon="3.093158">
        <ele>10.9</ele>
        <time>2020-05-23T20:13:13Z</time>
      </trkpt>
      <trkpt lat="39.913853" lon="3.093049">
        <ele>11.1</ele>
        <time>2020-05-23T20:13:14Z</time>
      </trkpt>
      <trkpt lat="39.913849" lon="3.092942">
        <ele>11.3</ele>
        <time>2020-05-23T20:13:15Z</time>
      </trkpt>
      <trkpt lat="39.913841" lon="3.092837">
        <ele>11.5</ele>
        <time>2020-05-23T20:13:16Z</time>
      </trkpt>
      <trkpt lat="39.913837" lon="3.092729">
        <ele>11.7</ele>
        <time>2020-05-23T20:13:18Z</time>
      </trkpt>
      <trkpt lat="39.913834" lon="3.092619">
        <ele>11.9</ele>
        <time>2020-05-23T20:13:19Z</time>
      </trkpt>
      <trkpt lat="39.913826" lon="3.092509">
        <ele>12.1</ele>
        <time>2020-05-23T20:13:20Z</time>
      </trkpt>
      <trkpt lat="39.913818" lon="3.092398">
        <ele>12.3</ele>
        <time>2020-05-23T20:13:21Z</time>
      </trkpt>
      <trkpt lat="39.913814" lon="3.092288">
        <ele>12.6</ele>
        <time>2020-05-23T20:13:22Z</time>
      </trkpt>
      <trkpt lat="39.913807" lon="3.092178">
        <ele>12.9</ele>
        <time>2020-05-23T20:13:24Z</time>
      </trkpt>
      <trkpt lat="39.913803" lon="3.092066">
        <ele>13.1</ele>
        <time>2020-05-23T20:13:25Z</time>
      </trkpt>
      <trkpt lat="39.913799" lon="3.091972">
        <ele>13.3</ele>
        <time>2020-05-23T20:13:26Z</time>
      </trkpt>
      <trkpt lat="39.913795" lon="3.091878">
        <ele>13.5</ele>
        <time>2020-05-23T20:13:27Z</time>
      </trkpt>
      <trkpt lat="39.913792" lon="3.091764">
        <ele>13.8</ele>
        <time>2020-05-23T20:13:28Z</time>
      </trkpt>
      <trkpt lat="39.913788" lon="3.091647">
        <ele>14</ele>
        <time>2020-05-23T20:13:29Z</time>
      </trkpt>
      <trkpt lat="39.91378" lon="3.091529">
        <ele>14.2</ele>
        <time>2020-05-23T20:13:30Z</time>
      </trkpt>
      <trkpt lat="39.913773" lon="3.091407">
        <ele>14.4</ele>
        <time>2020-05-23T20:13:32Z</time>
      </trkpt>
      <trkpt lat="39.913769" lon="3.091281">
        <ele>14.5</ele>
        <time>2020-05-23T20:13:33Z</time>
      </trkpt>
      <trkpt lat="39.913761" lon="3.091172">
        <ele>14.7</ele>
        <time>2020-05-23T20:13:34Z</time>
      </trkpt>
      <trkpt lat="39.913757" lon="3.091061">
        <ele>14.7</ele>
        <time>2020-05-23T20:13:35Z</time>
      </trkpt>
      <trkpt lat="39.913753" lon="3.090924">
        <ele>14.7</ele>
        <time>2020-05-23T20:13:36Z</time>
      </trkpt>
      <trkpt lat="39.913746" lon="3.090782">
        <ele>14.7</ele>
        <time>2020-05-23T20:13:37Z</time>
      </trkpt>
      <trkpt lat="39.913738" lon="3.090633">
        <ele>14.7</ele>
        <time>2020-05-23T20:13:38Z</time>
      </trkpt>
      <trkpt lat="39.913734" lon="3.090479">
        <ele>14.6</ele>
        <time>2020-05-23T20:13:40Z</time>
      </trkpt>
      <trkpt lat="39.913727" lon="3.090348">
        <ele>14.5</ele>
        <time>2020-05-23T20:13:41Z</time>
      </trkpt>
      <trkpt lat="39.913719" lon="3.090215">
        <ele>14.4</ele>
        <time>2020-05-23T20:13:42Z</time>
      </trkpt>
      <trkpt lat="39.913712" lon="3.090053">
        <ele>14.1</ele>
        <time>2020-05-23T20:13:43Z</time>
      </trkpt>
      <trkpt lat="39.913704" lon="3.089889">
        <ele>13.8</ele>
        <time>2020-05-23T20:13:44Z</time>
      </trkpt>
      <trkpt lat="39.9137" lon="3.089753">
        <ele>13.6</ele>
        <time>2020-05-23T20:13:45Z</time>
      </trkpt>
      <trkpt lat="39.913692" lon="3.089593">
        <ele>13.4</ele>
        <time>2020-05-23T20:13:46Z</time>
      </trkpt>
      <trkpt lat="39.913689" lon="3.089438">
        <ele>13.2</ele>
        <time>2020-05-23T20:13:47Z</time>
      </trkpt>
      <trkpt lat="39.913681" lon="3.089291">
        <ele>13</ele>
        <time>2020-05-23T20:13:49Z</time>
      </trkpt>
      <trkpt lat="39.913677" lon="3.089172">
        <ele>12.9</ele>
        <time>2020-05-23T20:13:50Z</time>
      </trkpt>
      <trkpt lat="39.91367" lon="3.089056">
        <ele>12.8</ele>
        <time>2020-05-23T20:13:51Z</time>
      </trkpt>
      <trkpt lat="39.913666" lon="3.088919">
        <ele>12.7</ele>
        <time>2020-05-23T20:13:52Z</time>
      </trkpt>
      <trkpt lat="39.913658" lon="3.088804">
        <ele>12.6</ele>
        <time>2020-05-23T20:13:53Z</time>
      </trkpt>
      <trkpt lat="39.913654" lon="3.088689">
        <ele>12.6</ele>
        <time>2020-05-23T20:13:54Z</time>
      </trkpt>
      <trkpt lat="39.91365" lon="3.088551">
        <ele>12.6</ele>
        <time>2020-05-23T20:13:55Z</time>
      </trkpt>
      <trkpt lat="39.913647" lon="3.088413">
        <ele>12.7</ele>
        <time>2020-05-23T20:13:56Z</time>
      </trkpt>
      <trkpt lat="39.913639" lon="3.088274">
        <ele>12.9</ele>
        <time>2020-05-23T20:13:57Z</time>
      </trkpt>
      <trkpt lat="39.913631" lon="3.088157">
        <ele>13.2</ele>
        <time>2020-05-23T20:13:58Z</time>
      </trkpt>
      <trkpt lat="39.913624" lon="3.088017">
        <ele>12.9</ele>
        <time>2020-05-23T20:14:00Z</time>
      </trkpt>
      <trkpt lat="39.913616" lon="3.087876">
        <ele>12.9</ele>
        <time>2020-05-23T20:14:01Z</time>
      </trkpt>
      <trkpt lat="39.913609" lon="3.087734">
        <ele>12.9</ele>
        <time>2020-05-23T20:14:02Z</time>
      </trkpt>
      <trkpt lat="39.913597" lon="3.087614">
        <ele>12.9</ele>
        <time>2020-05-23T20:14:03Z</time>
      </trkpt>
      <trkpt lat="39.913589" lon="3.087493">
        <ele>12.8</ele>
        <time>2020-05-23T20:14:04Z</time>
      </trkpt>
      <trkpt lat="39.913574" lon="3.087347">
        <ele>12.8</ele>
        <time>2020-05-23T20:14:05Z</time>
      </trkpt>
      <trkpt lat="39.913551" lon="3.0872">
        <ele>12.7</ele>
        <time>2020-05-23T20:14:06Z</time>
      </trkpt>
      <trkpt lat="39.913528" lon="3.087052">
        <ele>12.6</ele>
        <time>2020-05-23T20:14:08Z</time>
      </trkpt>
      <trkpt lat="39.913502" lon="3.086903">
        <ele>12.4</ele>
        <time>2020-05-23T20:14:09Z</time>
      </trkpt>
      <trkpt lat="39.913483" lon="3.086779">
        <ele>12.2</ele>
        <time>2020-05-23T20:14:10Z</time>
      </trkpt>
      <trkpt lat="39.913456" lon="3.086631">
        <ele>12.1</ele>
        <time>2020-05-23T20:14:11Z</time>
      </trkpt>
      <trkpt lat="39.913433" lon="3.086486">
        <ele>11.9</ele>
        <time>2020-05-23T20:14:12Z</time>
      </trkpt>
      <trkpt lat="39.913402" lon="3.086346">
        <ele>11.8</ele>
        <time>2020-05-23T20:14:13Z</time>
      </trkpt>
      <trkpt lat="39.913372" lon="3.086229">
        <ele>11.6</ele>
        <time>2020-05-23T20:14:14Z</time>
      </trkpt>
      <trkpt lat="39.913338" lon="3.086085">
        <ele>11.4</ele>
        <time>2020-05-23T20:14:16Z</time>
      </trkpt>
      <trkpt lat="39.913296" lon="3.085938">
        <ele>11.2</ele>
        <time>2020-05-23T20:14:17Z</time>
      </trkpt>
      <trkpt lat="39.913254" lon="3.085795">
        <ele>11</ele>
        <time>2020-05-23T20:14:18Z</time>
      </trkpt>
      <trkpt lat="39.913212" lon="3.085658">
        <ele>10.8</ele>
        <time>2020-05-23T20:14:19Z</time>
      </trkpt>
      <trkpt lat="39.913166" lon="3.085523">
        <ele>10.7</ele>
        <time>2020-05-23T20:14:20Z</time>
      </trkpt>
      <trkpt lat="39.913124" lon="3.085389">
        <ele>10.5</ele>
        <time>2020-05-23T20:14:22Z</time>
      </trkpt>
      <trkpt lat="39.913086" lon="3.085279">
        <ele>10.3</ele>
        <time>2020-05-23T20:14:23Z</time>
      </trkpt>
      <trkpt lat="39.913044" lon="3.085171">
        <ele>10.3</ele>
        <time>2020-05-23T20:14:24Z</time>
      </trkpt>
      <trkpt lat="39.913006" lon="3.085064">
        <ele>10.2</ele>
        <time>2020-05-23T20:14:25Z</time>
      </trkpt>
      <trkpt lat="39.912968" lon="3.084959">
        <ele>10.1</ele>
        <time>2020-05-23T20:14:26Z</time>
      </trkpt>
      <trkpt lat="39.912922" lon="3.084844">
        <ele>10.1</ele>
        <time>2020-05-23T20:14:27Z</time>
      </trkpt>
      <trkpt lat="39.912857" lon="3.084745">
        <ele>10.1</ele>
        <time>2020-05-23T20:14:28Z</time>
      </trkpt>
      <trkpt lat="39.9128" lon="3.084674">
        <ele>10.2</ele>
        <time>2020-05-23T20:14:29Z</time>
      </trkpt>
      <trkpt lat="39.91272" lon="3.08462">
        <ele>10.4</ele>
        <time>2020-05-23T20:14:30Z</time>
      </trkpt>
      <trkpt lat="39.912636" lon="3.08467">
        <ele>10.8</ele>
        <time>2020-05-23T20:14:31Z</time>
      </trkpt>
      <trkpt lat="39.912575" lon="3.084739">
        <ele>9</ele>
        <time>2020-05-23T20:14:32Z</time>
      </trkpt>
      <trkpt lat="39.912514" lon="3.084809">
        <ele>8.8</ele>
        <time>2020-05-23T20:14:33Z</time>
      </trkpt>
      <trkpt lat="39.912445" lon="3.084877">
        <ele>8.6</ele>
        <time>2020-05-23T20:14:34Z</time>
      </trkpt>
      <trkpt lat="39.912361" lon="3.084954">
        <ele>8.1</ele>
        <time>2020-05-23T20:14:36Z</time>
      </trkpt>
      <trkpt lat="39.912285" lon="3.085018">
        <ele>7.8</ele>
        <time>2020-05-23T20:14:37Z</time>
      </trkpt>
      <trkpt lat="39.912212" lon="3.085083">
        <ele>7.6</ele>
        <time>2020-05-23T20:14:38Z</time>
      </trkpt>
      <trkpt lat="39.912125" lon="3.08516">
        <ele>7.4</ele>
        <time>2020-05-23T20:14:39Z</time>
      </trkpt>
      <trkpt lat="39.912037" lon="3.085237">
        <ele>7.3</ele>
        <time>2020-05-23T20:14:40Z</time>
      </trkpt>
      <trkpt lat="39.911949" lon="3.085313">
        <ele>7</ele>
        <time>2020-05-23T20:14:41Z</time>
      </trkpt>
      <trkpt lat="39.911877" lon="3.085377">
        <ele>6.7</ele>
        <time>2020-05-23T20:14:42Z</time>
      </trkpt>
      <trkpt lat="39.911789" lon="3.085453">
        <ele>6.5</ele>
        <time>2020-05-23T20:14:43Z</time>
      </trkpt>
      <trkpt lat="39.911701" lon="3.085529">
        <ele>6.2</ele>
        <time>2020-05-23T20:14:45Z</time>
      </trkpt>
      <trkpt lat="39.911613" lon="3.085604">
        <ele>5.9</ele>
        <time>2020-05-23T20:14:46Z</time>
      </trkpt>
      <trkpt lat="39.911526" lon="3.085679">
        <ele>5.6</ele>
        <time>2020-05-23T20:14:47Z</time>
      </trkpt>
      <trkpt lat="39.911453" lon="3.08574">
        <ele>5.4</ele>
        <time>2020-05-23T20:14:48Z</time>
      </trkpt>
      <trkpt lat="39.911365" lon="3.085809">
        <ele>5.2</ele>
        <time>2020-05-23T20:14:49Z</time>
      </trkpt>
      <trkpt lat="39.911297" lon="3.085863">
        <ele>5.2</ele>
        <time>2020-05-23T20:14:50Z</time>
      </trkpt>
      <trkpt lat="39.911232" lon="3.085915">
        <ele>5.1</ele>
        <time>2020-05-23T20:14:51Z</time>
      </trkpt>
      <trkpt lat="39.911156" lon="3.085976">
        <ele>5.1</ele>
        <time>2020-05-23T20:14:52Z</time>
      </trkpt>
      <trkpt lat="39.911095" lon="3.086026">
        <ele>5.1</ele>
        <time>2020-05-23T20:14:53Z</time>
      </trkpt>
      <trkpt lat="39.911034" lon="3.086077">
        <ele>5.2</ele>
        <time>2020-05-23T20:14:54Z</time>
      </trkpt>
      <trkpt lat="39.910965" lon="3.08614">
        <ele>5.2</ele>
        <time>2020-05-23T20:14:56Z</time>
      </trkpt>
      <trkpt lat="39.910892" lon="3.08619">
        <ele>5.2</ele>
        <time>2020-05-23T20:14:57Z</time>
      </trkpt>
      <trkpt lat="39.910831" lon="3.086149">
        <ele>5.2</ele>
        <time>2020-05-23T20:14:58Z</time>
      </trkpt>
      <trkpt lat="39.910763" lon="3.086074">
        <ele>5.2</ele>
        <time>2020-05-23T20:14:59Z</time>
      </trkpt>
      <trkpt lat="39.910702" lon="3.086027">
        <ele>5.2</ele>
        <time>2020-05-23T20:15:00Z</time>
      </trkpt>
      <trkpt lat="39.910618" lon="3.086044">
        <ele>5.2</ele>
        <time>2020-05-23T20:15:01Z</time>
      </trkpt>
      <trkpt lat="39.910564" lon="3.086099">
        <ele>5.1</ele>
        <time>2020-05-23T20:15:02Z</time>
      </trkpt>
      <trkpt lat="39.910515" lon="3.086157">
        <ele>5</ele>
        <time>2020-05-23T20:15:03Z</time>
      </trkpt>
      <trkpt lat="39.910458" lon="3.086223">
        <ele>4.9</ele>
        <time>2020-05-23T20:15:04Z</time>
      </trkpt>
      <trkpt lat="39.910404" lon="3.086286">
        <ele>5</ele>
        <time>2020-05-23T20:15:06Z</time>
      </trkpt>
      <trkpt lat="39.910355" lon="3.086349">
        <ele>5.2</ele>
        <time>2020-05-23T20:15:07Z</time>
      </trkpt>
      <trkpt lat="39.910301" lon="3.086412">
        <ele>5.4</ele>
        <time>2020-05-23T20:15:08Z</time>
      </trkpt>
      <trkpt lat="39.910255" lon="3.086464">
        <ele>5.3</ele>
        <time>2020-05-23T20:15:09Z</time>
      </trkpt>
      <trkpt lat="39.910206" lon="3.086529">
        <ele>5.3</ele>
        <time>2020-05-23T20:15:10Z</time>
      </trkpt>
      <trkpt lat="39.910156" lon="3.086587">
        <ele>5.2</ele>
        <time>2020-05-23T20:15:11Z</time>
      </trkpt>
      <trkpt lat="39.910095" lon="3.086544">
        <ele>5.1</ele>
        <time>2020-05-23T20:15:13Z</time>
      </trkpt>
      <trkpt lat="39.910057" lon="3.086486">
        <ele>5</ele>
        <time>2020-05-23T20:15:14Z</time>
      </trkpt>
      <trkpt lat="39.910011" lon="3.086416">
        <ele>5</ele>
        <time>2020-05-23T20:15:15Z</time>
      </trkpt>
      <trkpt lat="39.909973" lon="3.086358">
        <ele>5</ele>
        <time>2020-05-23T20:15:16Z</time>
      </trkpt>
      <trkpt lat="39.909924" lon="3.086287">
        <ele>5.1</ele>
        <time>2020-05-23T20:15:17Z</time>
      </trkpt>
      <trkpt lat="39.909885" lon="3.086227">
        <ele>5.1</ele>
        <time>2020-05-23T20:15:18Z</time>
      </trkpt>
      <trkpt lat="39.90984" lon="3.086156">
        <ele>5.2</ele>
        <time>2020-05-23T20:15:19Z</time>
      </trkpt>
      <trkpt lat="39.909794" lon="3.086084">
        <ele>5.2</ele>
        <time>2020-05-23T20:15:20Z</time>
      </trkpt>
      <trkpt lat="39.909752" lon="3.086024">
        <ele>5.2</ele>
        <time>2020-05-23T20:15:21Z</time>
      </trkpt>
      <trkpt lat="39.909714" lon="3.085962">
        <ele>5.3</ele>
        <time>2020-05-23T20:15:22Z</time>
      </trkpt>
      <trkpt lat="39.909664" lon="3.085887">
        <ele>5.3</ele>
        <time>2020-05-23T20:15:24Z</time>
      </trkpt>
      <trkpt lat="39.909622" lon="3.085823">
        <ele>5.3</ele>
        <time>2020-05-23T20:15:25Z</time>
      </trkpt>
      <trkpt lat="39.90958" lon="3.085758">
        <ele>5.3</ele>
        <time>2020-05-23T20:15:26Z</time>
      </trkpt>
      <trkpt lat="39.909534" lon="3.085693">
        <ele>5.3</ele>
        <time>2020-05-23T20:15:27Z</time>
      </trkpt>
      <trkpt lat="39.909492" lon="3.085629">
        <ele>5.3</ele>
        <time>2020-05-23T20:15:28Z</time>
      </trkpt>
      <trkpt lat="39.909447" lon="3.085563">
        <ele>5.2</ele>
        <time>2020-05-23T20:15:29Z</time>
      </trkpt>
      <trkpt lat="39.909393" lon="3.085481">
        <ele>5.2</ele>
        <time>2020-05-23T20:15:30Z</time>
      </trkpt>
      <trkpt lat="39.90934" lon="3.085397">
        <ele>5.2</ele>
        <time>2020-05-23T20:15:31Z</time>
      </trkpt>
      <trkpt lat="39.909279" lon="3.085319">
        <ele>5.2</ele>
        <time>2020-05-23T20:15:32Z</time>
      </trkpt>
      <trkpt lat="39.909222" lon="3.08526">
        <ele>5.1</ele>
        <time>2020-05-23T20:15:33Z</time>
      </trkpt>
      <trkpt lat="39.909153" lon="3.085189">
        <ele>5.1</ele>
        <time>2020-05-23T20:15:34Z</time>
      </trkpt>
      <trkpt lat="39.909084" lon="3.08512">
        <ele>5.1</ele>
        <time>2020-05-23T20:15:36Z</time>
      </trkpt>
      <trkpt lat="39.909012" lon="3.085051">
        <ele>5.1</ele>
        <time>2020-05-23T20:15:37Z</time>
      </trkpt>
      <trkpt lat="39.908955" lon="3.084995">
        <ele>5.1</ele>
        <time>2020-05-23T20:15:38Z</time>
      </trkpt>
      <trkpt lat="39.908894" lon="3.084939">
        <ele>5.1</ele>
        <time>2020-05-23T20:15:39Z</time>
      </trkpt>
      <trkpt lat="39.908825" lon="3.084871">
        <ele>5.1</ele>
        <time>2020-05-23T20:15:40Z</time>
      </trkpt>
      <trkpt lat="39.908764" lon="3.084814">
        <ele>5.1</ele>
        <time>2020-05-23T20:15:41Z</time>
      </trkpt>
      <trkpt lat="39.908695" lon="3.084747">
        <ele>5</ele>
        <time>2020-05-23T20:15:42Z</time>
      </trkpt>
      <trkpt lat="39.908623" lon="3.08468">
        <ele>5</ele>
        <time>2020-05-23T20:15:43Z</time>
      </trkpt>
      <trkpt lat="39.908565" lon="3.084624">
        <ele>5.1</ele>
        <time>2020-05-23T20:15:44Z</time>
      </trkpt>
      <trkpt lat="39.908493" lon="3.084556">
        <ele>5.1</ele>
        <time>2020-05-23T20:15:46Z</time>
      </trkpt>
      <trkpt lat="39.908432" lon="3.084499">
        <ele>5</ele>
        <time>2020-05-23T20:15:47Z</time>
      </trkpt>
      <trkpt lat="39.908363" lon="3.084431">
        <ele>5</ele>
        <time>2020-05-23T20:15:48Z</time>
      </trkpt>
      <trkpt lat="39.908302" lon="3.084374">
        <ele>5</ele>
        <time>2020-05-23T20:15:49Z</time>
      </trkpt>
      <trkpt lat="39.90823" lon="3.084307">
        <ele>5</ele>
        <time>2020-05-23T20:15:50Z</time>
      </trkpt>
      <trkpt lat="39.908157" lon="3.084239">
        <ele>5</ele>
        <time>2020-05-23T20:15:51Z</time>
      </trkpt>
      <trkpt lat="39.908085" lon="3.084174">
        <ele>5.1</ele>
        <time>2020-05-23T20:15:52Z</time>
      </trkpt>
      <trkpt lat="39.908012" lon="3.08411">
        <ele>5.1</ele>
        <time>2020-05-23T20:15:54Z</time>
      </trkpt>
      <trkpt lat="39.90794" lon="3.084048">
        <ele>5.2</ele>
        <time>2020-05-23T20:15:55Z</time>
      </trkpt>
      <trkpt lat="39.907875" lon="3.083996">
        <ele>5.2</ele>
        <time>2020-05-23T20:15:56Z</time>
      </trkpt>
      <trkpt lat="39.907814" lon="3.083942">
        <ele>5.3</ele>
        <time>2020-05-23T20:15:57Z</time>
      </trkpt>
      <trkpt lat="39.907745" lon="3.083876">
        <ele>5.3</ele>
        <time>2020-05-23T20:15:58Z</time>
      </trkpt>
      <trkpt lat="39.907684" lon="3.083823">
        <ele>5.3</ele>
        <time>2020-05-23T20:15:59Z</time>
      </trkpt>
      <trkpt lat="39.907612" lon="3.083759">
        <ele>5.2</ele>
        <time>2020-05-23T20:16:00Z</time>
      </trkpt>
      <trkpt lat="39.907539" lon="3.083696">
        <ele>5.2</ele>
        <time>2020-05-23T20:16:01Z</time>
      </trkpt>
      <trkpt lat="39.907463" lon="3.083637">
        <ele>5.2</ele>
        <time>2020-05-23T20:16:03Z</time>
      </trkpt>
      <trkpt lat="39.907383" lon="3.083582">
        <ele>5.2</ele>
        <time>2020-05-23T20:16:04Z</time>
      </trkpt>
      <trkpt lat="39.907307" lon="3.083528">
        <ele>5.2</ele>
        <time>2020-05-23T20:16:05Z</time>
      </trkpt>
      <trkpt lat="39.907242" lon="3.083484">
        <ele>5.2</ele>
        <time>2020-05-23T20:16:06Z</time>
      </trkpt>
      <trkpt lat="39.907173" lon="3.083441">
        <ele>5.2</ele>
        <time>2020-05-23T20:16:07Z</time>
      </trkpt>
      <trkpt lat="39.907108" lon="3.0834">
        <ele>5.2</ele>
        <time>2020-05-23T20:16:08Z</time>
      </trkpt>
      <trkpt lat="39.907024" lon="3.083351">
        <ele>5.2</ele>
        <time>2020-05-23T20:16:09Z</time>
      </trkpt>
      <trkpt lat="39.906948" lon="3.083301">
        <ele>5.2</ele>
        <time>2020-05-23T20:16:10Z</time>
      </trkpt>
      <trkpt lat="39.906876" lon="3.083253">
        <ele>5.2</ele>
        <time>2020-05-23T20:16:12Z</time>
      </trkpt>
      <trkpt lat="39.906807" lon="3.083211">
        <ele>5.1</ele>
        <time>2020-05-23T20:16:13Z</time>
      </trkpt>
      <trkpt lat="39.906742" lon="3.083171">
        <ele>5.1</ele>
        <time>2020-05-23T20:16:14Z</time>
      </trkpt>
      <trkpt lat="39.906692" lon="3.08314">
        <ele>5.1</ele>
        <time>2020-05-23T20:16:15Z</time>
      </trkpt>
      <trkpt lat="39.906643" lon="3.083114">
        <ele>5.1</ele>
        <time>2020-05-23T20:16:16Z</time>
      </trkpt>
      <trkpt lat="39.906582" lon="3.0831">
        <ele>5.1</ele>
        <time>2020-05-23T20:16:17Z</time>
      </trkpt>
      <trkpt lat="39.906532" lon="3.083099">
        <ele>5.1</ele>
        <time>2020-05-23T20:16:18Z</time>
      </trkpt>
      <trkpt lat="39.906479" lon="3.083102">
        <ele>5.1</ele>
        <time>2020-05-23T20:16:19Z</time>
      </trkpt>
      <trkpt lat="39.906437" lon="3.083062">
        <ele>5</ele>
        <time>2020-05-23T20:16:20Z</time>
      </trkpt>
      <trkpt lat="39.906422" lon="3.082977">
        <ele>4.9</ele>
        <time>2020-05-23T20:16:22Z</time>
      </trkpt>
      <trkpt lat="39.906403" lon="3.082907">
        <ele>4.9</ele>
        <time>2020-05-23T20:16:23Z</time>
      </trkpt>
      <trkpt lat="39.906368" lon="3.082825">
        <ele>4.9</ele>
        <time>2020-05-23T20:16:24Z</time>
      </trkpt>
      <trkpt lat="39.906326" lon="3.082762">
        <ele>4.8</ele>
        <time>2020-05-23T20:16:25Z</time>
      </trkpt>
      <trkpt lat="39.906269" lon="3.082691">
        <ele>4.7</ele>
        <time>2020-05-23T20:16:26Z</time>
      </trkpt>
      <trkpt lat="39.906223" lon="3.082633">
        <ele>4.6</ele>
        <time>2020-05-23T20:16:27Z</time>
      </trkpt>
      <trkpt lat="39.906162" lon="3.082564">
        <ele>4.5</ele>
        <time>2020-05-23T20:16:28Z</time>
      </trkpt>
      <trkpt lat="39.906097" lon="3.082496">
        <ele>4.3</ele>
        <time>2020-05-23T20:16:29Z</time>
      </trkpt>
      <trkpt lat="39.906029" lon="3.08243">
        <ele>4.2</ele>
        <time>2020-05-23T20:16:31Z</time>
      </trkpt>
      <trkpt lat="39.905968" lon="3.082385">
        <ele>4.2</ele>
        <time>2020-05-23T20:16:32Z</time>
      </trkpt>
      <trkpt lat="39.905891" lon="3.082334">
        <ele>4.1</ele>
        <time>2020-05-23T20:16:33Z</time>
      </trkpt>
      <trkpt lat="39.905815" lon="3.082284">
        <ele>4.1</ele>
        <time>2020-05-23T20:16:34Z</time>
      </trkpt>
      <trkpt lat="39.90575" lon="3.082243">
        <ele>4.1</ele>
        <time>2020-05-23T20:16:35Z</time>
      </trkpt>
      <trkpt lat="39.905689" lon="3.082202">
        <ele>4.1</ele>
        <time>2020-05-23T20:16:36Z</time>
      </trkpt>
      <trkpt lat="39.905613" lon="3.082152">
        <ele>4.1</ele>
        <time>2020-05-23T20:16:37Z</time>
      </trkpt>
      <trkpt lat="39.905533" lon="3.082103">
        <ele>4.1</ele>
        <time>2020-05-23T20:16:38Z</time>
      </trkpt>
      <trkpt lat="39.905468" lon="3.082061">
        <ele>4.1</ele>
        <time>2020-05-23T20:16:39Z</time>
      </trkpt>
      <trkpt lat="39.905392" lon="3.082011">
        <ele>4.2</ele>
        <time>2020-05-23T20:16:41Z</time>
      </trkpt>
      <trkpt lat="39.905312" lon="3.08196">
        <ele>4.2</ele>
        <time>2020-05-23T20:16:42Z</time>
      </trkpt>
      <trkpt lat="39.905235" lon="3.081908">
        <ele>4.3</ele>
        <time>2020-05-23T20:16:43Z</time>
      </trkpt>
      <trkpt lat="39.905159" lon="3.081856">
        <ele>4.4</ele>
        <time>2020-05-23T20:16:44Z</time>
      </trkpt>
      <trkpt lat="39.905079" lon="3.081806">
        <ele>4.4</ele>
        <time>2020-05-23T20:16:45Z</time>
      </trkpt>
      <trkpt lat="39.904999" lon="3.081758">
        <ele>4.4</ele>
        <time>2020-05-23T20:16:47Z</time>
      </trkpt>
      <trkpt lat="39.904919" lon="3.08171">
        <ele>4.4</ele>
        <time>2020-05-23T20:16:48Z</time>
      </trkpt>
      <trkpt lat="39.904842" lon="3.081661">
        <ele>4.3</ele>
        <time>2020-05-23T20:16:49Z</time>
      </trkpt>
      <trkpt lat="39.904762" lon="3.081613">
        <ele>4.3</ele>
        <time>2020-05-23T20:16:50Z</time>
      </trkpt>
      <trkpt lat="39.904682" lon="3.081564">
        <ele>4.3</ele>
        <time>2020-05-23T20:16:51Z</time>
      </trkpt>
      <trkpt lat="39.904602" lon="3.081516">
        <ele>4.4</ele>
        <time>2020-05-23T20:16:53Z</time>
      </trkpt>
      <trkpt lat="39.904537" lon="3.081476">
        <ele>4.5</ele>
        <time>2020-05-23T20:16:54Z</time>
      </trkpt>
      <trkpt lat="39.904461" lon="3.081428">
        <ele>4.5</ele>
        <time>2020-05-23T20:16:55Z</time>
      </trkpt>
      <trkpt lat="39.904381" lon="3.08138">
        <ele>4.5</ele>
        <time>2020-05-23T20:16:56Z</time>
      </trkpt>
      <trkpt lat="39.904304" lon="3.081329">
        <ele>4.4</ele>
        <time>2020-05-23T20:16:57Z</time>
      </trkpt>
      <trkpt lat="39.904228" lon="3.081273">
        <ele>4.4</ele>
        <time>2020-05-23T20:16:58Z</time>
      </trkpt>
      <trkpt lat="39.904152" lon="3.081217">
        <ele>4.4</ele>
        <time>2020-05-23T20:17:00Z</time>
      </trkpt>
      <trkpt lat="39.904076" lon="3.081161">
        <ele>4.4</ele>
        <time>2020-05-23T20:17:01Z</time>
      </trkpt>
      <trkpt lat="39.903999" lon="3.081105">
        <ele>4.4</ele>
        <time>2020-05-23T20:17:02Z</time>
      </trkpt>
      <trkpt lat="39.903938" lon="3.081058">
        <ele>4.4</ele>
        <time>2020-05-23T20:17:03Z</time>
      </trkpt>
      <trkpt lat="39.903873" lon="3.081012">
        <ele>4.4</ele>
        <time>2020-05-23T20:17:04Z</time>
      </trkpt>
      <trkpt lat="39.903812" lon="3.080965">
        <ele>4.4</ele>
        <time>2020-05-23T20:17:05Z</time>
      </trkpt>
      <trkpt lat="39.903736" lon="3.08091">
        <ele>4.4</ele>
        <time>2020-05-23T20:17:06Z</time>
      </trkpt>
      <trkpt lat="39.903671" lon="3.080863">
        <ele>4.3</ele>
        <time>2020-05-23T20:17:07Z</time>
      </trkpt>
      <trkpt lat="39.903595" lon="3.080805">
        <ele>4.3</ele>
        <time>2020-05-23T20:17:08Z</time>
      </trkpt>
      <trkpt lat="39.903526" lon="3.080758">
        <ele>4.4</ele>
        <time>2020-05-23T20:17:09Z</time>
      </trkpt>
      <trkpt lat="39.903446" lon="3.080702">
        <ele>4.3</ele>
        <time>2020-05-23T20:17:11Z</time>
      </trkpt>
      <trkpt lat="39.903362" lon="3.080647">
        <ele>4.3</ele>
        <time>2020-05-23T20:17:12Z</time>
      </trkpt>
      <trkpt lat="39.903278" lon="3.080591">
        <ele>4.3</ele>
        <time>2020-05-23T20:17:13Z</time>
      </trkpt>
      <trkpt lat="39.903194" lon="3.080532">
        <ele>4.3</ele>
        <time>2020-05-23T20:17:14Z</time>
      </trkpt>
      <trkpt lat="39.903126" lon="3.080482">
        <ele>4.2</ele>
        <time>2020-05-23T20:17:15Z</time>
      </trkpt>
      <trkpt lat="39.903046" lon="3.080421">
        <ele>4.4</ele>
        <time>2020-05-23T20:17:16Z</time>
      </trkpt>
      <trkpt lat="39.902966" lon="3.08036">
        <ele>4.5</ele>
        <time>2020-05-23T20:17:18Z</time>
      </trkpt>
      <trkpt lat="39.902897" lon="3.080311">
        <ele>4.6</ele>
        <time>2020-05-23T20:17:19Z</time>
      </trkpt>
      <trkpt lat="39.902824" lon="3.080269">
        <ele>4.7</ele>
        <time>2020-05-23T20:17:20Z</time>
      </trkpt>
      <trkpt lat="39.90274" lon="3.080221">
        <ele>4.4</ele>
        <time>2020-05-23T20:17:21Z</time>
      </trkpt>
      <trkpt lat="39.902656" lon="3.080175">
        <ele>4.3</ele>
        <time>2020-05-23T20:17:22Z</time>
      </trkpt>
      <trkpt lat="39.902569" lon="3.080131">
        <ele>4.2</ele>
        <time>2020-05-23T20:17:23Z</time>
      </trkpt>
      <trkpt lat="39.902496" lon="3.080099">
        <ele>4.2</ele>
        <time>2020-05-23T20:17:24Z</time>
      </trkpt>
      <trkpt lat="39.902424" lon="3.080066">
        <ele>4.1</ele>
        <time>2020-05-23T20:17:25Z</time>
      </trkpt>
      <trkpt lat="39.90234" lon="3.080027">
        <ele>4.1</ele>
        <time>2020-05-23T20:17:26Z</time>
      </trkpt>
      <trkpt lat="39.902267" lon="3.079997">
        <ele>4</ele>
        <time>2020-05-23T20:17:27Z</time>
      </trkpt>
      <trkpt lat="39.902176" lon="3.079962">
        <ele>4</ele>
        <time>2020-05-23T20:17:29Z</time>
      </trkpt>
      <trkpt lat="39.902088" lon="3.079927">
        <ele>3.9</ele>
        <time>2020-05-23T20:17:30Z</time>
      </trkpt>
      <trkpt lat="39.902016" lon="3.079899">
        <ele>3.9</ele>
        <time>2020-05-23T20:17:31Z</time>
      </trkpt>
      <trkpt lat="39.901939" lon="3.079872">
        <ele>3.9</ele>
        <time>2020-05-23T20:17:32Z</time>
      </trkpt>
      <trkpt lat="39.901852" lon="3.079841">
        <ele>3.8</ele>
        <time>2020-05-23T20:17:33Z</time>
      </trkpt>
      <trkpt lat="39.90176" lon="3.07981">
        <ele>3.8</ele>
        <time>2020-05-23T20:17:34Z</time>
      </trkpt>
      <trkpt lat="39.901688" lon="3.079784">
        <ele>3.8</ele>
        <time>2020-05-23T20:17:35Z</time>
      </trkpt>
      <trkpt lat="39.901611" lon="3.07976">
        <ele>3.7</ele>
        <time>2020-05-23T20:17:36Z</time>
      </trkpt>
      <trkpt lat="39.901524" lon="3.079733">
        <ele>3.7</ele>
        <time>2020-05-23T20:17:37Z</time>
      </trkpt>
      <trkpt lat="39.901436" lon="3.079706">
        <ele>3.7</ele>
        <time>2020-05-23T20:17:39Z</time>
      </trkpt>
      <trkpt lat="39.901344" lon="3.079683">
        <ele>3.7</ele>
        <time>2020-05-23T20:17:40Z</time>
      </trkpt>
      <trkpt lat="39.901272" lon="3.079669">
        <ele>3.6</ele>
        <time>2020-05-23T20:17:41Z</time>
      </trkpt>
      <trkpt lat="39.90118" lon="3.079655">
        <ele>3.6</ele>
        <time>2020-05-23T20:17:42Z</time>
      </trkpt>
      <trkpt lat="39.901108" lon="3.079645">
        <ele>3.6</ele>
        <time>2020-05-23T20:17:43Z</time>
      </trkpt>
      <trkpt lat="39.901016" lon="3.079632">
        <ele>3.6</ele>
        <time>2020-05-23T20:17:44Z</time>
      </trkpt>
      <trkpt lat="39.900944" lon="3.079622">
        <ele>3.6</ele>
        <time>2020-05-23T20:17:45Z</time>
      </trkpt>
      <trkpt lat="39.900852" lon="3.07961">
        <ele>3.6</ele>
        <time>2020-05-23T20:17:46Z</time>
      </trkpt>
      <trkpt lat="39.900764" lon="3.079598">
        <ele>3.6</ele>
        <time>2020-05-23T20:17:48Z</time>
      </trkpt>
      <trkpt lat="39.900677" lon="3.079586">
        <ele>3.6</ele>
        <time>2020-05-23T20:17:49Z</time>
      </trkpt>
      <trkpt lat="39.9006" lon="3.079576">
        <ele>3.6</ele>
        <time>2020-05-23T20:17:50Z</time>
      </trkpt>
      <trkpt lat="39.900513" lon="3.079564">
        <ele>3.7</ele>
        <time>2020-05-23T20:17:51Z</time>
      </trkpt>
      <trkpt lat="39.90044" lon="3.079553">
        <ele>3.7</ele>
        <time>2020-05-23T20:17:52Z</time>
      </trkpt>
      <trkpt lat="39.900368" lon="3.079542">
        <ele>3.8</ele>
        <time>2020-05-23T20:17:53Z</time>
      </trkpt>
      <trkpt lat="39.90028" lon="3.079529">
        <ele>3.9</ele>
        <time>2020-05-23T20:17:54Z</time>
      </trkpt>
      <trkpt lat="39.900192" lon="3.079516">
        <ele>3.9</ele>
        <time>2020-05-23T20:17:55Z</time>
      </trkpt>
      <trkpt lat="39.900101" lon="3.079502">
        <ele>3.9</ele>
        <time>2020-05-23T20:17:57Z</time>
      </trkpt>
      <trkpt lat="39.900013" lon="3.079488">
        <ele>3.9</ele>
        <time>2020-05-23T20:17:58Z</time>
      </trkpt>
      <trkpt lat="39.899925" lon="3.079473">
        <ele>4</ele>
        <time>2020-05-23T20:17:59Z</time>
      </trkpt>
      <trkpt lat="39.899853" lon="3.079461">
        <ele>4</ele>
        <time>2020-05-23T20:18:00Z</time>
      </trkpt>
      <trkpt lat="39.899765" lon="3.079446">
        <ele>4</ele>
        <time>2020-05-23T20:18:01Z</time>
      </trkpt>
      <trkpt lat="39.899673" lon="3.07943">
        <ele>4</ele>
        <time>2020-05-23T20:18:02Z</time>
      </trkpt>
      <trkpt lat="39.899586" lon="3.079414">
        <ele>4</ele>
        <time>2020-05-23T20:18:04Z</time>
      </trkpt>
      <trkpt lat="39.899502" lon="3.079397">
        <ele>4</ele>
        <time>2020-05-23T20:18:05Z</time>
      </trkpt>
      <trkpt lat="39.899414" lon="3.07938">
        <ele>4.1</ele>
        <time>2020-05-23T20:18:06Z</time>
      </trkpt>
      <trkpt lat="39.899326" lon="3.079362">
        <ele>4.1</ele>
        <time>2020-05-23T20:18:07Z</time>
      </trkpt>
      <trkpt lat="39.899239" lon="3.079344">
        <ele>4.1</ele>
        <time>2020-05-23T20:18:08Z</time>
      </trkpt>
      <trkpt lat="39.899151" lon="3.079326">
        <ele>4.2</ele>
        <time>2020-05-23T20:18:10Z</time>
      </trkpt>
      <trkpt lat="39.899063" lon="3.079306">
        <ele>4.2</ele>
        <time>2020-05-23T20:18:11Z</time>
      </trkpt>
      <trkpt lat="39.898975" lon="3.079286">
        <ele>4.2</ele>
        <time>2020-05-23T20:18:12Z</time>
      </trkpt>
      <trkpt lat="39.898888" lon="3.079266">
        <ele>4.1</ele>
        <time>2020-05-23T20:18:13Z</time>
      </trkpt>
      <trkpt lat="39.898811" lon="3.079249">
        <ele>4.1</ele>
        <time>2020-05-23T20:18:14Z</time>
      </trkpt>
      <trkpt lat="39.898724" lon="3.079228">
        <ele>4.1</ele>
        <time>2020-05-23T20:18:15Z</time>
      </trkpt>
      <trkpt lat="39.898632" lon="3.079207">
        <ele>4</ele>
        <time>2020-05-23T20:18:17Z</time>
      </trkpt>
      <trkpt lat="39.898552" lon="3.079188">
        <ele>4</ele>
        <time>2020-05-23T20:18:18Z</time>
      </trkpt>
      <trkpt lat="39.898468" lon="3.079167">
        <ele>3.9</ele>
        <time>2020-05-23T20:18:19Z</time>
      </trkpt>
      <trkpt lat="39.898357" lon="3.07914">
        <ele>3.8</ele>
        <time>2020-05-23T20:18:20Z</time>
      </trkpt>
      <trkpt lat="39.898235" lon="3.079109">
        <ele>3.8</ele>
        <time>2020-05-23T20:18:21Z</time>
      </trkpt>
      <trkpt lat="39.898113" lon="3.079079">
        <ele>3.7</ele>
        <time>2020-05-23T20:18:22Z</time>
      </trkpt>
      <trkpt lat="39.898014" lon="3.079054">
        <ele>3.7</ele>
        <time>2020-05-23T20:18:23Z</time>
      </trkpt>
      <trkpt lat="39.8979" lon="3.079024">
        <ele>3.7</ele>
        <time>2020-05-23T20:18:24Z</time>
      </trkpt>
      <trkpt lat="39.897808" lon="3.079001">
        <ele>3.8</ele>
        <time>2020-05-23T20:18:25Z</time>
      </trkpt>
      <trkpt lat="39.897705" lon="3.078973">
        <ele>3.9</ele>
        <time>2020-05-23T20:18:27Z</time>
      </trkpt>
      <trkpt lat="39.897617" lon="3.078951">
        <ele>4</ele>
        <time>2020-05-23T20:18:28Z</time>
      </trkpt>
      <trkpt lat="39.897518" lon="3.078925">
        <ele>4</ele>
        <time>2020-05-23T20:18:29Z</time>
      </trkpt>
      <trkpt lat="39.897423" lon="3.0789">
        <ele>3.9</ele>
        <time>2020-05-23T20:18:30Z</time>
      </trkpt>
      <trkpt lat="39.897327" lon="3.078876">
        <ele>3.8</ele>
        <time>2020-05-23T20:18:31Z</time>
      </trkpt>
      <trkpt lat="39.897236" lon="3.078851">
        <ele>3.7</ele>
        <time>2020-05-23T20:18:32Z</time>
      </trkpt>
      <trkpt lat="39.89714" lon="3.078826">
        <ele>3.6</ele>
        <time>2020-05-23T20:18:34Z</time>
      </trkpt>
      <trkpt lat="39.897045" lon="3.078802">
        <ele>3.5</ele>
        <time>2020-05-23T20:18:35Z</time>
      </trkpt>
      <trkpt lat="39.896969" lon="3.078782">
        <ele>3.5</ele>
        <time>2020-05-23T20:18:36Z</time>
      </trkpt>
      <trkpt lat="39.896873" lon="3.078758">
        <ele>3.5</ele>
        <time>2020-05-23T20:18:37Z</time>
      </trkpt>
      <trkpt lat="39.896797" lon="3.078737">
        <ele>3.5</ele>
        <time>2020-05-23T20:18:38Z</time>
      </trkpt>
      <trkpt lat="39.896706" lon="3.078713">
        <ele>3.5</ele>
        <time>2020-05-23T20:18:39Z</time>
      </trkpt>
      <trkpt lat="39.89661" lon="3.078689">
        <ele>3.5</ele>
        <time>2020-05-23T20:18:40Z</time>
      </trkpt>
      <trkpt lat="39.896519" lon="3.078664">
        <ele>3.4</ele>
        <time>2020-05-23T20:18:42Z</time>
      </trkpt>
      <trkpt lat="39.896423" lon="3.07864">
        <ele>3.4</ele>
        <time>2020-05-23T20:18:43Z</time>
      </trkpt>
      <trkpt lat="39.896332" lon="3.078616">
        <ele>3.4</ele>
        <time>2020-05-23T20:18:44Z</time>
      </trkpt>
      <trkpt lat="39.89624" lon="3.078594">
        <ele>3.4</ele>
        <time>2020-05-23T20:18:45Z</time>
      </trkpt>
      <trkpt lat="39.89616" lon="3.078577">
        <ele>3.4</ele>
        <time>2020-05-23T20:18:46Z</time>
      </trkpt>
      <trkpt lat="39.896084" lon="3.078561">
        <ele>3.4</ele>
        <time>2020-05-23T20:18:47Z</time>
      </trkpt>
      <trkpt lat="39.896008" lon="3.078542">
        <ele>3.4</ele>
        <time>2020-05-23T20:18:48Z</time>
      </trkpt>
      <trkpt lat="39.895927" lon="3.078521">
        <ele>3.4</ele>
        <time>2020-05-23T20:18:49Z</time>
      </trkpt>
      <trkpt lat="39.895836" lon="3.078498">
        <ele>3.5</ele>
        <time>2020-05-23T20:18:50Z</time>
      </trkpt>
      <trkpt lat="39.89576" lon="3.078478">
        <ele>3.5</ele>
        <time>2020-05-23T20:18:51Z</time>
      </trkpt>
      <trkpt lat="39.895679" lon="3.078456">
        <ele>3.5</ele>
        <time>2020-05-23T20:18:52Z</time>
      </trkpt>
      <trkpt lat="39.895603" lon="3.078436">
        <ele>3.5</ele>
        <time>2020-05-23T20:18:53Z</time>
      </trkpt>
      <trkpt lat="39.895523" lon="3.07842">
        <ele>3.5</ele>
        <time>2020-05-23T20:18:54Z</time>
      </trkpt>
      <trkpt lat="39.895431" lon="3.078404">
        <ele>3.6</ele>
        <time>2020-05-23T20:18:56Z</time>
      </trkpt>
      <trkpt lat="39.89534" lon="3.07839">
        <ele>3.6</ele>
        <time>2020-05-23T20:18:57Z</time>
      </trkpt>
      <trkpt lat="39.89526" lon="3.078382">
        <ele>3.6</ele>
        <time>2020-05-23T20:18:58Z</time>
      </trkpt>
      <trkpt lat="39.895164" lon="3.078377">
        <ele>3.6</ele>
        <time>2020-05-23T20:18:59Z</time>
      </trkpt>
      <trkpt lat="39.895065" lon="3.078372">
        <ele>3.6</ele>
        <time>2020-05-23T20:19:00Z</time>
      </trkpt>
      <trkpt lat="39.89497" lon="3.078368">
        <ele>3.6</ele>
        <time>2020-05-23T20:19:01Z</time>
      </trkpt>
      <trkpt lat="39.894875" lon="3.078365">
        <ele>3.6</ele>
        <time>2020-05-23T20:19:03Z</time>
      </trkpt>
      <trkpt lat="39.894775" lon="3.078361">
        <ele>3.6</ele>
        <time>2020-05-23T20:19:04Z</time>
      </trkpt>
      <trkpt lat="39.894695" lon="3.078359">
        <ele>3.6</ele>
        <time>2020-05-23T20:19:05Z</time>
      </trkpt>
      <trkpt lat="39.894604" lon="3.078357">
        <ele>3.6</ele>
        <time>2020-05-23T20:19:06Z</time>
      </trkpt>
      <trkpt lat="39.894524" lon="3.078355">
        <ele>3.6</ele>
        <time>2020-05-23T20:19:07Z</time>
      </trkpt>
      <trkpt lat="39.894428" lon="3.078352">
        <ele>3.6</ele>
        <time>2020-05-23T20:19:08Z</time>
      </trkpt>
      <trkpt lat="39.894333" lon="3.07835">
        <ele>3.6</ele>
        <time>2020-05-23T20:19:09Z</time>
      </trkpt>
      <trkpt lat="39.894257" lon="3.078348">
        <ele>3.6</ele>
        <time>2020-05-23T20:19:10Z</time>
      </trkpt>
      <trkpt lat="39.894161" lon="3.078346">
        <ele>3.6</ele>
        <time>2020-05-23T20:19:12Z</time>
      </trkpt>
      <trkpt lat="39.894066" lon="3.078344">
        <ele>3.6</ele>
        <time>2020-05-23T20:19:13Z</time>
      </trkpt>
      <trkpt lat="39.893974" lon="3.078342">
        <ele>3.6</ele>
        <time>2020-05-23T20:19:14Z</time>
      </trkpt>
      <trkpt lat="39.893879" lon="3.07834">
        <ele>3.6</ele>
        <time>2020-05-23T20:19:15Z</time>
      </trkpt>
      <trkpt lat="39.893787" lon="3.078339">
        <ele>3.6</ele>
        <time>2020-05-23T20:19:16Z</time>
      </trkpt>
      <trkpt lat="39.893696" lon="3.078337">
        <ele>3.7</ele>
        <time>2020-05-23T20:19:18Z</time>
      </trkpt>
      <trkpt lat="39.89362" lon="3.078335">
        <ele>3.7</ele>
        <time>2020-05-23T20:19:19Z</time>
      </trkpt>
      <trkpt lat="39.893524" lon="3.078334">
        <ele>3.8</ele>
        <time>2020-05-23T20:19:20Z</time>
      </trkpt>
      <trkpt lat="39.893448" lon="3.078333">
        <ele>3.8</ele>
        <time>2020-05-23T20:19:21Z</time>
      </trkpt>
      <trkpt lat="39.893372" lon="3.078332">
        <ele>3.8</ele>
        <time>2020-05-23T20:19:22Z</time>
      </trkpt>
      <trkpt lat="39.89328" lon="3.078331">
        <ele>3.8</ele>
        <time>2020-05-23T20:19:23Z</time>
      </trkpt>
      <trkpt lat="39.893188" lon="3.07833">
        <ele>3.9</ele>
        <time>2020-05-23T20:19:24Z</time>
      </trkpt>
      <trkpt lat="39.893097" lon="3.078328">
        <ele>3.9</ele>
        <time>2020-05-23T20:19:25Z</time>
      </trkpt>
      <trkpt lat="39.893021" lon="3.078327">
        <ele>3.9</ele>
        <time>2020-05-23T20:19:26Z</time>
      </trkpt>
      <trkpt lat="39.892929" lon="3.078326">
        <ele>3.9</ele>
        <time>2020-05-23T20:19:28Z</time>
      </trkpt>
      <trkpt lat="39.892853" lon="3.078325">
        <ele>3.9</ele>
        <time>2020-05-23T20:19:29Z</time>
      </trkpt>
      <trkpt lat="39.892761" lon="3.078325">
        <ele>4</ele>
        <time>2020-05-23T20:19:30Z</time>
      </trkpt>
      <trkpt lat="39.892681" lon="3.078324">
        <ele>4</ele>
        <time>2020-05-23T20:19:31Z</time>
      </trkpt>
      <trkpt lat="39.89259" lon="3.078323">
        <ele>4.1</ele>
        <time>2020-05-23T20:19:32Z</time>
      </trkpt>
      <trkpt lat="39.892513" lon="3.078323">
        <ele>4.1</ele>
        <time>2020-05-23T20:19:33Z</time>
      </trkpt>
      <trkpt lat="39.892437" lon="3.078322">
        <ele>4.2</ele>
        <time>2020-05-23T20:19:34Z</time>
      </trkpt>
      <trkpt lat="39.892361" lon="3.078322">
        <ele>4.2</ele>
        <time>2020-05-23T20:19:35Z</time>
      </trkpt>
      <trkpt lat="39.892269" lon="3.078321">
        <ele>4.2</ele>
        <time>2020-05-23T20:19:36Z</time>
      </trkpt>
      <trkpt lat="39.892178" lon="3.078321">
        <ele>4.2</ele>
        <time>2020-05-23T20:19:37Z</time>
      </trkpt>
      <trkpt lat="39.892101" lon="3.078321">
        <ele>4.2</ele>
        <time>2020-05-23T20:19:38Z</time>
      </trkpt>
      <trkpt lat="39.892025" lon="3.078321">
        <ele>4.2</ele>
        <time>2020-05-23T20:19:39Z</time>
      </trkpt>
      <trkpt lat="39.891949" lon="3.07832">
        <ele>4.2</ele>
        <time>2020-05-23T20:19:40Z</time>
      </trkpt>
      <trkpt lat="39.891876" lon="3.07832">
        <ele>4.1</ele>
        <time>2020-05-23T20:19:41Z</time>
      </trkpt>
      <trkpt lat="39.8918" lon="3.07832">
        <ele>4.1</ele>
        <time>2020-05-23T20:19:42Z</time>
      </trkpt>
      <trkpt lat="39.891724" lon="3.078319">
        <ele>4.1</ele>
        <time>2020-05-23T20:19:43Z</time>
      </trkpt>
      <trkpt lat="39.891632" lon="3.078319">
        <ele>4.1</ele>
        <time>2020-05-23T20:19:45Z</time>
      </trkpt>
      <trkpt lat="39.891544" lon="3.078319">
        <ele>4.2</ele>
        <time>2020-05-23T20:19:46Z</time>
      </trkpt>
      <trkpt lat="39.891453" lon="3.078319">
        <ele>4.2</ele>
        <time>2020-05-23T20:19:47Z</time>
      </trkpt>
      <trkpt lat="39.891376" lon="3.078319">
        <ele>4.2</ele>
        <time>2020-05-23T20:19:48Z</time>
      </trkpt>
      <trkpt lat="39.891289" lon="3.078319">
        <ele>4.2</ele>
        <time>2020-05-23T20:19:49Z</time>
      </trkpt>
      <trkpt lat="39.891201" lon="3.078318">
        <ele>4.2</ele>
        <time>2020-05-23T20:19:50Z</time>
      </trkpt>
      <trkpt lat="39.891125" lon="3.078317">
        <ele>4.1</ele>
        <time>2020-05-23T20:19:51Z</time>
      </trkpt>
      <trkpt lat="39.891037" lon="3.078317">
        <ele>4.1</ele>
        <time>2020-05-23T20:19:53Z</time>
      </trkpt>
      <trkpt lat="39.890945" lon="3.078317">
        <ele>4.2</ele>
        <time>2020-05-23T20:19:54Z</time>
      </trkpt>
      <trkpt lat="39.890873" lon="3.078317">
        <ele>4.2</ele>
        <time>2020-05-23T20:19:55Z</time>
      </trkpt>
      <trkpt lat="39.890797" lon="3.078317">
        <ele>4.2</ele>
        <time>2020-05-23T20:19:56Z</time>
      </trkpt>
      <trkpt lat="39.89072" lon="3.078316">
        <ele>4.2</ele>
        <time>2020-05-23T20:19:57Z</time>
      </trkpt>
      <trkpt lat="39.890633" lon="3.078316">
        <ele>4.2</ele>
        <time>2020-05-23T20:19:58Z</time>
      </trkpt>
      <trkpt lat="39.890541" lon="3.078315">
        <ele>4.2</ele>
        <time>2020-05-23T20:19:59Z</time>
      </trkpt>
      <trkpt lat="39.890449" lon="3.078315">
        <ele>4.3</ele>
        <time>2020-05-23T20:20:00Z</time>
      </trkpt>
      <trkpt lat="39.890377" lon="3.078315">
        <ele>4.3</ele>
        <time>2020-05-23T20:20:01Z</time>
      </trkpt>
      <trkpt lat="39.890285" lon="3.078314">
        <ele>4.3</ele>
        <time>2020-05-23T20:20:03Z</time>
      </trkpt>
      <trkpt lat="39.890198" lon="3.078313">
        <ele>4.3</ele>
        <time>2020-05-23T20:20:04Z</time>
      </trkpt>
      <trkpt lat="39.890106" lon="3.078313">
        <ele>4.4</ele>
        <time>2020-05-23T20:20:05Z</time>
      </trkpt>
      <trkpt lat="39.890015" lon="3.078312">
        <ele>4.3</ele>
        <time>2020-05-23T20:20:06Z</time>
      </trkpt>
      <trkpt lat="39.889927" lon="3.078312">
        <ele>4.3</ele>
        <time>2020-05-23T20:20:07Z</time>
      </trkpt>
      <trkpt lat="39.889835" lon="3.078312">
        <ele>4.3</ele>
        <time>2020-05-23T20:20:09Z</time>
      </trkpt>
      <trkpt lat="39.889748" lon="3.078311">
        <ele>4.3</ele>
        <time>2020-05-23T20:20:10Z</time>
      </trkpt>
      <trkpt lat="39.88966" lon="3.078311">
        <ele>4.3</ele>
        <time>2020-05-23T20:20:11Z</time>
      </trkpt>
      <trkpt lat="39.889584" lon="3.078311">
        <ele>4.3</ele>
        <time>2020-05-23T20:20:12Z</time>
      </trkpt>
      <trkpt lat="39.889511" lon="3.078312">
        <ele>4.3</ele>
        <time>2020-05-23T20:20:13Z</time>
      </trkpt>
      <trkpt lat="39.889435" lon="3.078314">
        <ele>4.3</ele>
        <time>2020-05-23T20:20:14Z</time>
      </trkpt>
      <trkpt lat="39.889347" lon="3.078317">
        <ele>4.3</ele>
        <time>2020-05-23T20:20:15Z</time>
      </trkpt>
      <trkpt lat="39.889259" lon="3.078318">
        <ele>4.3</ele>
        <time>2020-05-23T20:20:16Z</time>
      </trkpt>
      <trkpt lat="39.889168" lon="3.078316">
        <ele>4.2</ele>
        <time>2020-05-23T20:20:18Z</time>
      </trkpt>
      <trkpt lat="39.88908" lon="3.078316">
        <ele>4.2</ele>
        <time>2020-05-23T20:20:19Z</time>
      </trkpt>
      <trkpt lat="39.888992" lon="3.078319">
        <ele>4.2</ele>
        <time>2020-05-23T20:20:20Z</time>
      </trkpt>
      <trkpt lat="39.888916" lon="3.07832">
        <ele>4.2</ele>
        <time>2020-05-23T20:20:21Z</time>
      </trkpt>
      <trkpt lat="39.888828" lon="3.078325">
        <ele>4.2</ele>
        <time>2020-05-23T20:20:22Z</time>
      </trkpt>
      <trkpt lat="39.888756" lon="3.078338">
        <ele>4.1</ele>
        <time>2020-05-23T20:20:23Z</time>
      </trkpt>
      <trkpt lat="39.888668" lon="3.078359">
        <ele>4.1</ele>
        <time>2020-05-23T20:20:25Z</time>
      </trkpt>
      <trkpt lat="39.888584" lon="3.078382">
        <ele>4.1</ele>
        <time>2020-05-23T20:20:26Z</time>
      </trkpt>
      <trkpt lat="39.8885" lon="3.078406">
        <ele>4.1</ele>
        <time>2020-05-23T20:20:27Z</time>
      </trkpt>
      <trkpt lat="39.888412" lon="3.078428">
        <ele>4.1</ele>
        <time>2020-05-23T20:20:28Z</time>
      </trkpt>
      <trkpt lat="39.888329" lon="3.078451">
        <ele>4.1</ele>
        <time>2020-05-23T20:20:29Z</time>
      </trkpt>
      <trkpt lat="39.888256" lon="3.078469">
        <ele>4.2</ele>
        <time>2020-05-23T20:20:30Z</time>
      </trkpt>
      <trkpt lat="39.888168" lon="3.078492">
        <ele>4.1</ele>
        <time>2020-05-23T20:20:32Z</time>
      </trkpt>
      <trkpt lat="39.888084" lon="3.078515">
        <ele>4.1</ele>
        <time>2020-05-23T20:20:33Z</time>
      </trkpt>
      <trkpt lat="39.887997" lon="3.078537">
        <ele>4.2</ele>
        <time>2020-05-23T20:20:34Z</time>
      </trkpt>
      <trkpt lat="39.887913" lon="3.07856">
        <ele>4.2</ele>
        <time>2020-05-23T20:20:35Z</time>
      </trkpt>
      <trkpt lat="39.887825" lon="3.078585">
        <ele>4.2</ele>
        <time>2020-05-23T20:20:36Z</time>
      </trkpt>
      <trkpt lat="39.887756" lon="3.078607">
        <ele>4.2</ele>
        <time>2020-05-23T20:20:37Z</time>
      </trkpt>
      <trkpt lat="39.887684" lon="3.078629">
        <ele>4.2</ele>
        <time>2020-05-23T20:20:38Z</time>
      </trkpt>
      <trkpt lat="39.887615" lon="3.078651">
        <ele>4.2</ele>
        <time>2020-05-23T20:20:39Z</time>
      </trkpt>
      <trkpt lat="39.887531" lon="3.078679">
        <ele>4.2</ele>
        <time>2020-05-23T20:20:41Z</time>
      </trkpt>
      <trkpt lat="39.887447" lon="3.078709">
        <ele>4.2</ele>
        <time>2020-05-23T20:20:42Z</time>
      </trkpt>
      <trkpt lat="39.887379" lon="3.078734">
        <ele>4.2</ele>
        <time>2020-05-23T20:20:43Z</time>
      </trkpt>
      <trkpt lat="39.88731" lon="3.078759">
        <ele>4.2</ele>
        <time>2020-05-23T20:20:44Z</time>
      </trkpt>
      <trkpt lat="39.88723" lon="3.078789">
        <ele>4.2</ele>
        <time>2020-05-23T20:20:45Z</time>
      </trkpt>
      <trkpt lat="39.887146" lon="3.07882">
        <ele>4.2</ele>
        <time>2020-05-23T20:20:46Z</time>
      </trkpt>
      <trkpt lat="39.887077" lon="3.078846">
        <ele>4.2</ele>
        <time>2020-05-23T20:20:47Z</time>
      </trkpt>
      <trkpt lat="39.886993" lon="3.078877">
        <ele>4.1</ele>
        <time>2020-05-23T20:20:48Z</time>
      </trkpt>
      <trkpt lat="39.886913" lon="3.078908">
        <ele>4.1</ele>
        <time>2020-05-23T20:20:50Z</time>
      </trkpt>
      <trkpt lat="39.886829" lon="3.078939">
        <ele>4.1</ele>
        <time>2020-05-23T20:20:51Z</time>
      </trkpt>
      <trkpt lat="39.886749" lon="3.07897">
        <ele>4</ele>
        <time>2020-05-23T20:20:52Z</time>
      </trkpt>
      <trkpt lat="39.886665" lon="3.079">
        <ele>4</ele>
        <time>2020-05-23T20:20:53Z</time>
      </trkpt>
      <trkpt lat="39.886597" lon="3.079026">
        <ele>4</ele>
        <time>2020-05-23T20:20:54Z</time>
      </trkpt>
      <trkpt lat="39.886528" lon="3.079051">
        <ele>4</ele>
        <time>2020-05-23T20:20:55Z</time>
      </trkpt>
      <trkpt lat="39.886448" lon="3.079081">
        <ele>4.1</ele>
        <time>2020-05-23T20:20:56Z</time>
      </trkpt>
      <trkpt lat="39.886379" lon="3.079106">
        <ele>4.1</ele>
        <time>2020-05-23T20:20:57Z</time>
      </trkpt>
      <trkpt lat="39.886299" lon="3.079136">
        <ele>4.1</ele>
        <time>2020-05-23T20:20:59Z</time>
      </trkpt>
      <trkpt lat="39.886219" lon="3.079166">
        <ele>4.1</ele>
        <time>2020-05-23T20:21:00Z</time>
      </trkpt>
      <trkpt lat="39.886135" lon="3.079196">
        <ele>4</ele>
        <time>2020-05-23T20:21:01Z</time>
      </trkpt>
      <trkpt lat="39.886066" lon="3.079221">
        <ele>4</ele>
        <time>2020-05-23T20:21:02Z</time>
      </trkpt>
      <trkpt lat="39.885982" lon="3.079252">
        <ele>4</ele>
        <time>2020-05-23T20:21:03Z</time>
      </trkpt>
      <trkpt lat="39.885899" lon="3.079282">
        <ele>4</ele>
        <time>2020-05-23T20:21:04Z</time>
      </trkpt>
      <trkpt lat="39.885815" lon="3.079313">
        <ele>4</ele>
        <time>2020-05-23T20:21:06Z</time>
      </trkpt>
      <trkpt lat="39.885731" lon="3.079344">
        <ele>4</ele>
        <time>2020-05-23T20:21:07Z</time>
      </trkpt>
      <trkpt lat="39.885647" lon="3.079375">
        <ele>3.9</ele>
        <time>2020-05-23T20:21:08Z</time>
      </trkpt>
      <trkpt lat="39.885567" lon="3.079406">
        <ele>3.9</ele>
        <time>2020-05-23T20:21:09Z</time>
      </trkpt>
      <trkpt lat="39.885483" lon="3.079433">
        <ele>3.9</ele>
        <time>2020-05-23T20:21:10Z</time>
      </trkpt>
      <trkpt lat="39.885426" lon="3.079443">
        <ele>3.9</ele>
        <time>2020-05-23T20:21:12Z</time>
      </trkpt>
      <trkpt lat="39.88541" lon="3.079445">
        <ele>3.9</ele>
        <time>2020-05-23T20:21:13Z</time>
      </trkpt>
      <trkpt lat="39.885464" lon="3.079489">
        <ele>3.9</ele>
        <time>2020-05-23T20:21:14Z</time>
      </trkpt>
      <trkpt lat="39.88549" lon="3.079479">
        <ele>3.9</ele>
        <time>2020-05-23T20:21:15Z</time>
      </trkpt>
      <trkpt lat="39.885532" lon="3.079463">
        <ele>3.9</ele>
        <time>2020-05-23T20:21:16Z</time>
      </trkpt>
      <trkpt lat="39.885582" lon="3.079444">
        <ele>3.9</ele>
        <time>2020-05-23T20:21:17Z</time>
      </trkpt>
      <trkpt lat="39.885628" lon="3.079426">
        <ele>4</ele>
        <time>2020-05-23T20:21:18Z</time>
      </trkpt>
      <trkpt lat="39.885666" lon="3.079411">
        <ele>4</ele>
        <time>2020-05-23T20:21:19Z</time>
      </trkpt>
      <trkpt lat="39.885708" lon="3.079395">
        <ele>4</ele>
        <time>2020-05-23T20:21:20Z</time>
      </trkpt>
      <trkpt lat="39.88575" lon="3.079379">
        <ele>4</ele>
        <time>2020-05-23T20:21:22Z</time>
      </trkpt>
      <trkpt lat="39.885784" lon="3.079367">
        <ele>4</ele>
        <time>2020-05-23T20:21:23Z</time>
      </trkpt>
    </trkseg>
  </trk>
</gpx>